<?xml version='1.0' encoding='UTF-8'?><gpx version="1.1" creator="JPX - https://github.com/jenetics/jpx" xmlns="http://www.topografix.com/GPX/1/1"><trk><trkseg><trkpt lat="45.603501027840764" lon="10.013325130139476"><ele>251.0</ele><time>2026-03-28T15:34:20.982Z</time></trkpt><trkpt lat="45.6036278095944" lon="10.013352510317238"><ele>251.00000000000003</ele><time>2026-03-28T15:34:42Z</time></trkpt><trkpt lat="45.603715569104914" lon="10.013408027352076"><ele>251.00000000000003</ele><time>2026-03-28T15:34:44Z</time></trkpt><trkpt lat="45.60379051960441" lon="10.013445316750763"><ele>251.0</ele><time>2026-03-28T15:34:47Z</time></trkpt><trkpt lat="45.60385995299801" lon="10.013556117234199"><ele>251.0</ele><time>2026-03-28T15:34:50Z</time></trkpt><trkpt lat="45.60393892991497" lon="10.013576932731032"><ele>249.66666666666669</ele><time>2026-03-28T15:34:51Z</time></trkpt><trkpt lat="45.60403511707525" lon="10.013567759527907"><ele>248.33333333333334</ele><time>2026-03-28T15:34:52Z</time></trkpt><trkpt lat="45.60412370424784" lon="10.013551842648381"><ele>247.0</ele><time>2026-03-28T15:34:53Z</time></trkpt><trkpt lat="45.60421512116613" lon="10.013547453664067"><ele>245.66666666666669</ele><time>2026-03-28T15:34:54Z</time></trkpt><trkpt lat="45.60430150065193" lon="10.01353771836787"><ele>244.33333333333334</ele><time>2026-03-28T15:34:55Z</time></trkpt><trkpt lat="45.60438264986227" lon="10.013537528688962"><ele>243.0</ele><time>2026-03-28T15:34:56Z</time></trkpt><trkpt lat="45.604452438125186" lon="10.013533985633595"><ele>241.8</ele><time>2026-03-28T15:34:57Z</time></trkpt><trkpt lat="45.60457361626853" lon="10.013558534004847"><ele>240.60000000000002</ele><time>2026-03-28T15:34:59Z</time></trkpt><trkpt lat="45.60464436755612" lon="10.013549359137528"><ele>239.39999999999998</ele><time>2026-03-28T15:35:00Z</time></trkpt><trkpt lat="45.60471677264147" lon="10.013689165404681"><ele>238.2</ele><time>2026-03-28T15:35:01Z</time></trkpt><trkpt lat="45.60478137221951" lon="10.013773649941399"><ele>237.0</ele><time>2026-03-28T15:35:02.001Z</time></trkpt><trkpt lat="45.60482145475128" lon="10.013897889367183"><ele>237.0</ele><time>2026-03-28T15:35:03.001Z</time></trkpt><trkpt lat="45.60488990015794" lon="10.013987778258304"><ele>237.0</ele><time>2026-03-28T15:35:04.001Z</time></trkpt><trkpt lat="45.60496207516081" lon="10.014044680175973"><ele>237.0</ele><time>2026-03-28T15:35:05.001Z</time></trkpt><trkpt lat="45.60502960852417" lon="10.014111980654974"><ele>237.0</ele><time>2026-03-28T15:35:06.001Z</time></trkpt><trkpt lat="45.60507856713071" lon="10.014205145604224"><ele>237.0</ele><time>2026-03-28T15:35:07.001Z</time></trkpt><trkpt lat="45.605088013010466" lon="10.014319588129622"><ele>237.0</ele><time>2026-03-28T15:35:08.001Z</time></trkpt><trkpt lat="45.60507492542828" lon="10.014425062339294"><ele>237.16666666666666</ele><time>2026-03-28T15:35:09.001Z</time></trkpt><trkpt lat="45.60505409927152" lon="10.014545858658268"><ele>237.33333333333331</ele><time>2026-03-28T15:35:10.001Z</time></trkpt><trkpt lat="45.60502467152733" lon="10.014684164224256"><ele>237.5</ele><time>2026-03-28T15:35:11.001Z</time></trkpt><trkpt lat="45.60499158246859" lon="10.014808661863935"><ele>237.66666666666666</ele><time>2026-03-28T15:35:12.001Z</time></trkpt><trkpt lat="45.60496106617989" lon="10.014899151284801"><ele>237.83333333333331</ele><time>2026-03-28T15:35:13.001Z</time></trkpt><trkpt lat="45.604925065401844" lon="10.014991635733036"><ele>238.0</ele><time>2026-03-28T15:35:14.001Z</time></trkpt><trkpt lat="45.604866805667484" lon="10.015086726972251"><ele>237.33333333333331</ele><time>2026-03-28T15:35:15.001Z</time></trkpt><trkpt lat="45.60480811865098" lon="10.015222876520944"><ele>236.66666666666669</ele><time>2026-03-28T15:35:17.001Z</time></trkpt><trkpt lat="45.60474209172943" lon="10.015305479733353"><ele>236.0</ele><time>2026-03-28T15:35:19.001Z</time></trkpt><trkpt lat="45.60493118571212" lon="10.015686012832928"><ele>236.0</ele><time>2026-03-28T15:35:20.001Z</time></trkpt><trkpt lat="45.60487922413011" lon="10.015765030936615"><ele>236.00000000000003</ele><time>2026-03-28T15:35:21.001Z</time></trkpt><trkpt lat="45.60478723934288" lon="10.015825154417943"><ele>236.00000000000003</ele><time>2026-03-28T15:35:22.001Z</time></trkpt><trkpt lat="45.60468223616973" lon="10.01585679175662"><ele>236.0</ele><time>2026-03-28T15:35:23.001Z</time></trkpt><trkpt lat="45.60457364524972" lon="10.015828302103914"><ele>236.0</ele><time>2026-03-28T15:35:24.001Z</time></trkpt><trkpt lat="45.60448532734355" lon="10.015836706412228"><ele>236.8</ele><time>2026-03-28T15:35:25.001Z</time></trkpt><trkpt lat="45.60442010023519" lon="10.015885526362183"><ele>237.60000000000002</ele><time>2026-03-28T15:35:26.001Z</time></trkpt><trkpt lat="45.60436444799417" lon="10.015965873890147"><ele>238.4</ele><time>2026-03-28T15:35:27.001Z</time></trkpt><trkpt lat="45.604229415278894" lon="10.015909281426179"><ele>239.2</ele><time>2026-03-28T15:35:28.001Z</time></trkpt><trkpt lat="45.60413638507407" lon="10.015976533081496"><ele>240.0</ele><time>2026-03-28T15:35:30.001Z</time></trkpt><trkpt lat="45.604308246544576" lon="10.01660962137244"><ele>238.5</ele><time>2026-03-28T15:35:32.001Z</time></trkpt><trkpt lat="45.604326157003605" lon="10.016764755808671"><ele>237.0</ele><time>2026-03-28T15:35:33.001Z</time></trkpt><trkpt lat="45.60433955737288" lon="10.016923453956343"><ele>235.5</ele><time>2026-03-28T15:35:34.001Z</time></trkpt><trkpt lat="45.604338358019916" lon="10.017094002992403"><ele>234.0</ele><time>2026-03-28T15:35:35.001Z</time></trkpt><trkpt lat="45.60431312693016" lon="10.01727866766844"><ele>234.0</ele><time>2026-03-28T15:35:36.001Z</time></trkpt><trkpt lat="45.60428615469609" lon="10.017459802409856"><ele>234.0</ele><time>2026-03-28T15:35:37.001Z</time></trkpt><trkpt lat="45.604255730195625" lon="10.01764666499697"><ele>234.0</ele><time>2026-03-28T15:35:38.001Z</time></trkpt><trkpt lat="45.60423654811597" lon="10.017839972295432"><ele>234.0</ele><time>2026-03-28T15:35:39.001Z</time></trkpt><trkpt lat="45.604247411235555" lon="10.018051334756148"><ele>233.5</ele><time>2026-03-28T15:35:40.001Z</time></trkpt><trkpt lat="45.604269003320354" lon="10.018267530267241"><ele>233.0</ele><time>2026-03-28T15:35:41.001Z</time></trkpt><trkpt lat="45.604273137400504" lon="10.018470619033149"><ele>232.5</ele><time>2026-03-28T15:35:42.001Z</time></trkpt><trkpt lat="45.60427529211068" lon="10.018658244595066"><ele>232.0</ele><time>2026-03-28T15:35:43.001Z</time></trkpt><trkpt lat="45.60427568699589" lon="10.018821780815914"><ele>231.99999999999997</ele><time>2026-03-28T15:35:44.001Z</time></trkpt><trkpt lat="45.604279849870096" lon="10.018955907114542"><ele>232.0</ele><time>2026-03-28T15:35:45.001Z</time></trkpt><trkpt lat="45.604272726739396" lon="10.019077754817747"><ele>232.0</ele><time>2026-03-28T15:35:46.001Z</time></trkpt><trkpt lat="45.60426318767785" lon="10.019178520077936"><ele>232.0</ele><time>2026-03-28T15:35:47.001Z</time></trkpt><trkpt lat="45.60419019984681" lon="10.019308623314279"><ele>231.99999999999997</ele><time>2026-03-28T15:35:49.001Z</time></trkpt><trkpt lat="45.60412465857198" lon="10.01934597443165"><ele>232.0</ele><time>2026-03-28T15:35:50.001Z</time></trkpt><trkpt lat="45.60404074470564" lon="10.019358993487403"><ele>232.2</ele><time>2026-03-28T15:35:51.001Z</time></trkpt><trkpt lat="45.60394981628374" lon="10.01937620748921"><ele>232.39999999999998</ele><time>2026-03-28T15:35:52.001Z</time></trkpt><trkpt lat="45.603852177295565" lon="10.01938738204377"><ele>232.60000000000002</ele><time>2026-03-28T15:35:53.001Z</time></trkpt><trkpt lat="45.60374756418166" lon="10.019381756445084"><ele>232.8</ele><time>2026-03-28T15:35:54.001Z</time></trkpt><trkpt lat="45.6036302393622" lon="10.01935529442566"><ele>233.0</ele><time>2026-03-28T15:35:55.001Z</time></trkpt><trkpt lat="45.60350037311629" lon="10.019335405444322"><ele>233.5</ele><time>2026-03-28T15:35:56.001Z</time></trkpt><trkpt lat="45.60336033032365" lon="10.019307820722325"><ele>234.0</ele><time>2026-03-28T15:35:57.001Z</time></trkpt><trkpt lat="45.60320562774718" lon="10.019269439491616"><ele>234.5</ele><time>2026-03-28T15:35:58.001Z</time></trkpt><trkpt lat="45.60305873070959" lon="10.019231323139113"><ele>235.0</ele><time>2026-03-28T15:35:59.001Z</time></trkpt><trkpt lat="45.60293744140372" lon="10.019204707742261"><ele>235.0</ele><time>2026-03-28T15:36:00.001Z</time></trkpt><trkpt lat="45.60284121390329" lon="10.01920980869259"><ele>235.0</ele><time>2026-03-28T15:36:01.001Z</time></trkpt><trkpt lat="45.60274657394416" lon="10.019225473643015"><ele>235.0</ele><time>2026-03-28T15:36:02.001Z</time></trkpt><trkpt lat="45.60265385929177" lon="10.01926419359378"><ele>235.0</ele><time>2026-03-28T15:36:03.002Z</time></trkpt><trkpt lat="45.60255921567451" lon="10.019305432896177"><ele>235.0</ele><time>2026-03-28T15:36:04.002Z</time></trkpt><trkpt lat="45.60246175710455" lon="10.019340305399094"><ele>235.2</ele><time>2026-03-28T15:36:05.002Z</time></trkpt><trkpt lat="45.602361564009485" lon="10.019378835127942"><ele>235.4</ele><time>2026-03-28T15:36:06.002Z</time></trkpt><trkpt lat="45.602258437263174" lon="10.019425322719114"><ele>235.60000000000002</ele><time>2026-03-28T15:36:07.002Z</time></trkpt><trkpt lat="45.60214836144993" lon="10.019466338558972"><ele>235.8</ele><time>2026-03-28T15:36:08.002Z</time></trkpt><trkpt lat="45.602035421228216" lon="10.019494051512982"><ele>236.0</ele><time>2026-03-28T15:36:09.002Z</time></trkpt><trkpt lat="45.601934838088326" lon="10.01951655617699"><ele>236.5</ele><time>2026-03-28T15:36:10.002Z</time></trkpt><trkpt lat="45.60183083216895" lon="10.019543092310087"><ele>237.0</ele><time>2026-03-28T15:36:11.002Z</time></trkpt><trkpt lat="45.601722785238216" lon="10.019569741081842"><ele>237.5</ele><time>2026-03-28T15:36:12.002Z</time></trkpt><trkpt lat="45.60160750569213" lon="10.019590707722726"><ele>238.0</ele><time>2026-03-28T15:36:13.002Z</time></trkpt><trkpt lat="45.601489836977066" lon="10.01962253159624"><ele>238.0</ele><time>2026-03-28T15:36:14.002Z</time></trkpt><trkpt lat="45.60137099816155" lon="10.01964529236551"><ele>238.0</ele><time>2026-03-28T15:36:15.002Z</time></trkpt><trkpt lat="45.60125444141982" lon="10.019661823040229"><ele>238.0</ele><time>2026-03-28T15:36:16.002Z</time></trkpt><trkpt lat="45.60116416791085" lon="10.01967684731121"><ele>238.0</ele><time>2026-03-28T15:36:17.002Z</time></trkpt><trkpt lat="45.601077086188546" lon="10.019599348110946"><ele>238.0</ele><time>2026-03-28T15:36:19.002Z</time></trkpt><trkpt lat="45.60106792710639" lon="10.019465223739266"><ele>238.25</ele><time>2026-03-28T15:36:20.002Z</time></trkpt><trkpt lat="45.601065445532" lon="10.019302417252966"><ele>238.5</ele><time>2026-03-28T15:36:21.002Z</time></trkpt><trkpt lat="45.601040671160995" lon="10.01913948377223"><ele>238.75</ele><time>2026-03-28T15:36:22.002Z</time></trkpt><trkpt lat="45.60098478974925" lon="10.018979488634166"><ele>239.0</ele><time>2026-03-28T15:36:23.002Z</time></trkpt><trkpt lat="45.600939083436145" lon="10.018805635804135"><ele>240.6</ele><time>2026-03-28T15:36:24.002Z</time></trkpt><trkpt lat="45.600916956175084" lon="10.018648260097478"><ele>242.2</ele><time>2026-03-28T15:36:25.002Z</time></trkpt><trkpt lat="45.60091012653042" lon="10.018531730207082"><ele>243.79999999999998</ele><time>2026-03-28T15:36:26.002Z</time></trkpt><trkpt lat="45.60095129207276" lon="10.01843470844726"><ele>245.39999999999998</ele><time>2026-03-28T15:36:28.002Z</time></trkpt><trkpt lat="45.601025183000885" lon="10.018381250166177"><ele>247.0</ele><time>2026-03-28T15:36:29.002Z</time></trkpt><trkpt lat="45.60113606505663" lon="10.018330127339546"><ele>246.33333333333331</ele><time>2026-03-28T15:36:30.002Z</time></trkpt><trkpt lat="45.60125766614895" lon="10.018253217603876"><ele>245.66666666666669</ele><time>2026-03-28T15:36:31.002Z</time></trkpt><trkpt lat="45.60140608686948" lon="10.018163137173094"><ele>245.0</ele><time>2026-03-28T15:36:32.002Z</time></trkpt><trkpt lat="45.60155337762788" lon="10.017942147475734"><ele>245.0</ele><time>2026-03-28T15:36:33.001Z</time></trkpt><trkpt lat="45.601748597451696" lon="10.017853243158934"><ele>245.0</ele><time>2026-03-28T15:36:34.001Z</time></trkpt><trkpt lat="45.60194901903269" lon="10.017761969928005"><ele>245.0</ele><time>2026-03-28T15:36:35.001Z</time></trkpt><trkpt lat="45.602163881324785" lon="10.017693455009272"><ele>245.33333333333334</ele><time>2026-03-28T15:36:36.001Z</time></trkpt><trkpt lat="45.60236228514661" lon="10.017543219484898"><ele>245.66666666666669</ele><time>2026-03-28T15:36:37.001Z</time></trkpt><trkpt lat="45.60254025693417" lon="10.017409398280538"><ele>246.0</ele><time>2026-03-28T15:36:38.001Z</time></trkpt><trkpt lat="45.60269010661367" lon="10.017282875267664"><ele>246.0</ele><time>2026-03-28T15:36:39.001Z</time></trkpt><trkpt lat="45.602823484338735" lon="10.01715208831434"><ele>246.0</ele><time>2026-03-28T15:36:40.001Z</time></trkpt><trkpt lat="45.602945621262286" lon="10.016995890848136"><ele>246.0</ele><time>2026-03-28T15:36:41.001Z</time></trkpt><trkpt lat="45.603062819747336" lon="10.016844894181434"><ele>246.33333333333331</ele><time>2026-03-28T15:36:42.001Z</time></trkpt><trkpt lat="45.60321819083265" lon="10.016753186954318"><ele>246.66666666666666</ele><time>2026-03-28T15:36:43.001Z</time></trkpt><trkpt lat="45.603384562612966" lon="10.016641471046722"><ele>247.0</ele><time>2026-03-28T15:36:44.001Z</time></trkpt><trkpt lat="45.60355829917805" lon="10.016503061348631"><ele>244.66666666666666</ele><time>2026-03-28T15:36:45.001Z</time></trkpt><trkpt lat="45.60374686641734" lon="10.016352543096984"><ele>242.33333333333331</ele><time>2026-03-28T15:36:46.001Z</time></trkpt><trkpt lat="45.603922536301496" lon="10.01618503987949"><ele>240.0</ele><time>2026-03-28T15:36:47.001Z</time></trkpt><trkpt lat="45.60407944357499" lon="10.016074764951462"><ele>240.0</ele><time>2026-03-28T15:36:48.001Z</time></trkpt><trkpt lat="45.604199570270694" lon="10.015980510622294"><ele>240.0</ele><time>2026-03-28T15:36:49.001Z</time></trkpt><trkpt lat="45.60428649309471" lon="10.015891104688205"><ele>240.0</ele><time>2026-03-28T15:36:50.001Z</time></trkpt><trkpt lat="45.604384376900306" lon="10.015775873998122"><ele>240.0</ele><time>2026-03-28T15:36:51.001Z</time></trkpt><trkpt lat="45.60448617500206" lon="10.015595216138056"><ele>238.66666666666669</ele><time>2026-03-28T15:36:52.001Z</time></trkpt><trkpt lat="45.604613822205316" lon="10.015426392022917"><ele>237.33333333333334</ele><time>2026-03-28T15:36:53.001Z</time></trkpt><trkpt lat="45.60474332879636" lon="10.01527406236672"><ele>236.0</ele><time>2026-03-28T15:36:54.001Z</time></trkpt><trkpt lat="45.604851809738655" lon="10.015133772354547"><ele>236.0</ele><time>2026-03-28T15:36:55.001Z</time></trkpt><trkpt lat="45.60495065512922" lon="10.015014886133574"><ele>236.0</ele><time>2026-03-28T15:36:56.001Z</time></trkpt><trkpt lat="45.6050241479794" lon="10.014842680705597"><ele>236.0</ele><time>2026-03-28T15:36:57.001Z</time></trkpt><trkpt lat="45.60507549263959" lon="10.014630313403503"><ele>236.0</ele><time>2026-03-28T15:36:58.001Z</time></trkpt><trkpt lat="45.60510560434974" lon="10.014427959647898"><ele>236.20000000000002</ele><time>2026-03-28T15:36:59.001Z</time></trkpt><trkpt lat="45.60511360649475" lon="10.014279885231872"><ele>236.40000000000003</ele><time>2026-03-28T15:37:00.001Z</time></trkpt><trkpt lat="45.605094131126904" lon="10.014163880777717"><ele>236.6</ele><time>2026-03-28T15:37:01.001Z</time></trkpt><trkpt lat="45.605041894431885" lon="10.014073937359903"><ele>236.8</ele><time>2026-03-28T15:37:02.001Z</time></trkpt><trkpt lat="45.60495751257462" lon="10.013989870286835"><ele>237.0</ele><time>2026-03-28T15:37:03.001Z</time></trkpt><trkpt lat="45.60484615490385" lon="10.013896028832324"><ele>237.0</ele><time>2026-03-28T15:37:04.001Z</time></trkpt><trkpt lat="45.604774412098365" lon="10.013717437904782"><ele>237.0</ele><time>2026-03-28T15:37:05.001Z</time></trkpt><trkpt lat="45.604657878161845" lon="10.013589492782575"><ele>237.0</ele><time>2026-03-28T15:37:06.001Z</time></trkpt><trkpt lat="45.60457118807828" lon="10.01347381278389"><ele>237.0</ele><time>2026-03-28T15:37:07.001Z</time></trkpt><trkpt lat="45.604509694977004" lon="10.013381729223086"><ele>239.0</ele><time>2026-03-28T15:37:08.001Z</time></trkpt><trkpt lat="45.60431863688752" lon="10.013501530181912"><ele>241.0</ele><time>2026-03-28T15:37:09.001Z</time></trkpt><trkpt lat="45.60418612865047" lon="10.013517464884929"><ele>243.0</ele><time>2026-03-28T15:37:10.001Z</time></trkpt><trkpt lat="45.60402261653986" lon="10.01351824589757"><ele>243.0</ele><time>2026-03-28T15:37:11.001Z</time></trkpt><trkpt lat="45.60386574937742" lon="10.013540172591304"><ele>243.0</ele><time>2026-03-28T15:37:12.001Z</time></trkpt><trkpt lat="45.603774461943075" lon="10.013410864662312"><ele>243.0</ele><time>2026-03-28T15:37:13.001Z</time></trkpt><trkpt lat="45.60365240125303" lon="10.013367761348356"><ele>243.0</ele><time>2026-03-28T15:37:14.001Z</time></trkpt><trkpt lat="45.60352918775227" lon="10.013344634025309"><ele>244.60000000000002</ele><time>2026-03-28T15:37:15.001Z</time></trkpt><trkpt lat="45.6034471214831" lon="10.013328627914916"><ele>246.20000000000002</ele><time>2026-03-28T15:37:16.001Z</time></trkpt><trkpt lat="45.60337154745306" lon="10.013335222074133"><ele>247.8</ele><time>2026-03-28T15:37:18.001Z</time></trkpt><trkpt lat="45.603383820876466" lon="10.013079431430677"><ele>249.4</ele><time>2026-03-28T15:37:20.001Z</time></trkpt><trkpt lat="45.60347392929017" lon="10.013005796788692"><ele>251.0</ele><time>2026-03-28T15:37:22.001Z</time></trkpt><trkpt lat="45.60333370533337" lon="10.012916798360768"><ele>251.0</ele><time>2026-03-28T15:37:23.001Z</time></trkpt><trkpt lat="45.603471029466036" lon="10.012903096921265"><ele>251.00000000000003</ele><time>2026-03-28T15:37:57.001Z</time></trkpt><trkpt lat="45.60345914964291" lon="10.013017897271709"><ele>251.00000000000003</ele><time>2026-03-28T15:38:21.001Z</time></trkpt><trkpt lat="45.603410156982385" lon="10.01316972968824"><ele>251.0</ele><time>2026-03-28T15:38:23.001Z</time></trkpt><trkpt lat="45.60341471457018" lon="10.01329766619129"><ele>251.0</ele><time>2026-03-28T15:38:25.001Z</time></trkpt><trkpt lat="45.60344140398068" lon="10.013384277640437"><ele>251.0</ele><time>2026-03-28T15:38:26.001Z</time></trkpt><trkpt lat="45.60355090495476" lon="10.013358746590729"><ele>251.00000000000003</ele><time>2026-03-28T15:38:27.001Z</time></trkpt><trkpt lat="45.60361591637559" lon="10.013409653822285"><ele>251.00000000000003</ele><time>2026-03-28T15:38:35.001Z</time></trkpt><trkpt lat="45.603679139684594" lon="10.013419960808557"><ele>251.0</ele><time>2026-03-28T15:38:36.001Z</time></trkpt><trkpt lat="45.60376153545671" lon="10.013458165199943"><ele>251.0</ele><time>2026-03-28T15:38:37.001Z</time></trkpt><trkpt lat="45.60385429771682" lon="10.01355663413143"><ele>249.0</ele><time>2026-03-28T15:38:38.001Z</time></trkpt><trkpt lat="45.60399561864042" lon="10.013565376433695"><ele>247.0</ele><time>2026-03-28T15:38:39.001Z</time></trkpt><trkpt lat="45.6041285101749" lon="10.013565558466555"><ele>245.0</ele><time>2026-03-28T15:38:40.001Z</time></trkpt><trkpt lat="45.604285233092" lon="10.013561657603079"><ele>243.0</ele><time>2026-03-28T15:38:41.001Z</time></trkpt><trkpt lat="45.6044044819364" lon="10.013557573950573"><ele>243.0</ele><time>2026-03-28T15:38:42.001Z</time></trkpt><trkpt lat="45.604474224389925" lon="10.01355518563372"><ele>243.0</ele><time>2026-03-28T15:38:43.001Z</time></trkpt><trkpt lat="45.604585343209834" lon="10.013551380393015"><ele>243.0</ele><time>2026-03-28T15:38:44.001Z</time></trkpt><trkpt lat="45.60464028186732" lon="10.013630085026394"><ele>243.0</ele><time>2026-03-28T15:38:45.001Z</time></trkpt><trkpt lat="45.60471611704015" lon="10.013713761117126"><ele>243.0</ele><time>2026-03-28T15:38:46.001Z</time></trkpt><trkpt lat="45.6047897203717" lon="10.013798524688255"><ele>243.0</ele><time>2026-03-28T15:38:47.001Z</time></trkpt><trkpt lat="45.6048494732933" lon="10.013946429103717"><ele>242.16666666666666</ele><time>2026-03-28T15:38:48.001Z</time></trkpt><trkpt lat="45.604928288693436" lon="10.014018805609416"><ele>241.33333333333331</ele><time>2026-03-28T15:38:49.001Z</time></trkpt><trkpt lat="45.604920137382116" lon="10.01388789108992"><ele>240.5</ele><time>2026-03-28T15:38:52Z</time></trkpt><trkpt lat="45.604999291153185" lon="10.013922966554844"><ele>239.66666666666666</ele><time>2026-03-28T15:39:00Z</time></trkpt><trkpt lat="45.605046335208094" lon="10.014029940954815"><ele>238.83333333333331</ele><time>2026-03-28T15:39:01Z</time></trkpt><trkpt lat="45.60509593733816" lon="10.014128167158908"><ele>238.0</ele><time>2026-03-28T15:39:02Z</time></trkpt><trkpt lat="45.60508703990712" lon="10.014282593819543"><ele>238.0</ele><time>2026-03-28T15:39:03Z</time></trkpt><trkpt lat="45.60515042794038" lon="10.014420679872652"><ele>238.0</ele><time>2026-03-28T15:39:04Z</time></trkpt><trkpt lat="45.605114270032836" lon="10.014644383666862"><ele>238.0</ele><time>2026-03-28T15:39:05Z</time></trkpt><trkpt lat="45.6050639678222" lon="10.014838742668674"><ele>238.0</ele><time>2026-03-28T15:39:06Z</time></trkpt><trkpt lat="45.60500533069017" lon="10.01496242517162"><ele>237.60000000000002</ele><time>2026-03-28T15:39:07Z</time></trkpt><trkpt lat="45.60493799593804" lon="10.015072831474114"><ele>237.20000000000002</ele><time>2026-03-28T15:39:08Z</time></trkpt><trkpt lat="45.60489976798719" lon="10.015179386149518"><ele>236.8</ele><time>2026-03-28T15:39:09Z</time></trkpt><trkpt lat="45.604893918068775" lon="10.015280598069493"><ele>236.4</ele><time>2026-03-28T15:39:10Z</time></trkpt><trkpt lat="45.60491326123084" lon="10.015372412586826"><ele>236.0</ele><time>2026-03-28T15:39:11Z</time></trkpt><trkpt lat="45.604935283993235" lon="10.01555860128826"><ele>236.0</ele><time>2026-03-28T15:39:13Z</time></trkpt><trkpt lat="45.60492852982436" lon="10.015690271904091"><ele>236.00000000000003</ele><time>2026-03-28T15:39:14Z</time></trkpt><trkpt lat="45.604889680609915" lon="10.015766184227662"><ele>236.00000000000003</ele><time>2026-03-28T15:39:15Z</time></trkpt><trkpt lat="45.60479450733755" lon="10.015819505092093"><ele>236.0</ele><time>2026-03-28T15:39:16Z</time></trkpt><trkpt lat="45.60466699179851" lon="10.015847921425504"><ele>236.0</ele><time>2026-03-28T15:39:17Z</time></trkpt><trkpt lat="45.60453214677452" lon="10.015833880213172"><ele>237.0</ele><time>2026-03-28T15:39:18Z</time></trkpt><trkpt lat="45.60442220120285" lon="10.01586880410796"><ele>238.0</ele><time>2026-03-28T15:39:19Z</time></trkpt><trkpt lat="45.6043508557079" lon="10.015962704254688"><ele>239.0</ele><time>2026-03-28T15:39:20Z</time></trkpt><trkpt lat="45.60429041319293" lon="10.016097061432198"><ele>240.0</ele><time>2026-03-28T15:39:21Z</time></trkpt><trkpt lat="45.60425454832299" lon="10.016277962717464"><ele>240.0</ele><time>2026-03-28T15:39:22Z</time></trkpt><trkpt lat="45.60426798035374" lon="10.016492681410053"><ele>240.0</ele><time>2026-03-28T15:39:23Z</time></trkpt><trkpt lat="45.60430506358991" lon="10.016727988847805"><ele>240.0</ele><time>2026-03-28T15:39:24Z</time></trkpt><trkpt lat="45.60432051061291" lon="10.016921277676984"><ele>238.5</ele><time>2026-03-28T15:39:25Z</time></trkpt><trkpt lat="45.60431488043355" lon="10.017096414712224"><ele>237.0</ele><time>2026-03-28T15:39:26Z</time></trkpt><trkpt lat="45.6043017118678" lon="10.017257284786814"><ele>235.5</ele><time>2026-03-28T15:39:27Z</time></trkpt><trkpt lat="45.60428183084497" lon="10.01742835155391"><ele>234.0</ele><time>2026-03-28T15:39:28Z</time></trkpt><trkpt lat="45.604256550446685" lon="10.017592905201987"><ele>233.5</ele><time>2026-03-28T15:39:29Z</time></trkpt><trkpt lat="45.60423156394168" lon="10.017755884071857"><ele>233.0</ele><time>2026-03-28T15:39:30Z</time></trkpt><trkpt lat="45.60423006493396" lon="10.017921358420407"><ele>232.5</ele><time>2026-03-28T15:39:31Z</time></trkpt><trkpt lat="45.60426166529108" lon="10.01808344283958"><ele>232.0</ele><time>2026-03-28T15:39:32Z</time></trkpt><trkpt lat="45.60427037695366" lon="10.01826713504716"><ele>232.0</ele><time>2026-03-28T15:39:33Z</time></trkpt><trkpt lat="45.604268562064995" lon="10.018435052612615"><ele>232.0</ele><time>2026-03-28T15:39:34Z</time></trkpt><trkpt lat="45.60426992630828" lon="10.018608927459685"><ele>232.0</ele><time>2026-03-28T15:39:35Z</time></trkpt><trkpt lat="45.60427139561007" lon="10.018780044177415"><ele>232.0</ele><time>2026-03-28T15:39:36Z</time></trkpt><trkpt lat="45.60427096574341" lon="10.018943488859568"><ele>232.0</ele><time>2026-03-28T15:39:37Z</time></trkpt><trkpt lat="45.604266859891254" lon="10.019102537769507"><ele>232.0</ele><time>2026-03-28T15:39:38Z</time></trkpt><trkpt lat="45.6042530347172" lon="10.019224093235724"><ele>232.0</ele><time>2026-03-28T15:39:39Z</time></trkpt><trkpt lat="45.604211711318776" lon="10.019315928244403"><ele>232.0</ele><time>2026-03-28T15:39:40Z</time></trkpt><trkpt lat="45.60414101218492" lon="10.019378620497683"><ele>232.0</ele><time>2026-03-28T15:39:41Z</time></trkpt><trkpt lat="45.604026432125934" lon="10.019387461743891"><ele>232.25</ele><time>2026-03-28T15:39:42Z</time></trkpt><trkpt lat="45.60387746211056" lon="10.019380009976203"><ele>232.5</ele><time>2026-03-28T15:39:43Z</time></trkpt><trkpt lat="45.60373857564468" lon="10.019379640091799"><ele>232.75</ele><time>2026-03-28T15:39:44Z</time></trkpt><trkpt lat="45.603590116958486" lon="10.01935917158718"><ele>233.0</ele><time>2026-03-28T15:39:45Z</time></trkpt><trkpt lat="45.60339779987394" lon="10.019330764752633"><ele>233.66666666666669</ele><time>2026-03-28T15:39:46Z</time></trkpt><trkpt lat="45.6032226406802" lon="10.019287692713942"><ele>234.33333333333331</ele><time>2026-03-28T15:39:47Z</time></trkpt><trkpt lat="45.60308132094444" lon="10.019239022904898"><ele>235.0</ele><time>2026-03-28T15:39:48Z</time></trkpt><trkpt lat="45.60295435198857" lon="10.019212661098342"><ele>235.25</ele><time>2026-03-28T15:39:49Z</time></trkpt><trkpt lat="45.6028261752627" lon="10.019210921274066"><ele>235.5</ele><time>2026-03-28T15:39:50Z</time></trkpt><trkpt lat="45.602695835727594" lon="10.019234766965713"><ele>235.75</ele><time>2026-03-28T15:39:51Z</time></trkpt><trkpt lat="45.60253858459076" lon="10.019283566849507"><ele>236.0</ele><time>2026-03-28T15:39:52Z</time></trkpt><trkpt lat="45.6023715975732" lon="10.01935338686648"><ele>236.0</ele><time>2026-03-28T15:39:53Z</time></trkpt><trkpt lat="45.60218473654179" lon="10.019441344618828"><ele>236.0</ele><time>2026-03-28T15:39:54Z</time></trkpt><trkpt lat="45.602012333476736" lon="10.019517471036405"><ele>236.0</ele><time>2026-03-28T15:39:55Z</time></trkpt><trkpt lat="45.60187162821737" lon="10.019556963085611"><ele>236.5</ele><time>2026-03-28T15:39:56Z</time></trkpt><trkpt lat="45.601741230831834" lon="10.019584805663708"><ele>237.0</ele><time>2026-03-28T15:39:57Z</time></trkpt><trkpt lat="45.601598270375696" lon="10.019602503044007"><ele>237.5</ele><time>2026-03-28T15:39:58Z</time></trkpt><trkpt lat="45.601457994179086" lon="10.019629480675672"><ele>238.0</ele><time>2026-03-28T15:39:59Z</time></trkpt><trkpt lat="45.6013385197532" lon="10.01963747124136"><ele>238.0</ele><time>2026-03-28T15:40:00Z</time></trkpt><trkpt lat="45.601232818538556" lon="10.019650817979919"><ele>238.0</ele><time>2026-03-28T15:40:01Z</time></trkpt><trkpt lat="45.60112604692429" lon="10.019669872734942"><ele>238.0</ele><time>2026-03-28T15:40:02Z</time></trkpt><trkpt lat="45.60101305721297" lon="10.019708034968916"><ele>238.0</ele><time>2026-03-28T15:40:03Z</time></trkpt><trkpt lat="45.60089668712132" lon="10.019738561820837"><ele>238.0</ele><time>2026-03-28T15:40:04Z</time></trkpt><trkpt lat="45.60079066829721" lon="10.019810641071153"><ele>238.0</ele><time>2026-03-28T15:40:05Z</time></trkpt><trkpt lat="45.600694205917335" lon="10.019892947160743"><ele>238.0</ele><time>2026-03-28T15:40:06Z</time></trkpt><trkpt lat="45.6006001016988" lon="10.019985930288868"><ele>238.0</ele><time>2026-03-28T15:40:07Z</time></trkpt><trkpt lat="45.6004962622388" lon="10.020075112770705"><ele>238.0</ele><time>2026-03-28T15:40:08Z</time></trkpt><trkpt lat="45.6003828163571" lon="10.02016188927511"><ele>238.5</ele><time>2026-03-28T15:40:09Z</time></trkpt><trkpt lat="45.6002683323793" lon="10.02025297172995"><ele>239.0</ele><time>2026-03-28T15:40:10Z</time></trkpt><trkpt lat="45.600149903051985" lon="10.02033171017194"><ele>239.5</ele><time>2026-03-28T15:40:11Z</time></trkpt><trkpt lat="45.60002012336873" lon="10.020404031935461"><ele>240.0</ele><time>2026-03-28T15:40:12Z</time></trkpt><trkpt lat="45.599889342150085" lon="10.020471946227872"><ele>240.0</ele><time>2026-03-28T15:40:13Z</time></trkpt><trkpt lat="45.59976210954045" lon="10.020544288841675"><ele>240.0</ele><time>2026-03-28T15:40:14Z</time></trkpt><trkpt lat="45.59963902125915" lon="10.020624557129178"><ele>240.0</ele><time>2026-03-28T15:40:15Z</time></trkpt><trkpt lat="45.599512117000586" lon="10.020698701762594"><ele>240.0</ele><time>2026-03-28T15:40:16Z</time></trkpt><trkpt lat="45.599382329828344" lon="10.020758391551864"><ele>240.25</ele><time>2026-03-28T15:40:17Z</time></trkpt><trkpt lat="45.59924904689242" lon="10.020814272316805"><ele>240.5</ele><time>2026-03-28T15:40:18Z</time></trkpt><trkpt lat="45.59911027301218" lon="10.020867328851386"><ele>240.75</ele><time>2026-03-28T15:40:19Z</time></trkpt><trkpt lat="45.598980197872265" lon="10.020912870742814"><ele>241.0</ele><time>2026-03-28T15:40:20Z</time></trkpt><trkpt lat="45.59884105102831" lon="10.020959061394972"><ele>241.0</ele><time>2026-03-28T15:40:21Z</time></trkpt><trkpt lat="45.59870713114945" lon="10.020997542952676"><ele>241.0</ele><time>2026-03-28T15:40:22Z</time></trkpt><trkpt lat="45.59857214135392" lon="10.021038594043322"><ele>241.0</ele><time>2026-03-28T15:40:23Z</time></trkpt><trkpt lat="45.59843608187632" lon="10.021069872163977"><ele>241.0</ele><time>2026-03-28T15:40:24Z</time></trkpt><trkpt lat="45.59829583665426" lon="10.02107755249269"><ele>241.0</ele><time>2026-03-28T15:40:25Z</time></trkpt><trkpt lat="45.59815047734498" lon="10.021060611430025"><ele>241.0</ele><time>2026-03-28T15:40:26Z</time></trkpt><trkpt lat="45.598001336440646" lon="10.021049129832674"><ele>241.0</ele><time>2026-03-28T15:40:27Z</time></trkpt><trkpt lat="45.59784644446607" lon="10.021027090959217"><ele>241.0</ele><time>2026-03-28T15:40:28Z</time></trkpt><trkpt lat="45.59766731520577" lon="10.021007053959135"><ele>241.0</ele><time>2026-03-28T15:40:29Z</time></trkpt><trkpt lat="45.59752812340117" lon="10.021001027512614"><ele>241.0</ele><time>2026-03-28T15:40:30Z</time></trkpt><trkpt lat="45.59739423334315" lon="10.02101686599423"><ele>241.0</ele><time>2026-03-28T15:40:31Z</time></trkpt><trkpt lat="45.5972541110999" lon="10.021046041935755"><ele>241.0</ele><time>2026-03-28T15:40:32Z</time></trkpt><trkpt lat="45.597114773693434" lon="10.02107406585071"><ele>241.0</ele><time>2026-03-28T15:40:33Z</time></trkpt><trkpt lat="45.59695063429851" lon="10.021090177397022"><ele>241.0</ele><time>2026-03-28T15:40:34Z</time></trkpt><trkpt lat="45.59676946176108" lon="10.02107047055976"><ele>239.66666666666666</ele><time>2026-03-28T15:40:35Z</time></trkpt><trkpt lat="45.59659274267305" lon="10.02108722709625"><ele>238.33333333333331</ele><time>2026-03-28T15:40:36Z</time></trkpt><trkpt lat="45.596422864001944" lon="10.021079923858544"><ele>237.0</ele><time>2026-03-28T15:40:37Z</time></trkpt><trkpt lat="45.59625100074733" lon="10.021076427804427"><ele>235.33333333333331</ele><time>2026-03-28T15:40:38Z</time></trkpt><trkpt lat="45.5960780598762" lon="10.021068623203492"><ele>233.66666666666666</ele><time>2026-03-28T15:40:39Z</time></trkpt><trkpt lat="45.59592251478049" lon="10.021040898051377"><ele>232.0</ele><time>2026-03-28T15:40:40Z</time></trkpt><trkpt lat="45.59578312424881" lon="10.021039214292836"><ele>232.0</ele><time>2026-03-28T15:40:41Z</time></trkpt><trkpt lat="45.59565979378923" lon="10.021046881923152"><ele>232.0</ele><time>2026-03-28T15:40:42Z</time></trkpt><trkpt lat="45.59555269302152" lon="10.02105722427128"><ele>232.0</ele><time>2026-03-28T15:40:43Z</time></trkpt><trkpt lat="45.595450892381635" lon="10.021070314386373"><ele>232.0</ele><time>2026-03-28T15:40:44Z</time></trkpt><trkpt lat="45.59533219352567" lon="10.021090861886202"><ele>231.25</ele><time>2026-03-28T15:40:45Z</time></trkpt><trkpt lat="45.59520086953008" lon="10.02113154182349"><ele>230.5</ele><time>2026-03-28T15:40:46Z</time></trkpt><trkpt lat="45.5950591964927" lon="10.021159258948035"><ele>229.75</ele><time>2026-03-28T15:40:47Z</time></trkpt><trkpt lat="45.594912781950335" lon="10.021196537997781"><ele>229.0</ele><time>2026-03-28T15:40:48Z</time></trkpt><trkpt lat="45.59475728341235" lon="10.021285947529108"><ele>229.0</ele><time>2026-03-28T15:40:49Z</time></trkpt><trkpt lat="45.59459634408194" lon="10.02144974450067"><ele>229.0</ele><time>2026-03-28T15:40:50Z</time></trkpt><trkpt lat="45.59445153795691" lon="10.021632535661015"><ele>229.0</ele><time>2026-03-28T15:40:51Z</time></trkpt><trkpt lat="45.59432038505769" lon="10.021783776087833"><ele>229.0</ele><time>2026-03-28T15:40:52Z</time></trkpt><trkpt lat="45.5942243624414" lon="10.021885977558343"><ele>228.99999999999997</ele><time>2026-03-28T15:40:53Z</time></trkpt><trkpt lat="45.59413803114229" lon="10.021947372576937"><ele>228.99999999999997</ele><time>2026-03-28T15:40:55Z</time></trkpt><trkpt lat="45.59408900331772" lon="10.022052838720846"><ele>229.0</ele><time>2026-03-28T15:41:04Z</time></trkpt><trkpt lat="45.59419337308475" lon="10.022157171720654"><ele>229.0</ele><time>2026-03-28T15:41:05Z</time></trkpt><trkpt lat="45.59430786456077" lon="10.022237806483279"><ele>229.0</ele><time>2026-03-28T15:41:06Z</time></trkpt><trkpt lat="45.59445212174448" lon="10.022358198772585"><ele>229.0</ele><time>2026-03-28T15:41:07Z</time></trkpt><trkpt lat="45.59460009022806" lon="10.022476301348663"><ele>229.0</ele><time>2026-03-28T15:41:08Z</time></trkpt><trkpt lat="45.594750151329706" lon="10.02260582482971"><ele>230.0</ele><time>2026-03-28T15:41:09Z</time></trkpt><trkpt lat="45.59486322769043" lon="10.022703049744154"><ele>231.0</ele><time>2026-03-28T15:41:10Z</time></trkpt><trkpt lat="45.594926816637695" lon="10.022738095104536"><ele>232.0</ele><time>2026-03-28T15:41:12Z</time></trkpt><trkpt lat="45.59486991406113" lon="10.022919654060097"><ele>233.0</ele><time>2026-03-28T15:41:14Z</time></trkpt><trkpt lat="45.594842109576334" lon="10.02308501856037"><ele>233.0</ele><time>2026-03-28T15:41:15Z</time></trkpt><trkpt lat="45.594796845697275" lon="10.02328879798648"><ele>233.0</ele><time>2026-03-28T15:41:16Z</time></trkpt><trkpt lat="45.59476069950062" lon="10.0235255631611"><ele>233.0</ele><time>2026-03-28T15:41:17Z</time></trkpt><trkpt lat="45.59474747812648" lon="10.023710652078762"><ele>233.0</ele><time>2026-03-28T15:41:18Z</time></trkpt><trkpt lat="45.594708376321066" lon="10.023868502598475"><ele>233.0</ele><time>2026-03-28T15:41:20Z</time></trkpt><trkpt lat="45.594615673574324" lon="10.023923730719979"><ele>233.0</ele><time>2026-03-28T15:41:21Z</time></trkpt><trkpt lat="45.59453888401238" lon="10.024099454458373"><ele>233.0</ele><time>2026-03-28T15:41:22Z</time></trkpt><trkpt lat="45.59451631951822" lon="10.024259234336634"><ele>233.0</ele><time>2026-03-28T15:41:23Z</time></trkpt><trkpt lat="45.594556245264364" lon="10.02439490536819"><ele>233.0</ele><time>2026-03-28T15:41:24Z</time></trkpt><trkpt lat="45.59463137178821" lon="10.024513411863733"><ele>233.0</ele><time>2026-03-28T15:41:25Z</time></trkpt><trkpt lat="45.59476044226077" lon="10.0246357254625"><ele>233.0</ele><time>2026-03-28T15:41:26Z</time></trkpt><trkpt lat="45.5949066541964" lon="10.024782795413095"><ele>233.0</ele><time>2026-03-28T15:41:27Z</time></trkpt><trkpt lat="45.59506916730054" lon="10.02495219639923"><ele>234.66666666666669</ele><time>2026-03-28T15:41:28Z</time></trkpt><trkpt lat="45.595247397673454" lon="10.025125681617485"><ele>236.33333333333331</ele><time>2026-03-28T15:41:29Z</time></trkpt><trkpt lat="45.595433264129035" lon="10.025313443069352"><ele>238.0</ele><time>2026-03-28T15:41:30Z</time></trkpt><trkpt lat="45.59561064514943" lon="10.025515678248388"><ele>238.0</ele><time>2026-03-28T15:41:31Z</time></trkpt><trkpt lat="45.595745451796766" lon="10.025750576271149"><ele>238.0</ele><time>2026-03-28T15:41:32Z</time></trkpt><trkpt lat="45.59589614906755" lon="10.025963503093035"><ele>238.0</ele><time>2026-03-28T15:41:33Z</time></trkpt><trkpt lat="45.59602889463332" lon="10.02618802618787"><ele>239.0</ele><time>2026-03-28T15:41:34Z</time></trkpt><trkpt lat="45.596188400567755" lon="10.026374659203718"><ele>240.0</ele><time>2026-03-28T15:41:35Z</time></trkpt><trkpt lat="45.596355889188864" lon="10.026542143982054"><ele>241.0</ele><time>2026-03-28T15:41:36Z</time></trkpt><trkpt lat="45.59652985788041" lon="10.026700239711316"><ele>240.0</ele><time>2026-03-28T15:41:37Z</time></trkpt><trkpt lat="45.59670338040721" lon="10.026863055884185"><ele>239.0</ele><time>2026-03-28T15:41:38Z</time></trkpt><trkpt lat="45.59687949858466" lon="10.027021264849049"><ele>238.0</ele><time>2026-03-28T15:41:39Z</time></trkpt><trkpt lat="45.59706177448347" lon="10.027160910918532"><ele>238.0</ele><time>2026-03-28T15:41:40Z</time></trkpt><trkpt lat="45.59724783471994" lon="10.027290193432748"><ele>238.0</ele><time>2026-03-28T15:41:41Z</time></trkpt><trkpt lat="45.59745876652955" lon="10.027383588769613"><ele>238.0</ele><time>2026-03-28T15:41:42Z</time></trkpt><trkpt lat="45.59768055260158" lon="10.027443981591851"><ele>232.0</ele><time>2026-03-28T15:41:43Z</time></trkpt><trkpt lat="45.597875987686116" lon="10.027509249989071"><ele>226.0</ele><time>2026-03-28T15:41:44Z</time></trkpt><trkpt lat="45.59804144909385" lon="10.027580964328065"><ele>220.0</ele><time>2026-03-28T15:41:45Z</time></trkpt><trkpt lat="45.59819168328998" lon="10.027644245421154"><ele>220.0</ele><time>2026-03-28T15:41:46Z</time></trkpt><trkpt lat="45.598328861235714" lon="10.027699629153506"><ele>220.0</ele><time>2026-03-28T15:41:47Z</time></trkpt><trkpt lat="45.59845919933134" lon="10.027773867090398"><ele>220.0</ele><time>2026-03-28T15:41:48Z</time></trkpt><trkpt lat="45.5985882484545" lon="10.027867966314133"><ele>220.0</ele><time>2026-03-28T15:41:49Z</time></trkpt><trkpt lat="45.59876728751033" lon="10.027964422693927"><ele>222.33333333333331</ele><time>2026-03-28T15:41:50Z</time></trkpt><trkpt lat="45.59895243151656" lon="10.028051912851113"><ele>224.66666666666669</ele><time>2026-03-28T15:41:51Z</time></trkpt><trkpt lat="45.59915615131425" lon="10.028139907128107"><ele>227.0</ele><time>2026-03-28T15:41:52Z</time></trkpt><trkpt lat="45.59938298695884" lon="10.028250637924158"><ele>221.0</ele><time>2026-03-28T15:41:53Z</time></trkpt><trkpt lat="45.599571537144115" lon="10.028316101242277"><ele>215.0</ele><time>2026-03-28T15:41:54Z</time></trkpt><trkpt lat="45.59974471150731" lon="10.028389401436574"><ele>209.0</ele><time>2026-03-28T15:41:55Z</time></trkpt><trkpt lat="45.59989632472978" lon="10.028455865596923"><ele>209.0</ele><time>2026-03-28T15:41:56Z</time></trkpt><trkpt lat="45.60003795893317" lon="10.028514665995562"><ele>209.0</ele><time>2026-03-28T15:41:57Z</time></trkpt><trkpt lat="45.60016474819583" lon="10.028567286553274"><ele>209.0</ele><time>2026-03-28T15:41:58Z</time></trkpt><trkpt lat="45.60028361011329" lon="10.028627406946699"><ele>209.0</ele><time>2026-03-28T15:41:59Z</time></trkpt><trkpt lat="45.600419264236315" lon="10.028694987792855"><ele>209.75</ele><time>2026-03-28T15:42:00Z</time></trkpt><trkpt lat="45.6005729518761" lon="10.028769921876451"><ele>210.5</ele><time>2026-03-28T15:42:01Z</time></trkpt><trkpt lat="45.60070856621612" lon="10.028828165834135"><ele>211.25</ele><time>2026-03-28T15:42:02Z</time></trkpt><trkpt lat="45.60083096714498" lon="10.028887537617726"><ele>212.0</ele><time>2026-03-28T15:42:03Z</time></trkpt><trkpt lat="45.60095580923133" lon="10.028951360218333"><ele>212.0</ele><time>2026-03-28T15:42:04Z</time></trkpt><trkpt lat="45.60108569476377" lon="10.029012421716246"><ele>212.0</ele><time>2026-03-28T15:42:05Z</time></trkpt><trkpt lat="45.60121667372622" lon="10.029072673785311"><ele>212.0</ele><time>2026-03-28T15:42:06Z</time></trkpt><trkpt lat="45.60132944356895" lon="10.029139595394547"><ele>212.0</ele><time>2026-03-28T15:42:07Z</time></trkpt><trkpt lat="45.60141407382971" lon="10.029193497625261"><ele>210.0</ele><time>2026-03-28T15:42:08Z</time></trkpt><trkpt lat="45.60148185029066" lon="10.029232621180448"><ele>208.0</ele><time>2026-03-28T15:42:09Z</time></trkpt><trkpt lat="45.60157215005388" lon="10.029275090058167"><ele>206.0</ele><time>2026-03-28T15:42:11Z</time></trkpt><trkpt lat="45.60165313580602" lon="10.02931858746853"><ele>204.0</ele><time>2026-03-28T15:42:14Z</time></trkpt><trkpt lat="45.60176519334513" lon="10.029357940633007"><ele>202.0</ele><time>2026-03-28T15:42:18Z</time></trkpt><trkpt lat="45.601848152929165" lon="10.029339230565734"><ele>202.0</ele><time>2026-03-28T15:42:19Z</time></trkpt><trkpt lat="45.60190923181115" lon="10.029280072432831"><ele>202.0</ele><time>2026-03-28T15:42:20Z</time></trkpt><trkpt lat="45.601970020531084" lon="10.029121019602652"><ele>202.0</ele><time>2026-03-28T15:42:24Z</time></trkpt><trkpt lat="45.60204361785905" lon="10.028926123387018"><ele>202.0</ele><time>2026-03-28T15:42:25Z</time></trkpt><trkpt lat="45.60213099656151" lon="10.028734234353683"><ele>202.0</ele><time>2026-03-28T15:42:26Z</time></trkpt><trkpt lat="45.60224729447949" lon="10.028544529424774"><ele>202.0</ele><time>2026-03-28T15:42:27Z</time></trkpt><trkpt lat="45.602342676596315" lon="10.02832459502147"><ele>202.0</ele><time>2026-03-28T15:42:28Z</time></trkpt><trkpt lat="45.60244276287961" lon="10.028143345901189"><ele>200.8</ele><time>2026-03-28T15:42:29Z</time></trkpt><trkpt lat="45.602515812614655" lon="10.028030386008687"><ele>199.6</ele><time>2026-03-28T15:42:30Z</time></trkpt><trkpt lat="45.60258546748794" lon="10.027966530408538"><ele>198.4</ele><time>2026-03-28T15:42:31Z</time></trkpt><trkpt lat="45.6026654296387" lon="10.027972653944008"><ele>197.20000000000002</ele><time>2026-03-28T15:42:32Z</time></trkpt><trkpt lat="45.6027621422278" lon="10.028058834809775"><ele>196.0</ele><time>2026-03-28T15:42:33Z</time></trkpt><trkpt lat="45.60287745851136" lon="10.028187410330027"><ele>196.0</ele><time>2026-03-28T15:42:34Z</time></trkpt><trkpt lat="45.603023620788015" lon="10.028332018545454"><ele>196.0</ele><time>2026-03-28T15:42:35Z</time></trkpt><trkpt lat="45.60318786124427" lon="10.02848614984686"><ele>196.0</ele><time>2026-03-28T15:42:36Z</time></trkpt><trkpt lat="45.603353233301" lon="10.028661686411898"><ele>196.0</ele><time>2026-03-28T15:42:37Z</time></trkpt><trkpt lat="45.603510134869374" lon="10.028865923037015"><ele>196.0</ele><time>2026-03-28T15:42:38Z</time></trkpt><trkpt lat="45.603651699766196" lon="10.029068547196303"><ele>196.0</ele><time>2026-03-28T15:42:39Z</time></trkpt><trkpt lat="45.60376529079939" lon="10.029222302593551"><ele>197.75</ele><time>2026-03-28T15:42:40Z</time></trkpt><trkpt lat="45.603851248250685" lon="10.029324908118923"><ele>199.5</ele><time>2026-03-28T15:42:41Z</time></trkpt><trkpt lat="45.603925501320624" lon="10.029403314807173"><ele>201.25</ele><time>2026-03-28T15:42:42Z</time></trkpt><trkpt lat="45.60400951859873" lon="10.029489831998612"><ele>203.0</ele><time>2026-03-28T15:42:43Z</time></trkpt><trkpt lat="45.60420069002692" lon="10.029349732205487"><ele>203.0</ele><time>2026-03-28T15:42:44Z</time></trkpt><trkpt lat="45.60435277672665" lon="10.02925818018259"><ele>203.0</ele><time>2026-03-28T15:42:45Z</time></trkpt><trkpt lat="45.60451539743549" lon="10.029145761929442"><ele>203.0</ele><time>2026-03-28T15:42:46Z</time></trkpt><trkpt lat="45.60469032834262" lon="10.029043060373764"><ele>204.33333333333334</ele><time>2026-03-28T15:42:47Z</time></trkpt><trkpt lat="45.604875930014856" lon="10.028951767195766"><ele>205.66666666666669</ele><time>2026-03-28T15:42:48Z</time></trkpt><trkpt lat="45.60505862030327" lon="10.028845766789445"><ele>207.0</ele><time>2026-03-28T15:42:49Z</time></trkpt><trkpt lat="45.605227401662" lon="10.028727639548935"><ele>209.25</ele><time>2026-03-28T15:42:50Z</time></trkpt><trkpt lat="45.605366592510514" lon="10.028635479049878"><ele>211.5</ele><time>2026-03-28T15:42:51Z</time></trkpt><trkpt lat="45.60550404589741" lon="10.028592571683904"><ele>213.75</ele><time>2026-03-28T15:42:52Z</time></trkpt><trkpt lat="45.60565131797961" lon="10.028595925773551"><ele>216.0</ele><time>2026-03-28T15:42:53Z</time></trkpt><trkpt lat="45.60581040786736" lon="10.028645854051254"><ele>216.0</ele><time>2026-03-28T15:42:54Z</time></trkpt><trkpt lat="45.605981490144394" lon="10.028695590760996"><ele>216.0</ele><time>2026-03-28T15:42:55Z</time></trkpt><trkpt lat="45.60614294402187" lon="10.028759353774033"><ele>216.0</ele><time>2026-03-28T15:42:56Z</time></trkpt><trkpt lat="45.606280062400366" lon="10.028732334629408"><ele>216.4</ele><time>2026-03-28T15:42:57Z</time></trkpt><trkpt lat="45.60638209522899" lon="10.028657336559418"><ele>216.8</ele><time>2026-03-28T15:42:58Z</time></trkpt><trkpt lat="45.60646365049403" lon="10.028586848992058"><ele>217.20000000000002</ele><time>2026-03-28T15:42:59Z</time></trkpt><trkpt lat="45.60651963965679" lon="10.028539044849607"><ele>217.60000000000002</ele><time>2026-03-28T15:43:00Z</time></trkpt><trkpt lat="45.60661283954215" lon="10.028489218009206"><ele>218.0</ele><time>2026-03-28T15:43:02Z</time></trkpt><trkpt lat="45.60674767477693" lon="10.028738888971297"><ele>218.00000000000003</ele><time>2026-03-28T15:43:04Z</time></trkpt><trkpt lat="45.60679744365925" lon="10.028839508483458"><ele>218.0</ele><time>2026-03-28T15:43:05Z</time></trkpt><trkpt lat="45.606856813617604" lon="10.028921948838148"><ele>218.0</ele><time>2026-03-28T15:43:06Z</time></trkpt><trkpt lat="45.60692110569063" lon="10.028982748217745"><ele>218.0</ele><time>2026-03-28T15:43:07Z</time></trkpt><trkpt lat="45.60697796308637" lon="10.029030553235867"><ele>218.00000000000003</ele><time>2026-03-28T15:43:08Z</time></trkpt><trkpt lat="45.60703286294783" lon="10.029133260968049"><ele>218.0</ele><time>2026-03-28T15:43:10Z</time></trkpt><trkpt lat="45.60702836073109" lon="10.029300952425228"><ele>217.83333333333334</ele><time>2026-03-28T15:43:12Z</time></trkpt><trkpt lat="45.60700723396951" lon="10.029396748951903"><ele>217.66666666666669</ele><time>2026-03-28T15:43:13Z</time></trkpt><trkpt lat="45.60698751602392" lon="10.029499512573064"><ele>217.5</ele><time>2026-03-28T15:43:14Z</time></trkpt><trkpt lat="45.606966300633985" lon="10.029608988419273"><ele>217.33333333333331</ele><time>2026-03-28T15:43:15Z</time></trkpt><trkpt lat="45.60695178564983" lon="10.02970443710456"><ele>217.16666666666666</ele><time>2026-03-28T15:43:16Z</time></trkpt><trkpt lat="45.60693361269245" lon="10.029794661898798"><ele>217.0</ele><time>2026-03-28T15:43:17Z</time></trkpt><trkpt lat="45.60689229257004" lon="10.029922767872664"><ele>216.99999999999997</ele><time>2026-03-28T15:43:19Z</time></trkpt><trkpt lat="45.606784438811616" lon="10.029948740031788"><ele>217.0</ele><time>2026-03-28T15:43:21Z</time></trkpt><trkpt lat="45.60671074207467" lon="10.029938481128989"><ele>217.0</ele><time>2026-03-28T15:43:22Z</time></trkpt><trkpt lat="45.60663187010889" lon="10.029936822596627"><ele>217.0</ele><time>2026-03-28T15:43:23Z</time></trkpt><trkpt lat="45.606551861516984" lon="10.029954176032081"><ele>216.99999999999997</ele><time>2026-03-28T15:43:24Z</time></trkpt><trkpt lat="45.606478057466276" lon="10.029981771784305"><ele>217.0</ele><time>2026-03-28T15:43:25Z</time></trkpt><trkpt lat="45.60639827121817" lon="10.029994081320595"><ele>217.0</ele><time>2026-03-28T15:43:26Z</time></trkpt><trkpt lat="45.60632018473243" lon="10.030009001989363"><ele>217.0</ele><time>2026-03-28T15:43:27Z</time></trkpt><trkpt lat="45.60625476737313" lon="10.030023820645459"><ele>217.0</ele><time>2026-03-28T15:43:28Z</time></trkpt><trkpt lat="45.606169908042176" lon="10.030086091693926"><ele>217.0</ele><time>2026-03-28T15:43:30Z</time></trkpt><trkpt lat="45.606158192617144" lon="10.030178127789847"><ele>217.0</ele><time>2026-03-28T15:43:31Z</time></trkpt><trkpt lat="45.6061613268914" lon="10.030280893374208"><ele>217.0</ele><time>2026-03-28T15:43:32Z</time></trkpt><trkpt lat="45.60615308305225" lon="10.030381720805634"><ele>217.0</ele><time>2026-03-28T15:43:33Z</time></trkpt><trkpt lat="45.60612877974175" lon="10.030493201236418"><ele>216.99999999999997</ele><time>2026-03-28T15:43:34Z</time></trkpt><trkpt lat="45.606101870830294" lon="10.03059869433331"><ele>217.0</ele><time>2026-03-28T15:43:35Z</time></trkpt><trkpt lat="45.606073345515114" lon="10.030706292956394"><ele>217.0</ele><time>2026-03-28T15:43:36Z</time></trkpt><trkpt lat="45.606042811479064" lon="10.030808304361207"><ele>217.0</ele><time>2026-03-28T15:43:37Z</time></trkpt><trkpt lat="45.60600978851925" lon="10.030903192973888"><ele>216.99999999999997</ele><time>2026-03-28T15:43:38Z</time></trkpt><trkpt lat="45.605971738687394" lon="10.030996534309914"><ele>217.0</ele><time>2026-03-28T15:43:39Z</time></trkpt><trkpt lat="45.60592943506654" lon="10.031094296434594"><ele>217.57142857142858</ele><time>2026-03-28T15:43:40Z</time></trkpt><trkpt lat="45.60589184091478" lon="10.031190315696602"><ele>218.14285714285714</ele><time>2026-03-28T15:43:41Z</time></trkpt><trkpt lat="45.60585624480296" lon="10.031286099382648"><ele>218.71428571428572</ele><time>2026-03-28T15:43:42Z</time></trkpt><trkpt lat="45.605820786513654" lon="10.03138051832576"><ele>219.28571428571428</ele><time>2026-03-28T15:43:43Z</time></trkpt><trkpt lat="45.60578610915918" lon="10.031470801644193"><ele>219.85714285714286</ele><time>2026-03-28T15:43:44Z</time></trkpt><trkpt lat="45.60575409197311" lon="10.031554931202699"><ele>220.42857142857144</ele><time>2026-03-28T15:43:45Z</time></trkpt><trkpt lat="45.605723994260636" lon="10.031644720742765"><ele>221.0</ele><time>2026-03-28T15:43:46Z</time></trkpt><trkpt lat="45.60568902246229" lon="10.031743070982078"><ele>221.50000000000003</ele><time>2026-03-28T15:43:47Z</time></trkpt><trkpt lat="45.60566783999933" lon="10.031844765852982"><ele>222.0</ele><time>2026-03-28T15:43:48Z</time></trkpt><trkpt lat="45.605670844469806" lon="10.031939763201862"><ele>222.5</ele><time>2026-03-28T15:43:49Z</time></trkpt><trkpt lat="45.60570051507954" lon="10.032037866441213"><ele>223.0</ele><time>2026-03-28T15:43:50Z</time></trkpt><trkpt lat="45.605774304328165" lon="10.03210874390953"><ele>223.50000000000003</ele><time>2026-03-28T15:43:51Z</time></trkpt><trkpt lat="45.605856918451494" lon="10.032207463886072"><ele>224.0</ele><time>2026-03-28T15:43:52Z</time></trkpt><trkpt lat="45.60594895425288" lon="10.03229487781533"><ele>224.0</ele><time>2026-03-28T15:43:53Z</time></trkpt><trkpt lat="45.60604235400275" lon="10.032386149119027"><ele>223.99999999999997</ele><time>2026-03-28T15:43:54Z</time></trkpt><trkpt lat="45.60612682257741" lon="10.032455528075536"><ele>223.99999999999997</ele><time>2026-03-28T15:43:55Z</time></trkpt><trkpt lat="45.60618240347409" lon="10.032510381351845"><ele>224.0</ele><time>2026-03-28T15:43:56Z</time></trkpt><trkpt lat="45.60625910067029" lon="10.032544406744396"><ele>224.0</ele><time>2026-03-28T15:43:58Z</time></trkpt><trkpt lat="45.60616057739799" lon="10.03277925752546"><ele>225.25</ele><time>2026-03-28T15:43:59Z</time></trkpt><trkpt lat="45.60611978325053" lon="10.032953227904663"><ele>226.5</ele><time>2026-03-28T15:44:00Z</time></trkpt><trkpt lat="45.60604892815031" lon="10.033127023548747"><ele>227.75</ele><time>2026-03-28T15:44:01Z</time></trkpt><trkpt lat="45.605996019868456" lon="10.0333486287597"><ele>229.0</ele><time>2026-03-28T15:44:02Z</time></trkpt><trkpt lat="45.60593928488813" lon="10.033585599739727"><ele>229.66666666666666</ele><time>2026-03-28T15:44:03Z</time></trkpt><trkpt lat="45.60583569591152" lon="10.033807081147598"><ele>230.33333333333331</ele><time>2026-03-28T15:44:04Z</time></trkpt><trkpt lat="45.605708181562406" lon="10.03403561521193"><ele>231.0</ele><time>2026-03-28T15:44:05Z</time></trkpt><trkpt lat="45.60560070778691" lon="10.034206007326928"><ele>231.75</ele><time>2026-03-28T15:44:06Z</time></trkpt><trkpt lat="45.60550935717607" lon="10.034342020708678"><ele>232.5</ele><time>2026-03-28T15:44:07Z</time></trkpt><trkpt lat="45.605396991650906" lon="10.034385151497633"><ele>233.25</ele><time>2026-03-28T15:44:08Z</time></trkpt><trkpt lat="45.60525881968649" lon="10.034437193803363"><ele>234.0</ele><time>2026-03-28T15:44:09Z</time></trkpt><trkpt lat="45.605133761768364" lon="10.034505742576373"><ele>235.0</ele><time>2026-03-28T15:44:10Z</time></trkpt><trkpt lat="45.60507786981658" lon="10.03460863123467"><ele>235.99999999999997</ele><time>2026-03-28T15:44:11Z</time></trkpt><trkpt lat="45.605038536331584" lon="10.03469073502877"><ele>236.99999999999997</ele><time>2026-03-28T15:44:12Z</time></trkpt><trkpt lat="45.60500736109909" lon="10.034851629003214"><ele>238.0</ele><time>2026-03-28T15:44:13Z</time></trkpt><trkpt lat="45.60496106219974" lon="10.035042656053765"><ele>239.0</ele><time>2026-03-28T15:44:14Z</time></trkpt><trkpt lat="45.60490407940682" lon="10.035219295781822"><ele>240.0</ele><time>2026-03-28T15:44:15Z</time></trkpt><trkpt lat="45.60486369052185" lon="10.035371475083712"><ele>240.99999999999997</ele><time>2026-03-28T15:44:16Z</time></trkpt><trkpt lat="45.604865628773304" lon="10.035476768942122"><ele>241.99999999999997</ele><time>2026-03-28T15:44:17Z</time></trkpt><trkpt lat="45.604931497164344" lon="10.035631821840772"><ele>243.0</ele><time>2026-03-28T15:44:19Z</time></trkpt><trkpt lat="45.60500546757922" lon="10.035754032657724"><ele>244.0</ele><time>2026-03-28T15:44:20Z</time></trkpt><trkpt lat="45.60508398898944" lon="10.035902635135116"><ele>244.66666666666666</ele><time>2026-03-28T15:44:21Z</time></trkpt><trkpt lat="45.60516095071162" lon="10.036102788124591"><ele>245.33333333333331</ele><time>2026-03-28T15:44:22Z</time></trkpt><trkpt lat="45.6052192516332" lon="10.03629592686321"><ele>246.0</ele><time>2026-03-28T15:44:23Z</time></trkpt><trkpt lat="45.605336635453156" lon="10.036450067258057"><ele>246.0</ele><time>2026-03-28T15:44:24Z</time></trkpt><trkpt lat="45.605418274705436" lon="10.036604500848295"><ele>246.0</ele><time>2026-03-28T15:44:25Z</time></trkpt><trkpt lat="45.60549011622553" lon="10.036726762209776"><ele>246.0</ele><time>2026-03-28T15:44:26Z</time></trkpt><trkpt lat="45.605564514394466" lon="10.036832443002355"><ele>246.0</ele><time>2026-03-28T15:44:27Z</time></trkpt><trkpt lat="45.60562742687647" lon="10.036960850428542"><ele>247.5</ele><time>2026-03-28T15:44:28Z</time></trkpt><trkpt lat="45.60571379269791" lon="10.03707493783546"><ele>249.0</ele><time>2026-03-28T15:44:29Z</time></trkpt><trkpt lat="45.60579053221201" lon="10.037218374250328"><ele>250.5</ele><time>2026-03-28T15:44:30Z</time></trkpt><trkpt lat="45.60587049985028" lon="10.037358544144242"><ele>252.0</ele><time>2026-03-28T15:44:31Z</time></trkpt><trkpt lat="45.60594910428006" lon="10.037510570486951"><ele>252.5</ele><time>2026-03-28T15:44:32Z</time></trkpt><trkpt lat="45.606007309633064" lon="10.037622789674554"><ele>253.0</ele><time>2026-03-28T15:44:33Z</time></trkpt><trkpt lat="45.606055062777884" lon="10.037683814406593"><ele>253.5</ele><time>2026-03-28T15:44:34Z</time></trkpt><trkpt lat="45.60598087647917" lon="10.03780801536527"><ele>254.0</ele><time>2026-03-28T15:44:37Z</time></trkpt><trkpt lat="45.605913000869116" lon="10.037909963851451"><ele>254.5</ele><time>2026-03-28T15:44:38Z</time></trkpt><trkpt lat="45.60590804229527" lon="10.03800969812481"><ele>255.0</ele><time>2026-03-28T15:44:39Z</time></trkpt><trkpt lat="45.60595543124065" lon="10.038105633555652"><ele>255.0</ele><time>2026-03-28T15:44:40Z</time></trkpt><trkpt lat="45.60602840117283" lon="10.038198166497033"><ele>255.0</ele><time>2026-03-28T15:44:41Z</time></trkpt><trkpt lat="45.6061249469691" lon="10.038302189754516"><ele>255.0</ele><time>2026-03-28T15:44:42Z</time></trkpt><trkpt lat="45.606226280926116" lon="10.038440844675577"><ele>255.0</ele><time>2026-03-28T15:44:43Z</time></trkpt><trkpt lat="45.606327531247125" lon="10.038593453625094"><ele>253.33333333333331</ele><time>2026-03-28T15:44:44Z</time></trkpt><trkpt lat="45.606452075863764" lon="10.038750176629145"><ele>251.66666666666666</ele><time>2026-03-28T15:44:45Z</time></trkpt><trkpt lat="45.60656235726548" lon="10.038924930885916"><ele>250.0</ele><time>2026-03-28T15:44:46Z</time></trkpt><trkpt lat="45.60665321658254" lon="10.039062879039328"><ele>250.2</ele><time>2026-03-28T15:44:47Z</time></trkpt><trkpt lat="45.60671586118147" lon="10.039160029097356"><ele>250.4</ele><time>2026-03-28T15:44:48Z</time></trkpt><trkpt lat="45.60676795716127" lon="10.039233616510785"><ele>250.60000000000002</ele><time>2026-03-28T15:44:49Z</time></trkpt><trkpt lat="45.606809798021715" lon="10.039324416009078"><ele>250.8</ele><time>2026-03-28T15:44:51Z</time></trkpt><trkpt lat="45.60682389584604" lon="10.039456453539993"><ele>251.0</ele><time>2026-03-28T15:44:53Z</time></trkpt><trkpt lat="45.60684452044639" lon="10.039617415072982"><ele>251.0</ele><time>2026-03-28T15:44:54Z</time></trkpt><trkpt lat="45.60685997584414" lon="10.039803737442648"><ele>251.0</ele><time>2026-03-28T15:44:55Z</time></trkpt><trkpt lat="45.60688266713084" lon="10.040006060305023"><ele>251.0</ele><time>2026-03-28T15:44:56Z</time></trkpt><trkpt lat="45.606898606565835" lon="10.040211876070256"><ele>251.0</ele><time>2026-03-28T15:44:57Z</time></trkpt><trkpt lat="45.60690714381948" lon="10.040386792334154"><ele>251.0</ele><time>2026-03-28T15:44:58Z</time></trkpt><trkpt lat="45.606930718298166" lon="10.040510730123891"><ele>251.0</ele><time>2026-03-28T15:44:59Z</time></trkpt><trkpt lat="45.606858411025705" lon="10.04066659510871"><ele>251.0</ele><time>2026-03-28T15:45:00Z</time></trkpt><trkpt lat="45.60679557510292" lon="10.04084042422489"><ele>251.0</ele><time>2026-03-28T15:45:01Z</time></trkpt><trkpt lat="45.6067376610422" lon="10.041026532096637"><ele>251.66666666666669</ele><time>2026-03-28T15:45:02Z</time></trkpt><trkpt lat="45.606669390531174" lon="10.041211421430502"><ele>252.33333333333331</ele><time>2026-03-28T15:45:03Z</time></trkpt><trkpt lat="45.60658947538526" lon="10.041401797216428"><ele>253.0</ele><time>2026-03-28T15:45:04Z</time></trkpt><trkpt lat="45.60650196356812" lon="10.041599333790938"><ele>254.0</ele><time>2026-03-28T15:45:05Z</time></trkpt><trkpt lat="45.60640629378235" lon="10.041777470599323"><ele>255.0</ele><time>2026-03-28T15:45:06Z</time></trkpt><trkpt lat="45.60630547039096" lon="10.041948448371093"><ele>256.0</ele><time>2026-03-28T15:45:07Z</time></trkpt><trkpt lat="45.606211980382504" lon="10.042122518732771"><ele>256.25</ele><time>2026-03-28T15:45:08Z</time></trkpt><trkpt lat="45.60612579254268" lon="10.04229152103923"><ele>256.5</ele><time>2026-03-28T15:45:09Z</time></trkpt><trkpt lat="45.606043463264164" lon="10.042456528601758"><ele>256.75</ele><time>2026-03-28T15:45:10Z</time></trkpt><trkpt lat="45.60597280414345" lon="10.042608194059138"><ele>257.0</ele><time>2026-03-28T15:45:11Z</time></trkpt><trkpt lat="45.60592370741366" lon="10.042728595350662"><ele>257.8</ele><time>2026-03-28T15:45:12Z</time></trkpt><trkpt lat="45.605867756654604" lon="10.04282057545765"><ele>258.6</ele><time>2026-03-28T15:45:14Z</time></trkpt><trkpt lat="45.605709841292835" lon="10.042764303209067"><ele>259.40000000000003</ele><time>2026-03-28T15:45:16Z</time></trkpt><trkpt lat="45.60562217542617" lon="10.042757844287422"><ele>260.2</ele><time>2026-03-28T15:45:17Z</time></trkpt><trkpt lat="45.605522830532095" lon="10.042760918319036"><ele>261.0</ele><time>2026-03-28T15:45:18Z</time></trkpt><trkpt lat="45.60540998620411" lon="10.04278011889998"><ele>262.5</ele><time>2026-03-28T15:45:19Z</time></trkpt><trkpt lat="45.60528886101313" lon="10.042806741277381"><ele>264.0</ele><time>2026-03-28T15:45:20Z</time></trkpt><trkpt lat="45.605171220488145" lon="10.042834561877852"><ele>265.5</ele><time>2026-03-28T15:45:21Z</time></trkpt><trkpt lat="45.60503646796594" lon="10.042869401741058"><ele>267.0</ele><time>2026-03-28T15:45:22Z</time></trkpt><trkpt lat="45.60490173322045" lon="10.04293219830969"><ele>267.0</ele><time>2026-03-28T15:45:23Z</time></trkpt><trkpt lat="45.60479033435221" lon="10.04298972179956"><ele>267.0</ele><time>2026-03-28T15:45:24Z</time></trkpt><trkpt lat="45.604674740281894" lon="10.043000169494142"><ele>267.0</ele><time>2026-03-28T15:45:25Z</time></trkpt><trkpt lat="45.60457074456399" lon="10.042973054575219"><ele>267.0</ele><time>2026-03-28T15:45:26Z</time></trkpt><trkpt lat="45.60442088704972" lon="10.042983676198949"><ele>270.0</ele><time>2026-03-28T15:45:27Z</time></trkpt><trkpt lat="45.604273704725976" lon="10.043005078558242"><ele>273.0</ele><time>2026-03-28T15:45:28Z</time></trkpt><trkpt lat="45.6041394919297" lon="10.043817936447407"><ele>273.0</ele><time>2026-03-28T15:45:29Z</time></trkpt><trkpt lat="45.60405850295026" lon="10.0439556786307"><ele>273.0</ele><time>2026-03-28T15:45:30Z</time></trkpt><trkpt lat="45.603994307380454" lon="10.044087388520488"><ele>273.0</ele><time>2026-03-28T15:45:31Z</time></trkpt><trkpt lat="45.60393018221866" lon="10.044269213620186"><ele>273.0</ele><time>2026-03-28T15:45:32Z</time></trkpt><trkpt lat="45.60386808368891" lon="10.04443250565324"><ele>273.0</ele><time>2026-03-28T15:45:33Z</time></trkpt><trkpt lat="45.60381898649387" lon="10.044566212361701"><ele>273.0</ele><time>2026-03-28T15:45:34Z</time></trkpt><trkpt lat="45.60376418579983" lon="10.044699934896334"><ele>273.0</ele><time>2026-03-28T15:45:35Z</time></trkpt><trkpt lat="45.60369007328711" lon="10.044844394719545"><ele>273.0</ele><time>2026-03-28T15:45:36Z</time></trkpt><trkpt lat="45.6036265072126" lon="10.044953048170862"><ele>273.0</ele><time>2026-03-28T15:45:37Z</time></trkpt><trkpt lat="45.60359840437385" lon="10.04504008809255"><ele>273.6666666666667</ele><time>2026-03-28T15:45:38Z</time></trkpt><trkpt lat="45.60358598445445" lon="10.045138403408469"><ele>274.3333333333333</ele><time>2026-03-28T15:45:39Z</time></trkpt><trkpt lat="45.60357668930883" lon="10.045314599204897"><ele>275.0</ele><time>2026-03-28T15:45:40Z</time></trkpt><trkpt lat="45.60354805511889" lon="10.045458128130836"><ele>275.66666666666663</ele><time>2026-03-28T15:45:41Z</time></trkpt><trkpt lat="45.60350449266486" lon="10.045531130813435"><ele>276.3333333333333</ele><time>2026-03-28T15:45:42Z</time></trkpt><trkpt lat="45.6034469940204" lon="10.04559127789249"><ele>277.0</ele><time>2026-03-28T15:45:43Z</time></trkpt><trkpt lat="45.60339966906894" lon="10.045718180161323"><ele>275.0</ele><time>2026-03-28T15:45:44Z</time></trkpt><trkpt lat="45.60334324772126" lon="10.045874501129509"><ele>273.0</ele><time>2026-03-28T15:45:45Z</time></trkpt><trkpt lat="45.60329305862262" lon="10.045980086010854"><ele>271.0</ele><time>2026-03-28T15:45:46Z</time></trkpt><trkpt lat="45.60324600595585" lon="10.046042948850323"><ele>269.0</ele><time>2026-03-28T15:45:47Z</time></trkpt><trkpt lat="45.603254970383674" lon="10.046189197604646"><ele>267.0</ele><time>2026-03-28T15:45:49Z</time></trkpt><trkpt lat="45.60331951404193" lon="10.046221918154556"><ele>265.0</ele><time>2026-03-28T15:45:50Z</time></trkpt><trkpt lat="45.60345166424016" lon="10.04624468698039"><ele>265.0</ele><time>2026-03-28T15:45:53Z</time></trkpt><trkpt lat="45.60353131648064" lon="10.046293935883563"><ele>265.0</ele><time>2026-03-28T15:45:55Z</time></trkpt><trkpt lat="45.60358495962461" lon="10.046354140300243"><ele>265.0</ele><time>2026-03-28T15:45:57Z</time></trkpt><trkpt lat="45.60366282710118" lon="10.046434574416638"><ele>265.0</ele><time>2026-03-28T15:45:59Z</time></trkpt><trkpt lat="45.60360669142263" lon="10.046543754360163"><ele>265.0</ele><time>2026-03-28T15:46:01Z</time></trkpt><trkpt lat="45.60354668788701" lon="10.04668897589573"><ele>263.8</ele><time>2026-03-28T15:46:02Z</time></trkpt><trkpt lat="45.60350115158117" lon="10.046841140680813"><ele>262.6</ele><time>2026-03-28T15:46:03Z</time></trkpt><trkpt lat="45.60348516402923" lon="10.04695221605516"><ele>261.4</ele><time>2026-03-28T15:46:04Z</time></trkpt><trkpt lat="45.60350023244326" lon="10.047069540118857"><ele>260.2</ele><time>2026-03-28T15:46:05Z</time></trkpt><trkpt lat="45.60356293159873" lon="10.047250824278029"><ele>259.0</ele><time>2026-03-28T15:46:06Z</time></trkpt><trkpt lat="45.60362987505454" lon="10.047492230955852"><ele>257.8</ele><time>2026-03-28T15:46:07Z</time></trkpt><trkpt lat="45.603670262444105" lon="10.047650633064002"><ele>256.59999999999997</ele><time>2026-03-28T15:46:08Z</time></trkpt><trkpt lat="45.60370735265175" lon="10.047746803420829"><ele>255.4</ele><time>2026-03-28T15:46:09Z</time></trkpt><trkpt lat="45.603712775423524" lon="10.047886938666286"><ele>254.2</ele><time>2026-03-28T15:46:11Z</time></trkpt><trkpt lat="45.60362670505679" lon="10.047937534231563"><ele>253.0</ele><time>2026-03-28T15:46:12Z</time></trkpt><trkpt lat="45.60353422963955" lon="10.047984902910343"><ele>252.99999999999997</ele><time>2026-03-28T15:46:13Z</time></trkpt><trkpt lat="45.60345820759648" lon="10.048016863775336"><ele>253.0</ele><time>2026-03-28T15:46:14Z</time></trkpt><trkpt lat="45.60339020566054" lon="10.048021757882092"><ele>253.0</ele><time>2026-03-28T15:46:15Z</time></trkpt><trkpt lat="45.60332746014197" lon="10.048074588529216"><ele>253.0</ele><time>2026-03-28T15:46:17Z</time></trkpt><trkpt lat="45.603394948356545" lon="10.048129256934384"><ele>252.99999999999997</ele><time>2026-03-28T15:46:20Z</time></trkpt><trkpt lat="45.60348171153551" lon="10.048152582828628"><ele>253.0</ele><time>2026-03-28T15:46:22Z</time></trkpt><trkpt lat="45.603507181219896" lon="10.048261050658722"><ele>258.0</ele><time>2026-03-28T15:46:25Z</time></trkpt><trkpt lat="45.60391036262368" lon="10.048489043769417"><ele>263.0</ele><time>2026-03-28T15:46:26Z</time></trkpt><trkpt lat="45.6040446110794" lon="10.048615311804053"><ele>263.0</ele><time>2026-03-28T15:46:27Z</time></trkpt><trkpt lat="45.60420852091292" lon="10.048748050113444"><ele>263.0</ele><time>2026-03-28T15:46:28Z</time></trkpt><trkpt lat="45.604289086202506" lon="10.048839104993638"><ele>263.0</ele><time>2026-03-28T15:46:29Z</time></trkpt><trkpt lat="45.604484915645756" lon="10.048951371421849"><ele>262.5</ele><time>2026-03-28T15:46:30Z</time></trkpt><trkpt lat="45.60460425993765" lon="10.049034664433435"><ele>262.0</ele><time>2026-03-28T15:46:31Z</time></trkpt><trkpt lat="45.604709649596394" lon="10.049124275112467"><ele>261.5</ele><time>2026-03-28T15:46:32Z</time></trkpt><trkpt lat="45.6047887709516" lon="10.049273571528794"><ele>261.0</ele><time>2026-03-28T15:46:34Z</time></trkpt><trkpt lat="45.604763583001706" lon="10.049395971260045"><ele>261.0</ele><time>2026-03-28T15:46:36Z</time></trkpt><trkpt lat="45.60469366095743" lon="10.049646865078923"><ele>261.0</ele><time>2026-03-28T15:46:38Z</time></trkpt><trkpt lat="45.60474021481066" lon="10.049759272869823"><ele>261.0</ele><time>2026-03-28T15:46:40Z</time></trkpt><trkpt lat="45.60484302632344" lon="10.049764348910491"><ele>261.0</ele><time>2026-03-28T15:46:42Z</time></trkpt><trkpt lat="45.6049181075187" lon="10.04984672857596"><ele>261.0</ele><time>2026-03-28T15:46:43Z</time></trkpt><trkpt lat="45.60500857286229" lon="10.049932022415552"><ele>261.0</ele><time>2026-03-28T15:46:44Z</time></trkpt><trkpt lat="45.60518140372191" lon="10.050072012873523"><ele>261.0</ele><time>2026-03-28T15:46:45Z</time></trkpt><trkpt lat="45.6052985630117" lon="10.050138295161135"><ele>261.0</ele><time>2026-03-28T15:46:46Z</time></trkpt><trkpt lat="45.60537754948904" lon="10.05017739370515"><ele>260.8</ele><time>2026-03-28T15:46:47Z</time></trkpt><trkpt lat="45.60544855712655" lon="10.050180673569296"><ele>260.6</ele><time>2026-03-28T15:46:53Z</time></trkpt><trkpt lat="45.6055228770011" lon="10.050281138617281"><ele>260.4</ele><time>2026-03-28T15:46:55Z</time></trkpt><trkpt lat="45.605611656383026" lon="10.05034409963213"><ele>260.2</ele><time>2026-03-28T15:46:56Z</time></trkpt><trkpt lat="45.60570154922642" lon="10.05038075500188"><ele>260.0</ele><time>2026-03-28T15:46:57Z</time></trkpt><trkpt lat="45.60579723690654" lon="10.050429756420556"><ele>260.0</ele><time>2026-03-28T15:46:58Z</time></trkpt><trkpt lat="45.60589918630288" lon="10.05049214152097"><ele>260.0</ele><time>2026-03-28T15:46:59Z</time></trkpt><trkpt lat="45.605991779982794" lon="10.050583145016047"><ele>260.0</ele><time>2026-03-28T15:47:00Z</time></trkpt><trkpt lat="45.6060824466321" lon="10.050660910293113"><ele>260.0</ele><time>2026-03-28T15:47:01Z</time></trkpt><trkpt lat="45.60617681065767" lon="10.050692138509785"><ele>260.0</ele><time>2026-03-28T15:47:02Z</time></trkpt><trkpt lat="45.60630062707432" lon="10.050738009900106"><ele>260.4</ele><time>2026-03-28T15:47:03Z</time></trkpt><trkpt lat="45.606439056048856" lon="10.050800442869244"><ele>260.8</ele><time>2026-03-28T15:47:04Z</time></trkpt><trkpt lat="45.606540772243335" lon="10.050874583115116"><ele>261.2</ele><time>2026-03-28T15:47:05Z</time></trkpt><trkpt lat="45.60659284832739" lon="10.050930762110646"><ele>261.6</ele><time>2026-03-28T15:47:06Z</time></trkpt><trkpt lat="45.60667402673106" lon="10.05095441022016"><ele>262.0</ele><time>2026-03-28T15:47:08Z</time></trkpt><trkpt lat="45.6067566054756" lon="10.05093101885766"><ele>262.0</ele><time>2026-03-28T15:47:09Z</time></trkpt><trkpt lat="45.606861679329114" lon="10.050971729403136"><ele>262.0</ele><time>2026-03-28T15:47:10Z</time></trkpt><trkpt lat="45.60700064270906" lon="10.051097107051579"><ele>262.0</ele><time>2026-03-28T15:47:11Z</time></trkpt><trkpt lat="45.60717000249809" lon="10.051237276349836"><ele>268.0</ele><time>2026-03-28T15:47:12Z</time></trkpt><trkpt lat="45.607369514064" lon="10.051337982713104"><ele>274.0</ele><time>2026-03-28T15:47:13Z</time></trkpt><trkpt lat="45.60753072754425" lon="10.051443622546076"><ele>280.0</ele><time>2026-03-28T15:47:14Z</time></trkpt><trkpt lat="45.60766396111283" lon="10.051528835703246"><ele>280.0</ele><time>2026-03-28T15:47:15Z</time></trkpt><trkpt lat="45.60778340040919" lon="10.05159316089667"><ele>280.0</ele><time>2026-03-28T15:47:16Z</time></trkpt><trkpt lat="45.60788405433428" lon="10.051631367508119"><ele>280.0</ele><time>2026-03-28T15:47:17Z</time></trkpt><trkpt lat="45.60794177091523" lon="10.051676958758309"><ele>280.0</ele><time>2026-03-28T15:47:18Z</time></trkpt><trkpt lat="45.607960248105314" lon="10.051842057584546"><ele>280.0</ele><time>2026-03-28T15:47:20Z</time></trkpt><trkpt lat="45.60796003609094" lon="10.051969893994597"><ele>277.5</ele><time>2026-03-28T15:47:21Z</time></trkpt><trkpt lat="45.60797178999675" lon="10.052071172362817"><ele>275.0</ele><time>2026-03-28T15:47:22Z</time></trkpt><trkpt lat="45.60801324745525" lon="10.052158624118041"><ele>272.5</ele><time>2026-03-28T15:47:23Z</time></trkpt><trkpt lat="45.60806422372392" lon="10.05223052764125"><ele>270.0</ele><time>2026-03-28T15:47:24Z</time></trkpt><trkpt lat="45.608137302812345" lon="10.052274920815298"><ele>267.5</ele><time>2026-03-28T15:47:25Z</time></trkpt><trkpt lat="45.60822267273727" lon="10.052319638333653"><ele>265.0</ele><time>2026-03-28T15:47:26Z</time></trkpt><trkpt lat="45.60833291556338" lon="10.052349867227207"><ele>265.0</ele><time>2026-03-28T15:47:27Z</time></trkpt><trkpt lat="45.608485729256536" lon="10.052379126186175"><ele>265.0</ele><time>2026-03-28T15:47:28Z</time></trkpt><trkpt lat="45.608684081932026" lon="10.052442130121259"><ele>265.0</ele><time>2026-03-28T15:47:29Z</time></trkpt><trkpt lat="45.6088512345396" lon="10.052505028398143"><ele>262.75</ele><time>2026-03-28T15:47:30Z</time></trkpt><trkpt lat="45.60899602277052" lon="10.052548370686749"><ele>260.5</ele><time>2026-03-28T15:47:31Z</time></trkpt><trkpt lat="45.60913972875221" lon="10.052608100846602"><ele>258.25</ele><time>2026-03-28T15:47:32Z</time></trkpt><trkpt lat="45.60927145745569" lon="10.052656008530844"><ele>256.0</ele><time>2026-03-28T15:47:33Z</time></trkpt><trkpt lat="45.60940134849987" lon="10.052693665796445"><ele>256.40000000000003</ele><time>2026-03-28T15:47:34Z</time></trkpt><trkpt lat="45.609501855620714" lon="10.052744382321913"><ele>256.8</ele><time>2026-03-28T15:47:35Z</time></trkpt><trkpt lat="45.609568649102364" lon="10.05280661213275"><ele>257.20000000000005</ele><time>2026-03-28T15:47:36Z</time></trkpt><trkpt lat="45.609630935618284" lon="10.052897260924206"><ele>257.6</ele><time>2026-03-28T15:47:38Z</time></trkpt><trkpt lat="45.60973020788209" lon="10.052957312550776"><ele>258.0</ele><time>2026-03-28T15:47:41Z</time></trkpt><trkpt lat="45.60979940023479" lon="10.052927039924368"><ele>258.0</ele><time>2026-03-28T15:47:42Z</time></trkpt><trkpt lat="45.609872820753445" lon="10.05282332052203"><ele>258.0</ele><time>2026-03-28T15:47:44Z</time></trkpt><trkpt lat="45.6099588898457" lon="10.05270044647552"><ele>258.0</ele><time>2026-03-28T15:47:46Z</time></trkpt><trkpt lat="45.6100222664982" lon="10.052640368094966"><ele>258.0</ele><time>2026-03-28T15:47:47Z</time></trkpt><trkpt lat="45.610100851707315" lon="10.052611845185025"><ele>258.0</ele><time>2026-03-28T15:47:48Z</time></trkpt><trkpt lat="45.61017324354587" lon="10.052636197963075"><ele>258.0</ele><time>2026-03-28T15:47:49Z</time></trkpt><trkpt lat="45.610224540929515" lon="10.052691571706683"><ele>258.0</ele><time>2026-03-28T15:47:50Z</time></trkpt><trkpt lat="45.610288182207945" lon="10.052782028837559"><ele>258.0</ele><time>2026-03-28T15:47:51Z</time></trkpt><trkpt lat="45.61036203166862" lon="10.052861983268814"><ele>258.0</ele><time>2026-03-28T15:47:52Z</time></trkpt><trkpt lat="45.61044363364302" lon="10.052942791703721"><ele>258.0</ele><time>2026-03-28T15:47:53Z</time></trkpt><trkpt lat="45.61053886812545" lon="10.05302936510464"><ele>258.5</ele><time>2026-03-28T15:47:54Z</time></trkpt><trkpt lat="45.61064165084038" lon="10.05313283631063"><ele>259.0</ele><time>2026-03-28T15:47:55Z</time></trkpt><trkpt lat="45.61074637320026" lon="10.053227407094608"><ele>259.5</ele><time>2026-03-28T15:47:56Z</time></trkpt><trkpt lat="45.6108479792095" lon="10.053321137110824"><ele>260.0</ele><time>2026-03-28T15:47:57Z</time></trkpt><trkpt lat="45.61095580424761" lon="10.053411713540523"><ele>260.0</ele><time>2026-03-28T15:47:58Z</time></trkpt><trkpt lat="45.611055092965785" lon="10.053500466595127"><ele>260.0</ele><time>2026-03-28T15:47:59Z</time></trkpt><trkpt lat="45.61114568961314" lon="10.053581532479111"><ele>260.0</ele><time>2026-03-28T15:48:00Z</time></trkpt><trkpt lat="45.61120664960808" lon="10.053642267405724"><ele>260.0</ele><time>2026-03-28T15:48:01Z</time></trkpt><trkpt lat="45.611262232966325" lon="10.053578919437674"><ele>260.0</ele><time>2026-03-28T15:48:05Z</time></trkpt><trkpt lat="45.611303463112144" lon="10.053444985880832"><ele>261.6666666666667</ele><time>2026-03-28T15:48:06Z</time></trkpt><trkpt lat="45.61136721100575" lon="10.053312064924324"><ele>263.33333333333337</ele><time>2026-03-28T15:48:07Z</time></trkpt><trkpt lat="45.61142374516818" lon="10.05324631205836"><ele>265.0</ele><time>2026-03-28T15:48:08Z</time></trkpt><trkpt lat="45.61149498778746" lon="10.053223408238791"><ele>266.6666666666667</ele><time>2026-03-28T15:48:09Z</time></trkpt><trkpt lat="45.611568015489325" lon="10.053232999204237"><ele>268.3333333333333</ele><time>2026-03-28T15:48:10Z</time></trkpt><trkpt lat="45.611637554683725" lon="10.053254055534124"><ele>270.0</ele><time>2026-03-28T15:48:11Z</time></trkpt><trkpt lat="45.61171223867505" lon="10.053278540163847"><ele>270.0</ele><time>2026-03-28T15:48:12Z</time></trkpt><trkpt lat="45.61179217169664" lon="10.053312660702638"><ele>270.0</ele><time>2026-03-28T15:48:13Z</time></trkpt><trkpt lat="45.6118790439955" lon="10.053343871379331"><ele>270.0</ele><time>2026-03-28T15:48:14Z</time></trkpt><trkpt lat="45.61197006053692" lon="10.053371477452409"><ele>270.0</ele><time>2026-03-28T15:48:15Z</time></trkpt><trkpt lat="45.612066507847054" lon="10.053385676302854"><ele>270.0</ele><time>2026-03-28T15:48:16Z</time></trkpt><trkpt lat="45.61215864057247" lon="10.053372584974968"><ele>272.4</ele><time>2026-03-28T15:48:17Z</time></trkpt><trkpt lat="45.61224785449961" lon="10.053353061748307"><ele>274.8</ele><time>2026-03-28T15:48:18Z</time></trkpt><trkpt lat="45.6123388250309" lon="10.053324667574936"><ele>277.2</ele><time>2026-03-28T15:48:19Z</time></trkpt><trkpt lat="45.61246003132461" lon="10.053269280459723"><ele>279.6</ele><time>2026-03-28T15:48:20Z</time></trkpt><trkpt lat="45.61253718975329" lon="10.053229826750876"><ele>282.0</ele><time>2026-03-28T15:48:21Z</time></trkpt><trkpt lat="45.61259637281753" lon="10.053138198326927"><ele>284.2</ele><time>2026-03-28T15:48:23Z</time></trkpt><trkpt lat="45.612628706279274" lon="10.053034140940545"><ele>286.4</ele><time>2026-03-28T15:48:24Z</time></trkpt><trkpt lat="45.61266221983752" lon="10.05288378486636"><ele>288.6</ele><time>2026-03-28T15:48:25Z</time></trkpt><trkpt lat="45.61269625406285" lon="10.052709346961281"><ele>290.8</ele><time>2026-03-28T15:48:26Z</time></trkpt><trkpt lat="45.61272955417641" lon="10.052609985671097"><ele>293.0</ele><time>2026-03-28T15:48:27Z</time></trkpt><trkpt lat="45.61280643871909" lon="10.052542423215518"><ele>293.1666666666667</ele><time>2026-03-28T15:48:29Z</time></trkpt><trkpt lat="45.61284188683075" lon="10.052692162415674"><ele>293.33333333333337</ele><time>2026-03-28T15:48:32Z</time></trkpt><trkpt lat="45.61289257570667" lon="10.052750748203405"><ele>293.5</ele><time>2026-03-28T15:48:33Z</time></trkpt><trkpt lat="45.612963706693954" lon="10.05274384872859"><ele>293.6666666666667</ele><time>2026-03-28T15:48:34Z</time></trkpt><trkpt lat="45.613038143807266" lon="10.052667250360445"><ele>293.8333333333333</ele><time>2026-03-28T15:48:35Z</time></trkpt><trkpt lat="45.61312304087175" lon="10.052578409037274"><ele>294.0</ele><time>2026-03-28T15:48:36Z</time></trkpt><trkpt lat="45.613216242014055" lon="10.05250068599371"><ele>293.4</ele><time>2026-03-28T15:48:37Z</time></trkpt><trkpt lat="45.613295703598205" lon="10.052396117018384"><ele>292.79999999999995</ele><time>2026-03-28T15:48:38Z</time></trkpt><trkpt lat="45.61337606064204" lon="10.052292934428275"><ele>292.20000000000005</ele><time>2026-03-28T15:48:39Z</time></trkpt><trkpt lat="45.61345562913155" lon="10.052187014797779"><ele>291.6</ele><time>2026-03-28T15:48:40Z</time></trkpt><trkpt lat="45.613564299861594" lon="10.052111918784776"><ele>291.0</ele><time>2026-03-28T15:48:41Z</time></trkpt><trkpt lat="45.61365186102992" lon="10.052006715403694"><ele>293.0</ele><time>2026-03-28T15:48:42Z</time></trkpt><trkpt lat="45.613748737595344" lon="10.051893084800763"><ele>295.0</ele><time>2026-03-28T15:48:43Z</time></trkpt><trkpt lat="45.61384361461979" lon="10.051795407519448"><ele>297.0</ele><time>2026-03-28T15:48:44Z</time></trkpt><trkpt lat="45.613927224475056" lon="10.051732403078594"><ele>299.0</ele><time>2026-03-28T15:48:45Z</time></trkpt><trkpt lat="45.613995030204535" lon="10.051698430328159"><ele>301.0</ele><time>2026-03-28T15:48:46Z</time></trkpt><trkpt lat="45.61406765946517" lon="10.051677611179985"><ele>301.0</ele><time>2026-03-28T15:48:47Z</time></trkpt><trkpt lat="45.61414306231436" lon="10.051662593799298"><ele>301.0</ele><time>2026-03-28T15:48:48Z</time></trkpt><trkpt lat="45.61424349216534" lon="10.05164229713322"><ele>301.0</ele><time>2026-03-28T15:48:49Z</time></trkpt><trkpt lat="45.61435921815296" lon="10.051627352368373"><ele>301.0</ele><time>2026-03-28T15:48:50Z</time></trkpt><trkpt lat="45.61446200692888" lon="10.05161629983116"><ele>301.0</ele><time>2026-03-28T15:48:51Z</time></trkpt><trkpt lat="45.61455148504738" lon="10.051610490739709"><ele>300.5</ele><time>2026-03-28T15:48:52Z</time></trkpt><trkpt lat="45.6146177171176" lon="10.051601704742774"><ele>300.0</ele><time>2026-03-28T15:48:53Z</time></trkpt><trkpt lat="45.61469716151934" lon="10.05161758962891"><ele>299.5</ele><time>2026-03-28T15:48:54Z</time></trkpt><trkpt lat="45.61479525788559" lon="10.051620688394596"><ele>299.0</ele><time>2026-03-28T15:48:56Z</time></trkpt><trkpt lat="45.614806394163715" lon="10.051716359580851"><ele>298.5</ele><time>2026-03-28T15:49:13Z</time></trkpt><trkpt lat="45.61487552274834" lon="10.051827651871257"><ele>298.0</ele><time>2026-03-28T15:49:19Z</time></trkpt><trkpt lat="45.61490238088642" lon="10.05195210704809"><ele>299.75</ele><time>2026-03-28T15:49:20Z</time></trkpt><trkpt lat="45.61492408102503" lon="10.052110844014576"><ele>301.5</ele><time>2026-03-28T15:49:21Z</time></trkpt><trkpt lat="45.61496012804424" lon="10.052207892437066"><ele>303.25</ele><time>2026-03-28T15:49:22Z</time></trkpt><trkpt lat="45.6150524054091" lon="10.052303412176204"><ele>305.0</ele><time>2026-03-28T15:49:23Z</time></trkpt><trkpt lat="45.615202142816685" lon="10.052462566671508"><ele>304.5</ele><time>2026-03-28T15:49:24Z</time></trkpt><trkpt lat="45.61534837610431" lon="10.0526237613562"><ele>304.0</ele><time>2026-03-28T15:49:25Z</time></trkpt><trkpt lat="45.61544204129926" lon="10.052771131875325"><ele>303.5</ele><time>2026-03-28T15:49:26Z</time></trkpt><trkpt lat="45.61553810630257" lon="10.052866496787953"><ele>303.0</ele><time>2026-03-28T15:49:27Z</time></trkpt><trkpt lat="45.6156269171799" lon="10.052969625445597"><ele>303.0</ele><time>2026-03-28T15:49:28Z</time></trkpt><trkpt lat="45.61570446784877" lon="10.053072748711484"><ele>303.0</ele><time>2026-03-28T15:49:29Z</time></trkpt><trkpt lat="45.61577663655068" lon="10.053165169910613"><ele>303.0</ele><time>2026-03-28T15:49:30Z</time></trkpt><trkpt lat="45.61583581177145" lon="10.053242049850354"><ele>303.0</ele><time>2026-03-28T15:49:31Z</time></trkpt><trkpt lat="45.61591227391693" lon="10.053297399508914"><ele>303.0</ele><time>2026-03-28T15:49:32Z</time></trkpt><trkpt lat="45.61598391363972" lon="10.05332822684641"><ele>303.0</ele><time>2026-03-28T15:49:33Z</time></trkpt><trkpt lat="45.61610853088935" lon="10.053325064207131"><ele>305.5</ele><time>2026-03-28T15:49:34Z</time></trkpt><trkpt lat="45.616176100630064" lon="10.053324894987794"><ele>308.0</ele><time>2026-03-28T15:49:35Z</time></trkpt><trkpt lat="45.61625264251058" lon="10.053465775858275"><ele>310.5</ele><time>2026-03-28T15:49:37Z</time></trkpt><trkpt lat="45.616378227217204" lon="10.053570655235514"><ele>313.0</ele><time>2026-03-28T15:49:39Z</time></trkpt><trkpt lat="45.61649783893582" lon="10.05363252961901"><ele>313.0</ele><time>2026-03-28T15:49:40Z</time></trkpt><trkpt lat="45.61661501921923" lon="10.05372416580183"><ele>313.0</ele><time>2026-03-28T15:49:41Z</time></trkpt><trkpt lat="45.616749599259144" lon="10.05382873775568"><ele>313.0</ele><time>2026-03-28T15:49:42Z</time></trkpt><trkpt lat="45.616881409405984" lon="10.053879374605891"><ele>313.0</ele><time>2026-03-28T15:49:43Z</time></trkpt><trkpt lat="45.616968927454025" lon="10.05393756025876"><ele>312.8</ele><time>2026-03-28T15:49:44Z</time></trkpt><trkpt lat="45.61707096535972" lon="10.054038674290474"><ele>312.6</ele><time>2026-03-28T15:49:46Z</time></trkpt><trkpt lat="45.6171340544499" lon="10.054102602050392"><ele>312.4</ele><time>2026-03-28T15:49:48Z</time></trkpt><trkpt lat="45.617191282102006" lon="10.054194380502368"><ele>312.2</ele><time>2026-03-28T15:49:50Z</time></trkpt><trkpt lat="45.617243499964324" lon="10.054287542467804"><ele>312.0</ele><time>2026-03-28T15:49:52Z</time></trkpt><trkpt lat="45.61728841802281" lon="10.054444007789646"><ele>312.8</ele><time>2026-03-28T15:49:54Z</time></trkpt><trkpt lat="45.61737031709088" lon="10.054545318835473"><ele>313.6</ele><time>2026-03-28T15:49:56Z</time></trkpt><trkpt lat="45.61741930157949" lon="10.054690516954166"><ele>314.40000000000003</ele><time>2026-03-28T15:49:58Z</time></trkpt><trkpt lat="45.617440770269916" lon="10.05479938209331"><ele>315.2</ele><time>2026-03-28T15:50:00Z</time></trkpt><trkpt lat="45.617479155413925" lon="10.05489854333484"><ele>316.0</ele><time>2026-03-28T15:50:01Z</time></trkpt><trkpt lat="45.61757982648515" lon="10.055053054343526"><ele>314.75</ele><time>2026-03-28T15:50:02Z</time></trkpt><trkpt lat="45.61767971649571" lon="10.055205704231529"><ele>313.5</ele><time>2026-03-28T15:50:03Z</time></trkpt><trkpt lat="45.61776174279349" lon="10.05530777211313"><ele>312.25</ele><time>2026-03-28T15:50:04Z</time></trkpt><trkpt lat="45.61785476236413" lon="10.055421021936818"><ele>311.0</ele><time>2026-03-28T15:50:05Z</time></trkpt><trkpt lat="45.61793470034673" lon="10.05552414368683"><ele>311.0</ele><time>2026-03-28T15:50:06Z</time></trkpt><trkpt lat="45.61800982936855" lon="10.055620366824334"><ele>311.0</ele><time>2026-03-28T15:50:07Z</time></trkpt><trkpt lat="45.61807119848459" lon="10.05568758792198"><ele>311.0</ele><time>2026-03-28T15:50:08Z</time></trkpt><trkpt lat="45.61810217028845" lon="10.055799289332796"><ele>311.0</ele><time>2026-03-28T15:50:09Z</time></trkpt><trkpt lat="45.61814697597807" lon="10.055906308197999"><ele>311.0</ele><time>2026-03-28T15:50:10Z</time></trkpt><trkpt lat="45.618202556331774" lon="10.055982602156668"><ele>311.0</ele><time>2026-03-28T15:50:11Z</time></trkpt><trkpt lat="45.618311376138074" lon="10.05607591046976"><ele>307.6666666666667</ele><time>2026-03-28T15:50:12Z</time></trkpt><trkpt lat="45.618461277433916" lon="10.056232332742237"><ele>304.3333333333333</ele><time>2026-03-28T15:50:13Z</time></trkpt><trkpt lat="45.61860009613141" lon="10.056389211265799"><ele>301.0</ele><time>2026-03-28T15:50:14Z</time></trkpt><trkpt lat="45.61870843837516" lon="10.056483353063374"><ele>301.0</ele><time>2026-03-28T15:50:15Z</time></trkpt><trkpt lat="45.61879182135209" lon="10.05655340263194"><ele>301.0</ele><time>2026-03-28T15:50:16Z</time></trkpt><trkpt lat="45.61886159037352" lon="10.056669582019838"><ele>301.0</ele><time>2026-03-28T15:50:18Z</time></trkpt><trkpt lat="45.61900761374475" lon="10.05672942145349"><ele>301.0</ele><time>2026-03-28T15:50:20Z</time></trkpt><trkpt lat="45.61910631728019" lon="10.056742494048295"><ele>297.25</ele><time>2026-03-28T15:50:21Z</time></trkpt><trkpt lat="45.619227699990866" lon="10.056788257175494"><ele>293.5</ele><time>2026-03-28T15:50:22Z</time></trkpt><trkpt lat="45.61936742520277" lon="10.056839142469032"><ele>289.75</ele><time>2026-03-28T15:50:23Z</time></trkpt><trkpt lat="45.619538882208936" lon="10.056904380248122"><ele>286.0</ele><time>2026-03-28T15:50:24Z</time></trkpt><trkpt lat="45.619715924157596" lon="10.056976643829472"><ele>286.0</ele><time>2026-03-28T15:50:25Z</time></trkpt><trkpt lat="45.61984712873834" lon="10.05702437287925"><ele>286.0</ele><time>2026-03-28T15:50:26Z</time></trkpt><trkpt lat="45.619963365356206" lon="10.057042004149727"><ele>286.0</ele><time>2026-03-28T15:50:27Z</time></trkpt><trkpt lat="45.620100725274796" lon="10.057051966260397"><ele>286.0</ele><time>2026-03-28T15:50:28Z</time></trkpt><trkpt lat="45.6202264971338" lon="10.057036877822183"><ele>288.0</ele><time>2026-03-28T15:50:29Z</time></trkpt><trkpt lat="45.620345082216765" lon="10.05702464883856"><ele>290.0</ele><time>2026-03-28T15:50:30Z</time></trkpt><trkpt lat="45.620496488684935" lon="10.056999987343444"><ele>292.0</ele><time>2026-03-28T15:50:31Z</time></trkpt><trkpt lat="45.620647844483194" lon="10.057031648049628"><ele>294.0</ele><time>2026-03-28T15:50:32Z</time></trkpt><trkpt lat="45.620750305785954" lon="10.057071286504303"><ele>294.0</ele><time>2026-03-28T15:50:33Z</time></trkpt><trkpt lat="45.620847582007414" lon="10.0570928867367"><ele>294.0</ele><time>2026-03-28T15:50:34Z</time></trkpt><trkpt lat="45.62095044527946" lon="10.057117447700392"><ele>294.0</ele><time>2026-03-28T15:50:35Z</time></trkpt><trkpt lat="45.621053409599796" lon="10.057092183168798"><ele>294.0</ele><time>2026-03-28T15:50:36Z</time></trkpt><trkpt lat="45.62113814324958" lon="10.057065309368276"><ele>294.0</ele><time>2026-03-28T15:50:37Z</time></trkpt><trkpt lat="45.62121080134558" lon="10.057094513425511"><ele>294.4</ele><time>2026-03-28T15:50:38Z</time></trkpt><trkpt lat="45.62130596428805" lon="10.057150869222045"><ele>294.79999999999995</ele><time>2026-03-28T15:50:39Z</time></trkpt><trkpt lat="45.621390293678196" lon="10.05716804821206"><ele>295.20000000000005</ele><time>2026-03-28T15:50:40Z</time></trkpt><trkpt lat="45.621484386518034" lon="10.057119325436824"><ele>295.6</ele><time>2026-03-28T15:50:41Z</time></trkpt><trkpt lat="45.62159121519461" lon="10.057034402684216"><ele>296.0</ele><time>2026-03-28T15:50:42Z</time></trkpt><trkpt lat="45.62172370841224" lon="10.05703187442776"><ele>296.0</ele><time>2026-03-28T15:50:43Z</time></trkpt><trkpt lat="45.621835423329344" lon="10.057063872990911"><ele>296.0</ele><time>2026-03-28T15:50:44Z</time></trkpt><trkpt lat="45.621949190870815" lon="10.057099661750708"><ele>296.0</ele><time>2026-03-28T15:50:45Z</time></trkpt><trkpt lat="45.62209412714703" lon="10.05712512083476"><ele>296.0</ele><time>2026-03-28T15:50:46Z</time></trkpt><trkpt lat="45.62220505627638" lon="10.057144504536561"><ele>298.0</ele><time>2026-03-28T15:50:47Z</time></trkpt><trkpt lat="45.62230046347837" lon="10.057137451535219"><ele>300.0</ele><time>2026-03-28T15:50:48Z</time></trkpt><trkpt lat="45.62241145297146" lon="10.057109926759185"><ele>302.0</ele><time>2026-03-28T15:50:49Z</time></trkpt><trkpt lat="45.622533510687184" lon="10.057095234213588"><ele>304.0</ele><time>2026-03-28T15:50:50Z</time></trkpt><trkpt lat="45.62266785329087" lon="10.057097249787105"><ele>305.0</ele><time>2026-03-28T15:50:51Z</time></trkpt><trkpt lat="45.62282936814191" lon="10.057068324067144"><ele>306.0</ele><time>2026-03-28T15:50:52Z</time></trkpt><trkpt lat="45.623017488047054" lon="10.056978113021794"><ele>307.0</ele><time>2026-03-28T15:50:53Z</time></trkpt><trkpt lat="45.62321034738039" lon="10.056867469027198"><ele>307.0</ele><time>2026-03-28T15:50:54Z</time></trkpt><trkpt lat="45.62335124347047" lon="10.056836201618411"><ele>307.0</ele><time>2026-03-28T15:50:55Z</time></trkpt><trkpt lat="45.62343931384787" lon="10.056828520789303"><ele>307.0</ele><time>2026-03-28T15:50:56Z</time></trkpt><trkpt lat="45.62350550827272" lon="10.05682293462102"><ele>307.0</ele><time>2026-03-28T15:50:57Z</time></trkpt><trkpt lat="45.62363813039473" lon="10.056872313215138"><ele>307.0</ele><time>2026-03-28T15:50:59Z</time></trkpt><trkpt lat="45.62371652905298" lon="10.056970603732573"><ele>306.6</ele><time>2026-03-28T15:51:00Z</time></trkpt><trkpt lat="45.62381026224254" lon="10.057059032383886"><ele>306.2</ele><time>2026-03-28T15:51:01Z</time></trkpt><trkpt lat="45.62391782524634" lon="10.057109957982105"><ele>305.8</ele><time>2026-03-28T15:51:02Z</time></trkpt><trkpt lat="45.62401656655215" lon="10.057134024667862"><ele>305.4</ele><time>2026-03-28T15:51:03Z</time></trkpt><trkpt lat="45.62410580698572" lon="10.05716882404239"><ele>305.0</ele><time>2026-03-28T15:51:04Z</time></trkpt><trkpt lat="45.624170478120085" lon="10.057216381742162"><ele>305.0</ele><time>2026-03-28T15:51:05Z</time></trkpt><trkpt lat="45.62427080708022" lon="10.057303845401185"><ele>305.0</ele><time>2026-03-28T15:51:07Z</time></trkpt><trkpt lat="45.624346392369745" lon="10.057358926818331"><ele>305.0</ele><time>2026-03-28T15:51:08Z</time></trkpt><trkpt lat="45.624404621549424" lon="10.057434580109616"><ele>305.0</ele><time>2026-03-28T15:51:09Z</time></trkpt><trkpt lat="45.624516550041626" lon="10.057559997131563"><ele>305.0</ele><time>2026-03-28T15:51:11Z</time></trkpt><trkpt lat="45.62458974300341" lon="10.057695958089857"><ele>303.5</ele><time>2026-03-28T15:51:13Z</time></trkpt><trkpt lat="45.62458572567345" lon="10.057822061539552"><ele>302.0</ele><time>2026-03-28T15:51:14Z</time></trkpt><trkpt lat="45.62455320748215" lon="10.057914952577837"><ele>300.5</ele><time>2026-03-28T15:51:15Z</time></trkpt><trkpt lat="45.62454807101516" lon="10.05802113154913"><ele>299.0</ele><time>2026-03-28T15:51:16Z</time></trkpt><trkpt lat="45.62453296243335" lon="10.058114677278764"><ele>297.5</ele><time>2026-03-28T15:51:17Z</time></trkpt><trkpt lat="45.62445486680405" lon="10.058254397874691"><ele>296.0</ele><time>2026-03-28T15:51:19Z</time></trkpt><trkpt lat="45.624387586295505" lon="10.058290964223563"><ele>291.6</ele><time>2026-03-28T15:51:20Z</time></trkpt><trkpt lat="45.62425917893798" lon="10.058346139339562"><ele>287.20000000000005</ele><time>2026-03-28T15:51:22Z</time></trkpt><trkpt lat="45.62419122637919" lon="10.058371906001618"><ele>282.79999999999995</ele><time>2026-03-28T15:51:23Z</time></trkpt><trkpt lat="45.62407296184538" lon="10.058448447604754"><ele>278.4</ele><time>2026-03-28T15:51:25Z</time></trkpt><trkpt lat="45.62401137723078" lon="10.05849739901781"><ele>274.0</ele><time>2026-03-28T15:51:26Z</time></trkpt><trkpt lat="45.62399898082538" lon="10.05865535861671"><ele>274.0</ele><time>2026-03-28T15:51:28Z</time></trkpt><trkpt lat="45.624034484503376" lon="10.058749676435198"><ele>274.0</ele><time>2026-03-28T15:51:29Z</time></trkpt><trkpt lat="45.62402110559505" lon="10.05884302535279"><ele>274.0</ele><time>2026-03-28T15:51:30Z</time></trkpt><trkpt lat="45.62392982442241" lon="10.058958328089876"><ele>274.0</ele><time>2026-03-28T15:51:32Z</time></trkpt><trkpt lat="45.62384076197959" lon="10.058963430969408"><ele>274.0</ele><time>2026-03-28T15:51:33Z</time></trkpt><trkpt lat="45.623719270559626" lon="10.059013174119329"><ele>275.4</ele><time>2026-03-28T15:51:34Z</time></trkpt><trkpt lat="45.62360165474289" lon="10.059081020124987"><ele>276.79999999999995</ele><time>2026-03-28T15:51:35Z</time></trkpt><trkpt lat="45.62348101843129" lon="10.05912854028838"><ele>278.20000000000005</ele><time>2026-03-28T15:51:36Z</time></trkpt><trkpt lat="45.62341561870735" lon="10.059157302635834"><ele>279.6</ele><time>2026-03-28T15:51:37Z</time></trkpt><trkpt lat="45.62333976921218" lon="10.059187808599845"><ele>281.0</ele><time>2026-03-28T15:51:38Z</time></trkpt><trkpt lat="45.6232400091571" lon="10.059245376539451"><ele>276.5</ele><time>2026-03-28T15:51:40Z</time></trkpt><trkpt lat="45.623269894345576" lon="10.059335631769466"><ele>272.0</ele><time>2026-03-28T15:51:42Z</time></trkpt><trkpt lat="45.62341352295623" lon="10.059372952368214"><ele>267.5</ele><time>2026-03-28T15:51:44Z</time></trkpt><trkpt lat="45.62353409763199" lon="10.059363425768325"><ele>263.0</ele><time>2026-03-28T15:51:45Z</time></trkpt><trkpt lat="45.62370741672303" lon="10.05937045982404"><ele>261.0</ele><time>2026-03-28T15:51:46Z</time></trkpt><trkpt lat="45.62392219396879" lon="10.059438557486514"><ele>259.0</ele><time>2026-03-28T15:51:47Z</time></trkpt><trkpt lat="45.62414420501297" lon="10.059529495933868"><ele>259.0</ele><time>2026-03-28T15:51:48Z</time></trkpt><trkpt lat="45.624387208286315" lon="10.059607581468168"><ele>259.0</ele><time>2026-03-28T15:51:49Z</time></trkpt><trkpt lat="45.62462879444634" lon="10.059658147382505"><ele>260.5</ele><time>2026-03-28T15:51:50Z</time></trkpt><trkpt lat="45.624795494567145" lon="10.059685079645892"><ele>262.0</ele><time>2026-03-28T15:51:51Z</time></trkpt><trkpt lat="45.624912474061944" lon="10.05971101790916"><ele>263.5</ele><time>2026-03-28T15:51:52Z</time></trkpt><trkpt lat="45.62498531271072" lon="10.05975149972789"><ele>265.0</ele><time>2026-03-28T15:51:53Z</time></trkpt><trkpt lat="45.62502231637179" lon="10.05989069669162"><ele>263.2</ele><time>2026-03-28T15:51:55Z</time></trkpt><trkpt lat="45.62498582631492" lon="10.06006527295552"><ele>261.4</ele><time>2026-03-28T15:51:56Z</time></trkpt><trkpt lat="45.624947051039136" lon="10.060226833436616"><ele>259.6</ele><time>2026-03-28T15:51:57Z</time></trkpt><trkpt lat="45.62493799580723" lon="10.060321659809166"><ele>257.8</ele><time>2026-03-28T15:51:58Z</time></trkpt><trkpt lat="45.6250165101088" lon="10.060407126031839"><ele>256.0</ele><time>2026-03-28T15:52:00Z</time></trkpt><trkpt lat="45.62510305148182" lon="10.060398554623449"><ele>256.0</ele><time>2026-03-28T15:52:01Z</time></trkpt><trkpt lat="45.625208094255875" lon="10.060427510685585"><ele>256.0</ele><time>2026-03-28T15:52:02Z</time></trkpt><trkpt lat="45.62530955252696" lon="10.060513875849173"><ele>256.0</ele><time>2026-03-28T15:52:03Z</time></trkpt><trkpt lat="45.62538158974459" lon="10.06061518959333"><ele>256.0</ele><time>2026-03-28T15:52:04Z</time></trkpt><trkpt lat="45.62545838378676" lon="10.060677111982422"><ele>256.0</ele><time>2026-03-28T15:52:05Z</time></trkpt><trkpt lat="45.62556934913242" lon="10.060681908084808"><ele>257.2</ele><time>2026-03-28T15:52:06Z</time></trkpt><trkpt lat="45.62569953285544" lon="10.060714539197592"><ele>258.40000000000003</ele><time>2026-03-28T15:52:07Z</time></trkpt><trkpt lat="45.62580184804379" lon="10.060712813716117"><ele>259.6</ele><time>2026-03-28T15:52:08Z</time></trkpt><trkpt lat="45.6258847309156" lon="10.06068431620464"><ele>260.8</ele><time>2026-03-28T15:52:09Z</time></trkpt><trkpt lat="45.6259576366224" lon="10.060634269501833"><ele>262.0</ele><time>2026-03-28T15:52:10Z</time></trkpt><trkpt lat="45.6260505360905" lon="10.060573904104558"><ele>263.5</ele><time>2026-03-28T15:52:11Z</time></trkpt><trkpt lat="45.626184973278164" lon="10.060563932211311"><ele>265.0</ele><time>2026-03-28T15:52:12Z</time></trkpt><trkpt lat="45.626335232957025" lon="10.06057306238136"><ele>266.5</ele><time>2026-03-28T15:52:13Z</time></trkpt><trkpt lat="45.62647496124412" lon="10.060571894016908"><ele>268.0</ele><time>2026-03-28T15:52:14Z</time></trkpt><trkpt lat="45.62659813534321" lon="10.06057931103697"><ele>268.0</ele><time>2026-03-28T15:52:15Z</time></trkpt><trkpt lat="45.62675732408456" lon="10.060640796076774"><ele>268.0</ele><time>2026-03-28T15:52:16Z</time></trkpt><trkpt lat="45.62696203652796" lon="10.060685677584178"><ele>268.0</ele><time>2026-03-28T15:52:17Z</time></trkpt><trkpt lat="45.6270936012479" lon="10.060722424953253"><ele>269.5</ele><time>2026-03-28T15:52:18Z</time></trkpt><trkpt lat="45.62721698470309" lon="10.060698647780912"><ele>271.0</ele><time>2026-03-28T15:52:19Z</time></trkpt><trkpt lat="45.62735782004821" lon="10.060700954828825"><ele>272.5</ele><time>2026-03-28T15:52:20Z</time></trkpt><trkpt lat="45.62748974865555" lon="10.060727771342954"><ele>274.0</ele><time>2026-03-28T15:52:21Z</time></trkpt><trkpt lat="45.62761064048191" lon="10.06080212856479"><ele>271.25</ele><time>2026-03-28T15:52:22Z</time></trkpt><trkpt lat="45.627744158368145" lon="10.060888263735935"><ele>268.5</ele><time>2026-03-28T15:52:23Z</time></trkpt><trkpt lat="45.62787295919971" lon="10.060920189322113"><ele>265.75</ele><time>2026-03-28T15:52:24Z</time></trkpt><trkpt lat="45.6279996669134" lon="10.06091534636717"><ele>263.0</ele><time>2026-03-28T15:52:25Z</time></trkpt><trkpt lat="45.628130273962505" lon="10.06092177846173"><ele>263.0</ele><time>2026-03-28T15:52:26Z</time></trkpt><trkpt lat="45.62824701723507" lon="10.060939953170042"><ele>263.0</ele><time>2026-03-28T15:52:27Z</time></trkpt><trkpt lat="45.6283557723194" lon="10.06095482046703"><ele>263.0</ele><time>2026-03-28T15:52:28Z</time></trkpt><trkpt lat="45.62845561392195" lon="10.060967209822405"><ele>263.0</ele><time>2026-03-28T15:52:29Z</time></trkpt><trkpt lat="45.62856036431015" lon="10.060990870739943"><ele>263.0</ele><time>2026-03-28T15:52:30Z</time></trkpt><trkpt lat="45.6286713238483" lon="10.061033280634723"><ele>261.8</ele><time>2026-03-28T15:52:31Z</time></trkpt><trkpt lat="45.62877053751241" lon="10.06107175962595"><ele>260.6</ele><time>2026-03-28T15:52:32Z</time></trkpt><trkpt lat="45.62885525586659" lon="10.061059039021279"><ele>259.4</ele><time>2026-03-28T15:52:33Z</time></trkpt><trkpt lat="45.628949688575126" lon="10.061055550024966"><ele>258.2</ele><time>2026-03-28T15:52:35Z</time></trkpt><trkpt lat="45.62888874968705" lon="10.06123396706605"><ele>257.0</ele><time>2026-03-28T15:52:38Z</time></trkpt><trkpt lat="45.628787280605806" lon="10.0613304020107"><ele>257.0</ele><time>2026-03-28T15:52:39Z</time></trkpt><trkpt lat="45.628653788429666" lon="10.061491435892476"><ele>257.0</ele><time>2026-03-28T15:52:40Z</time></trkpt><trkpt lat="45.62852677000387" lon="10.06166739445839"><ele>257.0</ele><time>2026-03-28T15:52:41Z</time></trkpt><trkpt lat="45.628428007861544" lon="10.061814007684967"><ele>256.0</ele><time>2026-03-28T15:52:42Z</time></trkpt><trkpt lat="45.62832708386277" lon="10.061945346011935"><ele>255.0</ele><time>2026-03-28T15:52:43Z</time></trkpt><trkpt lat="45.62822795563302" lon="10.062091892449205"><ele>254.0</ele><time>2026-03-28T15:52:44Z</time></trkpt><trkpt lat="45.628143132795216" lon="10.06225664792675"><ele>253.0</ele><time>2026-03-28T15:52:45Z</time></trkpt><trkpt lat="45.62808162839803" lon="10.06242156424057"><ele>251.66666666666666</ele><time>2026-03-28T15:52:46Z</time></trkpt><trkpt lat="45.62801757699081" lon="10.062589168739327"><ele>250.33333333333331</ele><time>2026-03-28T15:52:47Z</time></trkpt><trkpt lat="45.62796437916914" lon="10.062795559220985"><ele>249.0</ele><time>2026-03-28T15:52:48Z</time></trkpt><trkpt lat="45.62791553061671" lon="10.06308551420401"><ele>248.33333333333331</ele><time>2026-03-28T15:52:49Z</time></trkpt><trkpt lat="45.62787020623024" lon="10.063401389258651"><ele>247.66666666666666</ele><time>2026-03-28T15:52:50Z</time></trkpt><trkpt lat="45.62782894814505" lon="10.063669079626258"><ele>247.0</ele><time>2026-03-28T15:52:51Z</time></trkpt><trkpt lat="45.6277820586508" lon="10.063880609144935"><ele>247.0</ele><time>2026-03-28T15:52:52Z</time></trkpt><trkpt lat="45.62775201109961" lon="10.064074160808048"><ele>247.0</ele><time>2026-03-28T15:52:53Z</time></trkpt><trkpt lat="45.627740316991684" lon="10.064284263498877"><ele>247.0</ele><time>2026-03-28T15:52:54Z</time></trkpt><trkpt lat="45.627723704184646" lon="10.06449559159758"><ele>247.0</ele><time>2026-03-28T15:52:55Z</time></trkpt><trkpt lat="45.62767941701609" lon="10.06466963003044"><ele>246.33333333333331</ele><time>2026-03-28T15:52:56Z</time></trkpt><trkpt lat="45.62762724912345" lon="10.064804176946714"><ele>245.66666666666666</ele><time>2026-03-28T15:52:57Z</time></trkpt><trkpt lat="45.627577768261474" lon="10.064921470029503"><ele>245.0</ele><time>2026-03-28T15:52:58Z</time></trkpt><trkpt lat="45.62754573068873" lon="10.065008907253013"><ele>244.33333333333331</ele><time>2026-03-28T15:52:59Z</time></trkpt><trkpt lat="45.62756576600014" lon="10.065101618313175"><ele>243.66666666666666</ele><time>2026-03-28T15:53:05Z</time></trkpt><trkpt lat="45.62764669472296" lon="10.065187929051561"><ele>243.0</ele><time>2026-03-28T15:53:07Z</time></trkpt><trkpt lat="45.62777179378614" lon="10.065167741027423"><ele>243.0</ele><time>2026-03-28T15:53:14Z</time></trkpt><trkpt lat="45.62786777419873" lon="10.065152629991374"><ele>243.0</ele><time>2026-03-28T15:53:15Z</time></trkpt><trkpt lat="45.627960244963155" lon="10.065093240251747"><ele>243.0</ele><time>2026-03-28T15:53:16Z</time></trkpt><trkpt lat="45.62805835487117" lon="10.065006915193935"><ele>243.0</ele><time>2026-03-28T15:53:17Z</time></trkpt><trkpt lat="45.628174889302045" lon="10.064924234821024"><ele>243.0</ele><time>2026-03-28T15:53:18Z</time></trkpt><trkpt lat="45.6283169603845" lon="10.064861013101286"><ele>243.0</ele><time>2026-03-28T15:53:19Z</time></trkpt><trkpt lat="45.62847194432469" lon="10.064775783637032"><ele>243.0</ele><time>2026-03-28T15:53:20Z</time></trkpt><trkpt lat="45.62864718046004" lon="10.064710195252148"><ele>243.0</ele><time>2026-03-28T15:53:21Z</time></trkpt><trkpt lat="45.628821659212186" lon="10.064656979482704"><ele>244.25</ele><time>2026-03-28T15:53:22Z</time></trkpt><trkpt lat="45.628974024812194" lon="10.064591557943821"><ele>245.5</ele><time>2026-03-28T15:53:23Z</time></trkpt><trkpt lat="45.62911472214492" lon="10.064577343132044"><ele>246.75</ele><time>2026-03-28T15:53:24Z</time></trkpt><trkpt lat="45.629260326920736" lon="10.064568772780543"><ele>248.0</ele><time>2026-03-28T15:53:25Z</time></trkpt><trkpt lat="45.62940862789597" lon="10.064586722923517"><ele>248.5</ele><time>2026-03-28T15:53:26Z</time></trkpt><trkpt lat="45.62953303041676" lon="10.064588370496068"><ele>249.0</ele><time>2026-03-28T15:53:27Z</time></trkpt><trkpt lat="45.629646947952125" lon="10.064565084107231"><ele>249.5</ele><time>2026-03-28T15:53:28Z</time></trkpt><trkpt lat="45.62977562261765" lon="10.064570126087501"><ele>250.0</ele><time>2026-03-28T15:53:29Z</time></trkpt><trkpt lat="45.629899178838926" lon="10.064587741104807"><ele>250.0</ele><time>2026-03-28T15:53:30Z</time></trkpt><trkpt lat="45.62998726408842" lon="10.064580091168"><ele>250.0</ele><time>2026-03-28T15:53:31Z</time></trkpt><trkpt lat="45.630075334181896" lon="10.06455315434178"><ele>250.0</ele><time>2026-03-28T15:53:32Z</time></trkpt><trkpt lat="45.63016138270449" lon="10.064511427718955"><ele>250.0</ele><time>2026-03-28T15:53:33Z</time></trkpt><trkpt lat="45.630268820455505" lon="10.064457094964396"><ele>250.0</ele><time>2026-03-28T15:53:34Z</time></trkpt><trkpt lat="45.63037090256069" lon="10.06441582872147"><ele>250.6</ele><time>2026-03-28T15:53:35Z</time></trkpt><trkpt lat="45.63045044432348" lon="10.064411714281658"><ele>251.2</ele><time>2026-03-28T15:53:36Z</time></trkpt><trkpt lat="45.630548310694955" lon="10.064450559765678"><ele>251.8</ele><time>2026-03-28T15:53:38Z</time></trkpt><trkpt lat="45.63062750147434" lon="10.06449096276248"><ele>252.4</ele><time>2026-03-28T15:53:39Z</time></trkpt><trkpt lat="45.6307265378894" lon="10.064509230956194"><ele>253.0</ele><time>2026-03-28T15:53:40Z</time></trkpt><trkpt lat="45.63085491936232" lon="10.064490980247069"><ele>253.0</ele><time>2026-03-28T15:53:41Z</time></trkpt><trkpt lat="45.63100822950168" lon="10.064480879133468"><ele>253.0</ele><time>2026-03-28T15:53:42Z</time></trkpt><trkpt lat="45.63114117608357" lon="10.064421559712278"><ele>253.0</ele><time>2026-03-28T15:53:43Z</time></trkpt><trkpt lat="45.63126688806155" lon="10.064355965491629"><ele>253.0</ele><time>2026-03-28T15:53:44Z</time></trkpt><trkpt lat="45.6313995205335" lon="10.064274390598754"><ele>252.33333333333331</ele><time>2026-03-28T15:53:45Z</time></trkpt><trkpt lat="45.63155360702627" lon="10.064192479700052"><ele>251.66666666666669</ele><time>2026-03-28T15:53:46Z</time></trkpt><trkpt lat="45.6317147451787" lon="10.064080686644036"><ele>251.0</ele><time>2026-03-28T15:53:47Z</time></trkpt><trkpt lat="45.63187511842211" lon="10.063969625436776"><ele>254.0</ele><time>2026-03-28T15:53:48Z</time></trkpt><trkpt lat="45.6319960560979" lon="10.063909307271766"><ele>257.0</ele><time>2026-03-28T15:53:49Z</time></trkpt><trkpt lat="45.63209906051554" lon="10.063865711997204"><ele>260.0</ele><time>2026-03-28T15:53:50Z</time></trkpt><trkpt lat="45.632173986463236" lon="10.063845794295093"><ele>263.0</ele><time>2026-03-28T15:53:51Z</time></trkpt><trkpt lat="45.632257223986244" lon="10.06383618147612"><ele>266.0</ele><time>2026-03-28T15:53:52Z</time></trkpt><trkpt lat="45.63235442589879" lon="10.06384873850298"><ele>266.0</ele><time>2026-03-28T15:53:53Z</time></trkpt><trkpt lat="45.63244964563851" lon="10.063895762339742"><ele>266.0</ele><time>2026-03-28T15:53:54Z</time></trkpt><trkpt lat="45.632536238698776" lon="10.06396979221086"><ele>266.0</ele><time>2026-03-28T15:53:55Z</time></trkpt><trkpt lat="45.63261733268826" lon="10.064044904968837"><ele>266.0</ele><time>2026-03-28T15:53:56Z</time></trkpt><trkpt lat="45.63271675859606" lon="10.064113345593666"><ele>266.0</ele><time>2026-03-28T15:53:57Z</time></trkpt><trkpt lat="45.63276977881567" lon="10.064208674688519"><ele>270.40000000000003</ele><time>2026-03-28T15:53:58Z</time></trkpt><trkpt lat="45.632854455838874" lon="10.064286081752462"><ele>274.8</ele><time>2026-03-28T15:54:00Z</time></trkpt><trkpt lat="45.632888793727275" lon="10.064430217299012"><ele>279.20000000000005</ele><time>2026-03-28T15:54:01Z</time></trkpt><trkpt lat="45.632961354548776" lon="10.064536876256298"><ele>283.6</ele><time>2026-03-28T15:54:02Z</time></trkpt><trkpt lat="45.633046420175106" lon="10.064616126489202"><ele>288.0</ele><time>2026-03-28T15:54:03Z</time></trkpt><trkpt lat="45.633144751466205" lon="10.06467112346474"><ele>288.0</ele><time>2026-03-28T15:54:04Z</time></trkpt><trkpt lat="45.633214274247536" lon="10.064686996755531"><ele>288.0</ele><time>2026-03-28T15:54:06Z</time></trkpt><trkpt lat="45.633351064222566" lon="10.064682716431406"><ele>288.0</ele><time>2026-03-28T15:54:14Z</time></trkpt><trkpt lat="45.63344297405551" lon="10.064701415250278"><ele>288.0</ele><time>2026-03-28T15:54:15Z</time></trkpt><trkpt lat="45.63354892853937" lon="10.064721203422987"><ele>288.0</ele><time>2026-03-28T15:54:16Z</time></trkpt><trkpt lat="45.633654005079215" lon="10.064735126286688"><ele>288.6</ele><time>2026-03-28T15:54:17Z</time></trkpt><trkpt lat="45.63375106899815" lon="10.064759828487576"><ele>289.20000000000005</ele><time>2026-03-28T15:54:18Z</time></trkpt><trkpt lat="45.63384119576952" lon="10.064766240849986"><ele>289.8</ele><time>2026-03-28T15:54:19Z</time></trkpt><trkpt lat="45.63393747169485" lon="10.064749630806071"><ele>290.40000000000003</ele><time>2026-03-28T15:54:20Z</time></trkpt><trkpt lat="45.634036732467386" lon="10.064738018378245"><ele>291.0</ele><time>2026-03-28T15:54:21Z</time></trkpt><trkpt lat="45.63412873770417" lon="10.064716924713272"><ele>291.0</ele><time>2026-03-28T15:54:22Z</time></trkpt><trkpt lat="45.6342003674272" lon="10.064653311348197"><ele>291.0</ele><time>2026-03-28T15:54:23Z</time></trkpt><trkpt lat="45.63426832044758" lon="10.064630375507349"><ele>291.0</ele><time>2026-03-28T15:54:24Z</time></trkpt><trkpt lat="45.634340772008" lon="10.064622266415912"><ele>291.0</ele><time>2026-03-28T15:54:25Z</time></trkpt><trkpt lat="45.63445239183406" lon="10.06469476278215"><ele>291.0</ele><time>2026-03-28T15:54:26Z</time></trkpt><trkpt lat="45.634522652194164" lon="10.064828377117351"><ele>289.8</ele><time>2026-03-28T15:54:27Z</time></trkpt><trkpt lat="45.63458992589423" lon="10.064892954110112"><ele>288.6</ele><time>2026-03-28T15:54:28Z</time></trkpt><trkpt lat="45.63466958586727" lon="10.064920530677801"><ele>287.4</ele><time>2026-03-28T15:54:29Z</time></trkpt><trkpt lat="45.634780690715175" lon="10.064938275529704"><ele>286.2</ele><time>2026-03-28T15:54:30Z</time></trkpt><trkpt lat="45.63491698432784" lon="10.064880928313466"><ele>285.0</ele><time>2026-03-28T15:54:31Z</time></trkpt><trkpt lat="45.63504628476155" lon="10.064840421028608"><ele>285.0</ele><time>2026-03-28T15:54:32Z</time></trkpt><trkpt lat="45.63517115698746" lon="10.06479087408581"><ele>285.0</ele><time>2026-03-28T15:54:33Z</time></trkpt><trkpt lat="45.63529396329137" lon="10.064698469008409"><ele>285.0</ele><time>2026-03-28T15:54:34Z</time></trkpt><trkpt lat="45.63541759953329" lon="10.064626861994228"><ele>285.0</ele><time>2026-03-28T15:54:35Z</time></trkpt><trkpt lat="45.6355376281808" lon="10.064563679522454"><ele>286.2</ele><time>2026-03-28T15:54:36Z</time></trkpt><trkpt lat="45.63561978623154" lon="10.06451555313045"><ele>287.4</ele><time>2026-03-28T15:54:37Z</time></trkpt><trkpt lat="45.63569287731846" lon="10.064503218995165"><ele>288.6</ele><time>2026-03-28T15:54:38Z</time></trkpt><trkpt lat="45.63576864585558" lon="10.06449824959659"><ele>289.8</ele><time>2026-03-28T15:54:40Z</time></trkpt><trkpt lat="45.635752994014396" lon="10.064631845449066"><ele>291.0</ele><time>2026-03-28T15:54:41Z</time></trkpt><trkpt lat="45.6357803299139" lon="10.064819350001358"><ele>291.0</ele><time>2026-03-28T15:54:42Z</time></trkpt><trkpt lat="45.63578379841161" lon="10.06499297314102"><ele>291.0</ele><time>2026-03-28T15:54:43Z</time></trkpt><trkpt lat="45.63581273240692" lon="10.06514561983039"><ele>291.0</ele><time>2026-03-28T15:54:44Z</time></trkpt><trkpt lat="45.63581839349944" lon="10.06525270228603"><ele>291.0</ele><time>2026-03-28T15:54:45Z</time></trkpt><trkpt lat="45.63587595074291" lon="10.065342994383949"><ele>291.0</ele><time>2026-03-28T15:54:47Z</time></trkpt><trkpt lat="45.63601147158645" lon="10.065303754417048"><ele>291.0</ele><time>2026-03-28T15:54:49Z</time></trkpt><trkpt lat="45.63610884999856" lon="10.06524926065657"><ele>291.0</ele><time>2026-03-28T15:54:50Z</time></trkpt><trkpt lat="45.63620773376034" lon="10.06523767401836"><ele>291.0</ele><time>2026-03-28T15:54:51Z</time></trkpt><trkpt lat="45.63630384488957" lon="10.065256589358487"><ele>291.0</ele><time>2026-03-28T15:54:52Z</time></trkpt><trkpt lat="45.63639024327314" lon="10.065272393741875"><ele>291.0</ele><time>2026-03-28T15:54:53Z</time></trkpt><trkpt lat="45.63645679703932" lon="10.065271335654785"><ele>292.0</ele><time>2026-03-28T15:54:55Z</time></trkpt><trkpt lat="45.636526259823874" lon="10.0652338173147"><ele>293.0</ele><time>2026-03-28T15:55:01Z</time></trkpt><trkpt lat="45.63661451832287" lon="10.065215757898597"><ele>294.0</ele><time>2026-03-28T15:55:02Z</time></trkpt><trkpt lat="45.63670452468768" lon="10.065201332781857"><ele>295.0</ele><time>2026-03-28T15:55:03Z</time></trkpt><trkpt lat="45.63679178408314" lon="10.06524139221838"><ele>296.0</ele><time>2026-03-28T15:55:04Z</time></trkpt><trkpt lat="45.63685478825446" lon="10.065258362085375"><ele>297.0</ele><time>2026-03-28T15:55:05Z</time></trkpt><trkpt lat="45.636937954360725" lon="10.065264562560165"><ele>299.0</ele><time>2026-03-28T15:55:08Z</time></trkpt><trkpt lat="45.637042020076365" lon="10.06506046628311"><ele>301.0</ele><time>2026-03-28T15:55:09Z</time></trkpt><trkpt lat="45.637140873510745" lon="10.064961349930233"><ele>303.0</ele><time>2026-03-28T15:55:10Z</time></trkpt><trkpt lat="45.637255449023606" lon="10.064839746983342"><ele>305.0</ele><time>2026-03-28T15:55:11Z</time></trkpt><trkpt lat="45.63737125369749" lon="10.06470459029321"><ele>306.6</ele><time>2026-03-28T15:55:12Z</time></trkpt><trkpt lat="45.637459300142986" lon="10.064598926216258"><ele>308.2</ele><time>2026-03-28T15:55:13Z</time></trkpt><trkpt lat="45.63751062518286" lon="10.064527349139299"><ele>309.8</ele><time>2026-03-28T15:55:14Z</time></trkpt><trkpt lat="45.63755765905577" lon="10.064421542715772"><ele>311.4</ele><time>2026-03-28T15:55:15Z</time></trkpt><trkpt lat="45.63761686668507" lon="10.064299693939658"><ele>313.0</ele><time>2026-03-28T15:55:16Z</time></trkpt><trkpt lat="45.637662191532165" lon="10.064213335175882"><ele>313.0</ele><time>2026-03-28T15:55:17Z</time></trkpt><trkpt lat="45.637745385529065" lon="10.06416066573299"><ele>313.0</ele><time>2026-03-28T15:55:19Z</time></trkpt><trkpt lat="45.6378319542239" lon="10.064302175726482"><ele>313.0</ele><time>2026-03-28T15:55:20Z</time></trkpt><trkpt lat="45.637910323105096" lon="10.064322069024675"><ele>313.0</ele><time>2026-03-28T15:55:21Z</time></trkpt><trkpt lat="45.63798522199493" lon="10.064314133502517"><ele>313.0</ele><time>2026-03-28T15:55:22Z</time></trkpt><trkpt lat="45.63808545671228" lon="10.064195524291163"><ele>318.5</ele><time>2026-03-28T15:55:23Z</time></trkpt><trkpt lat="45.63818415161277" lon="10.06400130155385"><ele>324.0</ele><time>2026-03-28T15:55:24Z</time></trkpt><trkpt lat="45.638247928532195" lon="10.063850845002309"><ele>329.5</ele><time>2026-03-28T15:55:25Z</time></trkpt><trkpt lat="45.6382562072108" lon="10.063708485885401"><ele>335.0</ele><time>2026-03-28T15:55:26Z</time></trkpt><trkpt lat="45.63827827447577" lon="10.063574555506396"><ele>335.0</ele><time>2026-03-28T15:55:27Z</time></trkpt><trkpt lat="45.63829298702907" lon="10.06348526225238"><ele>335.0</ele><time>2026-03-28T15:55:28Z</time></trkpt><trkpt lat="45.638526487946855" lon="10.063520791591127"><ele>335.0</ele><time>2026-03-28T15:55:31Z</time></trkpt><trkpt lat="45.63862814073759" lon="10.063573780928639"><ele>335.0</ele><time>2026-03-28T15:55:33Z</time></trkpt><trkpt lat="45.63877232770401" lon="10.063592905879895"><ele>338.2</ele><time>2026-03-28T15:55:59Z</time></trkpt><trkpt lat="45.638882261954166" lon="10.063608944047056"><ele>341.4</ele><time>2026-03-28T15:56:01Z</time></trkpt><trkpt lat="45.63898616731603" lon="10.063552637944413"><ele>344.6</ele><time>2026-03-28T15:56:03Z</time></trkpt><trkpt lat="45.63905136306071" lon="10.063545265489273"><ele>347.8</ele><time>2026-03-28T15:56:04Z</time></trkpt><trkpt lat="45.639151666267956" lon="10.063569517995004"><ele>351.0</ele><time>2026-03-28T15:56:05Z</time></trkpt><trkpt lat="45.63925201097555" lon="10.06360137492623"><ele>351.0</ele><time>2026-03-28T15:56:06Z</time></trkpt><trkpt lat="45.63934166907528" lon="10.063653863422648"><ele>351.0</ele><time>2026-03-28T15:56:07Z</time></trkpt><trkpt lat="45.639422866908866" lon="10.063721550972714"><ele>351.0</ele><time>2026-03-28T15:56:08Z</time></trkpt><trkpt lat="45.639479318209624" lon="10.063763739667728"><ele>351.0</ele><time>2026-03-28T15:56:09Z</time></trkpt><trkpt lat="45.63956087198249" lon="10.063850185949963"><ele>351.0</ele><time>2026-03-28T15:56:10Z</time></trkpt><trkpt lat="45.63964605024908" lon="10.06389905978006"><ele>351.0</ele><time>2026-03-28T15:56:11Z</time></trkpt><trkpt lat="45.63974834389207" lon="10.0639489925608"><ele>353.4</ele><time>2026-03-28T15:56:12Z</time></trkpt><trkpt lat="45.6398415780646" lon="10.064019491212589"><ele>355.8</ele><time>2026-03-28T15:56:13Z</time></trkpt><trkpt lat="45.63993424785091" lon="10.06408351636622"><ele>358.2</ele><time>2026-03-28T15:56:14Z</time></trkpt><trkpt lat="45.64000791700819" lon="10.064144844896221"><ele>360.59999999999997</ele><time>2026-03-28T15:56:15Z</time></trkpt><trkpt lat="45.64015876760644" lon="10.064157538696609"><ele>363.0</ele><time>2026-03-28T15:56:17Z</time></trkpt><trkpt lat="45.64025066568083" lon="10.064126872425016"><ele>363.0</ele><time>2026-03-28T15:56:18Z</time></trkpt><trkpt lat="45.640336188357146" lon="10.064126506779205"><ele>363.0</ele><time>2026-03-28T15:56:19Z</time></trkpt><trkpt lat="45.640407710997664" lon="10.064174798315394"><ele>363.0</ele><time>2026-03-28T15:56:20Z</time></trkpt><trkpt lat="45.64038519918697" lon="10.064304670744006"><ele>363.0</ele><time>2026-03-28T15:56:22Z</time></trkpt><trkpt lat="45.640301692358335" lon="10.06433654055826"><ele>363.0</ele><time>2026-03-28T15:56:23Z</time></trkpt><trkpt lat="45.64020933644619" lon="10.064378592332293"><ele>363.0</ele><time>2026-03-28T15:56:24Z</time></trkpt><trkpt lat="45.64013732422593" lon="10.064431811875567"><ele>363.0</ele><time>2026-03-28T15:56:25Z</time></trkpt><trkpt lat="45.64006079858956" lon="10.064567298306104"><ele>363.0</ele><time>2026-03-28T15:56:26Z</time></trkpt><trkpt lat="45.63997375338848" lon="10.064703187218837"><ele>363.0</ele><time>2026-03-28T15:56:27Z</time></trkpt><trkpt lat="45.63987358706123" lon="10.06483679854709"><ele>363.0</ele><time>2026-03-28T15:56:28Z</time></trkpt><trkpt lat="45.63977590534928" lon="10.064984699464649"><ele>359.0</ele><time>2026-03-28T15:56:29Z</time></trkpt><trkpt lat="45.63968365027066" lon="10.065141371541964"><ele>355.0</ele><time>2026-03-28T15:56:30Z</time></trkpt><trkpt lat="45.63959577947732" lon="10.065302132404591"><ele>351.0</ele><time>2026-03-28T15:56:31Z</time></trkpt><trkpt lat="45.6395194016802" lon="10.065472436119371"><ele>347.0</ele><time>2026-03-28T15:56:32Z</time></trkpt><trkpt lat="45.63941207115353" lon="10.065628012552573"><ele>347.0</ele><time>2026-03-28T15:56:33Z</time></trkpt><trkpt lat="45.63930723274224" lon="10.065762286531937"><ele>347.0</ele><time>2026-03-28T15:56:34Z</time></trkpt><trkpt lat="45.639244170519035" lon="10.065876253808051"><ele>347.0</ele><time>2026-03-28T15:56:35Z</time></trkpt><trkpt lat="45.63922550414336" lon="10.065988685591687"><ele>347.0</ele><time>2026-03-28T15:56:36Z</time></trkpt><trkpt lat="45.63921261191597" lon="10.066110988194694"><ele>347.0</ele><time>2026-03-28T15:56:37Z</time></trkpt><trkpt lat="45.63920832714453" lon="10.06623507959595"><ele>350.33333333333337</ele><time>2026-03-28T15:56:38Z</time></trkpt><trkpt lat="45.639245966327934" lon="10.066339252077343"><ele>353.6666666666667</ele><time>2026-03-28T15:56:39Z</time></trkpt><trkpt lat="45.63930526521962" lon="10.066411415642436"><ele>357.0</ele><time>2026-03-28T15:56:40Z</time></trkpt><trkpt lat="45.639382932309104" lon="10.066448409724229"><ele>360.3333333333333</ele><time>2026-03-28T15:56:41Z</time></trkpt><trkpt lat="45.63945992641233" lon="10.066411365765248"><ele>363.66666666666663</ele><time>2026-03-28T15:56:46Z</time></trkpt><trkpt lat="45.639549412154054" lon="10.066441702033433"><ele>367.0</ele><time>2026-03-28T15:56:49Z</time></trkpt><trkpt lat="45.63961493529086" lon="10.066440890999315"><ele>374.40000000000003</ele><time>2026-03-28T15:56:51Z</time></trkpt><trkpt lat="45.63969400198942" lon="10.066462630284112"><ele>381.8</ele><time>2026-03-28T15:56:55Z</time></trkpt><trkpt lat="45.63978576052423" lon="10.066463079418424"><ele>389.2</ele><time>2026-03-28T15:56:57Z</time></trkpt><trkpt lat="45.639866415697135" lon="10.066457891906335"><ele>396.6</ele><time>2026-03-28T15:56:59Z</time></trkpt><trkpt lat="45.63996783534601" lon="10.066479642716335"><ele>404.0</ele><time>2026-03-28T15:57:01Z</time></trkpt><trkpt lat="45.6400854947122" lon="10.066461123505638"><ele>404.0</ele><time>2026-03-28T15:57:03Z</time></trkpt><trkpt lat="45.64010584861944" lon="10.066314146435946"><ele>404.0</ele><time>2026-03-28T15:57:05Z</time></trkpt><trkpt lat="45.640109817624044" lon="10.06620021954992"><ele>404.0</ele><time>2026-03-28T15:57:06Z</time></trkpt><trkpt lat="45.640129098850686" lon="10.066112375239245"><ele>404.0</ele><time>2026-03-28T15:57:07Z</time></trkpt><trkpt lat="45.640264935166236" lon="10.066036028478418"><ele>404.0</ele><time>2026-03-28T15:57:09Z</time></trkpt><trkpt lat="45.64034700230696" lon="10.066008466478253"><ele>406.66666666666663</ele><time>2026-03-28T15:57:10Z</time></trkpt><trkpt lat="45.64041385426412" lon="10.066017917048113"><ele>409.3333333333333</ele><time>2026-03-28T15:57:11Z</time></trkpt><trkpt lat="45.64049589018847" lon="10.066070866424496"><ele>412.0</ele><time>2026-03-28T15:57:12Z</time></trkpt><trkpt lat="45.64058521187521" lon="10.066028974473651"><ele>414.66666666666663</ele><time>2026-03-28T15:57:13Z</time></trkpt><trkpt lat="45.64063817557931" lon="10.065961087155994"><ele>417.3333333333333</ele><time>2026-03-28T15:57:14Z</time></trkpt><trkpt lat="45.64067240284222" lon="10.065821971514803"><ele>420.0</ele><time>2026-03-28T15:57:16Z</time></trkpt><trkpt lat="45.64072691768336" lon="10.0657610744226"><ele>420.0</ele><time>2026-03-28T15:57:17Z</time></trkpt><trkpt lat="45.640795861550366" lon="10.065746347460866"><ele>420.0</ele><time>2026-03-28T15:57:34Z</time></trkpt><trkpt lat="45.64086823273528" lon="10.065694215246095"><ele>420.0</ele><time>2026-03-28T15:57:39Z</time></trkpt><trkpt lat="45.640948042409" lon="10.065660815568396"><ele>420.0</ele><time>2026-03-28T15:57:42Z</time></trkpt><trkpt lat="45.64103535931276" lon="10.065663284842554"><ele>420.0</ele><time>2026-03-28T15:57:44Z</time></trkpt><trkpt lat="45.641145340223595" lon="10.065709325913982"><ele>420.0</ele><time>2026-03-28T15:57:46Z</time></trkpt><trkpt lat="45.64126428615334" lon="10.065668693145607"><ele>427.4</ele><time>2026-03-28T15:57:48Z</time></trkpt><trkpt lat="45.64133912538291" lon="10.065594981963764"><ele>434.8</ele><time>2026-03-28T15:57:50Z</time></trkpt><trkpt lat="45.6414243150964" lon="10.065474349640773"><ele>442.20000000000005</ele><time>2026-03-28T15:57:52Z</time></trkpt><trkpt lat="45.64150075665251" lon="10.065473296298157"><ele>449.6</ele><time>2026-03-28T15:57:53Z</time></trkpt><trkpt lat="45.64161421502134" lon="10.065464163770814"><ele>457.0</ele><time>2026-03-28T15:57:55Z</time></trkpt><trkpt lat="45.6417055141417" lon="10.06548934664105"><ele>457.0</ele><time>2026-03-28T15:57:57Z</time></trkpt><trkpt lat="45.64182009277221" lon="10.065517687140881"><ele>457.00000000000006</ele><time>2026-03-28T15:57:59Z</time></trkpt><trkpt lat="45.64189121488892" lon="10.065480886117928"><ele>457.00000000000006</ele><time>2026-03-28T15:58:00Z</time></trkpt><trkpt lat="45.64195193974463" lon="10.065430342259301"><ele>457.0</ele><time>2026-03-28T15:58:01Z</time></trkpt><trkpt lat="45.642045075702505" lon="10.065282483636913"><ele>457.0</ele><time>2026-03-28T15:58:03Z</time></trkpt><trkpt lat="45.642106035457324" lon="10.065211188464964"><ele>463.8</ele><time>2026-03-28T15:58:04Z</time></trkpt><trkpt lat="45.6421734635374" lon="10.06518399943456"><ele>470.6</ele><time>2026-03-28T15:58:05Z</time></trkpt><trkpt lat="45.64229209589658" lon="10.065199766501221"><ele>477.40000000000003</ele><time>2026-03-28T15:58:07Z</time></trkpt><trkpt lat="45.64238074265443" lon="10.065235588665354"><ele>484.20000000000005</ele><time>2026-03-28T15:58:09Z</time></trkpt><trkpt lat="45.64249704977559" lon="10.065248691773931"><ele>491.0</ele><time>2026-03-28T15:58:11Z</time></trkpt><trkpt lat="45.64255243868901" lon="10.06516242331716"><ele>490.99999999999994</ele><time>2026-03-28T15:58:12Z</time></trkpt><trkpt lat="45.64262601039493" lon="10.065100735544169"><ele>491.0</ele><time>2026-03-28T15:58:13Z</time></trkpt><trkpt lat="45.64266434441145" lon="10.065015471902345"><ele>491.0</ele><time>2026-03-28T15:58:14Z</time></trkpt><trkpt lat="45.64265042887549" lon="10.064895055063335"><ele>491.0</ele><time>2026-03-28T15:58:15Z</time></trkpt><trkpt lat="45.64270456233786" lon="10.064829510960728"><ele>490.99999999999994</ele><time>2026-03-28T15:58:16Z</time></trkpt><trkpt lat="45.64276556216044" lon="10.064765297816175"><ele>491.0</ele><time>2026-03-28T15:58:17Z</time></trkpt><trkpt lat="45.64285439390092" lon="10.064720203127289"><ele>495.20000000000005</ele><time>2026-03-28T15:58:18Z</time></trkpt><trkpt lat="45.64293160690844" lon="10.064667638119268"><ele>499.40000000000003</ele><time>2026-03-28T15:58:19Z</time></trkpt><trkpt lat="45.64299073235511" lon="10.064607078477726"><ele>503.6</ele><time>2026-03-28T15:58:20Z</time></trkpt><trkpt lat="45.643049470855935" lon="10.064505292812576"><ele>507.8</ele><time>2026-03-28T15:58:21Z</time></trkpt><trkpt lat="45.64317607831817" lon="10.064419937482764"><ele>512.0</ele><time>2026-03-28T15:58:35Z</time></trkpt><trkpt lat="45.64322842887984" lon="10.064251789393817"><ele>511.99999999999994</ele><time>2026-03-28T15:58:37Z</time></trkpt><trkpt lat="45.643260095502946" lon="10.06416880964814"><ele>512.0</ele><time>2026-03-28T15:58:38Z</time></trkpt><trkpt lat="45.64337105635292" lon="10.06410434146061"><ele>512.0</ele><time>2026-03-28T15:58:40Z</time></trkpt><trkpt lat="45.643437448478366" lon="10.064065776589482"><ele>512.0</ele><time>2026-03-28T15:58:41Z</time></trkpt><trkpt lat="45.64349435165818" lon="10.06400979213144"><ele>511.99999999999994</ele><time>2026-03-28T15:58:42Z</time></trkpt><trkpt lat="45.643545254607204" lon="10.063926766590825"><ele>512.0</ele><time>2026-03-28T15:58:43Z</time></trkpt><trkpt lat="45.643600670128976" lon="10.063847858764147"><ele>515.3333333333333</ele><time>2026-03-28T15:58:44Z</time></trkpt><trkpt lat="45.64366191914397" lon="10.063774483532372"><ele>518.6666666666666</ele><time>2026-03-28T15:58:45Z</time></trkpt><trkpt lat="45.64370798579837" lon="10.063700662368682"><ele>522.0</ele><time>2026-03-28T15:58:46Z</time></trkpt><trkpt lat="45.64374046107977" lon="10.063590886827042"><ele>525.3333333333334</ele><time>2026-03-28T15:58:47Z</time></trkpt><trkpt lat="45.6437771872768" lon="10.063480220906058"><ele>528.6666666666667</ele><time>2026-03-28T15:58:48Z</time></trkpt><trkpt lat="45.6437937596964" lon="10.063374025226397"><ele>532.0</ele><time>2026-03-28T15:58:49Z</time></trkpt><trkpt lat="45.64387246788159" lon="10.063313918956462"><ele>532.0</ele><time>2026-03-28T15:58:50Z</time></trkpt><trkpt lat="45.643970244066196" lon="10.063289447316823"><ele>532.0</ele><time>2026-03-28T15:58:51Z</time></trkpt><trkpt lat="45.64403475012399" lon="10.063255874492544"><ele>532.0</ele><time>2026-03-28T15:58:52Z</time></trkpt><trkpt lat="45.64412428455228" lon="10.063168595103047"><ele>532.0</ele><time>2026-03-28T15:58:53Z</time></trkpt><trkpt lat="45.644252062467025" lon="10.063135750182992"><ele>532.0</ele><time>2026-03-28T15:58:54Z</time></trkpt><trkpt lat="45.64440362750859" lon="10.063086720270654"><ele>535.0</ele><time>2026-03-28T15:58:55Z</time></trkpt><trkpt lat="45.64450393315911" lon="10.063029300952163"><ele>538.0</ele><time>2026-03-28T15:58:56Z</time></trkpt><trkpt lat="45.64456604455944" lon="10.062927095129446"><ele>541.0</ele><time>2026-03-28T15:58:57Z</time></trkpt><trkpt lat="45.6446488360714" lon="10.062846102717865"><ele>544.0</ele><time>2026-03-28T15:58:58Z</time></trkpt><trkpt lat="45.64472318940243" lon="10.06281053061494"><ele>547.0</ele><time>2026-03-28T15:58:59Z</time></trkpt><trkpt lat="45.64480073322108" lon="10.062689888484373"><ele>547.0</ele><time>2026-03-28T15:59:01Z</time></trkpt><trkpt lat="45.64482842735896" lon="10.062585094456551"><ele>547.0</ele><time>2026-03-28T15:59:02Z</time></trkpt><trkpt lat="45.64488133192671" lon="10.062466659196192"><ele>547.0</ele><time>2026-03-28T15:59:04Z</time></trkpt><trkpt lat="45.64493257628823" lon="10.062382718468339"><ele>547.0</ele><time>2026-03-28T15:59:06Z</time></trkpt><trkpt lat="45.64498721321975" lon="10.062284615395914"><ele>547.0</ele><time>2026-03-28T15:59:08Z</time></trkpt><trkpt lat="45.64497331892228" lon="10.062188667513047"><ele>547.0</ele><time>2026-03-28T15:59:19Z</time></trkpt><trkpt lat="45.64490457693323" lon="10.062116837731942"><ele>550.6</ele><time>2026-03-28T15:59:27Z</time></trkpt><trkpt lat="45.6447893150218" lon="10.062143638108127"><ele>554.2</ele><time>2026-03-28T15:59:29Z</time></trkpt><trkpt lat="45.644695594873625" lon="10.062114871399878"><ele>557.8</ele><time>2026-03-28T15:59:32Z</time></trkpt><trkpt lat="45.64464275862758" lon="10.06204609099322"><ele>561.4</ele><time>2026-03-28T15:59:33Z</time></trkpt><trkpt lat="45.644598726968084" lon="10.061941511728575"><ele>565.0</ele><time>2026-03-28T15:59:34Z</time></trkpt><trkpt lat="45.6444989412588" lon="10.061926308073003"><ele>565.0</ele><time>2026-03-28T15:59:36Z</time></trkpt><trkpt lat="45.6444435229212" lon="10.061969958849954"><ele>565.0</ele><time>2026-03-28T15:59:38Z</time></trkpt><trkpt lat="45.64438215502414" lon="10.062071989081286"><ele>565.0</ele><time>2026-03-28T15:59:40Z</time></trkpt><trkpt lat="45.64435634080844" lon="10.062158014977195"><ele>565.0</ele><time>2026-03-28T15:59:41Z</time></trkpt><trkpt lat="45.64441626586706" lon="10.06224380696092"><ele>565.0</ele><time>2026-03-28T15:59:43Z</time></trkpt><trkpt lat="45.644510015645466" lon="10.06228900714248"><ele>565.0</ele><time>2026-03-28T15:59:45Z</time></trkpt><trkpt lat="45.64458441293717" lon="10.062260396360742"><ele>565.0</ele><time>2026-03-28T15:59:46Z</time></trkpt><trkpt lat="45.644691305336195" lon="10.06230115253436"><ele>565.0</ele><time>2026-03-28T15:59:48Z</time></trkpt><trkpt lat="45.644746287235776" lon="10.062405543821262"><ele>565.0</ele><time>2026-03-28T15:59:50Z</time></trkpt><trkpt lat="45.644747345617276" lon="10.06250972480906"><ele>565.0</ele><time>2026-03-28T15:59:51Z</time></trkpt><trkpt lat="45.644667960135244" lon="10.062567323537506"><ele>565.0</ele><time>2026-03-28T15:59:54Z</time></trkpt><trkpt lat="45.64458138517382" lon="10.062638973867907"><ele>566.1666666666667</ele><time>2026-03-28T15:59:57Z</time></trkpt><trkpt lat="45.64448293797635" lon="10.062610865622137"><ele>567.3333333333334</ele><time>2026-03-28T15:59:59Z</time></trkpt><trkpt lat="45.64440937590203" lon="10.062635386878792"><ele>568.5</ele><time>2026-03-28T16:00:00Z</time></trkpt><trkpt lat="45.644323829043294" lon="10.062612204496675"><ele>569.6666666666666</ele><time>2026-03-28T16:00:02Z</time></trkpt><trkpt lat="45.64430621757863" lon="10.062502711741296"><ele>570.8333333333333</ele><time>2026-03-28T16:00:04Z</time></trkpt><trkpt lat="45.644305454952885" lon="10.062394716587395"><ele>572.0</ele><time>2026-03-28T16:00:05Z</time></trkpt><trkpt lat="45.64429917697337" lon="10.062279286138978"><ele>572.0</ele><time>2026-03-28T16:00:06Z</time></trkpt><trkpt lat="45.64439881739662" lon="10.06217346360036"><ele>572.0</ele><time>2026-03-28T16:00:08Z</time></trkpt><trkpt lat="45.644411006046994" lon="10.06203031703056"><ele>572.0</ele><time>2026-03-28T16:00:10Z</time></trkpt><trkpt lat="45.64442429937241" lon="10.06185347272942"><ele>572.0</ele><time>2026-03-28T16:00:12Z</time></trkpt><trkpt lat="45.64441054094044" lon="10.06166462828475"><ele>572.0</ele><time>2026-03-28T16:00:14Z</time></trkpt><trkpt lat="45.64435326725584" lon="10.061556541072026"><ele>572.0</ele><time>2026-03-28T16:00:16Z</time></trkpt><trkpt lat="45.64429946432862" lon="10.061607583883541"><ele>572.0</ele><time>2026-03-28T16:00:19Z</time></trkpt><trkpt lat="45.64424862065731" lon="10.061661108535965"><ele>572.0</ele><time>2026-03-28T16:00:52Z</time></trkpt><trkpt lat="45.6441830757534" lon="10.061731904675385"><ele>572.0</ele><time>2026-03-28T16:00:57Z</time></trkpt><trkpt lat="45.64413900117162" lon="10.061864364997302"><ele>572.0</ele><time>2026-03-28T16:00:59Z</time></trkpt><trkpt lat="45.64410325702088" lon="10.06195754925685"><ele>572.0</ele><time>2026-03-28T16:01:01Z</time></trkpt><trkpt lat="45.64405334819023" lon="10.06206068383765"><ele>572.0</ele><time>2026-03-28T16:01:03Z</time></trkpt><trkpt lat="45.64397650787827" lon="10.062116895652343"><ele>572.0</ele><time>2026-03-28T16:01:05Z</time></trkpt><trkpt lat="45.6439071707242" lon="10.062234004992511"><ele>572.0</ele><time>2026-03-28T16:01:07Z</time></trkpt><trkpt lat="45.64383852647351" lon="10.062308202872916"><ele>572.0</ele><time>2026-03-28T16:01:09Z</time></trkpt><trkpt lat="45.64372027448492" lon="10.062284330829435"><ele>572.0</ele><time>2026-03-28T16:01:12Z</time></trkpt><trkpt lat="45.64373050810895" lon="10.062186568739929"><ele>572.0</ele><time>2026-03-28T16:01:14Z</time></trkpt><trkpt lat="45.64375740787259" lon="10.062098466735097"><ele>572.0</ele><time>2026-03-28T16:01:16Z</time></trkpt><trkpt lat="45.6437955548626" lon="10.062011335643268"><ele>572.0</ele><time>2026-03-28T16:01:18Z</time></trkpt><trkpt lat="45.64383135458203" lon="10.061869504140038"><ele>572.0</ele><time>2026-03-28T16:01:20Z</time></trkpt><trkpt lat="45.643889548264355" lon="10.061783627411382"><ele>572.0</ele><time>2026-03-28T16:01:22Z</time></trkpt><trkpt lat="45.64394776606099" lon="10.061704046428023"><ele>572.0</ele><time>2026-03-28T16:01:24Z</time></trkpt><trkpt lat="45.64407040837879" lon="10.061662116231417"><ele>572.0</ele><time>2026-03-28T16:01:27Z</time></trkpt><trkpt lat="45.64414486267948" lon="10.061660121597503"><ele>572.0</ele><time>2026-03-28T16:01:30Z</time></trkpt><trkpt lat="45.64424863591044" lon="10.061605982930194"><ele>572.0</ele><time>2026-03-28T16:01:33Z</time></trkpt><trkpt lat="45.64458512700664" lon="10.06144987511036"><ele>575.6</ele><time>2026-03-28T16:01:35Z</time></trkpt><trkpt lat="45.64465278766014" lon="10.061364494722804"><ele>579.2</ele><time>2026-03-28T16:01:36Z</time></trkpt><trkpt lat="45.64472192161875" lon="10.06126840628937"><ele>582.8</ele><time>2026-03-28T16:01:37Z</time></trkpt><trkpt lat="45.644832128419814" lon="10.061164379261431"><ele>586.4</ele><time>2026-03-28T16:01:38Z</time></trkpt><trkpt lat="45.64492491366482" lon="10.061083866540612"><ele>590.0</ele><time>2026-03-28T16:01:39Z</time></trkpt><trkpt lat="45.64494708807117" lon="10.060968246228189"><ele>590.0</ele><time>2026-03-28T16:01:40Z</time></trkpt><trkpt lat="45.644843569337425" lon="10.0609015188289"><ele>590.0</ele><time>2026-03-28T16:01:59Z</time></trkpt><trkpt lat="45.64493208788801" lon="10.060973635258048"><ele>590.0</ele><time>2026-03-28T16:02:50Z</time></trkpt><trkpt lat="45.644869215146514" lon="10.061027678941565"><ele>590.0</ele><time>2026-03-28T16:02:55Z</time></trkpt><trkpt lat="45.64478569976409" lon="10.061088640043582"><ele>590.0</ele><time>2026-03-28T16:02:59Z</time></trkpt><trkpt lat="45.64471741050474" lon="10.061178350091488"><ele>590.0</ele><time>2026-03-28T16:03:01Z</time></trkpt><trkpt lat="45.64463404431878" lon="10.061247941954935"><ele>590.0</ele><time>2026-03-28T16:03:03Z</time></trkpt><trkpt lat="45.64455919873279" lon="10.061343522613349"><ele>590.0</ele><time>2026-03-28T16:03:05Z</time></trkpt><trkpt lat="45.64449822741652" lon="10.061414156157506"><ele>590.0</ele><time>2026-03-28T16:03:07Z</time></trkpt><trkpt lat="45.644434599134236" lon="10.061451354058532"><ele>590.0</ele><time>2026-03-28T16:03:08Z</time></trkpt><trkpt lat="45.644367937412724" lon="10.061463033488085"><ele>590.0</ele><time>2026-03-28T16:03:09Z</time></trkpt><trkpt lat="45.64427872196352" lon="10.061488755189318"><ele>591.1666666666666</ele><time>2026-03-28T16:03:10Z</time></trkpt><trkpt lat="45.64420393578567" lon="10.061517404626631"><ele>592.3333333333333</ele><time>2026-03-28T16:03:11Z</time></trkpt><trkpt lat="45.64414503503415" lon="10.061568451919184"><ele>593.5</ele><time>2026-03-28T16:03:12Z</time></trkpt><trkpt lat="45.644075999908594" lon="10.061610028019164"><ele>594.6666666666666</ele><time>2026-03-28T16:03:13Z</time></trkpt><trkpt lat="45.64398134832032" lon="10.061665230097136"><ele>595.8333333333334</ele><time>2026-03-28T16:03:15Z</time></trkpt><trkpt lat="45.64387964905182" lon="10.061636984044432"><ele>597.0</ele><time>2026-03-28T16:03:17Z</time></trkpt><trkpt lat="45.64378968721122" lon="10.061625057529026"><ele>597.0</ele><time>2026-03-28T16:03:18Z</time></trkpt><trkpt lat="45.64372706710855" lon="10.061612591505034"><ele>597.0</ele><time>2026-03-28T16:03:30Z</time></trkpt><trkpt lat="45.643722903428916" lon="10.061457664968248"><ele>597.0</ele><time>2026-03-28T16:03:35Z</time></trkpt><trkpt lat="45.64374001849834" lon="10.061308827023788"><ele>597.0</ele><time>2026-03-28T16:03:37Z</time></trkpt><trkpt lat="45.643788967651844" lon="10.061207222644928"><ele>597.0</ele><time>2026-03-28T16:03:40Z</time></trkpt><trkpt lat="45.64376527771993" lon="10.061082953136928"><ele>597.0</ele><time>2026-03-28T16:03:43Z</time></trkpt><trkpt lat="45.64371883869837" lon="10.06095448388413"><ele>597.0</ele><time>2026-03-28T16:03:46Z</time></trkpt><trkpt lat="45.64368916847886" lon="10.060851658586376"><ele>597.0</ele><time>2026-03-28T16:03:48Z</time></trkpt><trkpt lat="45.643755662341235" lon="10.060792740730294"><ele>597.0</ele><time>2026-03-28T16:03:50Z</time></trkpt><trkpt lat="45.64381152699259" lon="10.060729894360918"><ele>597.0</ele><time>2026-03-28T16:03:54Z</time></trkpt><trkpt lat="45.643813687523746" lon="10.060621893506408"><ele>597.0</ele><time>2026-03-28T16:03:57Z</time></trkpt><trkpt lat="45.64383247463196" lon="10.060505078129708"><ele>598.3333333333334</ele><time>2026-03-28T16:04:00Z</time></trkpt><trkpt lat="45.643843642198156" lon="10.06036745883175"><ele>599.6666666666666</ele><time>2026-03-28T16:04:02Z</time></trkpt><trkpt lat="45.64391445014088" lon="10.060283598320297"><ele>601.0</ele><time>2026-03-28T16:04:04Z</time></trkpt><trkpt lat="45.64382800650626" lon="10.060219320988523"><ele>602.3333333333333</ele><time>2026-03-28T16:04:06Z</time></trkpt><trkpt lat="45.64376562167941" lon="10.060194146406879"><ele>603.6666666666666</ele><time>2026-03-28T16:04:08Z</time></trkpt><trkpt lat="45.643673788777896" lon="10.060159471744495"><ele>605.0</ele><time>2026-03-28T16:04:10Z</time></trkpt><trkpt lat="45.643581797809084" lon="10.06008314333191"><ele>605.0</ele><time>2026-03-28T16:04:12Z</time></trkpt><trkpt lat="45.64350337872373" lon="10.06005018317253"><ele>605.0</ele><time>2026-03-28T16:04:14Z</time></trkpt><trkpt lat="45.643438260287404" lon="10.059997067197619"><ele>605.0</ele><time>2026-03-28T16:04:16Z</time></trkpt><trkpt lat="45.64338385033015" lon="10.059936023616762"><ele>605.0</ele><time>2026-03-28T16:04:18Z</time></trkpt><trkpt lat="45.64330168953127" lon="10.059885064803058"><ele>605.0</ele><time>2026-03-28T16:04:20Z</time></trkpt><trkpt lat="45.64322586090939" lon="10.059812289090742"><ele>605.0</ele><time>2026-03-28T16:04:22Z</time></trkpt><trkpt lat="45.643142739354325" lon="10.059763042714177"><ele>605.5</ele><time>2026-03-28T16:04:25Z</time></trkpt><trkpt lat="45.643060681379325" lon="10.059699248762099"><ele>606.0</ele><time>2026-03-28T16:04:27Z</time></trkpt><trkpt lat="45.642986130053885" lon="10.059646514454231"><ele>606.5</ele><time>2026-03-28T16:04:30Z</time></trkpt><trkpt lat="45.6429316577605" lon="10.059522846863375"><ele>607.0</ele><time>2026-03-28T16:04:32Z</time></trkpt><trkpt lat="45.64289977295059" lon="10.059437358777236"><ele>607.5</ele><time>2026-03-28T16:04:34Z</time></trkpt><trkpt lat="45.64292507079778" lon="10.059349035617153"><ele>608.0</ele><time>2026-03-28T16:04:36Z</time></trkpt><trkpt lat="45.643004118674114" lon="10.05937152367669"><ele>608.0</ele><time>2026-03-28T16:04:38Z</time></trkpt><trkpt lat="45.64307640958127" lon="10.059409975350407"><ele>608.0</ele><time>2026-03-28T16:04:40Z</time></trkpt><trkpt lat="45.64315457979777" lon="10.05945188669406"><ele>608.0</ele><time>2026-03-28T16:04:42Z</time></trkpt><trkpt lat="45.64323547229405" lon="10.059487475585104"><ele>608.0</ele><time>2026-03-28T16:04:44Z</time></trkpt><trkpt lat="45.643347379439966" lon="10.059510456298238"><ele>608.0</ele><time>2026-03-28T16:04:46Z</time></trkpt><trkpt lat="45.64342885165164" lon="10.059535841010637"><ele>608.0</ele><time>2026-03-28T16:04:48Z</time></trkpt><trkpt lat="45.64352351403359" lon="10.059587681603801"><ele>608.0</ele><time>2026-03-28T16:04:50Z</time></trkpt><trkpt lat="45.643614156732134" lon="10.059576796321432"><ele>608.0</ele><time>2026-03-28T16:04:53Z</time></trkpt><trkpt lat="45.6437434302445" lon="10.059548311329111"><ele>608.0</ele><time>2026-03-28T16:04:55Z</time></trkpt><trkpt lat="45.64380412534046" lon="10.059506599744886"><ele>608.0</ele><time>2026-03-28T16:04:56Z</time></trkpt><trkpt lat="45.643874478635894" lon="10.059470720576714"><ele>608.0</ele><time>2026-03-28T16:04:57Z</time></trkpt><trkpt lat="45.643946354314814" lon="10.059444039883093"><ele>608.0</ele><time>2026-03-28T16:04:58Z</time></trkpt><trkpt lat="45.64401770537058" lon="10.0594112396223"><ele>608.1666666666666</ele><time>2026-03-28T16:04:59Z</time></trkpt><trkpt lat="45.644073442645585" lon="10.059341083773722"><ele>608.3333333333333</ele><time>2026-03-28T16:05:00Z</time></trkpt><trkpt lat="45.644124665259184" lon="10.059258419587394"><ele>608.5</ele><time>2026-03-28T16:05:01Z</time></trkpt><trkpt lat="45.64419045441393" lon="10.059177600517314"><ele>608.6666666666666</ele><time>2026-03-28T16:05:02Z</time></trkpt><trkpt lat="45.644268356573406" lon="10.059096888269952"><ele>608.8333333333334</ele><time>2026-03-28T16:05:03Z</time></trkpt><trkpt lat="45.644336653644615" lon="10.059029232702528"><ele>609.0</ele><time>2026-03-28T16:05:04Z</time></trkpt><trkpt lat="45.64439494508186" lon="10.058913898443796"><ele>609.0</ele><time>2026-03-28T16:05:06Z</time></trkpt><trkpt lat="45.64443995949353" lon="10.058805531314555"><ele>609.0</ele><time>2026-03-28T16:05:08Z</time></trkpt><trkpt lat="45.64448254710939" lon="10.058710189755828"><ele>609.0</ele><time>2026-03-28T16:05:10Z</time></trkpt><trkpt lat="45.64455819492795" lon="10.058631752893088"><ele>609.0</ele><time>2026-03-28T16:05:12Z</time></trkpt><trkpt lat="45.64458268066412" lon="10.058538985055295"><ele>609.0</ele><time>2026-03-28T16:05:13Z</time></trkpt><trkpt lat="45.64466159435613" lon="10.058461984684596"><ele>609.0</ele><time>2026-03-28T16:05:15Z</time></trkpt><trkpt lat="45.644716960452556" lon="10.058410397538676"><ele>613.0</ele><time>2026-03-28T16:05:18Z</time></trkpt><trkpt lat="45.64478003410511" lon="10.058397866060016"><ele>617.0</ele><time>2026-03-28T16:05:20Z</time></trkpt><trkpt lat="45.64481318452541" lon="10.058278796350313"><ele>621.0</ele><time>2026-03-28T16:05:22Z</time></trkpt><trkpt lat="45.64487901168032" lon="10.058232504080879"><ele>625.0</ele><time>2026-03-28T16:05:24Z</time></trkpt><trkpt lat="45.644954410890286" lon="10.058137730406163"><ele>629.0</ele><time>2026-03-28T16:05:27Z</time></trkpt><trkpt lat="45.64507304216368" lon="10.058073106991632"><ele>629.0</ele><time>2026-03-28T16:05:29Z</time></trkpt><trkpt lat="45.645146680364775" lon="10.05801357655264"><ele>629.0</ele><time>2026-03-28T16:05:31Z</time></trkpt><trkpt lat="45.645208616824256" lon="10.0579371215509"><ele>629.0</ele><time>2026-03-28T16:05:33Z</time></trkpt><trkpt lat="45.64527337655313" lon="10.057862119566769"><ele>629.0</ele><time>2026-03-28T16:05:35Z</time></trkpt><trkpt lat="45.64533646691349" lon="10.05782136411151"><ele>629.0</ele><time>2026-03-28T16:05:37Z</time></trkpt><trkpt lat="45.645425536810436" lon="10.057762179129345"><ele>629.0</ele><time>2026-03-28T16:05:39Z</time></trkpt><trkpt lat="45.64548984381852" lon="10.057698148390978"><ele>633.1666666666666</ele><time>2026-03-28T16:05:41Z</time></trkpt><trkpt lat="45.645548191786276" lon="10.05760486380411"><ele>637.3333333333333</ele><time>2026-03-28T16:05:43Z</time></trkpt><trkpt lat="45.64559031402087" lon="10.057524370025304"><ele>641.5</ele><time>2026-03-28T16:05:44Z</time></trkpt><trkpt lat="45.64562404535024" lon="10.057436140971246"><ele>645.6666666666666</ele><time>2026-03-28T16:05:45Z</time></trkpt><trkpt lat="45.64564988250537" lon="10.057351435293294"><ele>649.8333333333334</ele><time>2026-03-28T16:05:46Z</time></trkpt><trkpt lat="45.64569108112763" lon="10.057200712898869"><ele>654.0</ele><time>2026-03-28T16:05:48Z</time></trkpt><trkpt lat="45.64572725674261" lon="10.057120323395132"><ele>654.8000000000001</ele><time>2026-03-28T16:05:49Z</time></trkpt><trkpt lat="45.645791324262376" lon="10.056996758670232"><ele>655.6</ele><time>2026-03-28T16:05:51Z</time></trkpt><trkpt lat="45.64578631710676" lon="10.05679877841326"><ele>656.4</ele><time>2026-03-28T16:05:53Z</time></trkpt><trkpt lat="45.64578534096189" lon="10.056701477353831"><ele>657.2</ele><time>2026-03-28T16:05:54Z</time></trkpt><trkpt lat="45.645796107225344" lon="10.056610454093713"><ele>658.0</ele><time>2026-03-28T16:05:55Z</time></trkpt><trkpt lat="45.64580501086221" lon="10.056500259694435"><ele>658.0</ele><time>2026-03-28T16:05:56Z</time></trkpt><trkpt lat="45.64580297922894" lon="10.056409649717367"><ele>658.0</ele><time>2026-03-28T16:05:57Z</time></trkpt><trkpt lat="45.64583112295587" lon="10.056306286563322"><ele>658.0</ele><time>2026-03-28T16:05:58Z</time></trkpt><trkpt lat="45.64590318594894" lon="10.056158907922406"><ele>658.0</ele><time>2026-03-28T16:06:00Z</time></trkpt><trkpt lat="45.64594745070217" lon="10.056091933093803"><ele>658.0</ele><time>2026-03-28T16:06:02Z</time></trkpt><trkpt lat="45.645986554262095" lon="10.055988217050103"><ele>658.0</ele><time>2026-03-28T16:06:04Z</time></trkpt><trkpt lat="45.64605363864968" lon="10.055868593667755"><ele>654.8</ele><time>2026-03-28T16:06:06Z</time></trkpt><trkpt lat="45.64605070617497" lon="10.055778219098457"><ele>651.5999999999999</ele><time>2026-03-28T16:06:07Z</time></trkpt><trkpt lat="45.646053655574086" lon="10.055610278175934"><ele>648.4000000000001</ele><time>2026-03-28T16:06:09Z</time></trkpt><trkpt lat="45.64603434098628" lon="10.055474709852612"><ele>645.2</ele><time>2026-03-28T16:06:11Z</time></trkpt><trkpt lat="45.64606619983214" lon="10.05533666752767"><ele>642.0</ele><time>2026-03-28T16:06:13Z</time></trkpt><trkpt lat="45.646088437809425" lon="10.055224465268816"><ele>642.0</ele><time>2026-03-28T16:06:15Z</time></trkpt><trkpt lat="45.646125515739165" lon="10.055105677135812"><ele>642.0</ele><time>2026-03-28T16:06:17Z</time></trkpt><trkpt lat="45.64610542162719" lon="10.055007868866962"><ele>642.0</ele><time>2026-03-28T16:06:20Z</time></trkpt><trkpt lat="45.646026372184664" lon="10.054921382267612"><ele>642.0</ele><time>2026-03-28T16:06:22Z</time></trkpt><trkpt lat="45.64596145963028" lon="10.054889276984243"><ele>642.0</ele><time>2026-03-28T16:06:25Z</time></trkpt><trkpt lat="45.64595312055979" lon="10.054786375148078"><ele>642.0</ele><time>2026-03-28T16:06:27Z</time></trkpt><trkpt lat="45.64593896052912" lon="10.054465525806153"><ele>638.6</ele><time>2026-03-28T16:06:30Z</time></trkpt><trkpt lat="45.64591465940685" lon="10.054301230645375"><ele>635.2</ele><time>2026-03-28T16:06:31Z</time></trkpt><trkpt lat="45.64593374143638" lon="10.054128290579657"><ele>631.8</ele><time>2026-03-28T16:06:33Z</time></trkpt><trkpt lat="45.64591580140937" lon="10.054033883870808"><ele>628.4</ele><time>2026-03-28T16:06:34Z</time></trkpt><trkpt lat="45.64591461744955" lon="10.053926993018413"><ele>625.0</ele><time>2026-03-28T16:06:35Z</time></trkpt><trkpt lat="45.64591188078226" lon="10.053811805250813"><ele>621.2</ele><time>2026-03-28T16:06:36Z</time></trkpt><trkpt lat="45.64589210042086" lon="10.053624306121066"><ele>617.4</ele><time>2026-03-28T16:06:38Z</time></trkpt><trkpt lat="45.64589849857462" lon="10.053510651164846"><ele>613.6</ele><time>2026-03-28T16:06:40Z</time></trkpt><trkpt lat="45.64603186414037" lon="10.053470759200199"><ele>609.8</ele><time>2026-03-28T16:06:44Z</time></trkpt><trkpt lat="45.646124530529065" lon="10.053461027038772"><ele>606.0</ele><time>2026-03-28T16:06:46Z</time></trkpt><trkpt lat="45.646166990728894" lon="10.053372908364565"><ele>585.0</ele><time>2026-03-28T16:06:48Z</time></trkpt><trkpt lat="45.6462390667204" lon="10.05327960845074"><ele>557.0</ele><time>2026-03-28T16:06:50Z</time></trkpt></trkseg><trkseg><trkpt lat="45.646231036762394" lon="10.053276403899227"><ele>562.6</ele><time>2026-03-28T16:34:43Z</time></trkpt><trkpt lat="45.646154561736736" lon="10.053305647558624"><ele>568.2</ele><time>2026-03-28T16:37:01Z</time></trkpt><trkpt lat="45.6460921651524" lon="10.05341999015893"><ele>573.8</ele><time>2026-03-28T16:37:03Z</time></trkpt><trkpt lat="45.64605733843641" lon="10.053554346828856"><ele>579.4</ele><time>2026-03-28T16:37:06Z</time></trkpt><trkpt lat="45.645926941828314" lon="10.053635307767104"><ele>585.0</ele><time>2026-03-28T16:37:08Z</time></trkpt><trkpt lat="45.64587576426448" lon="10.05369876083174"><ele>589.2</ele><time>2026-03-28T16:37:10Z</time></trkpt><trkpt lat="45.64584060692732" lon="10.053859151653617"><ele>593.4</ele><time>2026-03-28T16:37:12Z</time></trkpt><trkpt lat="45.64583888642785" lon="10.053994699751655"><ele>597.6</ele><time>2026-03-28T16:37:14Z</time></trkpt><trkpt lat="45.64586679478866" lon="10.054078088437903"><ele>601.8</ele><time>2026-03-28T16:37:15Z</time></trkpt><trkpt lat="45.64583278192752" lon="10.054235804288187"><ele>606.0</ele><time>2026-03-28T16:37:17Z</time></trkpt><trkpt lat="45.64585204867997" lon="10.054406746798104"><ele>609.1666666666666</ele><time>2026-03-28T16:37:19Z</time></trkpt><trkpt lat="45.64583109991617" lon="10.054575895599314"><ele>612.3333333333334</ele><time>2026-03-28T16:37:21Z</time></trkpt><trkpt lat="45.64585370066261" lon="10.054706631576199"><ele>615.5</ele><time>2026-03-28T16:37:23Z</time></trkpt><trkpt lat="45.645945601122364" lon="10.05477258324483"><ele>618.6666666666667</ele><time>2026-03-28T16:37:25Z</time></trkpt><trkpt lat="45.646006380989775" lon="10.054806450825623"><ele>621.8333333333334</ele><time>2026-03-28T16:37:26Z</time></trkpt><trkpt lat="45.646063322493326" lon="10.05485043753488"><ele>625.0</ele><time>2026-03-28T16:37:27Z</time></trkpt><trkpt lat="45.64612129434335" lon="10.054920402055899"><ele>628.4</ele><time>2026-03-28T16:37:29Z</time></trkpt><trkpt lat="45.646122167533804" lon="10.055019610937654"><ele>631.8</ele><time>2026-03-28T16:37:31Z</time></trkpt><trkpt lat="45.64607982262483" lon="10.055191032419335"><ele>635.2</ele><time>2026-03-28T16:37:33Z</time></trkpt><trkpt lat="45.646043253970205" lon="10.055282916049654"><ele>638.6</ele><time>2026-03-28T16:37:35Z</time></trkpt><trkpt lat="45.646023741042434" lon="10.055378005738328"><ele>642.0</ele><time>2026-03-28T16:37:37Z</time></trkpt><trkpt lat="45.64603027528755" lon="10.055537483297993"><ele>642.0</ele><time>2026-03-28T16:37:39Z</time></trkpt><trkpt lat="45.64604412876799" lon="10.055705663975676"><ele>642.0</ele><time>2026-03-28T16:37:41Z</time></trkpt><trkpt lat="45.64602336454268" lon="10.055814764879015"><ele>642.0</ele><time>2026-03-28T16:37:42Z</time></trkpt><trkpt lat="45.64600959012974" lon="10.05598168639752"><ele>642.0</ele><time>2026-03-28T16:37:44Z</time></trkpt><trkpt lat="45.645943401091735" lon="10.056103174704706"><ele>642.0</ele><time>2026-03-28T16:37:47Z</time></trkpt><trkpt lat="45.64592325508121" lon="10.05619147212604"><ele>645.2</ele><time>2026-03-28T16:37:50Z</time></trkpt><trkpt lat="45.64586414618893" lon="10.056331265714771"><ele>648.4000000000001</ele><time>2026-03-28T16:37:52Z</time></trkpt><trkpt lat="45.6458243514446" lon="10.056418841257905"><ele>651.5999999999999</ele><time>2026-03-28T16:37:53Z</time></trkpt><trkpt lat="45.645812584419" lon="10.056575293346508"><ele>654.8</ele><time>2026-03-28T16:37:55Z</time></trkpt><trkpt lat="45.64582047473163" lon="10.056724219471988"><ele>658.0</ele><time>2026-03-28T16:37:57Z</time></trkpt><trkpt lat="45.64581164343584" lon="10.056900232849088"><ele>658.2</ele><time>2026-03-28T16:37:59Z</time></trkpt><trkpt lat="45.645797452065246" lon="10.05704732045315"><ele>658.4</ele><time>2026-03-28T16:38:01Z</time></trkpt><trkpt lat="45.64572445047913" lon="10.057153437251163"><ele>658.6</ele><time>2026-03-28T16:38:03Z</time></trkpt><trkpt lat="45.64568007115223" lon="10.057315064939397"><ele>658.8000000000001</ele><time>2026-03-28T16:38:05Z</time></trkpt><trkpt lat="45.645643837111514" lon="10.057439610022456"><ele>659.0</ele><time>2026-03-28T16:38:07Z</time></trkpt><trkpt lat="45.645621141274056" lon="10.057528087863611"><ele>658.1666666666666</ele><time>2026-03-28T16:38:11Z</time></trkpt><trkpt lat="45.64562626717506" lon="10.057646689584018"><ele>657.3333333333333</ele><time>2026-03-28T16:38:39Z</time></trkpt><trkpt lat="45.64567019092084" lon="10.057732091464482"><ele>656.5</ele><time>2026-03-28T16:38:41Z</time></trkpt><trkpt lat="45.6456790339711" lon="10.057832557518207"><ele>655.6666666666666</ele><time>2026-03-28T16:38:44Z</time></trkpt><trkpt lat="45.645684326105496" lon="10.057942100850708"><ele>654.8333333333334</ele><time>2026-03-28T16:38:46Z</time></trkpt><trkpt lat="45.645713950503136" lon="10.058109938909368"><ele>654.0</ele><time>2026-03-28T16:38:48Z</time></trkpt><trkpt lat="45.6457066709091" lon="10.058246539300429"><ele>653.5</ele><time>2026-03-28T16:38:50Z</time></trkpt><trkpt lat="45.64574517079648" lon="10.058367412693874"><ele>653.0</ele><time>2026-03-28T16:38:54Z</time></trkpt><trkpt lat="45.645769089533715" lon="10.058458836423313"><ele>652.5</ele><time>2026-03-28T16:38:56Z</time></trkpt><trkpt lat="45.645812082291435" lon="10.05855051402445"><ele>652.0</ele><time>2026-03-28T16:38:58Z</time></trkpt><trkpt lat="45.64589577121083" lon="10.058599805049175"><ele>651.5</ele><time>2026-03-28T16:39:00Z</time></trkpt><trkpt lat="45.64597740144585" lon="10.058699017065306"><ele>651.0</ele><time>2026-03-28T16:39:02Z</time></trkpt><trkpt lat="45.64605395573145" lon="10.058754428946308"><ele>651.0</ele><time>2026-03-28T16:39:05Z</time></trkpt><trkpt lat="45.646095300328724" lon="10.05884007014077"><ele>651.0</ele><time>2026-03-28T16:39:07Z</time></trkpt><trkpt lat="45.64614475355436" lon="10.058941399747104"><ele>651.0</ele><time>2026-03-28T16:39:09Z</time></trkpt><trkpt lat="45.646186538411214" lon="10.059033009504931"><ele>651.0</ele><time>2026-03-28T16:39:12Z</time></trkpt><trkpt lat="45.64618295356034" lon="10.059130149308405"><ele>651.0</ele><time>2026-03-28T16:39:14Z</time></trkpt><trkpt lat="45.64621607630091" lon="10.059211729916838"><ele>651.0</ele><time>2026-03-28T16:39:17Z</time></trkpt><trkpt lat="45.646240022189104" lon="10.059401095181922"><ele>647.3333333333334</ele><time>2026-03-28T16:39:19Z</time></trkpt><trkpt lat="45.64625642373986" lon="10.059495238325914"><ele>643.6666666666666</ele><time>2026-03-28T16:39:20Z</time></trkpt><trkpt lat="45.64624837870339" lon="10.05960082883987"><ele>640.0</ele><time>2026-03-28T16:39:21Z</time></trkpt><trkpt lat="45.64624232393499" lon="10.0597071511934"><ele>636.3333333333333</ele><time>2026-03-28T16:39:24Z</time></trkpt><trkpt lat="45.64623391971946" lon="10.059842336344419"><ele>632.6666666666666</ele><time>2026-03-28T16:39:26Z</time></trkpt><trkpt lat="45.646231628293215" lon="10.059932565058265"><ele>629.0</ele><time>2026-03-28T16:39:28Z</time></trkpt><trkpt lat="45.6462721105245" lon="10.060028090698697"><ele>628.0</ele><time>2026-03-28T16:39:30Z</time></trkpt><trkpt lat="45.64628583581061" lon="10.060128084605102"><ele>627.0</ele><time>2026-03-28T16:39:32Z</time></trkpt><trkpt lat="45.64630160203412" lon="10.060225999036719"><ele>626.0</ele><time>2026-03-28T16:39:33Z</time></trkpt><trkpt lat="45.64634077024456" lon="10.060453433427666"><ele>625.0</ele><time>2026-03-28T16:39:35Z</time></trkpt><trkpt lat="45.6463878166411" lon="10.060592467374555"><ele>624.0</ele><time>2026-03-28T16:39:36Z</time></trkpt><trkpt lat="45.64643836215875" lon="10.060708550500426"><ele>623.2</ele><time>2026-03-28T16:39:37Z</time></trkpt><trkpt lat="45.64648055053253" lon="10.060833020124324"><ele>622.4</ele><time>2026-03-28T16:39:38Z</time></trkpt><trkpt lat="45.64653679921126" lon="10.060929219456797"><ele>621.6</ele><time>2026-03-28T16:39:39Z</time></trkpt><trkpt lat="45.64659067837374" lon="10.06099390824393"><ele>620.8</ele><time>2026-03-28T16:39:40Z</time></trkpt><trkpt lat="45.64665935153693" lon="10.061091940519601"><ele>620.0</ele><time>2026-03-28T16:39:41Z</time></trkpt><trkpt lat="45.646741920842054" lon="10.06120766745445"><ele>620.0</ele><time>2026-03-28T16:39:42Z</time></trkpt><trkpt lat="45.64679233004724" lon="10.061326851628293"><ele>620.0</ele><time>2026-03-28T16:39:43Z</time></trkpt><trkpt lat="45.646801001058435" lon="10.061459013797672"><ele>620.0</ele><time>2026-03-28T16:39:44Z</time></trkpt><trkpt lat="45.64680162736346" lon="10.061645930441971"><ele>620.0</ele><time>2026-03-28T16:39:45Z</time></trkpt><trkpt lat="45.646824902714215" lon="10.061799694354374"><ele>620.0</ele><time>2026-03-28T16:39:46Z</time></trkpt><trkpt lat="45.646852007257024" lon="10.06200034301941"><ele>619.0</ele><time>2026-03-28T16:39:47Z</time></trkpt><trkpt lat="45.64692438746184" lon="10.062198934706643"><ele>618.0</ele><time>2026-03-28T16:39:48Z</time></trkpt><trkpt lat="45.646998678098754" lon="10.062349051670804"><ele>617.0</ele><time>2026-03-28T16:39:49Z</time></trkpt><trkpt lat="45.647077628793525" lon="10.06248261012088"><ele>616.0</ele><time>2026-03-28T16:39:50Z</time></trkpt><trkpt lat="45.64716100492068" lon="10.06261783874677"><ele>616.0</ele><time>2026-03-28T16:39:51Z</time></trkpt><trkpt lat="45.64724495143804" lon="10.062736673020593"><ele>616.0</ele><time>2026-03-28T16:39:52Z</time></trkpt><trkpt lat="45.647297675334585" lon="10.062841051924142"><ele>616.0</ele><time>2026-03-28T16:39:53Z</time></trkpt><trkpt lat="45.647343256345245" lon="10.063021163389418"><ele>616.0</ele><time>2026-03-28T16:39:54Z</time></trkpt><trkpt lat="45.647385284027415" lon="10.063251230822535"><ele>613.0</ele><time>2026-03-28T16:39:55Z</time></trkpt><trkpt lat="45.64743379777194" lon="10.063396303972862"><ele>610.0</ele><time>2026-03-28T16:39:56Z</time></trkpt><trkpt lat="45.64748893878567" lon="10.063497366914739"><ele>607.0</ele><time>2026-03-28T16:39:57Z</time></trkpt><trkpt lat="45.64755336888419" lon="10.063573452779535"><ele>604.0</ele><time>2026-03-28T16:39:58Z</time></trkpt><trkpt lat="45.64763935265602" lon="10.06360575840569"><ele>601.0</ele><time>2026-03-28T16:39:59Z</time></trkpt><trkpt lat="45.647767082194235" lon="10.063574896032929"><ele>601.2</ele><time>2026-03-28T16:40:00Z</time></trkpt><trkpt lat="45.64788562641426" lon="10.063521978336073"><ele>601.4000000000001</ele><time>2026-03-28T16:40:01Z</time></trkpt><trkpt lat="45.647973992888275" lon="10.063529602957212"><ele>601.6</ele><time>2026-03-28T16:40:02Z</time></trkpt><trkpt lat="45.64805974790445" lon="10.063602889845962"><ele>601.8000000000001</ele><time>2026-03-28T16:40:03Z</time></trkpt><trkpt lat="45.648143897659565" lon="10.06365778407416"><ele>602.0</ele><time>2026-03-28T16:40:04Z</time></trkpt><trkpt lat="45.64822762451149" lon="10.063657173157557"><ele>602.0</ele><time>2026-03-28T16:40:05Z</time></trkpt><trkpt lat="45.6483127704978" lon="10.063600215560788"><ele>602.0</ele><time>2026-03-28T16:40:06Z</time></trkpt><trkpt lat="45.648406698072236" lon="10.063526730837385"><ele>602.0</ele><time>2026-03-28T16:40:07Z</time></trkpt><trkpt lat="45.64850385332924" lon="10.063498292255007"><ele>602.0</ele><time>2026-03-28T16:40:08Z</time></trkpt><trkpt lat="45.64859714656349" lon="10.063505458159927"><ele>602.0</ele><time>2026-03-28T16:40:09Z</time></trkpt><trkpt lat="45.648679459222606" lon="10.063552462205887"><ele>600.6</ele><time>2026-03-28T16:40:10Z</time></trkpt><trkpt lat="45.648711964138066" lon="10.06366923249456"><ele>599.2</ele><time>2026-03-28T16:40:11Z</time></trkpt><trkpt lat="45.64880064714723" lon="10.063776166366102"><ele>597.8</ele><time>2026-03-28T16:40:12Z</time></trkpt><trkpt lat="45.64886273470088" lon="10.063871050470363"><ele>596.4</ele><time>2026-03-28T16:40:13Z</time></trkpt><trkpt lat="45.64890801569553" lon="10.063979079087984"><ele>595.0</ele><time>2026-03-28T16:40:14Z</time></trkpt><trkpt lat="45.64895299700942" lon="10.064130098609686"><ele>595.0</ele><time>2026-03-28T16:40:15Z</time></trkpt><trkpt lat="45.64898754774754" lon="10.064293006397545"><ele>595.0</ele><time>2026-03-28T16:40:16Z</time></trkpt><trkpt lat="45.64900557738165" lon="10.06449013285761"><ele>595.0</ele><time>2026-03-28T16:40:17Z</time></trkpt><trkpt lat="45.64902329894831" lon="10.064670384080861"><ele>595.0</ele><time>2026-03-28T16:40:18Z</time></trkpt><trkpt lat="45.64904791618372" lon="10.06482948062666"><ele>595.0</ele><time>2026-03-28T16:40:19Z</time></trkpt><trkpt lat="45.64908126836949" lon="10.064997655128218"><ele>595.0</ele><time>2026-03-28T16:40:20Z</time></trkpt><trkpt lat="45.64912526476948" lon="10.06515163260733"><ele>595.0</ele><time>2026-03-28T16:40:21Z</time></trkpt><trkpt lat="45.6491704723991" lon="10.065318038381124"><ele>595.0</ele><time>2026-03-28T16:40:22Z</time></trkpt><trkpt lat="45.64919816817023" lon="10.065480949117804"><ele>595.0</ele><time>2026-03-28T16:40:23Z</time></trkpt><trkpt lat="45.64920895687243" lon="10.065624318075512"><ele>595.0</ele><time>2026-03-28T16:40:24Z</time></trkpt><trkpt lat="45.64921163414783" lon="10.065770562892663"><ele>595.0</ele><time>2026-03-28T16:40:25Z</time></trkpt><trkpt lat="45.64920498479948" lon="10.065938607363918"><ele>595.0</ele><time>2026-03-28T16:40:26Z</time></trkpt><trkpt lat="45.64918076883013" lon="10.06611793980147"><ele>595.0</ele><time>2026-03-28T16:40:27Z</time></trkpt><trkpt lat="45.64917483880855" lon="10.066291628547429"><ele>595.0</ele><time>2026-03-28T16:40:28Z</time></trkpt><trkpt lat="45.649176085038036" lon="10.06644984380792"><ele>595.0</ele><time>2026-03-28T16:40:29Z</time></trkpt><trkpt lat="45.64917581745723" lon="10.066590162246431"><ele>595.0</ele><time>2026-03-28T16:40:30Z</time></trkpt><trkpt lat="45.64916288162595" lon="10.06674644089593"><ele>595.0</ele><time>2026-03-28T16:40:31Z</time></trkpt><trkpt lat="45.649135625236525" lon="10.066893925916949"><ele>595.0</ele><time>2026-03-28T16:40:32Z</time></trkpt><trkpt lat="45.64910534848912" lon="10.06703030139472"><ele>593.0</ele><time>2026-03-28T16:40:33Z</time></trkpt><trkpt lat="45.64908959053234" lon="10.067187968204191"><ele>591.0</ele><time>2026-03-28T16:40:34Z</time></trkpt><trkpt lat="45.649103976360415" lon="10.067338848436222"><ele>589.0</ele><time>2026-03-28T16:40:35Z</time></trkpt><trkpt lat="45.64913251494427" lon="10.067474910659717"><ele>587.0</ele><time>2026-03-28T16:40:36Z</time></trkpt><trkpt lat="45.64913748405975" lon="10.067579642797648"><ele>585.0</ele><time>2026-03-28T16:40:37Z</time></trkpt><trkpt lat="45.6491520255927" lon="10.067687715474156"><ele>583.8333333333334</ele><time>2026-03-28T16:40:38Z</time></trkpt><trkpt lat="45.649167605614245" lon="10.067839059120347"><ele>582.6666666666666</ele><time>2026-03-28T16:40:39Z</time></trkpt><trkpt lat="45.649183965102324" lon="10.067971381240271"><ele>581.5</ele><time>2026-03-28T16:40:40Z</time></trkpt><trkpt lat="45.64919656887348" lon="10.068080077740447"><ele>580.3333333333333</ele><time>2026-03-28T16:40:41Z</time></trkpt><trkpt lat="45.64920959366087" lon="10.068189026114533"><ele>579.1666666666666</ele><time>2026-03-28T16:40:42Z</time></trkpt><trkpt lat="45.64922562474171" lon="10.068294276438749"><ele>578.0</ele><time>2026-03-28T16:40:43Z</time></trkpt><trkpt lat="45.649240810509845" lon="10.068394271399848"><ele>576.6</ele><time>2026-03-28T16:40:44Z</time></trkpt><trkpt lat="45.64925255802113" lon="10.068491516054532"><ele>575.1999999999999</ele><time>2026-03-28T16:40:45Z</time></trkpt><trkpt lat="45.64924376809778" lon="10.068597309250674"><ele>573.8</ele><time>2026-03-28T16:40:46Z</time></trkpt><trkpt lat="45.64921211685641" lon="10.068727706886152"><ele>572.4</ele><time>2026-03-28T16:40:47Z</time></trkpt><trkpt lat="45.64917002150382" lon="10.068865371412864"><ele>571.0</ele><time>2026-03-28T16:40:48Z</time></trkpt><trkpt lat="45.649144759698764" lon="10.069027892958111"><ele>570.8</ele><time>2026-03-28T16:40:49Z</time></trkpt><trkpt lat="45.64913601185525" lon="10.069193077737413"><ele>570.6</ele><time>2026-03-28T16:40:50Z</time></trkpt><trkpt lat="45.64913815525511" lon="10.069345484289455"><ele>570.4</ele><time>2026-03-28T16:40:51Z</time></trkpt><trkpt lat="45.64913395618958" lon="10.06948364798255"><ele>570.2</ele><time>2026-03-28T16:40:52Z</time></trkpt><trkpt lat="45.649129420046" lon="10.069628766552274"><ele>570.0</ele><time>2026-03-28T16:40:53Z</time></trkpt><trkpt lat="45.649127356147915" lon="10.069767082190177"><ele>570.0</ele><time>2026-03-28T16:40:54Z</time></trkpt><trkpt lat="45.64912741439199" lon="10.069905670981807"><ele>570.0</ele><time>2026-03-28T16:40:55Z</time></trkpt><trkpt lat="45.64913708595257" lon="10.070036057164538"><ele>570.0</ele><time>2026-03-28T16:40:56Z</time></trkpt><trkpt lat="45.649147630692546" lon="10.070161885298647"><ele>570.0</ele><time>2026-03-28T16:40:57Z</time></trkpt><trkpt lat="45.6491359990667" lon="10.07031042595416"><ele>570.0</ele><time>2026-03-28T16:40:58Z</time></trkpt><trkpt lat="45.64913507617824" lon="10.070484234104985"><ele>571.0</ele><time>2026-03-28T16:40:59Z</time></trkpt><trkpt lat="45.64913343799692" lon="10.070688834466091"><ele>572.0</ele><time>2026-03-28T16:41:00Z</time></trkpt><trkpt lat="45.64910365128425" lon="10.070902248925423"><ele>573.0</ele><time>2026-03-28T16:41:01Z</time></trkpt><trkpt lat="45.64911082348683" lon="10.071138740572312"><ele>573.25</ele><time>2026-03-28T16:41:02Z</time></trkpt><trkpt lat="45.64910635810815" lon="10.071358398273524"><ele>573.5</ele><time>2026-03-28T16:41:03Z</time></trkpt><trkpt lat="45.649088880602136" lon="10.071535349710697"><ele>573.75</ele><time>2026-03-28T16:41:04Z</time></trkpt><trkpt lat="45.649083359594556" lon="10.071711772264866"><ele>574.0</ele><time>2026-03-28T16:41:05Z</time></trkpt><trkpt lat="45.64910639557893" lon="10.0719109655743"><ele>574.0</ele><time>2026-03-28T16:41:06Z</time></trkpt><trkpt lat="45.64912952874966" lon="10.072112520764385"><ele>574.0</ele><time>2026-03-28T16:41:07Z</time></trkpt><trkpt lat="45.64916220810682" lon="10.072316170610726"><ele>574.0</ele><time>2026-03-28T16:41:08Z</time></trkpt><trkpt lat="45.64921454924787" lon="10.07250097737035"><ele>574.0</ele><time>2026-03-28T16:41:09Z</time></trkpt><trkpt lat="45.64924931759579" lon="10.072684099671186"><ele>574.6</ele><time>2026-03-28T16:41:10Z</time></trkpt><trkpt lat="45.64928338181237" lon="10.072835607703217"><ele>575.2</ele><time>2026-03-28T16:41:11Z</time></trkpt><trkpt lat="45.64931429794016" lon="10.072930939969162"><ele>575.8000000000001</ele><time>2026-03-28T16:41:12Z</time></trkpt><trkpt lat="45.6493286629924" lon="10.073057470072285"><ele>576.4</ele><time>2026-03-28T16:41:13Z</time></trkpt><trkpt lat="45.64933804126397" lon="10.073205661669846"><ele>577.0</ele><time>2026-03-28T16:41:14Z</time></trkpt><trkpt lat="45.6493392765741" lon="10.073334405383514"><ele>577.0</ele><time>2026-03-28T16:41:15Z</time></trkpt><trkpt lat="45.64934508487502" lon="10.073433835736706"><ele>577.0</ele><time>2026-03-28T16:41:16Z</time></trkpt><trkpt lat="45.649303908846136" lon="10.073555300747525"><ele>577.0</ele><time>2026-03-28T16:41:18Z</time></trkpt><trkpt lat="45.64923331424465" lon="10.073558800366483"><ele>577.0</ele><time>2026-03-28T16:41:20Z</time></trkpt><trkpt lat="45.649151711307745" lon="10.073408715921946"><ele>577.0</ele><time>2026-03-28T16:41:22Z</time></trkpt><trkpt lat="45.649046699713686" lon="10.073259013528286"><ele>577.0</ele><time>2026-03-28T16:41:24Z</time></trkpt><trkpt lat="45.648961045310514" lon="10.07323471400989"><ele>577.0</ele><time>2026-03-28T16:41:25Z</time></trkpt><trkpt lat="45.64886387952624" lon="10.07323493624458"><ele>577.0</ele><time>2026-03-28T16:41:26Z</time></trkpt><trkpt lat="45.64880002152369" lon="10.073227810699734"><ele>577.0</ele><time>2026-03-28T16:41:27Z</time></trkpt><trkpt lat="45.64871898385837" lon="10.073188854105956"><ele>577.0</ele><time>2026-03-28T16:41:28Z</time></trkpt><trkpt lat="45.64863551980662" lon="10.073130242224032"><ele>577.0</ele><time>2026-03-28T16:41:29Z</time></trkpt><trkpt lat="45.6485749752517" lon="10.07308410854512"><ele>577.3333333333334</ele><time>2026-03-28T16:41:30Z</time></trkpt><trkpt lat="45.64847952666652" lon="10.072990628581326"><ele>577.6666666666667</ele><time>2026-03-28T16:41:32Z</time></trkpt><trkpt lat="45.64841878044109" lon="10.072925552509282"><ele>578.0</ele><time>2026-03-28T16:41:33Z</time></trkpt><trkpt lat="45.64833133632844" lon="10.072862288924785"><ele>578.3333333333334</ele><time>2026-03-28T16:41:34Z</time></trkpt><trkpt lat="45.648281444220515" lon="10.072806528194278"><ele>578.6666666666666</ele><time>2026-03-28T16:41:35Z</time></trkpt><trkpt lat="45.64820686431621" lon="10.072759079337706"><ele>579.0</ele><time>2026-03-28T16:41:36Z</time></trkpt><trkpt lat="45.64811959054986" lon="10.072727450460214"><ele>579.0</ele><time>2026-03-28T16:41:37Z</time></trkpt><trkpt lat="45.648039204404476" lon="10.07269393120308"><ele>579.0</ele><time>2026-03-28T16:41:38Z</time></trkpt><trkpt lat="45.647960015074574" lon="10.072626138320976"><ele>579.0</ele><time>2026-03-28T16:41:39Z</time></trkpt><trkpt lat="45.64790869621887" lon="10.072572553774958"><ele>579.0</ele><time>2026-03-28T16:41:40Z</time></trkpt><trkpt lat="45.647827551880134" lon="10.072554693651206"><ele>579.0</ele><time>2026-03-28T16:41:42Z</time></trkpt><trkpt lat="45.64774464036355" lon="10.072487343415458"><ele>579.0</ele><time>2026-03-28T16:41:44Z</time></trkpt><trkpt lat="45.647681640395135" lon="10.072460858379513"><ele>574.8333333333334</ele><time>2026-03-28T16:41:47Z</time></trkpt><trkpt lat="45.647607793097066" lon="10.072483333727446"><ele>570.6666666666666</ele><time>2026-03-28T16:41:50Z</time></trkpt><trkpt lat="45.64754227284595" lon="10.072537806090294"><ele>566.5</ele><time>2026-03-28T16:41:52Z</time></trkpt><trkpt lat="45.64744003520407" lon="10.072554079843558"><ele>562.3333333333333</ele><time>2026-03-28T16:41:56Z</time></trkpt><trkpt lat="45.64736643089822" lon="10.072564396244067"><ele>558.1666666666666</ele><time>2026-03-28T16:41:59Z</time></trkpt><trkpt lat="45.647282540084255" lon="10.072538122889455"><ele>554.0</ele><time>2026-03-28T16:42:01Z</time></trkpt><trkpt lat="45.647202069787056" lon="10.0724792129377"><ele>553.0</ele><time>2026-03-28T16:42:03Z</time></trkpt><trkpt lat="45.64711821116925" lon="10.07238213743767"><ele>552.0</ele><time>2026-03-28T16:42:05Z</time></trkpt><trkpt lat="45.647024881662325" lon="10.07234057974792"><ele>551.0</ele><time>2026-03-28T16:42:07Z</time></trkpt><trkpt lat="45.64691931069692" lon="10.0722415441056"><ele>550.0</ele><time>2026-03-28T16:42:09Z</time></trkpt><trkpt lat="45.646834339801615" lon="10.072225499717266"><ele>549.0</ele><time>2026-03-28T16:42:11Z</time></trkpt><trkpt lat="45.64673239193785" lon="10.072340507168827"><ele>544.5</ele><time>2026-03-28T16:42:13Z</time></trkpt><trkpt lat="45.646734464256426" lon="10.07247730913278"><ele>540.0</ele><time>2026-03-28T16:42:15Z</time></trkpt><trkpt lat="45.646731521056225" lon="10.072598105583813"><ele>535.5</ele><time>2026-03-28T16:42:17Z</time></trkpt><trkpt lat="45.64674903824488" lon="10.072690481991344"><ele>531.0</ele><time>2026-03-28T16:42:18Z</time></trkpt><trkpt lat="45.64675580826177" lon="10.072790598732697"><ele>526.5</ele><time>2026-03-28T16:42:19Z</time></trkpt><trkpt lat="45.64676111991321" lon="10.072926229137456"><ele>522.0</ele><time>2026-03-28T16:42:21Z</time></trkpt><trkpt lat="45.646784581555266" lon="10.073060530041834"><ele>522.0</ele><time>2026-03-28T16:42:23Z</time></trkpt><trkpt lat="45.64680930993974" lon="10.073196273832158"><ele>522.0</ele><time>2026-03-28T16:42:25Z</time></trkpt><trkpt lat="45.6468359335703" lon="10.073338641236168"><ele>522.0</ele><time>2026-03-28T16:42:27Z</time></trkpt><trkpt lat="45.646885063720596" lon="10.073477115255532"><ele>522.0</ele><time>2026-03-28T16:42:29Z</time></trkpt><trkpt lat="45.64697017595086" lon="10.073579180463321"><ele>522.0</ele><time>2026-03-28T16:42:31Z</time></trkpt><trkpt lat="45.64702084123294" lon="10.073720066957037"><ele>524.5</ele><time>2026-03-28T16:42:33Z</time></trkpt><trkpt lat="45.647084014075745" lon="10.073824648908227"><ele>527.0</ele><time>2026-03-28T16:42:35Z</time></trkpt><trkpt lat="45.64714201689742" lon="10.073888909037237"><ele>529.5</ele><time>2026-03-28T16:42:37Z</time></trkpt><trkpt lat="45.647202542972735" lon="10.073934524646102"><ele>532.0</ele><time>2026-03-28T16:42:40Z</time></trkpt><trkpt lat="45.647122115889815" lon="10.073999747289326"><ele>534.5</ele><time>2026-03-28T16:42:51Z</time></trkpt><trkpt lat="45.6470610050461" lon="10.074030846839928"><ele>537.0</ele><time>2026-03-28T16:42:52Z</time></trkpt><trkpt lat="45.64697658296636" lon="10.074055835007718"><ele>532.8333333333334</ele><time>2026-03-28T16:42:55Z</time></trkpt><trkpt lat="45.646906005613445" lon="10.07410258793832"><ele>528.6666666666666</ele><time>2026-03-28T16:42:56Z</time></trkpt><trkpt lat="45.64681671794226" lon="10.074144026108238"><ele>524.5</ele><time>2026-03-28T16:42:58Z</time></trkpt><trkpt lat="45.646742871837326" lon="10.074087385426486"><ele>520.3333333333333</ele><time>2026-03-28T16:43:01Z</time></trkpt><trkpt lat="45.646682601432644" lon="10.074025050623943"><ele>516.1666666666666</ele><time>2026-03-28T16:43:03Z</time></trkpt><trkpt lat="45.64662152109408" lon="10.073917186299955"><ele>512.0</ele><time>2026-03-28T16:43:05Z</time></trkpt><trkpt lat="45.646547124888066" lon="10.073874544709541"><ele>512.0</ele><time>2026-03-28T16:43:08Z</time></trkpt><trkpt lat="45.646432444347326" lon="10.0738115274251"><ele>512.0</ele><time>2026-03-28T16:43:10Z</time></trkpt><trkpt lat="45.64635211175215" lon="10.073739580157024"><ele>512.0</ele><time>2026-03-28T16:43:11Z</time></trkpt><trkpt lat="45.646267355501294" lon="10.073659199918248"><ele>512.0</ele><time>2026-03-28T16:43:12Z</time></trkpt><trkpt lat="45.64619901622666" lon="10.073576633894422"><ele>512.0</ele><time>2026-03-28T16:43:13Z</time></trkpt><trkpt lat="45.64613884654149" lon="10.073541953581833"><ele>509.3333333333333</ele><time>2026-03-28T16:43:14Z</time></trkpt><trkpt lat="45.64608550857447" lon="10.073435900028988"><ele>506.66666666666663</ele><time>2026-03-28T16:43:16Z</time></trkpt><trkpt lat="45.64605000104061" lon="10.073262889346099"><ele>504.0</ele><time>2026-03-28T16:43:19Z</time></trkpt><trkpt lat="45.64601398315393" lon="10.073184085121143"><ele>501.33333333333337</ele><time>2026-03-28T16:43:20Z</time></trkpt><trkpt lat="45.645946894364286" lon="10.073198340000591"><ele>498.6666666666667</ele><time>2026-03-28T16:43:22Z</time></trkpt><trkpt lat="45.645877924515794" lon="10.073195421826945"><ele>496.0</ele><time>2026-03-28T16:43:25Z</time></trkpt><trkpt lat="45.64580743429314" lon="10.073189322502861"><ele>496.0</ele><time>2026-03-28T16:43:26Z</time></trkpt><trkpt lat="45.6457387728233" lon="10.073164259314074"><ele>496.0</ele><time>2026-03-28T16:43:28Z</time></trkpt><trkpt lat="45.64559399297113" lon="10.073070206344878"><ele>496.0</ele><time>2026-03-28T16:43:30Z</time></trkpt><trkpt lat="45.645499042567245" lon="10.073016760807086"><ele>496.0</ele><time>2026-03-28T16:43:33Z</time></trkpt><trkpt lat="45.64541267542656" lon="10.072995890021021"><ele>496.0</ele><time>2026-03-28T16:43:36Z</time></trkpt><trkpt lat="45.64532963299126" lon="10.073051089903243"><ele>491.33333333333337</ele><time>2026-03-28T16:43:37Z</time></trkpt><trkpt lat="45.64524689220257" lon="10.073039438357622"><ele>486.6666666666667</ele><time>2026-03-28T16:43:41Z</time></trkpt><trkpt lat="45.64517434905099" lon="10.073047809090024"><ele>482.0</ele><time>2026-03-28T16:43:43Z</time></trkpt><trkpt lat="45.64510953084152" lon="10.073086505208439"><ele>477.33333333333337</ele><time>2026-03-28T16:43:46Z</time></trkpt><trkpt lat="45.64508308918041" lon="10.073169955710934"><ele>472.6666666666667</ele><time>2026-03-28T16:43:50Z</time></trkpt><trkpt lat="45.64511294296877" lon="10.073254068360303"><ele>468.0</ele><time>2026-03-28T16:43:53Z</time></trkpt><trkpt lat="45.64518713419103" lon="10.073391670530322"><ele>466.59999999999997</ele><time>2026-03-28T16:43:55Z</time></trkpt><trkpt lat="45.64533277451387" lon="10.073454313149243"><ele>465.19999999999993</ele><time>2026-03-28T16:43:56Z</time></trkpt><trkpt lat="45.64540249195343" lon="10.073551104292292"><ele>463.8</ele><time>2026-03-28T16:43:57Z</time></trkpt><trkpt lat="45.645406990196804" lon="10.073708193734992"><ele>462.4</ele><time>2026-03-28T16:43:59Z</time></trkpt><trkpt lat="45.645346200479025" lon="10.073734293002873"><ele>461.0</ele><time>2026-03-28T16:44:01Z</time></trkpt><trkpt lat="45.6452801514271" lon="10.073837245860679"><ele>461.0</ele><time>2026-03-28T16:44:04Z</time></trkpt><trkpt lat="45.64522049680567" lon="10.073908064139237"><ele>461.0</ele><time>2026-03-28T16:44:06Z</time></trkpt><trkpt lat="45.64515028442769" lon="10.074001897604465"><ele>461.0</ele><time>2026-03-28T16:44:08Z</time></trkpt><trkpt lat="45.64510282669383" lon="10.074102674427388"><ele>461.0</ele><time>2026-03-28T16:44:10Z</time></trkpt><trkpt lat="45.645031117818306" lon="10.074292452559499"><ele>461.0</ele><time>2026-03-28T16:44:12Z</time></trkpt><trkpt lat="45.64499542047907" lon="10.074376156168695"><ele>458.4</ele><time>2026-03-28T16:44:13Z</time></trkpt><trkpt lat="45.64492910169011" lon="10.074456388026434"><ele>455.8</ele><time>2026-03-28T16:44:14Z</time></trkpt><trkpt lat="45.64486174676514" lon="10.074541837488498"><ele>453.19999999999993</ele><time>2026-03-28T16:44:15Z</time></trkpt><trkpt lat="45.644795401386354" lon="10.074633555949738"><ele>450.59999999999997</ele><time>2026-03-28T16:44:16Z</time></trkpt><trkpt lat="45.64475064221627" lon="10.074725039718345"><ele>448.0</ele><time>2026-03-28T16:44:17Z</time></trkpt><trkpt lat="45.64464831409875" lon="10.074828520979253"><ele>448.0</ele><time>2026-03-28T16:44:19Z</time></trkpt><trkpt lat="45.64459495498884" lon="10.07493565567034"><ele>447.99999999999994</ele><time>2026-03-28T16:44:21Z</time></trkpt><trkpt lat="45.64451815330588" lon="10.07510880989439"><ele>447.99999999999994</ele><time>2026-03-28T16:44:23Z</time></trkpt><trkpt lat="45.64446731521171" lon="10.075212026154114"><ele>448.0</ele><time>2026-03-28T16:44:24Z</time></trkpt><trkpt lat="45.644413556087386" lon="10.075271041269826"><ele>448.0</ele><time>2026-03-28T16:44:25Z</time></trkpt><trkpt lat="45.6443301165651" lon="10.07536127440597"><ele>444.33333333333337</ele><time>2026-03-28T16:44:27Z</time></trkpt><trkpt lat="45.644256157056844" lon="10.07542294147688"><ele>440.6666666666667</ele><time>2026-03-28T16:44:28Z</time></trkpt><trkpt lat="45.6441602705505" lon="10.075500525759104"><ele>437.0</ele><time>2026-03-28T16:44:29Z</time></trkpt><trkpt lat="45.64409921321998" lon="10.075540714060221"><ele>433.33333333333337</ele><time>2026-03-28T16:44:30Z</time></trkpt><trkpt lat="45.644026756997214" lon="10.075675156500013"><ele>429.6666666666667</ele><time>2026-03-28T16:44:32Z</time></trkpt><trkpt lat="45.64397523572763" lon="10.075733889871033"><ele>426.0</ele><time>2026-03-28T16:44:33Z</time></trkpt><trkpt lat="45.643875557380326" lon="10.075746496618349"><ele>425.6</ele><time>2026-03-28T16:44:35Z</time></trkpt><trkpt lat="45.643758891951606" lon="10.07585469561222"><ele>425.20000000000005</ele><time>2026-03-28T16:44:37Z</time></trkpt><trkpt lat="45.64367226599967" lon="10.075932938550007"><ele>424.79999999999995</ele><time>2026-03-28T16:44:38Z</time></trkpt><trkpt lat="45.64360590566338" lon="10.075979056999593"><ele>424.4</ele><time>2026-03-28T16:44:39Z</time></trkpt><trkpt lat="45.643537333889846" lon="10.07594861924415"><ele>424.0</ele><time>2026-03-28T16:44:41Z</time></trkpt><trkpt lat="45.64353339719635" lon="10.075839593492832"><ele>419.83333333333337</ele><time>2026-03-28T16:44:42Z</time></trkpt><trkpt lat="45.643528534713035" lon="10.0757025282012"><ele>415.6666666666667</ele><time>2026-03-28T16:44:43Z</time></trkpt><trkpt lat="45.64350712389826" lon="10.07560648409872"><ele>411.5</ele><time>2026-03-28T16:44:44Z</time></trkpt><trkpt lat="45.64348459805076" lon="10.075496011612435"><ele>407.33333333333337</ele><time>2026-03-28T16:44:45Z</time></trkpt><trkpt lat="45.64345459557107" lon="10.075396667103691"><ele>403.1666666666667</ele><time>2026-03-28T16:44:46Z</time></trkpt><trkpt lat="45.6434076595371" lon="10.075323791663763"><ele>399.0</ele><time>2026-03-28T16:44:47Z</time></trkpt><trkpt lat="45.643310519096296" lon="10.075227395675496"><ele>399.0</ele><time>2026-03-28T16:44:49Z</time></trkpt><trkpt lat="45.643202702010505" lon="10.075226197236852"><ele>399.0</ele><time>2026-03-28T16:44:51Z</time></trkpt><trkpt lat="45.643137451690244" lon="10.075290658000043"><ele>399.0</ele><time>2026-03-28T16:44:52Z</time></trkpt><trkpt lat="45.643058375979955" lon="10.075311728942355"><ele>399.0</ele><time>2026-03-28T16:44:54Z</time></trkpt><trkpt lat="45.642984727544615" lon="10.075361211716308"><ele>399.0</ele><time>2026-03-28T16:44:56Z</time></trkpt><trkpt lat="45.64291221729496" lon="10.075395764007354"><ele>399.0</ele><time>2026-03-28T16:44:57Z</time></trkpt><trkpt lat="45.64280487479164" lon="10.075379524364648"><ele>393.79999999999995</ele><time>2026-03-28T16:44:59Z</time></trkpt><trkpt lat="45.64269677158614" lon="10.075265518033078"><ele>388.59999999999997</ele><time>2026-03-28T16:45:01Z</time></trkpt><trkpt lat="45.64262751013333" lon="10.075139120107249"><ele>383.4</ele><time>2026-03-28T16:45:03Z</time></trkpt><trkpt lat="45.64258999133331" lon="10.075056205673773"><ele>378.2</ele><time>2026-03-28T16:45:07Z</time></trkpt><trkpt lat="45.642511774291464" lon="10.074982119689377"><ele>373.0</ele><time>2026-03-28T16:45:10Z</time></trkpt><trkpt lat="45.642425115616504" lon="10.07497978005868"><ele>373.0</ele><time>2026-03-28T16:45:13Z</time></trkpt><trkpt lat="45.64233338613807" lon="10.074961736648874"><ele>373.0</ele><time>2026-03-28T16:45:15Z</time></trkpt><trkpt lat="45.64223538948203" lon="10.074958066196178"><ele>373.0</ele><time>2026-03-28T16:45:16Z</time></trkpt><trkpt lat="45.642161190699" lon="10.074896503238403"><ele>373.0</ele><time>2026-03-28T16:45:17Z</time></trkpt><trkpt lat="45.642097657836466" lon="10.07488634836454"><ele>373.0</ele><time>2026-03-28T16:45:18Z</time></trkpt><trkpt lat="45.64197831453427" lon="10.074842127110363"><ele>367.3333333333333</ele><time>2026-03-28T16:45:19Z</time></trkpt><trkpt lat="45.64190301592326" lon="10.074806787569592"><ele>361.66666666666663</ele><time>2026-03-28T16:45:20Z</time></trkpt><trkpt lat="45.64180240101966" lon="10.074763042872657"><ele>356.0</ele><time>2026-03-28T16:45:22Z</time></trkpt><trkpt lat="45.64172898528449" lon="10.074755842161597"><ele>350.3333333333333</ele><time>2026-03-28T16:45:24Z</time></trkpt><trkpt lat="45.64165154869484" lon="10.074738986811797"><ele>344.6666666666667</ele><time>2026-03-28T16:45:26Z</time></trkpt><trkpt lat="45.64155968649802" lon="10.074679062740879"><ele>339.0</ele><time>2026-03-28T16:45:28Z</time></trkpt><trkpt lat="45.64149343512081" lon="10.074662094433391"><ele>339.0</ele><time>2026-03-28T16:45:29Z</time></trkpt><trkpt lat="45.64140692563509" lon="10.074694557147206"><ele>339.0</ele><time>2026-03-28T16:45:31Z</time></trkpt><trkpt lat="45.64128892681858" lon="10.074681961923737"><ele>339.0</ele><time>2026-03-28T16:45:33Z</time></trkpt><trkpt lat="45.64122772074337" lon="10.074649798333704"><ele>339.0</ele><time>2026-03-28T16:45:34Z</time></trkpt><trkpt lat="45.641120470685756" lon="10.074571345433792"><ele>339.0</ele><time>2026-03-28T16:45:36Z</time></trkpt><trkpt lat="45.641057606136506" lon="10.074538908596491"><ele>339.0</ele><time>2026-03-28T16:45:37Z</time></trkpt><trkpt lat="45.640954306526396" lon="10.074602564369561"><ele>339.0</ele><time>2026-03-28T16:45:39Z</time></trkpt><trkpt lat="45.640884618690016" lon="10.074642250586036"><ele>339.0</ele><time>2026-03-28T16:45:41Z</time></trkpt><trkpt lat="45.64096351278263" lon="10.074580783086102"><ele>339.0</ele><time>2026-03-28T16:45:48Z</time></trkpt><trkpt lat="45.64102803398788" lon="10.074566140997906"><ele>339.0</ele><time>2026-03-28T16:45:49Z</time></trkpt><trkpt lat="45.641117610757256" lon="10.07460728051783"><ele>339.0</ele><time>2026-03-28T16:45:51Z</time></trkpt><trkpt lat="45.6411752065544" lon="10.074647651606512"><ele>339.0</ele><time>2026-03-28T16:45:52Z</time></trkpt><trkpt lat="45.64124671502797" lon="10.074672179626251"><ele>339.0</ele><time>2026-03-28T16:45:53Z</time></trkpt><trkpt lat="45.64131199659128" lon="10.07466352425765"><ele>339.0</ele><time>2026-03-28T16:45:54Z</time></trkpt><trkpt lat="45.641384115763735" lon="10.074653900743439"><ele>339.0</ele><time>2026-03-28T16:45:55Z</time></trkpt><trkpt lat="45.64148453047378" lon="10.074684434716893"><ele>339.0</ele><time>2026-03-28T16:45:57Z</time></trkpt><trkpt lat="45.64157264096354" lon="10.074746350701236"><ele>339.0</ele><time>2026-03-28T16:45:59Z</time></trkpt><trkpt lat="45.641634608460414" lon="10.074767056084678"><ele>339.0</ele><time>2026-03-28T16:46:00Z</time></trkpt><trkpt lat="45.641738254905086" lon="10.07475316720805"><ele>339.0</ele><time>2026-03-28T16:46:02Z</time></trkpt><trkpt lat="45.64183683488045" lon="10.074822375319306"><ele>339.0</ele><time>2026-03-28T16:46:04Z</time></trkpt><trkpt lat="45.6419727222158" lon="10.07485870412781"><ele>339.0</ele><time>2026-03-28T16:46:06Z</time></trkpt><trkpt lat="45.64203864545103" lon="10.074897637821795"><ele>339.0</ele><time>2026-03-28T16:46:07Z</time></trkpt><trkpt lat="45.642179977420625" lon="10.074863357863238"><ele>342.1666666666667</ele><time>2026-03-28T16:46:09Z</time></trkpt><trkpt lat="45.64224574680471" lon="10.074866927228989"><ele>345.3333333333333</ele><time>2026-03-28T16:46:10Z</time></trkpt><trkpt lat="45.64231574227824" lon="10.074888218414852"><ele>348.5</ele><time>2026-03-28T16:46:11Z</time></trkpt><trkpt lat="45.6423748068778" lon="10.074937775319787"><ele>351.66666666666663</ele><time>2026-03-28T16:46:12Z</time></trkpt><trkpt lat="45.64243958796646" lon="10.075017801121462"><ele>354.8333333333333</ele><time>2026-03-28T16:46:13Z</time></trkpt><trkpt lat="45.64253811118729" lon="10.075069996908312"><ele>358.0</ele><time>2026-03-28T16:46:15Z</time></trkpt><trkpt lat="45.64259544793086" lon="10.075112549435095"><ele>360.14285714285717</ele><time>2026-03-28T16:46:16Z</time></trkpt><trkpt lat="45.64264714664018" lon="10.075170652261582"><ele>362.2857142857143</ele><time>2026-03-28T16:46:17Z</time></trkpt><trkpt lat="45.64271863901968" lon="10.075214160269176"><ele>364.42857142857144</ele><time>2026-03-28T16:46:18Z</time></trkpt><trkpt lat="45.642776083774265" lon="10.075306412067226"><ele>366.57142857142856</ele><time>2026-03-28T16:46:19Z</time></trkpt><trkpt lat="45.64284374212917" lon="10.07537405338253"><ele>368.7142857142857</ele><time>2026-03-28T16:46:20Z</time></trkpt><trkpt lat="45.642911978363436" lon="10.075389350387638"><ele>370.8571428571429</ele><time>2026-03-28T16:46:21Z</time></trkpt><trkpt lat="45.64297287647928" lon="10.075361805855298"><ele>373.0</ele><time>2026-03-28T16:46:22Z</time></trkpt><trkpt lat="45.643091083773506" lon="10.075304673835834"><ele>378.2</ele><time>2026-03-28T16:46:24Z</time></trkpt><trkpt lat="45.64319881735882" lon="10.075237601927983"><ele>383.4</ele><time>2026-03-28T16:46:26Z</time></trkpt><trkpt lat="45.64329575649831" lon="10.075249939975517"><ele>388.59999999999997</ele><time>2026-03-28T16:46:28Z</time></trkpt><trkpt lat="45.64339269061012" lon="10.075300254106347"><ele>393.79999999999995</ele><time>2026-03-28T16:46:30Z</time></trkpt><trkpt lat="45.64344706760809" lon="10.075370590019608"><ele>399.0</ele><time>2026-03-28T16:46:31Z</time></trkpt><trkpt lat="45.6434783038942" lon="10.07550211467331"><ele>399.0</ele><time>2026-03-28T16:46:32Z</time></trkpt><trkpt lat="45.643513610866364" lon="10.075675371365914"><ele>399.0</ele><time>2026-03-28T16:46:33Z</time></trkpt><trkpt lat="45.64355064832779" lon="10.075785075667108"><ele>399.0</ele><time>2026-03-28T16:46:34Z</time></trkpt><trkpt lat="45.64355044548295" lon="10.07594656117458"><ele>399.0</ele><time>2026-03-28T16:46:36Z</time></trkpt><trkpt lat="45.643583408740994" lon="10.076044462898697"><ele>399.0</ele><time>2026-03-28T16:46:37Z</time></trkpt><trkpt lat="45.64372729511448" lon="10.075964813562274"><ele>404.0</ele><time>2026-03-28T16:46:39Z</time></trkpt><trkpt lat="45.643807838858336" lon="10.075841698864156"><ele>409.0</ele><time>2026-03-28T16:46:40Z</time></trkpt><trkpt lat="45.643878716914514" lon="10.075806181678287"><ele>414.0</ele><time>2026-03-28T16:46:41Z</time></trkpt><trkpt lat="45.64396046985819" lon="10.075755989933505"><ele>419.0</ele><time>2026-03-28T16:46:42Z</time></trkpt><trkpt lat="45.644029349051394" lon="10.075697348384038"><ele>424.0</ele><time>2026-03-28T16:46:43Z</time></trkpt><trkpt lat="45.64411006545293" lon="10.075557180554657"><ele>424.33333333333337</ele><time>2026-03-28T16:46:45Z</time></trkpt><trkpt lat="45.64415933660336" lon="10.075460244279533"><ele>424.6666666666667</ele><time>2026-03-28T16:46:46Z</time></trkpt><trkpt lat="45.64422521480007" lon="10.075426920975051"><ele>425.0</ele><time>2026-03-28T16:46:47Z</time></trkpt><trkpt lat="45.644300599638726" lon="10.075416300819501"><ele>425.33333333333337</ele><time>2026-03-28T16:46:48Z</time></trkpt><trkpt lat="45.64438544731522" lon="10.075383950954969"><ele>425.6666666666667</ele><time>2026-03-28T16:46:49Z</time></trkpt><trkpt lat="45.644448924816274" lon="10.075295593522084"><ele>426.0</ele><time>2026-03-28T16:46:51Z</time></trkpt><trkpt lat="45.644500986401354" lon="10.075202374853122"><ele>430.4</ele><time>2026-03-28T16:46:52Z</time></trkpt><trkpt lat="45.64456756041064" lon="10.075088710890775"><ele>434.8</ele><time>2026-03-28T16:46:53Z</time></trkpt><trkpt lat="45.64462550417083" lon="10.074978174735083"><ele>439.19999999999993</ele><time>2026-03-28T16:46:54Z</time></trkpt><trkpt lat="45.64465181123634" lon="10.074895668376424"><ele>443.59999999999997</ele><time>2026-03-28T16:46:55Z</time></trkpt><trkpt lat="45.64478358331548" lon="10.074805865293142"><ele>448.0</ele><time>2026-03-28T16:46:57Z</time></trkpt><trkpt lat="45.64483227959185" lon="10.074722458236902"><ele>448.00000000000006</ele><time>2026-03-28T16:46:58Z</time></trkpt><trkpt lat="45.644868335965675" lon="10.074644793143266"><ele>448.0</ele><time>2026-03-28T16:46:59Z</time></trkpt><trkpt lat="45.64494393192228" lon="10.074562254237742"><ele>448.0</ele><time>2026-03-28T16:47:00Z</time></trkpt><trkpt lat="45.64501402556784" lon="10.07448510234066"><ele>448.0</ele><time>2026-03-28T16:47:01Z</time></trkpt><trkpt lat="45.64503867621014" lon="10.07439392360995"><ele>448.00000000000006</ele><time>2026-03-28T16:47:02Z</time></trkpt><trkpt lat="45.645056570440936" lon="10.074298604332895"><ele>448.0</ele><time>2026-03-28T16:47:03Z</time></trkpt><trkpt lat="45.64510967037774" lon="10.074221370552555"><ele>448.00000000000006</ele><time>2026-03-28T16:47:04Z</time></trkpt><trkpt lat="45.645189310686" lon="10.0741453146064"><ele>448.0</ele><time>2026-03-28T16:47:05Z</time></trkpt><trkpt lat="45.64530402330123" lon="10.074091123916034"><ele>448.0</ele><time>2026-03-28T16:47:06Z</time></trkpt><trkpt lat="45.64536238140563" lon="10.074024832655503"><ele>448.0</ele><time>2026-03-28T16:47:07Z</time></trkpt><trkpt lat="45.64541201960757" lon="10.07394557300007"><ele>448.00000000000006</ele><time>2026-03-28T16:47:08Z</time></trkpt><trkpt lat="45.64543702914142" lon="10.073839682991848"><ele>448.0</ele><time>2026-03-28T16:47:09Z</time></trkpt><trkpt lat="45.645475089376845" lon="10.073696933164666"><ele>450.59999999999997</ele><time>2026-03-28T16:47:11Z</time></trkpt><trkpt lat="45.645416882472794" lon="10.07363237367806"><ele>453.19999999999993</ele><time>2026-03-28T16:47:13Z</time></trkpt><trkpt lat="45.64531613281035" lon="10.073562947595754"><ele>455.8</ele><time>2026-03-28T16:47:14Z</time></trkpt><trkpt lat="45.64521244899431" lon="10.073496165523126"><ele>458.4</ele><time>2026-03-28T16:47:15Z</time></trkpt><trkpt lat="45.645155504945436" lon="10.07341118302455"><ele>461.0</ele><time>2026-03-28T16:47:16Z</time></trkpt><trkpt lat="45.64509945456699" lon="10.073350646146695"><ele>460.99999999999994</ele><time>2026-03-28T16:47:17Z</time></trkpt><trkpt lat="45.645025747157966" lon="10.073303290527011"><ele>461.0</ele><time>2026-03-28T16:47:18Z</time></trkpt><trkpt lat="45.64495339074807" lon="10.073271304548335"><ele>461.0</ele><time>2026-03-28T16:47:19Z</time></trkpt><trkpt lat="45.64487813073282" lon="10.073202746895706"><ele>461.0</ele><time>2026-03-28T16:47:20Z</time></trkpt><trkpt lat="45.64480622987833" lon="10.073164170960675"><ele>460.99999999999994</ele><time>2026-03-28T16:47:21Z</time></trkpt><trkpt lat="45.64475721698717" lon="10.073095280011684"><ele>461.0</ele><time>2026-03-28T16:47:22Z</time></trkpt><trkpt lat="45.64475034365872" lon="10.073005541310545"><ele>462.4</ele><time>2026-03-28T16:47:24Z</time></trkpt><trkpt lat="45.644805469969064" lon="10.072923757462908"><ele>463.8</ele><time>2026-03-28T16:47:25Z</time></trkpt><trkpt lat="45.64488950255721" lon="10.072872325519318"><ele>465.19999999999993</ele><time>2026-03-28T16:47:26Z</time></trkpt><trkpt lat="45.64498329769794" lon="10.072836487024107"><ele>466.59999999999997</ele><time>2026-03-28T16:47:27Z</time></trkpt><trkpt lat="45.64507082147213" lon="10.072838477148942"><ele>468.0</ele><time>2026-03-28T16:47:28Z</time></trkpt><trkpt lat="45.64517522702915" lon="10.072824152099004"><ele>468.0</ele><time>2026-03-28T16:47:29Z</time></trkpt><trkpt lat="45.64528769145915" lon="10.072803401186235"><ele>467.99999999999994</ele><time>2026-03-28T16:47:31Z</time></trkpt><trkpt lat="45.64536600848324" lon="10.072870350087557"><ele>467.99999999999994</ele><time>2026-03-28T16:47:32Z</time></trkpt><trkpt lat="45.64540963056866" lon="10.072936517797842"><ele>468.0</ele><time>2026-03-28T16:47:33Z</time></trkpt><trkpt lat="45.645467890184065" lon="10.073008104729963"><ele>468.0</ele><time>2026-03-28T16:47:34Z</time></trkpt><trkpt lat="45.64559535050073" lon="10.073039899155892"><ele>472.6666666666667</ele><time>2026-03-28T16:47:36Z</time></trkpt><trkpt lat="45.645673007532665" lon="10.073038221335446"><ele>477.33333333333337</ele><time>2026-03-28T16:47:37Z</time></trkpt><trkpt lat="45.64574286658608" lon="10.073062436455816"><ele>482.0</ele><time>2026-03-28T16:47:38Z</time></trkpt><trkpt lat="45.645808595495104" lon="10.073068815621442"><ele>486.6666666666667</ele><time>2026-03-28T16:47:39Z</time></trkpt><trkpt lat="45.6458758232618" lon="10.073091510799925"><ele>491.33333333333337</ele><time>2026-03-28T16:47:40Z</time></trkpt><trkpt lat="45.64595990405661" lon="10.073164612502516"><ele>496.0</ele><time>2026-03-28T16:47:42Z</time></trkpt><trkpt lat="45.64601293998839" lon="10.073263696842558"><ele>494.1666666666667</ele><time>2026-03-28T16:47:44Z</time></trkpt><trkpt lat="45.64605026525392" lon="10.073338801928529"><ele>492.33333333333337</ele><time>2026-03-28T16:47:45Z</time></trkpt><trkpt lat="45.646073974597115" lon="10.073468192463636"><ele>490.5</ele><time>2026-03-28T16:47:48Z</time></trkpt><trkpt lat="45.646155360709805" lon="10.073534755101653"><ele>488.66666666666663</ele><time>2026-03-28T16:47:51Z</time></trkpt><trkpt lat="45.646192526218854" lon="10.073607993209931"><ele>486.8333333333333</ele><time>2026-03-28T16:47:53Z</time></trkpt><trkpt lat="45.646259282093915" lon="10.073650946887106"><ele>485.0</ele><time>2026-03-28T16:47:55Z</time></trkpt><trkpt lat="45.64634614863489" lon="10.073751184831835"><ele>490.4</ele><time>2026-03-28T16:47:58Z</time></trkpt><trkpt lat="45.64640440157991" lon="10.073842685164191"><ele>495.8</ele><time>2026-03-28T16:48:01Z</time></trkpt><trkpt lat="45.64645930768617" lon="10.073916361813035"><ele>501.20000000000005</ele><time>2026-03-28T16:48:02Z</time></trkpt><trkpt lat="45.64652671539196" lon="10.07398625919726"><ele>506.6</ele><time>2026-03-28T16:48:03Z</time></trkpt><trkpt lat="45.64672111246391" lon="10.073991101287344"><ele>512.0</ele><time>2026-03-28T16:48:09Z</time></trkpt><trkpt lat="45.64677442418058" lon="10.074054101419293"><ele>512.0</ele><time>2026-03-28T16:48:13Z</time></trkpt><trkpt lat="45.64685113202624" lon="10.074039563422172"><ele>512.0</ele><time>2026-03-28T16:48:15Z</time></trkpt><trkpt lat="45.646958551313915" lon="10.074021819099636"><ele>512.0</ele><time>2026-03-28T16:48:18Z</time></trkpt><trkpt lat="45.647023428370744" lon="10.073985080156042"><ele>512.0</ele><time>2026-03-28T16:48:20Z</time></trkpt><trkpt lat="45.64718386150771" lon="10.073935750603148"><ele>512.0</ele><time>2026-03-28T16:48:24Z</time></trkpt><trkpt lat="45.64725130155644" lon="10.07390929756739"><ele>517.0</ele><time>2026-03-28T16:48:25Z</time></trkpt><trkpt lat="45.64732929424522" lon="10.074000699781688"><ele>522.0</ele><time>2026-03-28T16:48:28Z</time></trkpt><trkpt lat="45.64743350290066" lon="10.074042093941829"><ele>527.0</ele><time>2026-03-28T16:48:30Z</time></trkpt><trkpt lat="45.64751046204495" lon="10.074048177084217"><ele>532.0</ele><time>2026-03-28T16:48:32Z</time></trkpt><trkpt lat="45.64760858313601" lon="10.074036225189248"><ele>537.0</ele><time>2026-03-28T16:48:34Z</time></trkpt><trkpt lat="45.64767308080579" lon="10.074002856127946"><ele>537.0</ele><time>2026-03-28T16:48:37Z</time></trkpt><trkpt lat="45.647740187611674" lon="10.073922701023953"><ele>537.0</ele><time>2026-03-28T16:48:39Z</time></trkpt><trkpt lat="45.64772170690198" lon="10.073795770681281"><ele>537.0</ele><time>2026-03-28T16:48:42Z</time></trkpt><trkpt lat="45.6476226758626" lon="10.073793292247569"><ele>537.0</ele><time>2026-03-28T16:48:44Z</time></trkpt><trkpt lat="45.64757979159937" lon="10.073694580015104"><ele>537.0</ele><time>2026-03-28T16:48:46Z</time></trkpt><trkpt lat="45.64765995508143" lon="10.073608956846124"><ele>537.0</ele><time>2026-03-28T16:48:59Z</time></trkpt><trkpt lat="45.64772188908389" lon="10.073562931942435"><ele>537.0</ele><time>2026-03-28T16:49:02Z</time></trkpt><trkpt lat="45.64772679017396" lon="10.073431761577954"><ele>537.0</ele><time>2026-03-28T16:49:04Z</time></trkpt><trkpt lat="45.647756978165894" lon="10.07332384405422"><ele>537.0</ele><time>2026-03-28T16:49:06Z</time></trkpt><trkpt lat="45.6476879395189" lon="10.073275364556412"><ele>537.0</ele><time>2026-03-28T16:49:11Z</time></trkpt><trkpt lat="45.64777735359974" lon="10.073249409430636"><ele>537.0</ele><time>2026-03-28T16:49:15Z</time></trkpt><trkpt lat="45.647836011111664" lon="10.073287113448734"><ele>541.8000000000001</ele><time>2026-03-28T16:49:18Z</time></trkpt><trkpt lat="45.64791325970073" lon="10.07332551279894"><ele>546.6</ele><time>2026-03-28T16:49:33Z</time></trkpt><trkpt lat="45.64808315181716" lon="10.073310285021702"><ele>551.4000000000001</ele><time>2026-03-28T16:49:38Z</time></trkpt><trkpt lat="45.64817334095436" lon="10.073287601011483"><ele>556.2</ele><time>2026-03-28T16:49:40Z</time></trkpt><trkpt lat="45.64820535483325" lon="10.073190887792945"><ele>561.0</ele><time>2026-03-28T16:49:45Z</time></trkpt><trkpt lat="45.64815550387014" lon="10.073123470809906"><ele>564.0</ele><time>2026-03-28T16:49:46Z</time></trkpt><trkpt lat="45.64805683830599" lon="10.073059660920288"><ele>567.0</ele><time>2026-03-28T16:49:48Z</time></trkpt><trkpt lat="45.647965118052824" lon="10.073022133035291"><ele>570.0</ele><time>2026-03-28T16:49:50Z</time></trkpt><trkpt lat="45.647916591831084" lon="10.072954752969999"><ele>573.0</ele><time>2026-03-28T16:49:52Z</time></trkpt><trkpt lat="45.64787745270081" lon="10.072840148411302"><ele>576.0</ele><time>2026-03-28T16:49:54Z</time></trkpt><trkpt lat="45.64790012260451" lon="10.072748644058262"><ele>579.0</ele><time>2026-03-28T16:49:57Z</time></trkpt><trkpt lat="45.647925898576936" lon="10.07259750434189"><ele>579.0</ele><time>2026-03-28T16:49:59Z</time></trkpt><trkpt lat="45.647990760000965" lon="10.072586413948166"><ele>579.0</ele><time>2026-03-28T16:50:05Z</time></trkpt><trkpt lat="45.64804579517143" lon="10.072647477876462"><ele>579.0</ele><time>2026-03-28T16:50:06Z</time></trkpt><trkpt lat="45.648152738654" lon="10.072750602486513"><ele>579.0</ele><time>2026-03-28T16:50:08Z</time></trkpt><trkpt lat="45.64823180318428" lon="10.072799089461814"><ele>579.0</ele><time>2026-03-28T16:50:09Z</time></trkpt><trkpt lat="45.64833927026921" lon="10.072880048619524"><ele>579.0</ele><time>2026-03-28T16:50:10Z</time></trkpt><trkpt lat="45.648437324847855" lon="10.072956009878217"><ele>579.0</ele><time>2026-03-28T16:50:11Z</time></trkpt><trkpt lat="45.64854045795526" lon="10.073028467174765"><ele>579.0</ele><time>2026-03-28T16:50:12Z</time></trkpt><trkpt lat="45.64862139862811" lon="10.07308247418569"><ele>579.0</ele><time>2026-03-28T16:50:13Z</time></trkpt><trkpt lat="45.64865792422174" lon="10.073160569624036"><ele>579.0</ele><time>2026-03-28T16:50:14Z</time></trkpt><trkpt lat="45.64873183777345" lon="10.073224732941553"><ele>577.4</ele><time>2026-03-28T16:50:15Z</time></trkpt><trkpt lat="45.64883515179317" lon="10.073286375399416"><ele>575.8</ele><time>2026-03-28T16:50:16Z</time></trkpt><trkpt lat="45.64891783385533" lon="10.073274853090558"><ele>574.2</ele><time>2026-03-28T16:50:17Z</time></trkpt><trkpt lat="45.64905631275622" lon="10.07330140284336"><ele>572.6</ele><time>2026-03-28T16:50:19Z</time></trkpt><trkpt lat="45.649154044106865" lon="10.073373764857012"><ele>571.0</ele><time>2026-03-28T16:50:21Z</time></trkpt><trkpt lat="45.649194966095195" lon="10.073443012794785"><ele>571.0</ele><time>2026-03-28T16:50:22Z</time></trkpt><trkpt lat="45.64922184992816" lon="10.073532978319358"><ele>571.0</ele><time>2026-03-28T16:50:23Z</time></trkpt><trkpt lat="45.64932730824463" lon="10.073576828371213"><ele>571.0</ele><time>2026-03-28T16:50:25Z</time></trkpt><trkpt lat="45.649372122999296" lon="10.073669936971955"><ele>571.0</ele><time>2026-03-28T16:50:27Z</time></trkpt><trkpt lat="45.64938459559345" lon="10.073776230371664"><ele>571.0</ele><time>2026-03-28T16:50:28Z</time></trkpt><trkpt lat="45.64940040240949" lon="10.073889765949612"><ele>571.0</ele><time>2026-03-28T16:50:29Z</time></trkpt><trkpt lat="45.6494293748961" lon="10.074009820773723"><ele>570.1666666666667</ele><time>2026-03-28T16:50:30Z</time></trkpt><trkpt lat="45.64946240827012" lon="10.074103663804276"><ele>569.3333333333334</ele><time>2026-03-28T16:50:31Z</time></trkpt><trkpt lat="45.649492325947456" lon="10.074191733459884"><ele>568.5</ele><time>2026-03-28T16:50:32Z</time></trkpt><trkpt lat="45.64954825225427" lon="10.074302088715301"><ele>567.6666666666666</ele><time>2026-03-28T16:50:34Z</time></trkpt><trkpt lat="45.64959004263367" lon="10.074421055915906"><ele>566.8333333333333</ele><time>2026-03-28T16:50:36Z</time></trkpt><trkpt lat="45.649708569252155" lon="10.074406224631602"><ele>566.0</ele><time>2026-03-28T16:50:38Z</time></trkpt><trkpt lat="45.649774138728056" lon="10.074399040084446"><ele>566.0</ele><time>2026-03-28T16:50:39Z</time></trkpt><trkpt lat="45.64986913037652" lon="10.074407731574905"><ele>566.0</ele><time>2026-03-28T16:50:41Z</time></trkpt><trkpt lat="45.649922847107206" lon="10.074352068578705"><ele>566.0</ele><time>2026-03-28T16:50:45Z</time></trkpt><trkpt lat="45.6499521228499" lon="10.074209386615632"><ele>566.0</ele><time>2026-03-28T16:50:47Z</time></trkpt><trkpt lat="45.649980456726865" lon="10.074108392956227"><ele>566.0</ele><time>2026-03-28T16:50:49Z</time></trkpt><trkpt lat="45.650000419583776" lon="10.073942920756167"><ele>564.6</ele><time>2026-03-28T16:50:51Z</time></trkpt><trkpt lat="45.65009860815446" lon="10.07388812475807"><ele>563.2</ele><time>2026-03-28T16:50:53Z</time></trkpt><trkpt lat="45.650167208084326" lon="10.07379650741054"><ele>561.8</ele><time>2026-03-28T16:50:55Z</time></trkpt><trkpt lat="45.65023915111876" lon="10.073660521975627"><ele>560.4</ele><time>2026-03-28T16:50:57Z</time></trkpt><trkpt lat="45.650289490409165" lon="10.073542895877132"><ele>559.0</ele><time>2026-03-28T16:50:59Z</time></trkpt><trkpt lat="45.650344129701836" lon="10.073472021139407"><ele>553.0</ele><time>2026-03-28T16:51:01Z</time></trkpt><trkpt lat="45.6504342370374" lon="10.073465939771063"><ele>547.0</ele><time>2026-03-28T16:51:04Z</time></trkpt><trkpt lat="45.65052347828941" lon="10.073403158489716"><ele>541.0</ele><time>2026-03-28T16:51:06Z</time></trkpt><trkpt lat="45.65056813001447" lon="10.0733321559107"><ele>535.0</ele><time>2026-03-28T16:51:08Z</time></trkpt><trkpt lat="45.650637148324485" lon="10.073231867878613"><ele>529.0</ele><time>2026-03-28T16:51:11Z</time></trkpt><trkpt lat="45.65070422411372" lon="10.073134632567958"><ele>526.6</ele><time>2026-03-28T16:51:13Z</time></trkpt><trkpt lat="45.650750469649985" lon="10.07302068453183"><ele>524.2</ele><time>2026-03-28T16:51:15Z</time></trkpt><trkpt lat="45.650786414567825" lon="10.07275436206759"><ele>521.8000000000001</ele><time>2026-03-28T16:51:17Z</time></trkpt><trkpt lat="45.65081400639775" lon="10.072665023630764"><ele>519.4</ele><time>2026-03-28T16:51:18Z</time></trkpt><trkpt lat="45.65080909570226" lon="10.072553601934624"><ele>517.0</ele><time>2026-03-28T16:51:19Z</time></trkpt><trkpt lat="45.65076776215482" lon="10.072469792244737"><ele>516.1666666666667</ele><time>2026-03-28T16:51:20Z</time></trkpt><trkpt lat="45.650741585598425" lon="10.072355357005922"><ele>515.3333333333334</ele><time>2026-03-28T16:51:23Z</time></trkpt><trkpt lat="45.650693767234515" lon="10.072195267571763"><ele>514.5</ele><time>2026-03-28T16:51:25Z</time></trkpt><trkpt lat="45.65068242909146" lon="10.072101026410206"><ele>513.6666666666666</ele><time>2026-03-28T16:51:26Z</time></trkpt><trkpt lat="45.65064315780261" lon="10.07202656760082"><ele>512.8333333333333</ele><time>2026-03-28T16:51:27Z</time></trkpt><trkpt lat="45.650626088955505" lon="10.0719129654879"><ele>512.0</ele><time>2026-03-28T16:51:28Z</time></trkpt><trkpt lat="45.6505810459447" lon="10.071772098322677"><ele>512.0</ele><time>2026-03-28T16:51:30Z</time></trkpt><trkpt lat="45.65056940213578" lon="10.071646920116992"><ele>512.0</ele><time>2026-03-28T16:51:32Z</time></trkpt><trkpt lat="45.65061806450947" lon="10.071910644247536"><ele>512.0</ele><time>2026-03-28T16:51:47Z</time></trkpt><trkpt lat="45.65063917502563" lon="10.072006851883133"><ele>512.0</ele><time>2026-03-28T16:51:48Z</time></trkpt><trkpt lat="45.6506850609852" lon="10.072145256986307"><ele>512.0</ele><time>2026-03-28T16:51:50Z</time></trkpt><trkpt lat="45.650743328435375" lon="10.072226787040206"><ele>512.0</ele><time>2026-03-28T16:51:52Z</time></trkpt><trkpt lat="45.65076872392144" lon="10.072383970474878"><ele>512.0</ele><time>2026-03-28T16:51:54Z</time></trkpt><trkpt lat="45.650782083704804" lon="10.072602785902609"><ele>512.0</ele><time>2026-03-28T16:51:56Z</time></trkpt><trkpt lat="45.650757160727004" lon="10.072736937539402"><ele>512.0</ele><time>2026-03-28T16:51:57Z</time></trkpt><trkpt lat="45.650733954259536" lon="10.072850078791184"><ele>512.8333333333333</ele><time>2026-03-28T16:51:58Z</time></trkpt><trkpt lat="45.65071434143802" lon="10.072960377115338"><ele>513.6666666666666</ele><time>2026-03-28T16:51:59Z</time></trkpt><trkpt lat="45.65070661053424" lon="10.073075813593366"><ele>514.5</ele><time>2026-03-28T16:52:00Z</time></trkpt><trkpt lat="45.65069630063896" lon="10.073203107136864"><ele>515.3333333333334</ele><time>2026-03-28T16:52:02Z</time></trkpt><trkpt lat="45.65060102974471" lon="10.073302701371578"><ele>516.1666666666667</ele><time>2026-03-28T16:52:04Z</time></trkpt><trkpt lat="45.65055237797174" lon="10.07337146004583"><ele>517.0</ele><time>2026-03-28T16:52:07Z</time></trkpt><trkpt lat="45.650496983773074" lon="10.07346029159307"><ele>519.0</ele><time>2026-03-28T16:52:09Z</time></trkpt><trkpt lat="45.65043754244966" lon="10.073499830693777"><ele>521.0</ele><time>2026-03-28T16:52:10Z</time></trkpt><trkpt lat="45.65036791140567" lon="10.073535689848953"><ele>523.0</ele><time>2026-03-28T16:52:12Z</time></trkpt><trkpt lat="45.65027889245117" lon="10.073591265811396"><ele>525.0</ele><time>2026-03-28T16:52:15Z</time></trkpt><trkpt lat="45.65021975669796" lon="10.073699792768794"><ele>527.0</ele><time>2026-03-28T16:52:17Z</time></trkpt><trkpt lat="45.65019715463972" lon="10.073783990301322"><ele>529.0</ele><time>2026-03-28T16:52:18Z</time></trkpt><trkpt lat="45.65014042364988" lon="10.07389050736477"><ele>534.0</ele><time>2026-03-28T16:52:20Z</time></trkpt><trkpt lat="45.6500652875898" lon="10.07396731335349"><ele>539.0</ele><time>2026-03-28T16:52:22Z</time></trkpt><trkpt lat="45.64998918992549" lon="10.074017341778402"><ele>544.0</ele><time>2026-03-28T16:52:24Z</time></trkpt><trkpt lat="45.649970376544395" lon="10.074138964105765"><ele>549.0</ele><time>2026-03-28T16:52:26Z</time></trkpt><trkpt lat="45.64993439982517" lon="10.074258010977625"><ele>554.0</ele><time>2026-03-28T16:52:27Z</time></trkpt><trkpt lat="45.64990376493073" lon="10.07438713639947"><ele>559.0</ele><time>2026-03-28T16:52:29Z</time></trkpt><trkpt lat="45.649976663224805" lon="10.074465421677246"><ele>560.1666666666667</ele><time>2026-03-28T16:52:32Z</time></trkpt><trkpt lat="45.650045313123236" lon="10.074484888795528"><ele>561.3333333333334</ele><time>2026-03-28T16:52:33Z</time></trkpt><trkpt lat="45.65012922271727" lon="10.074493733873243"><ele>562.5</ele><time>2026-03-28T16:52:34Z</time></trkpt><trkpt lat="45.65021698240476" lon="10.074503760520958"><ele>563.6666666666666</ele><time>2026-03-28T16:52:35Z</time></trkpt><trkpt lat="45.65030933105679" lon="10.07450122908796"><ele>564.8333333333333</ele><time>2026-03-28T16:52:36Z</time></trkpt><trkpt lat="45.65039066794156" lon="10.074523180971235"><ele>566.0</ele><time>2026-03-28T16:52:37Z</time></trkpt><trkpt lat="45.6504805067842" lon="10.074521608148041"><ele>563.1666666666666</ele><time>2026-03-28T16:52:38Z</time></trkpt><trkpt lat="45.650570762987236" lon="10.074529638844485"><ele>560.3333333333333</ele><time>2026-03-28T16:52:39Z</time></trkpt><trkpt lat="45.650647375012305" lon="10.074508454110706"><ele>557.5</ele><time>2026-03-28T16:52:40Z</time></trkpt><trkpt lat="45.65072233780627" lon="10.074509597961338"><ele>554.6666666666666</ele><time>2026-03-28T16:52:41Z</time></trkpt><trkpt lat="45.650793224851824" lon="10.074523340456793"><ele>551.8333333333334</ele><time>2026-03-28T16:52:42Z</time></trkpt><trkpt lat="45.65086090575264" lon="10.0745239725656"><ele>549.0</ele><time>2026-03-28T16:52:43Z</time></trkpt><trkpt lat="45.65094668480773" lon="10.074543372099239"><ele>549.0</ele><time>2026-03-28T16:52:44Z</time></trkpt><trkpt lat="45.651019650104324" lon="10.074570040624002"><ele>549.0</ele><time>2026-03-28T16:52:45Z</time></trkpt><trkpt lat="45.651135130060354" lon="10.074605841154451"><ele>549.0</ele><time>2026-03-28T16:52:47Z</time></trkpt><trkpt lat="45.651197739060244" lon="10.074641135307733"><ele>549.0</ele><time>2026-03-28T16:52:48Z</time></trkpt><trkpt lat="45.65131667057582" lon="10.07471807546856"><ele>549.0</ele><time>2026-03-28T16:52:50Z</time></trkpt><trkpt lat="45.651386509599334" lon="10.074730661027564"><ele>545.5</ele><time>2026-03-28T16:52:51Z</time></trkpt><trkpt lat="45.651453041558" lon="10.074787801657326"><ele>542.0</ele><time>2026-03-28T16:52:52Z</time></trkpt><trkpt lat="45.651523394180224" lon="10.074831467964206"><ele>538.5</ele><time>2026-03-28T16:52:53Z</time></trkpt><trkpt lat="45.65161421949148" lon="10.074851691469767"><ele>535.0</ele><time>2026-03-28T16:52:54Z</time></trkpt><trkpt lat="45.65169389183031" lon="10.07485569484233"><ele>531.5</ele><time>2026-03-28T16:52:55Z</time></trkpt><trkpt lat="45.6517692366829" lon="10.074874603113914"><ele>528.0</ele><time>2026-03-28T16:52:56Z</time></trkpt><trkpt lat="45.651840221316036" lon="10.07489986721067"><ele>526.5</ele><time>2026-03-28T16:52:57Z</time></trkpt><trkpt lat="45.65195271059452" lon="10.075019204878275"><ele>525.0</ele><time>2026-03-28T16:52:59Z</time></trkpt><trkpt lat="45.65199567991984" lon="10.075096446803082"><ele>523.5</ele><time>2026-03-28T16:53:00Z</time></trkpt><trkpt lat="45.652041316150516" lon="10.075169972640069"><ele>522.0</ele><time>2026-03-28T16:53:01Z</time></trkpt><trkpt lat="45.65209345576766" lon="10.075235507964805"><ele>520.5</ele><time>2026-03-28T16:53:02Z</time></trkpt><trkpt lat="45.65214333265789" lon="10.075323471737912"><ele>519.0</ele><time>2026-03-28T16:53:03Z</time></trkpt><trkpt lat="45.65220599589997" lon="10.075382016495537"><ele>519.0</ele><time>2026-03-28T16:53:04Z</time></trkpt><trkpt lat="45.6522424070834" lon="10.075465843451033"><ele>519.0</ele><time>2026-03-28T16:53:05Z</time></trkpt><trkpt lat="45.65230006380725" lon="10.075527026890496"><ele>519.0</ele><time>2026-03-28T16:53:06Z</time></trkpt><trkpt lat="45.652405872475825" lon="10.075621419037796"><ele>519.0</ele><time>2026-03-28T16:53:08Z</time></trkpt><trkpt lat="45.65247784441556" lon="10.07568851654129"><ele>519.0</ele><time>2026-03-28T16:53:09Z</time></trkpt><trkpt lat="45.65253362096802" lon="10.0757584136795"><ele>519.0</ele><time>2026-03-28T16:53:10Z</time></trkpt><trkpt lat="45.652574912857716" lon="10.075847752797449"><ele>516.8333333333334</ele><time>2026-03-28T16:53:11Z</time></trkpt><trkpt lat="45.652603948223444" lon="10.07594288601511"><ele>514.6666666666666</ele><time>2026-03-28T16:53:12Z</time></trkpt><trkpt lat="45.65267961491175" lon="10.076080818060687"><ele>512.5</ele><time>2026-03-28T16:53:14Z</time></trkpt><trkpt lat="45.6526967555422" lon="10.07619252350815"><ele>510.3333333333333</ele><time>2026-03-28T16:53:15Z</time></trkpt><trkpt lat="45.652716648465436" lon="10.076308089883653"><ele>508.16666666666663</ele><time>2026-03-28T16:53:16Z</time></trkpt><trkpt lat="45.65274823735385" lon="10.076404961445238"><ele>506.0</ele><time>2026-03-28T16:53:17Z</time></trkpt><trkpt lat="45.65280078980756" lon="10.076483410922885"><ele>505.99999999999994</ele><time>2026-03-28T16:53:18Z</time></trkpt><trkpt lat="45.65285415987307" lon="10.076580326586095"><ele>506.0</ele><time>2026-03-28T16:53:19Z</time></trkpt><trkpt lat="45.65290152557984" lon="10.076691700948832"><ele>506.0</ele><time>2026-03-28T16:53:20Z</time></trkpt><trkpt lat="45.65292057860775" lon="10.07682995140524"><ele>506.0</ele><time>2026-03-28T16:53:21Z</time></trkpt><trkpt lat="45.65294751968394" lon="10.076951020565607"><ele>505.99999999999994</ele><time>2026-03-28T16:53:22Z</time></trkpt><trkpt lat="45.65296772551797" lon="10.077064639517165"><ele>506.0</ele><time>2026-03-28T16:53:23Z</time></trkpt><trkpt lat="45.65298877286619" lon="10.077167169794903"><ele>507.4</ele><time>2026-03-28T16:53:24Z</time></trkpt><trkpt lat="45.65301273356583" lon="10.077288773211533"><ele>508.8</ele><time>2026-03-28T16:53:25Z</time></trkpt><trkpt lat="45.65304604677454" lon="10.077414092056706"><ele>510.19999999999993</ele><time>2026-03-28T16:53:26Z</time></trkpt><trkpt lat="45.65308202714487" lon="10.077529224974304"><ele>511.59999999999997</ele><time>2026-03-28T16:53:27Z</time></trkpt><trkpt lat="45.653115987363776" lon="10.077638977806041"><ele>513.0</ele><time>2026-03-28T16:53:28Z</time></trkpt><trkpt lat="45.653156410992025" lon="10.077769147805807"><ele>514.0</ele><time>2026-03-28T16:53:29Z</time></trkpt><trkpt lat="45.65319320627931" lon="10.077881193146611"><ele>515.0</ele><time>2026-03-28T16:53:30Z</time></trkpt><trkpt lat="45.65321113297179" lon="10.077979295645573"><ele>516.0</ele><time>2026-03-28T16:53:31Z</time></trkpt><trkpt lat="45.65332053900523" lon="10.078231863986668"><ele>517.0</ele><time>2026-03-28T16:53:47Z</time></trkpt><trkpt lat="45.65335395392619" lon="10.078317831978788"><ele>518.0</ele><time>2026-03-28T16:53:48Z</time></trkpt><trkpt lat="45.65341101271297" lon="10.078396402427162"><ele>519.4</ele><time>2026-03-28T16:53:49Z</time></trkpt><trkpt lat="45.65344831576142" lon="10.078499779889777"><ele>520.8</ele><time>2026-03-28T16:53:50Z</time></trkpt><trkpt lat="45.65348922291083" lon="10.078631684449531"><ele>522.2</ele><time>2026-03-28T16:53:51Z</time></trkpt><trkpt lat="45.653543049061604" lon="10.078770968817597"><ele>523.6</ele><time>2026-03-28T16:53:52Z</time></trkpt><trkpt lat="45.65357780020114" lon="10.07889976665082"><ele>525.0</ele><time>2026-03-28T16:53:53Z</time></trkpt><trkpt lat="45.65362688125263" lon="10.079074163747604"><ele>519.6666666666666</ele><time>2026-03-28T16:53:54Z</time></trkpt><trkpt lat="45.6536734346467" lon="10.079363186690914"><ele>514.3333333333333</ele><time>2026-03-28T16:53:55Z</time></trkpt><trkpt lat="45.65374868634003" lon="10.079664255425005"><ele>509.0</ele><time>2026-03-28T16:53:56Z</time></trkpt><trkpt lat="45.65380947738281" lon="10.079921844888483"><ele>510.3333333333333</ele><time>2026-03-28T16:53:57Z</time></trkpt><trkpt lat="45.653881874451386" lon="10.080123884903065"><ele>511.66666666666663</ele><time>2026-03-28T16:53:58Z</time></trkpt><trkpt lat="45.6540085463678" lon="10.080342895622321"><ele>513.0</ele><time>2026-03-28T16:53:59Z</time></trkpt><trkpt lat="45.65413512652482" lon="10.080519911763247"><ele>513.0</ele><time>2026-03-28T16:54:00Z</time></trkpt><trkpt lat="45.654250374946" lon="10.08069032117912"><ele>513.0</ele><time>2026-03-28T16:54:01Z</time></trkpt><trkpt lat="45.654355566692196" lon="10.080817961243062"><ele>513.0</ele><time>2026-03-28T16:54:02Z</time></trkpt><trkpt lat="45.65446248657465" lon="10.080903241501643"><ele>513.0</ele><time>2026-03-28T16:54:03Z</time></trkpt><trkpt lat="45.65455770302281" lon="10.080988902015534"><ele>513.0</ele><time>2026-03-28T16:54:04Z</time></trkpt><trkpt lat="45.654654181681956" lon="10.081040916424438"><ele>513.0</ele><time>2026-03-28T16:54:05Z</time></trkpt><trkpt lat="45.654762201622404" lon="10.081050859545822"><ele>513.0</ele><time>2026-03-28T16:54:06Z</time></trkpt><trkpt lat="45.65488697476948" lon="10.081057001845616"><ele>513.0</ele><time>2026-03-28T16:54:07Z</time></trkpt><trkpt lat="45.65501551704013" lon="10.08101545245467"><ele>513.0</ele><time>2026-03-28T16:54:08Z</time></trkpt><trkpt lat="45.65512840334336" lon="10.080991550006933"><ele>513.0</ele><time>2026-03-28T16:54:09Z</time></trkpt><trkpt lat="45.65523567161695" lon="10.08097524995879"><ele>513.0</ele><time>2026-03-28T16:54:10Z</time></trkpt><trkpt lat="45.65533405783143" lon="10.080964638545078"><ele>513.0</ele><time>2026-03-28T16:54:11Z</time></trkpt><trkpt lat="45.6554271236726" lon="10.080915195994193"><ele>513.0</ele><time>2026-03-28T16:54:12Z</time></trkpt><trkpt lat="45.65550977446945" lon="10.080857721340804"><ele>510.5</ele><time>2026-03-28T16:54:13Z</time></trkpt><trkpt lat="45.6555794136814" lon="10.080826715952359"><ele>508.0</ele><time>2026-03-28T16:54:14Z</time></trkpt><trkpt lat="45.65566087975174" lon="10.080801956413845"><ele>505.5</ele><time>2026-03-28T16:54:16Z</time></trkpt><trkpt lat="45.655758916221885" lon="10.081174094422567"><ele>503.0</ele><time>2026-03-28T16:54:19Z</time></trkpt><trkpt lat="45.65578455291189" lon="10.081334350404626"><ele>503.0</ele><time>2026-03-28T16:54:20Z</time></trkpt><trkpt lat="45.655832909600974" lon="10.081512756479087"><ele>503.0</ele><time>2026-03-28T16:54:21Z</time></trkpt><trkpt lat="45.65587972223323" lon="10.081704935386178"><ele>503.0</ele><time>2026-03-28T16:54:22Z</time></trkpt><trkpt lat="45.65594017712317" lon="10.081913559275748"><ele>503.0</ele><time>2026-03-28T16:54:23Z</time></trkpt><trkpt lat="45.656009343847515" lon="10.082119835559773"><ele>502.3333333333333</ele><time>2026-03-28T16:54:24Z</time></trkpt><trkpt lat="45.65606350136092" lon="10.082333180007215"><ele>501.66666666666663</ele><time>2026-03-28T16:54:25Z</time></trkpt><trkpt lat="45.656108099439564" lon="10.082547089333891"><ele>501.0</ele><time>2026-03-28T16:54:26Z</time></trkpt><trkpt lat="45.65612993322546" lon="10.082771369135841"><ele>501.0</ele><time>2026-03-28T16:54:27Z</time></trkpt><trkpt lat="45.656136487273045" lon="10.083007970757315"><ele>501.0</ele><time>2026-03-28T16:54:28Z</time></trkpt><trkpt lat="45.656153298278916" lon="10.083233921979998"><ele>501.0</ele><time>2026-03-28T16:54:29Z</time></trkpt><trkpt lat="45.656163410901186" lon="10.083461257834577"><ele>501.75</ele><time>2026-03-28T16:54:30Z</time></trkpt><trkpt lat="45.65619220753112" lon="10.083669056578676"><ele>502.5</ele><time>2026-03-28T16:54:31Z</time></trkpt><trkpt lat="45.65623981883605" lon="10.083862599377085"><ele>503.25</ele><time>2026-03-28T16:54:32Z</time></trkpt><trkpt lat="45.65629121676423" lon="10.084049988482555"><ele>504.0</ele><time>2026-03-28T16:54:33Z</time></trkpt><trkpt lat="45.65634866177442" lon="10.084221008748612"><ele>505.25</ele><time>2026-03-28T16:54:34Z</time></trkpt><trkpt lat="45.65641387515246" lon="10.084395264552038"><ele>506.5</ele><time>2026-03-28T16:54:35Z</time></trkpt><trkpt lat="45.65648454708905" lon="10.08457827868595"><ele>507.75</ele><time>2026-03-28T16:54:36Z</time></trkpt><trkpt lat="45.65653432067204" lon="10.084747577829885"><ele>509.0</ele><time>2026-03-28T16:54:37Z</time></trkpt><trkpt lat="45.656618778334995" lon="10.084867946285215"><ele>511.75</ele><time>2026-03-28T16:54:38Z</time></trkpt><trkpt lat="45.65671781469772" lon="10.084942506089853"><ele>514.5</ele><time>2026-03-28T16:54:39Z</time></trkpt><trkpt lat="45.65684641217986" lon="10.085001081354637"><ele>517.25</ele><time>2026-03-28T16:54:40Z</time></trkpt><trkpt lat="45.65698736363897" lon="10.085047250864601"><ele>520.0</ele><time>2026-03-28T16:54:41Z</time></trkpt><trkpt lat="45.65713971176689" lon="10.085086854179824"><ele>520.0</ele><time>2026-03-28T16:54:42Z</time></trkpt><trkpt lat="45.657293719235156" lon="10.085146884080554"><ele>520.0</ele><time>2026-03-28T16:54:43Z</time></trkpt><trkpt lat="45.65740073462558" lon="10.085197926881847"><ele>520.0</ele><time>2026-03-28T16:54:44Z</time></trkpt><trkpt lat="45.65748303983322" lon="10.085234621256985"><ele>520.0</ele><time>2026-03-28T16:54:45Z</time></trkpt><trkpt lat="45.657553114495954" lon="10.085285467966356"><ele>520.0</ele><time>2026-03-28T16:54:46Z</time></trkpt><trkpt lat="45.65761829216616" lon="10.08537455757981"><ele>520.0</ele><time>2026-03-28T16:54:47Z</time></trkpt><trkpt lat="45.6576933478157" lon="10.085488894263412"><ele>520.0</ele><time>2026-03-28T16:54:48Z</time></trkpt><trkpt lat="45.657773873057145" lon="10.085595482456881"><ele>520.0</ele><time>2026-03-28T16:54:49Z</time></trkpt><trkpt lat="45.657863929456354" lon="10.08571389523528"><ele>520.0</ele><time>2026-03-28T16:54:50Z</time></trkpt><trkpt lat="45.65794999962604" lon="10.085833514395285"><ele>521.0</ele><time>2026-03-28T16:54:51Z</time></trkpt><trkpt lat="45.65803124568592" lon="10.085958358356162"><ele>522.0</ele><time>2026-03-28T16:54:52Z</time></trkpt><trkpt lat="45.658110791928515" lon="10.086098344655023"><ele>523.0</ele><time>2026-03-28T16:54:53Z</time></trkpt><trkpt lat="45.658177107795424" lon="10.086238612286841"><ele>524.0</ele><time>2026-03-28T16:54:54Z</time></trkpt><trkpt lat="45.65823228335013" lon="10.086363504330816"><ele>524.0</ele><time>2026-03-28T16:54:55Z</time></trkpt><trkpt lat="45.65828478651746" lon="10.086482046892037"><ele>524.0</ele><time>2026-03-28T16:54:56Z</time></trkpt><trkpt lat="45.65831137318221" lon="10.0865800172282"><ele>524.0</ele><time>2026-03-28T16:54:57Z</time></trkpt><trkpt lat="45.65832506617104" lon="10.086673518998198"><ele>524.0</ele><time>2026-03-28T16:54:58Z</time></trkpt><trkpt lat="45.65829895377742" lon="10.08676974010634"><ele>524.0</ele><time>2026-03-28T16:55:01Z</time></trkpt><trkpt lat="45.65820736495674" lon="10.086757597994644"><ele>524.0</ele><time>2026-03-28T16:55:03Z</time></trkpt><trkpt lat="45.658135517371875" lon="10.086728404925195"><ele>525.3333333333333</ele><time>2026-03-28T16:55:04Z</time></trkpt><trkpt lat="45.65805325106746" lon="10.086780513038537"><ele>526.6666666666666</ele><time>2026-03-28T16:55:06Z</time></trkpt><trkpt lat="45.65799945673903" lon="10.086859544906824"><ele>528.0</ele><time>2026-03-28T16:55:10Z</time></trkpt><trkpt lat="45.65794720062512" lon="10.08695600847827"><ele>529.3333333333334</ele><time>2026-03-28T16:55:13Z</time></trkpt><trkpt lat="45.65788406657652" lon="10.087041792659187"><ele>530.6666666666667</ele><time>2026-03-28T16:55:17Z</time></trkpt><trkpt lat="45.65781878325124" lon="10.087077858641548"><ele>532.0</ele><time>2026-03-28T16:55:20Z</time></trkpt><trkpt lat="45.65775499418977" lon="10.087133068277057"><ele>535.5</ele><time>2026-03-28T16:55:26Z</time></trkpt><trkpt lat="45.657685267365025" lon="10.087215564444405"><ele>539.0</ele><time>2026-03-28T16:55:47Z</time></trkpt><trkpt lat="45.65761557792051" lon="10.087285484863775"><ele>542.5</ele><time>2026-03-28T16:56:51Z</time></trkpt><trkpt lat="45.65755057169163" lon="10.087302201961608"><ele>546.0</ele><time>2026-03-28T16:57:13Z</time></trkpt><trkpt lat="45.657500732313125" lon="10.087368687666551"><ele>549.5</ele><time>2026-03-28T16:57:25Z</time></trkpt><trkpt lat="45.65744441983572" lon="10.08742560692312"><ele>553.0</ele><time>2026-03-28T16:57:28Z</time></trkpt><trkpt lat="45.65739238688769" lon="10.087526781131823"><ele>553.0</ele><time>2026-03-28T16:57:32Z</time></trkpt><trkpt lat="45.657330702983124" lon="10.087576301613169"><ele>553.0</ele><time>2026-03-28T16:57:35Z</time></trkpt><trkpt lat="45.65727421731047" lon="10.08765410759449"><ele>553.0</ele><time>2026-03-28T16:57:37Z</time></trkpt><trkpt lat="45.65721617264379" lon="10.087722015726557"><ele>553.0</ele><time>2026-03-28T16:57:39Z</time></trkpt><trkpt lat="45.65713317645587" lon="10.087797938650523"><ele>553.0</ele><time>2026-03-28T16:57:41Z</time></trkpt><trkpt lat="45.65704785013501" lon="10.087794446798156"><ele>553.0</ele><time>2026-03-28T16:57:44Z</time></trkpt><trkpt lat="45.65694322322674" lon="10.08781666057218"><ele>559.8</ele><time>2026-03-28T16:57:47Z</time></trkpt><trkpt lat="45.65686490322178" lon="10.087787693652418"><ele>566.5999999999999</ele><time>2026-03-28T16:57:49Z</time></trkpt><trkpt lat="45.65678613811813" lon="10.087805115733945"><ele>573.4000000000001</ele><time>2026-03-28T16:57:52Z</time></trkpt><trkpt lat="45.65670887583378" lon="10.087817967375216"><ele>580.2</ele><time>2026-03-28T16:57:56Z</time></trkpt><trkpt lat="45.6566404116811" lon="10.087778481063527"><ele>587.0</ele><time>2026-03-28T16:58:00Z</time></trkpt><trkpt lat="45.656593552911595" lon="10.087588785225417"><ele>587.0</ele><time>2026-03-28T16:58:04Z</time></trkpt><trkpt lat="45.656541583934704" lon="10.087517294458824"><ele>587.0</ele><time>2026-03-28T16:58:06Z</time></trkpt><trkpt lat="45.65646720560685" lon="10.08762285029241"><ele>587.0</ele><time>2026-03-28T16:58:08Z</time></trkpt><trkpt lat="45.656420051130226" lon="10.087684068216117"><ele>587.0</ele><time>2026-03-28T16:58:09Z</time></trkpt><trkpt lat="45.656330335476795" lon="10.087754794000466"><ele>587.0</ele><time>2026-03-28T16:58:11Z</time></trkpt><trkpt lat="45.65628024121168" lon="10.08784458776339"><ele>587.0</ele><time>2026-03-28T16:58:13Z</time></trkpt><trkpt lat="45.656241146487766" lon="10.087993903149952"><ele>587.0</ele><time>2026-03-28T16:58:15Z</time></trkpt><trkpt lat="45.65619098920963" lon="10.088125223102146"><ele>587.0</ele><time>2026-03-28T16:58:17Z</time></trkpt><trkpt lat="45.65608991364893" lon="10.08818203880318"><ele>587.0</ele><time>2026-03-28T16:58:19Z</time></trkpt><trkpt lat="45.656016033302286" lon="10.088145159199621"><ele>587.0</ele><time>2026-03-28T16:58:23Z</time></trkpt><trkpt lat="45.65595127972505" lon="10.088171723578407"><ele>587.0</ele><time>2026-03-28T16:58:25Z</time></trkpt><trkpt lat="45.655913932739644" lon="10.08828119955488"><ele>587.0</ele><time>2026-03-28T16:58:27Z</time></trkpt><trkpt lat="45.65584411201692" lon="10.088317442999912"><ele>592.0</ele><time>2026-03-28T16:58:30Z</time></trkpt><trkpt lat="45.65577889436863" lon="10.088322384584075"><ele>597.0</ele><time>2026-03-28T16:58:32Z</time></trkpt><trkpt lat="45.65570275436867" lon="10.088359423961563"><ele>602.0</ele><time>2026-03-28T16:58:34Z</time></trkpt><trkpt lat="45.65562381267018" lon="10.088412443337168"><ele>607.0</ele><time>2026-03-28T16:58:36Z</time></trkpt><trkpt lat="45.655562389340226" lon="10.088467213326659"><ele>612.0</ele><time>2026-03-28T16:58:37Z</time></trkpt><trkpt lat="45.65551325051182" lon="10.088392057873962"><ele>617.0</ele><time>2026-03-28T16:58:39Z</time></trkpt><trkpt lat="45.65554590827792" lon="10.088257493761656"><ele>617.6</ele><time>2026-03-28T16:58:41Z</time></trkpt><trkpt lat="45.655580110375666" lon="10.088113916977616"><ele>618.2</ele><time>2026-03-28T16:58:43Z</time></trkpt><trkpt lat="45.655627242939715" lon="10.087956952154641"><ele>618.8</ele><time>2026-03-28T16:58:45Z</time></trkpt><trkpt lat="45.655642880002596" lon="10.087832039469907"><ele>619.4</ele><time>2026-03-28T16:58:47Z</time></trkpt><trkpt lat="45.65561517759685" lon="10.087749389518025"><ele>620.0</ele><time>2026-03-28T16:58:48Z</time></trkpt><trkpt lat="45.65561779717762" lon="10.087640893181076"><ele>620.0</ele><time>2026-03-28T16:58:50Z</time></trkpt><trkpt lat="45.65557680823191" lon="10.087538737051258"><ele>620.0</ele><time>2026-03-28T16:58:52Z</time></trkpt><trkpt lat="45.655533234969404" lon="10.08739001046095"><ele>620.0</ele><time>2026-03-28T16:58:54Z</time></trkpt><trkpt lat="45.655471350428826" lon="10.087246441016749"><ele>620.0</ele><time>2026-03-28T16:58:56Z</time></trkpt><trkpt lat="45.65543127758798" lon="10.08710662937543"><ele>620.0</ele><time>2026-03-28T16:58:58Z</time></trkpt><trkpt lat="45.655374270157594" lon="10.087035128597257"><ele>619.1666666666666</ele><time>2026-03-28T16:59:00Z</time></trkpt><trkpt lat="45.65533006118898" lon="10.086940537075794"><ele>618.3333333333333</ele><time>2026-03-28T16:59:05Z</time></trkpt><trkpt lat="45.65527784939224" lon="10.086853232994661"><ele>617.5</ele><time>2026-03-28T16:59:09Z</time></trkpt><trkpt lat="45.65518625537556" lon="10.086761452790265"><ele>616.6666666666666</ele><time>2026-03-28T16:59:13Z</time></trkpt><trkpt lat="45.65512208691061" lon="10.086728262956866"><ele>615.8333333333334</ele><time>2026-03-28T16:59:15Z</time></trkpt><trkpt lat="45.655079015630854" lon="10.08664502483528"><ele>615.0</ele><time>2026-03-28T16:59:21Z</time></trkpt><trkpt lat="45.65499973924115" lon="10.08661779099475"><ele>618.0</ele><time>2026-03-28T16:59:24Z</time></trkpt><trkpt lat="45.6549403980827" lon="10.086557552878672"><ele>621.0</ele><time>2026-03-28T16:59:30Z</time></trkpt><trkpt lat="45.65484538791441" lon="10.086507036714318"><ele>624.0</ele><time>2026-03-28T16:59:34Z</time></trkpt><trkpt lat="45.65476723328028" lon="10.086441847310985"><ele>627.0</ele><time>2026-03-28T16:59:37Z</time></trkpt><trkpt lat="45.65466002316398" lon="10.08633411316965"><ele>630.0</ele><time>2026-03-28T16:59:39Z</time></trkpt><trkpt lat="45.65456979920743" lon="10.086335491005968"><ele>630.0</ele><time>2026-03-28T16:59:41Z</time></trkpt><trkpt lat="45.65450864731035" lon="10.0862807229399"><ele>630.0</ele><time>2026-03-28T16:59:44Z</time></trkpt><trkpt lat="45.65441998125981" lon="10.086266930448518"><ele>630.0</ele><time>2026-03-28T16:59:46Z</time></trkpt><trkpt lat="45.6543463288753" lon="10.08624069439358"><ele>630.0</ele><time>2026-03-28T16:59:48Z</time></trkpt><trkpt lat="45.654267501417195" lon="10.086257312481896"><ele>630.0</ele><time>2026-03-28T16:59:50Z</time></trkpt><trkpt lat="45.65419916615147" lon="10.086337661534895"><ele>630.0</ele><time>2026-03-28T16:59:53Z</time></trkpt><trkpt lat="45.65414676071498" lon="10.086397542522624"><ele>634.1666666666666</ele><time>2026-03-28T16:59:54Z</time></trkpt><trkpt lat="45.65412125813334" lon="10.086572066143166"><ele>638.3333333333334</ele><time>2026-03-28T16:59:56Z</time></trkpt><trkpt lat="45.65406950510445" lon="10.08669720073759"><ele>642.5</ele><time>2026-03-28T16:59:58Z</time></trkpt><trkpt lat="45.65400948612591" lon="10.086739277181719"><ele>646.6666666666667</ele><time>2026-03-28T16:59:59Z</time></trkpt><trkpt lat="45.653954472034926" lon="10.086794922001562"><ele>650.8333333333334</ele><time>2026-03-28T17:00:00Z</time></trkpt><trkpt lat="45.653958490465634" lon="10.086906530328324"><ele>655.0</ele><time>2026-03-28T17:00:02Z</time></trkpt><trkpt lat="45.65388770212784" lon="10.086974369432479"><ele>658.0</ele><time>2026-03-28T17:00:04Z</time></trkpt><trkpt lat="45.65381886835482" lon="10.086997615666109"><ele>661.0</ele><time>2026-03-28T17:00:07Z</time></trkpt><trkpt lat="45.653762287584414" lon="10.08694489580636"><ele>664.0</ele><time>2026-03-28T17:00:09Z</time></trkpt><trkpt lat="45.65370443619913" lon="10.086984038074512"><ele>667.0</ele><time>2026-03-28T17:00:11Z</time></trkpt><trkpt lat="45.65364288153655" lon="10.087019905681059"><ele>670.0</ele><time>2026-03-28T17:00:13Z</time></trkpt><trkpt lat="45.65366520940343" lon="10.087106502063666"><ele>673.0</ele><time>2026-03-28T17:00:16Z</time></trkpt><trkpt lat="45.6537941184848" lon="10.0871624860374"><ele>673.0</ele><time>2026-03-28T17:00:18Z</time></trkpt><trkpt lat="45.653850479801434" lon="10.087209140157109"><ele>673.0</ele><time>2026-03-28T17:00:19Z</time></trkpt><trkpt lat="45.65395893265847" lon="10.087291826889556"><ele>673.0</ele><time>2026-03-28T17:00:21Z</time></trkpt><trkpt lat="45.65402731270558" lon="10.087394472791217"><ele>673.0</ele><time>2026-03-28T17:00:23Z</time></trkpt><trkpt lat="45.65402789666179" lon="10.087536407376083"><ele>673.0</ele><time>2026-03-28T17:00:25Z</time></trkpt><trkpt lat="45.65399765355796" lon="10.08763077170628"><ele>674.6666666666667</ele><time>2026-03-28T17:00:26Z</time></trkpt><trkpt lat="45.653950241276675" lon="10.087693326648209"><ele>676.3333333333334</ele><time>2026-03-28T17:00:27Z</time></trkpt><trkpt lat="45.65387563415137" lon="10.087698145994421"><ele>678.0</ele><time>2026-03-28T17:00:28Z</time></trkpt><trkpt lat="45.65377882427237" lon="10.087642861976695"><ele>679.6666666666666</ele><time>2026-03-28T17:00:31Z</time></trkpt><trkpt lat="45.65370925465162" lon="10.0876415009419"><ele>681.3333333333333</ele><time>2026-03-28T17:00:33Z</time></trkpt><trkpt lat="45.65362924293638" lon="10.087632802170681"><ele>683.0</ele><time>2026-03-28T17:00:35Z</time></trkpt><trkpt lat="45.65352673911145" lon="10.08765950045063"><ele>686.25</ele><time>2026-03-28T17:00:37Z</time></trkpt><trkpt lat="45.65347647489699" lon="10.087722419469838"><ele>689.5</ele><time>2026-03-28T17:00:39Z</time></trkpt><trkpt lat="45.65339936337415" lon="10.087768718491128"><ele>692.75</ele><time>2026-03-28T17:00:41Z</time></trkpt><trkpt lat="45.65339792936806" lon="10.087882062318606"><ele>696.0</ele><time>2026-03-28T17:00:44Z</time></trkpt><trkpt lat="45.653588120795" lon="10.087719384814868"><ele>694.1428571428571</ele><time>2026-03-28T17:00:56Z</time></trkpt><trkpt lat="45.65365851069956" lon="10.087711109731183"><ele>692.2857142857143</ele><time>2026-03-28T17:01:02Z</time></trkpt><trkpt lat="45.6537225310012" lon="10.087718687693158"><ele>690.4285714285714</ele><time>2026-03-28T17:01:07Z</time></trkpt><trkpt lat="45.65379835120517" lon="10.087745022407526"><ele>688.5714285714286</ele><time>2026-03-28T17:01:11Z</time></trkpt><trkpt lat="45.65386249585746" lon="10.0877251994166"><ele>686.7142857142857</ele><time>2026-03-28T17:01:12Z</time></trkpt><trkpt lat="45.65389834570272" lon="10.087642354898602"><ele>684.8571428571429</ele><time>2026-03-28T17:01:15Z</time></trkpt><trkpt lat="45.65391515329838" lon="10.087541619581064"><ele>683.0</ele><time>2026-03-28T17:01:18Z</time></trkpt><trkpt lat="45.65385196171427" lon="10.087464261817615"><ele>682.6666666666666</ele><time>2026-03-28T17:01:19Z</time></trkpt><trkpt lat="45.65380413354663" lon="10.087381909218994"><ele>682.3333333333333</ele><time>2026-03-28T17:01:22Z</time></trkpt><trkpt lat="45.65373213109091" lon="10.087305251098655"><ele>682.0</ele><time>2026-03-28T17:01:23Z</time></trkpt><trkpt lat="45.653642850325774" lon="10.08723076429886"><ele>681.6666666666666</ele><time>2026-03-28T17:01:24Z</time></trkpt><trkpt lat="45.65360470502371" lon="10.08714324498948"><ele>681.3333333333334</ele><time>2026-03-28T17:01:25Z</time></trkpt><trkpt lat="45.65354671182399" lon="10.087038183258597"><ele>681.0</ele><time>2026-03-28T17:01:26Z</time></trkpt><trkpt lat="45.65346371300418" lon="10.086946520285034"><ele>681.0</ele><time>2026-03-28T17:01:27Z</time></trkpt><trkpt lat="45.65338987228895" lon="10.086798035174498"><ele>681.0</ele><time>2026-03-28T17:01:28Z</time></trkpt><trkpt lat="45.653354509067015" lon="10.08667620238794"><ele>681.0</ele><time>2026-03-28T17:01:29Z</time></trkpt><trkpt lat="45.653349714521" lon="10.086574575684468"><ele>681.0</ele><time>2026-03-28T17:01:30Z</time></trkpt><trkpt lat="45.65330483166414" lon="10.086482155139034"><ele>681.0</ele><time>2026-03-28T17:01:31Z</time></trkpt><trkpt lat="45.653217495685965" lon="10.086384720162737"><ele>678.0</ele><time>2026-03-28T17:01:32Z</time></trkpt><trkpt lat="45.653147610676875" lon="10.086306985886344"><ele>675.0</ele><time>2026-03-28T17:01:33Z</time></trkpt><trkpt lat="45.6530940132539" lon="10.086220915205036"><ele>672.0</ele><time>2026-03-28T17:01:34Z</time></trkpt><trkpt lat="45.653023353980814" lon="10.0861341650155"><ele>669.0</ele><time>2026-03-28T17:01:35Z</time></trkpt><trkpt lat="45.65295988034375" lon="10.08605623964691"><ele>666.0</ele><time>2026-03-28T17:01:36Z</time></trkpt><trkpt lat="45.65290533043648" lon="10.085999770639969"><ele>663.0</ele><time>2026-03-28T17:01:37Z</time></trkpt><trkpt lat="45.65283633048848" lon="10.085949274079447"><ele>662.5</ele><time>2026-03-28T17:01:38Z</time></trkpt><trkpt lat="45.652775990820146" lon="10.08588420374291"><ele>662.0</ele><time>2026-03-28T17:01:39Z</time></trkpt><trkpt lat="45.65269358039272" lon="10.085838717766821"><ele>661.5</ele><time>2026-03-28T17:01:41Z</time></trkpt><trkpt lat="45.65261655186889" lon="10.085782197724882"><ele>661.0</ele><time>2026-03-28T17:01:44Z</time></trkpt><trkpt lat="45.6525742934891" lon="10.085692106335436"><ele>660.5</ele><time>2026-03-28T17:01:47Z</time></trkpt><trkpt lat="45.6525494417749" lon="10.08558382263779"><ele>660.0</ele><time>2026-03-28T17:01:50Z</time></trkpt><trkpt lat="45.652505246609365" lon="10.085498897230126"><ele>660.0</ele><time>2026-03-28T17:01:53Z</time></trkpt><trkpt lat="45.652556368881584" lon="10.085391188003626"><ele>660.0</ele><time>2026-03-28T17:01:57Z</time></trkpt><trkpt lat="45.65263526160965" lon="10.085434681621676"><ele>660.0</ele><time>2026-03-28T17:01:59Z</time></trkpt><trkpt lat="45.652695704550894" lon="10.085361796860937"><ele>660.0</ele><time>2026-03-28T17:02:01Z</time></trkpt><trkpt lat="45.652680381751544" lon="10.085234353802349"><ele>660.0</ele><time>2026-03-28T17:02:03Z</time></trkpt><trkpt lat="45.65262253975905" lon="10.085182621385378"><ele>660.0</ele><time>2026-03-28T17:02:04Z</time></trkpt><trkpt lat="45.65258532898563" lon="10.085106340633702"><ele>660.0</ele><time>2026-03-28T17:02:06Z</time></trkpt><trkpt lat="45.65260621481786" lon="10.084998701080917"><ele>660.0</ele><time>2026-03-28T17:02:08Z</time></trkpt><trkpt lat="45.65261820431477" lon="10.084899701387577"><ele>660.0</ele><time>2026-03-28T17:02:12Z</time></trkpt><trkpt lat="45.652662207477896" lon="10.084830695552851"><ele>660.0</ele><time>2026-03-28T17:02:15Z</time></trkpt><trkpt lat="45.65277307290727" lon="10.084841178802083"><ele>660.0</ele><time>2026-03-28T17:02:17Z</time></trkpt><trkpt lat="45.6528459547382" lon="10.084877661262295"><ele>660.0</ele><time>2026-03-28T17:02:18Z</time></trkpt><trkpt lat="45.652966973466995" lon="10.08491764952916"><ele>651.25</ele><time>2026-03-28T17:02:20Z</time></trkpt><trkpt lat="45.653074318365995" lon="10.084873130144663"><ele>642.5</ele><time>2026-03-28T17:02:22Z</time></trkpt><trkpt lat="45.65318586360427" lon="10.084804632081175"><ele>633.75</ele><time>2026-03-28T17:02:24Z</time></trkpt><trkpt lat="45.653292967403935" lon="10.084741730667075"><ele>625.0</ele><time>2026-03-28T17:02:26Z</time></trkpt><trkpt lat="45.653395029243995" lon="10.084731119515352"><ele>625.0</ele><time>2026-03-28T17:02:28Z</time></trkpt><trkpt lat="45.653477703658986" lon="10.08477567791168"><ele>625.0</ele><time>2026-03-28T17:02:30Z</time></trkpt><trkpt lat="45.653542728327814" lon="10.084846352060953"><ele>625.0</ele><time>2026-03-28T17:02:34Z</time></trkpt><trkpt lat="45.65362373212672" lon="10.084855411398562"><ele>625.0</ele><time>2026-03-28T17:02:36Z</time></trkpt><trkpt lat="45.65382268909746" lon="10.084761521590606"><ele>621.3333333333334</ele><time>2026-03-28T17:02:42Z</time></trkpt><trkpt lat="45.65407459289188" lon="10.084658880570933"><ele>617.6666666666666</ele><time>2026-03-28T17:02:48Z</time></trkpt><trkpt lat="45.65413804032379" lon="10.084596094104137"><ele>614.0</ele><time>2026-03-28T17:02:49Z</time></trkpt><trkpt lat="45.65435613762617" lon="10.0845591485937"><ele>613.6</ele><time>2026-03-28T17:02:53Z</time></trkpt><trkpt lat="45.654470278290574" lon="10.084648275923163"><ele>613.2</ele><time>2026-03-28T17:02:55Z</time></trkpt><trkpt lat="45.65455052983677" lon="10.084735260782338"><ele>612.8000000000001</ele><time>2026-03-28T17:02:57Z</time></trkpt><trkpt lat="45.65463328266974" lon="10.084801186362375"><ele>612.4</ele><time>2026-03-28T17:02:59Z</time></trkpt><trkpt lat="45.65469191263457" lon="10.084894338909189"><ele>612.0</ele><time>2026-03-28T17:03:01Z</time></trkpt><trkpt lat="45.654781856255354" lon="10.084984567674152"><ele>612.0</ele><time>2026-03-28T17:03:03Z</time></trkpt><trkpt lat="45.654833144289526" lon="10.08509717045969"><ele>612.0</ele><time>2026-03-28T17:03:05Z</time></trkpt><trkpt lat="45.65486668649716" lon="10.085178916641208"><ele>612.0</ele><time>2026-03-28T17:03:06Z</time></trkpt><trkpt lat="45.6549026742832" lon="10.085258667244783"><ele>612.0</ele><time>2026-03-28T17:03:07Z</time></trkpt><trkpt lat="45.654983999298466" lon="10.085311586019799"><ele>612.0</ele><time>2026-03-28T17:03:09Z</time></trkpt><trkpt lat="45.65504786402507" lon="10.085385876735499"><ele>612.0</ele><time>2026-03-28T17:03:11Z</time></trkpt><trkpt lat="45.65509089390952" lon="10.085459573600202"><ele>612.0</ele><time>2026-03-28T17:03:15Z</time></trkpt><trkpt lat="45.655144067005345" lon="10.085542505607648"><ele>612.0</ele><time>2026-03-28T17:03:17Z</time></trkpt><trkpt lat="45.65521694169849" lon="10.085584145060547"><ele>612.0</ele><time>2026-03-28T17:03:19Z</time></trkpt><trkpt lat="45.65528190991801" lon="10.085647715281675"><ele>612.0</ele><time>2026-03-28T17:03:21Z</time></trkpt><trkpt lat="45.655344634241835" lon="10.08574991753945"><ele>612.0</ele><time>2026-03-28T17:03:23Z</time></trkpt><trkpt lat="45.65537924304799" lon="10.085862220290927"><ele>612.0</ele><time>2026-03-28T17:03:25Z</time></trkpt><trkpt lat="45.655452044436096" lon="10.085950441007315"><ele>609.3333333333334</ele><time>2026-03-28T17:03:27Z</time></trkpt><trkpt lat="45.65550400691183" lon="10.086010469957515"><ele>606.6666666666666</ele><time>2026-03-28T17:03:28Z</time></trkpt><trkpt lat="45.65557404116596" lon="10.086020248469007"><ele>604.0</ele><time>2026-03-28T17:03:31Z</time></trkpt><trkpt lat="45.655638646187505" lon="10.08606085084306"><ele>601.3333333333333</ele><time>2026-03-28T17:03:33Z</time></trkpt><trkpt lat="45.655730183082184" lon="10.08611063111185"><ele>598.6666666666666</ele><time>2026-03-28T17:03:35Z</time></trkpt><trkpt lat="45.65580496534143" lon="10.08615149547692"><ele>596.0</ele><time>2026-03-28T17:03:37Z</time></trkpt><trkpt lat="45.6558774836177" lon="10.086182235380189"><ele>596.0</ele><time>2026-03-28T17:03:39Z</time></trkpt><trkpt lat="45.65595062054749" lon="10.086204209980258"><ele>596.0</ele><time>2026-03-28T17:03:41Z</time></trkpt><trkpt lat="45.656011589397565" lon="10.086245666284825"><ele>596.0</ele><time>2026-03-28T17:03:43Z</time></trkpt><trkpt lat="45.65608288770039" lon="10.086220692411336"><ele>596.0</ele><time>2026-03-28T17:03:45Z</time></trkpt><trkpt lat="45.65614904721639" lon="10.086213338611527"><ele>596.0</ele><time>2026-03-28T17:03:47Z</time></trkpt><trkpt lat="45.656262082716175" lon="10.086234325803726"><ele>596.0</ele><time>2026-03-28T17:03:51Z</time></trkpt><trkpt lat="45.65638234867625" lon="10.086277297099357"><ele>590.1666666666666</ele><time>2026-03-28T17:03:53Z</time></trkpt><trkpt lat="45.6564527282324" lon="10.08630240538875"><ele>584.3333333333333</ele><time>2026-03-28T17:03:54Z</time></trkpt><trkpt lat="45.656535727723394" lon="10.0863292357549"><ele>578.5</ele><time>2026-03-28T17:03:58Z</time></trkpt><trkpt lat="45.656606620928294" lon="10.086399834204684"><ele>572.6666666666666</ele><time>2026-03-28T17:04:00Z</time></trkpt><trkpt lat="45.656653722699886" lon="10.08646081735745"><ele>566.8333333333334</ele><time>2026-03-28T17:04:01Z</time></trkpt><trkpt lat="45.65672014085511" lon="10.086532915280301"><ele>561.0</ele><time>2026-03-28T17:04:03Z</time></trkpt><trkpt lat="45.656777002241796" lon="10.086576200670693"><ele>559.6</ele><time>2026-03-28T17:04:05Z</time></trkpt><trkpt lat="45.65688435684543" lon="10.086704179435332"><ele>558.2</ele><time>2026-03-28T17:04:07Z</time></trkpt><trkpt lat="45.65696184669724" lon="10.086804948545959"><ele>556.8</ele><time>2026-03-28T17:04:09Z</time></trkpt><trkpt lat="45.65704151178771" lon="10.086907212873218"><ele>555.4</ele><time>2026-03-28T17:04:11Z</time></trkpt><trkpt lat="45.657091395027024" lon="10.087024495076706"><ele>554.0</ele><time>2026-03-28T17:04:13Z</time></trkpt><trkpt lat="45.65711817636805" lon="10.087160543789293"><ele>554.0</ele><time>2026-03-28T17:04:15Z</time></trkpt><trkpt lat="45.6571496222039" lon="10.0872619543939"><ele>554.0</ele><time>2026-03-28T17:04:16Z</time></trkpt><trkpt lat="45.65717521424564" lon="10.087410678426734"><ele>554.0</ele><time>2026-03-28T17:04:18Z</time></trkpt><trkpt lat="45.657175010146055" lon="10.087543535612403"><ele>554.0</ele><time>2026-03-28T17:04:19Z</time></trkpt><trkpt lat="45.65721467720554" lon="10.087703441342104"><ele>554.0</ele><time>2026-03-28T17:04:21Z</time></trkpt><trkpt lat="45.65721326497155" lon="10.087852592785637"><ele>553.8</ele><time>2026-03-28T17:04:23Z</time></trkpt><trkpt lat="45.657207292100885" lon="10.08794643697251"><ele>553.5999999999999</ele><time>2026-03-28T17:04:24Z</time></trkpt><trkpt lat="45.657169464741116" lon="10.088118560849194"><ele>553.4</ele><time>2026-03-28T17:04:26Z</time></trkpt><trkpt lat="45.65722206687635" lon="10.088264869788508"><ele>553.1999999999999</ele><time>2026-03-28T17:04:28Z</time></trkpt><trkpt lat="45.65721733666546" lon="10.088411959563087"><ele>553.0</ele><time>2026-03-28T17:04:30Z</time></trkpt><trkpt lat="45.657237017002764" lon="10.08851074563725"><ele>551.8</ele><time>2026-03-28T17:04:33Z</time></trkpt><trkpt lat="45.65723029503064" lon="10.08861199665353"><ele>550.5999999999999</ele><time>2026-03-28T17:04:34Z</time></trkpt><trkpt lat="45.65724079971424" lon="10.088705503867686"><ele>549.4000000000001</ele><time>2026-03-28T17:04:36Z</time></trkpt><trkpt lat="45.657219439616476" lon="10.088812408446989"><ele>548.2</ele><time>2026-03-28T17:04:38Z</time></trkpt><trkpt lat="45.65719466549077" lon="10.089123178467595"><ele>547.0</ele><time>2026-03-28T17:04:39Z</time></trkpt><trkpt lat="45.657172531969124" lon="10.089211325047035"><ele>546.5</ele><time>2026-03-28T17:04:40Z</time></trkpt><trkpt lat="45.657141228640604" lon="10.089300681189744"><ele>546.0</ele><time>2026-03-28T17:04:41Z</time></trkpt><trkpt lat="45.657101735521145" lon="10.0894206305807"><ele>545.5</ele><time>2026-03-28T17:04:42Z</time></trkpt><trkpt lat="45.657079278514665" lon="10.089523489469084"><ele>545.0</ele><time>2026-03-28T17:04:43Z</time></trkpt><trkpt lat="45.657047013936655" lon="10.089606274278786"><ele>544.5</ele><time>2026-03-28T17:04:44Z</time></trkpt><trkpt lat="45.65701767765941" lon="10.089686962331426"><ele>544.0</ele><time>2026-03-28T17:04:45Z</time></trkpt><trkpt lat="45.656999154894585" lon="10.089880602247648"><ele>545.4</ele><time>2026-03-28T17:04:47Z</time></trkpt><trkpt lat="45.65702014592918" lon="10.089993901894635"><ele>546.8</ele><time>2026-03-28T17:04:49Z</time></trkpt><trkpt lat="45.6570153903212" lon="10.09014976641418"><ele>548.2</ele><time>2026-03-28T17:04:51Z</time></trkpt><trkpt lat="45.65702029239021" lon="10.09028165634907"><ele>549.6</ele><time>2026-03-28T17:04:53Z</time></trkpt><trkpt lat="45.65700151931534" lon="10.09042871859788"><ele>551.0</ele><time>2026-03-28T17:04:55Z</time></trkpt><trkpt lat="45.65699997359905" lon="10.090526987429666"><ele>551.0</ele><time>2026-03-28T17:04:56Z</time></trkpt><trkpt lat="45.657032860582355" lon="10.090639629517137"><ele>551.0</ele><time>2026-03-28T17:04:57Z</time></trkpt><trkpt lat="45.657078374132624" lon="10.0907486829616"><ele>551.0</ele><time>2026-03-28T17:04:59Z</time></trkpt><trkpt lat="45.657356780631126" lon="10.090816263815793"><ele>551.5</ele><time>2026-03-28T17:05:52Z</time></trkpt><trkpt lat="45.65742425790013" lon="10.090883463796965"><ele>552.0</ele><time>2026-03-28T17:05:53Z</time></trkpt><trkpt lat="45.65749461755036" lon="10.090959910819636"><ele>552.5</ele><time>2026-03-28T17:05:54Z</time></trkpt><trkpt lat="45.65757766545651" lon="10.091031864449425"><ele>553.0</ele><time>2026-03-28T17:05:55Z</time></trkpt><trkpt lat="45.657664445898575" lon="10.091099581791187"><ele>553.5</ele><time>2026-03-28T17:05:56Z</time></trkpt><trkpt lat="45.65772774556789" lon="10.091138733575452"><ele>554.0</ele><time>2026-03-28T17:05:57Z</time></trkpt><trkpt lat="45.65780036542789" lon="10.0911848246404"><ele>556.0</ele><time>2026-03-28T17:05:58Z</time></trkpt><trkpt lat="45.65790566392474" lon="10.09129593336747"><ele>558.0</ele><time>2026-03-28T17:05:59Z</time></trkpt><trkpt lat="45.65801849786661" lon="10.091411508124306"><ele>560.0</ele><time>2026-03-28T17:06:00Z</time></trkpt><trkpt lat="45.658102263175124" lon="10.091475226968974"><ele>562.0</ele><time>2026-03-28T17:06:01Z</time></trkpt><trkpt lat="45.6581661687023" lon="10.09148236364391"><ele>564.0</ele><time>2026-03-28T17:06:02Z</time></trkpt><trkpt lat="45.6581704629676" lon="10.091302081723287"><ele>564.0</ele><time>2026-03-28T17:06:04Z</time></trkpt><trkpt lat="45.65807319697745" lon="10.091185496412606"><ele>564.0</ele><time>2026-03-28T17:06:05Z</time></trkpt><trkpt lat="45.65790425852551" lon="10.091097500011443"><ele>564.0</ele><time>2026-03-28T17:06:06Z</time></trkpt><trkpt lat="45.657766849096504" lon="10.091034909200339"><ele>562.0</ele><time>2026-03-28T17:06:07Z</time></trkpt><trkpt lat="45.65766916791699" lon="10.090978180000441"><ele>560.0</ele><time>2026-03-28T17:06:08Z</time></trkpt><trkpt lat="45.657600378367285" lon="10.090933849084278"><ele>558.0</ele><time>2026-03-28T17:06:09Z</time></trkpt><trkpt lat="45.65755178397281" lon="10.091009671285123"><ele>556.0</ele><time>2026-03-28T17:06:11Z</time></trkpt><trkpt lat="45.65766240959241" lon="10.091114942567463"><ele>554.0</ele><time>2026-03-28T17:06:16Z</time></trkpt><trkpt lat="45.657720932316735" lon="10.09118656822437"><ele>554.0</ele><time>2026-03-28T17:06:17Z</time></trkpt><trkpt lat="45.65777947331361" lon="10.091229289853542"><ele>554.0</ele><time>2026-03-28T17:06:18Z</time></trkpt><trkpt lat="45.657872976209056" lon="10.091223055867559"><ele>554.0</ele><time>2026-03-28T17:06:20Z</time></trkpt><trkpt lat="45.657973316672276" lon="10.09122306327454"><ele>554.0</ele><time>2026-03-28T17:06:22Z</time></trkpt><trkpt lat="45.65803846090775" lon="10.091212310031441"><ele>554.0</ele><time>2026-03-28T17:06:24Z</time></trkpt><trkpt lat="45.65816864333211" lon="10.091205422723831"><ele>556.0</ele><time>2026-03-28T17:06:26Z</time></trkpt><trkpt lat="45.65824929451047" lon="10.091204228091224"><ele>558.0</ele><time>2026-03-28T17:06:27Z</time></trkpt><trkpt lat="45.658337966679845" lon="10.09120759346542"><ele>560.0</ele><time>2026-03-28T17:06:28Z</time></trkpt><trkpt lat="45.658423757215154" lon="10.091227037013425"><ele>562.0</ele><time>2026-03-28T17:06:29Z</time></trkpt><trkpt lat="45.658396646403254" lon="10.09112934440715"><ele>564.0</ele><time>2026-03-28T17:06:33Z</time></trkpt><trkpt lat="45.65827632092062" lon="10.091146427535639"><ele>564.0</ele><time>2026-03-28T17:06:35Z</time></trkpt><trkpt lat="45.658210177527216" lon="10.091153619288017"><ele>564.0</ele><time>2026-03-28T17:06:36Z</time></trkpt><trkpt lat="45.65813950041803" lon="10.091156601786382"><ele>564.0</ele><time>2026-03-28T17:06:37Z</time></trkpt><trkpt lat="45.65806154184038" lon="10.0911523167419"><ele>564.0</ele><time>2026-03-28T17:06:38Z</time></trkpt><trkpt lat="45.65798151790955" lon="10.091153004035172"><ele>564.0</ele><time>2026-03-28T17:06:39Z</time></trkpt><trkpt lat="45.65791543445494" lon="10.091149071840059"><ele>564.0</ele><time>2026-03-28T17:06:40Z</time></trkpt><trkpt lat="45.65781921122831" lon="10.091135995983707"><ele>564.0</ele><time>2026-03-28T17:06:42Z</time></trkpt><trkpt lat="45.65774957596767" lon="10.091180248625939"><ele>564.0</ele><time>2026-03-28T17:06:47Z</time></trkpt><trkpt lat="45.65796168823541" lon="10.091223140073062"><ele>564.0</ele><time>2026-03-28T17:06:52Z</time></trkpt><trkpt lat="45.65803733404512" lon="10.091229113847898"><ele>564.0</ele><time>2026-03-28T17:06:53Z</time></trkpt><trkpt lat="45.65813083334561" lon="10.09121678697073"><ele>564.0</ele><time>2026-03-28T17:06:54Z</time></trkpt><trkpt lat="45.65824145439415" lon="10.091179250631303"><ele>564.0</ele><time>2026-03-28T17:06:55Z</time></trkpt><trkpt lat="45.65836339579561" lon="10.091102983404573"><ele>564.0</ele><time>2026-03-28T17:06:56Z</time></trkpt><trkpt lat="45.658445591028176" lon="10.091047714130081"><ele>564.0</ele><time>2026-03-28T17:06:57Z</time></trkpt><trkpt lat="45.65848943369891" lon="10.091176759419248"><ele>564.0</ele><time>2026-03-28T17:07:02Z</time></trkpt><trkpt lat="45.65853508792996" lon="10.09127957837233"><ele>564.0</ele><time>2026-03-28T17:07:04Z</time></trkpt><trkpt lat="45.658577292379526" lon="10.091199585339817"><ele>564.0</ele><time>2026-03-28T17:07:07Z</time></trkpt><trkpt lat="45.65849651892648" lon="10.091045443996672"><ele>564.0</ele><time>2026-03-28T17:07:10Z</time></trkpt><trkpt lat="45.65841507353272" lon="10.09103451733231"><ele>564.0</ele><time>2026-03-28T17:07:14Z</time></trkpt><trkpt lat="45.65841855165358" lon="10.091126456865208"><ele>564.0</ele><time>2026-03-28T17:07:17Z</time></trkpt><trkpt lat="45.65844874286969" lon="10.091222633791327"><ele>564.0</ele><time>2026-03-28T17:07:19Z</time></trkpt><trkpt lat="45.65839649004102" lon="10.090982476922907"><ele>564.0</ele><time>2026-03-28T17:12:39Z</time></trkpt><trkpt lat="45.65837662879621" lon="10.090866124126851"><ele>564.0</ele><time>2026-03-28T17:12:40Z</time></trkpt><trkpt lat="45.6583614082084" lon="10.090735628891162"><ele>564.0</ele><time>2026-03-28T17:12:41Z</time></trkpt><trkpt lat="45.658352777440896" lon="10.090603206576136"><ele>564.0</ele><time>2026-03-28T17:12:42Z</time></trkpt><trkpt lat="45.6583428805636" lon="10.09047374429465"><ele>564.0</ele><time>2026-03-28T17:12:43Z</time></trkpt><trkpt lat="45.658327144433855" lon="10.090352796041628"><ele>564.0</ele><time>2026-03-28T17:12:44Z</time></trkpt><trkpt lat="45.6583073290371" lon="10.090243949249999"><ele>561.4</ele><time>2026-03-28T17:12:45Z</time></trkpt><trkpt lat="45.65828522546419" lon="10.090133289701612"><ele>558.8</ele><time>2026-03-28T17:12:46Z</time></trkpt><trkpt lat="45.65825675445161" lon="10.09004390837256"><ele>556.2</ele><time>2026-03-28T17:12:47Z</time></trkpt><trkpt lat="45.65815197078511" lon="10.08997883436684"><ele>553.6</ele><time>2026-03-28T17:12:49Z</time></trkpt><trkpt lat="45.658038380783395" lon="10.09001336401836"><ele>551.0</ele><time>2026-03-28T17:12:51Z</time></trkpt><trkpt lat="45.657949859311564" lon="10.090051084651074"><ele>549.4</ele><time>2026-03-28T17:12:53Z</time></trkpt><trkpt lat="45.65794902958897" lon="10.089909838514089"><ele>547.8</ele><time>2026-03-28T17:12:55Z</time></trkpt><trkpt lat="45.65797837534482" lon="10.089817378118946"><ele>546.1999999999999</ele><time>2026-03-28T17:12:56Z</time></trkpt><trkpt lat="45.65802286222948" lon="10.089713132880522"><ele>544.6</ele><time>2026-03-28T17:12:57Z</time></trkpt><trkpt lat="45.65808000740414" lon="10.089596177386412"><ele>543.0</ele><time>2026-03-28T17:12:58Z</time></trkpt><trkpt lat="45.6581495128484" lon="10.089426206347206"><ele>543.0</ele><time>2026-03-28T17:12:59Z</time></trkpt><trkpt lat="45.6581922853937" lon="10.089260098946106"><ele>543.0</ele><time>2026-03-28T17:13:00Z</time></trkpt><trkpt lat="45.6582097555663" lon="10.08911654866275"><ele>543.0</ele><time>2026-03-28T17:13:01Z</time></trkpt><trkpt lat="45.658204825525814" lon="10.08899229583753"><ele>543.0</ele><time>2026-03-28T17:13:02Z</time></trkpt><trkpt lat="45.658198304336736" lon="10.088890816100536"><ele>543.0</ele><time>2026-03-28T17:13:03Z</time></trkpt><trkpt lat="45.65819013517384" lon="10.088764710262762"><ele>542.5</ele><time>2026-03-28T17:13:04Z</time></trkpt><trkpt lat="45.658186189576966" lon="10.088640990807264"><ele>542.0</ele><time>2026-03-28T17:13:05Z</time></trkpt><trkpt lat="45.65819406140308" lon="10.08849481033839"><ele>541.5</ele><time>2026-03-28T17:13:06Z</time></trkpt><trkpt lat="45.65819328614857" lon="10.088358138997654"><ele>541.0</ele><time>2026-03-28T17:13:07Z</time></trkpt><trkpt lat="45.65816709809229" lon="10.08823950425843"><ele>540.5</ele><time>2026-03-28T17:13:08Z</time></trkpt><trkpt lat="45.65815878072416" lon="10.088132771139714"><ele>540.0</ele><time>2026-03-28T17:13:09Z</time></trkpt><trkpt lat="45.65814217078974" lon="10.088034674377557"><ele>539.2857142857142</ele><time>2026-03-28T17:13:10Z</time></trkpt><trkpt lat="45.658127914629326" lon="10.087929942563015"><ele>538.5714285714286</ele><time>2026-03-28T17:13:11Z</time></trkpt><trkpt lat="45.65811505728794" lon="10.087829128535716"><ele>537.8571428571429</ele><time>2026-03-28T17:13:12Z</time></trkpt><trkpt lat="45.658107996456145" lon="10.087715913985425"><ele>537.1428571428571</ele><time>2026-03-28T17:13:13Z</time></trkpt><trkpt lat="45.6581053612249" lon="10.087610312822141"><ele>536.4285714285714</ele><time>2026-03-28T17:13:14Z</time></trkpt><trkpt lat="45.65812241525674" lon="10.087513042691768"><ele>535.7142857142857</ele><time>2026-03-28T17:13:15Z</time></trkpt><trkpt lat="45.65815074980065" lon="10.087414552925493"><ele>535.0</ele><time>2026-03-28T17:13:16Z</time></trkpt><trkpt lat="45.65816709855296" lon="10.087303511853625"><ele>534.5</ele><time>2026-03-28T17:13:17Z</time></trkpt><trkpt lat="45.65818649817987" lon="10.087193407554206"><ele>534.0</ele><time>2026-03-28T17:13:18Z</time></trkpt><trkpt lat="45.65820422846838" lon="10.087082472794762"><ele>533.5</ele><time>2026-03-28T17:13:19Z</time></trkpt><trkpt lat="45.65822981762183" lon="10.086986468895777"><ele>533.0</ele><time>2026-03-28T17:13:20Z</time></trkpt><trkpt lat="45.65824833039857" lon="10.086896697136083"><ele>532.5</ele><time>2026-03-28T17:13:21Z</time></trkpt><trkpt lat="45.65827409101484" lon="10.086810910269683"><ele>532.0</ele><time>2026-03-28T17:13:22Z</time></trkpt><trkpt lat="45.65834424790215" lon="10.086679645258009"><ele>530.4</ele><time>2026-03-28T17:13:24Z</time></trkpt><trkpt lat="45.658300721502385" lon="10.086546583333254"><ele>528.8000000000001</ele><time>2026-03-28T17:13:27Z</time></trkpt><trkpt lat="45.65825631856854" lon="10.08646848063768"><ele>527.2</ele><time>2026-03-28T17:13:28Z</time></trkpt><trkpt lat="45.658216346249034" lon="10.08635623905486"><ele>525.6</ele><time>2026-03-28T17:13:29Z</time></trkpt><trkpt lat="45.65816056472053" lon="10.086223589977326"><ele>524.0</ele><time>2026-03-28T17:13:30Z</time></trkpt><trkpt lat="45.65809709628815" lon="10.086080194019994"><ele>524.0</ele><time>2026-03-28T17:13:31Z</time></trkpt><trkpt lat="45.658021568260466" lon="10.085931829584387"><ele>524.0</ele><time>2026-03-28T17:13:32Z</time></trkpt><trkpt lat="45.657928995713554" lon="10.085778556937845"><ele>524.0</ele><time>2026-03-28T17:13:33Z</time></trkpt><trkpt lat="45.657809320265734" lon="10.085608962961015"><ele>524.0</ele><time>2026-03-28T17:13:34Z</time></trkpt><trkpt lat="45.657682830660036" lon="10.085457806163724"><ele>523.0</ele><time>2026-03-28T17:13:35Z</time></trkpt><trkpt lat="45.65759184087184" lon="10.08534507591425"><ele>522.0</ele><time>2026-03-28T17:13:36Z</time></trkpt><trkpt lat="45.65751373990383" lon="10.085245059718204"><ele>521.0</ele><time>2026-03-28T17:13:37Z</time></trkpt><trkpt lat="45.65742553610051" lon="10.085179407208749"><ele>520.0</ele><time>2026-03-28T17:13:38Z</time></trkpt><trkpt lat="45.65729922928144" lon="10.08513149627795"><ele>520.0</ele><time>2026-03-28T17:13:39Z</time></trkpt><trkpt lat="45.65712925693993" lon="10.085091079585052"><ele>520.0</ele><time>2026-03-28T17:13:40Z</time></trkpt><trkpt lat="45.65693377945337" lon="10.085006147277966"><ele>520.0</ele><time>2026-03-28T17:13:41Z</time></trkpt><trkpt lat="45.65678872548454" lon="10.08493259177382"><ele>517.25</ele><time>2026-03-28T17:13:42Z</time></trkpt><trkpt lat="45.65668477886823" lon="10.084879586335521"><ele>514.5</ele><time>2026-03-28T17:13:43Z</time></trkpt><trkpt lat="45.6565964234371" lon="10.084848834873176"><ele>511.75</ele><time>2026-03-28T17:13:44Z</time></trkpt><trkpt lat="45.656523906378474" lon="10.084734650147658"><ele>509.0</ele><time>2026-03-28T17:13:45Z</time></trkpt><trkpt lat="45.65644347778365" lon="10.084542617712078"><ele>509.0</ele><time>2026-03-28T17:13:46Z</time></trkpt><trkpt lat="45.656372418437165" lon="10.08430006348341"><ele>509.0</ele><time>2026-03-28T17:13:47Z</time></trkpt><trkpt lat="45.65633140623771" lon="10.084095566121782"><ele>509.0</ele><time>2026-03-28T17:13:48Z</time></trkpt><trkpt lat="45.656281486375214" lon="10.083907429707752"><ele>507.3333333333333</ele><time>2026-03-28T17:13:49Z</time></trkpt><trkpt lat="45.656233720910144" lon="10.083713816870507"><ele>505.66666666666663</ele><time>2026-03-28T17:13:50Z</time></trkpt><trkpt lat="45.656187628894514" lon="10.083495549595451"><ele>504.0</ele><time>2026-03-28T17:13:51Z</time></trkpt><trkpt lat="45.656149552966056" lon="10.08324432136758"><ele>503.0</ele><time>2026-03-28T17:13:52Z</time></trkpt><trkpt lat="45.656135736324046" lon="10.082980453362065"><ele>502.0</ele><time>2026-03-28T17:13:53Z</time></trkpt><trkpt lat="45.656134601133886" lon="10.082732233774617"><ele>501.0</ele><time>2026-03-28T17:13:54Z</time></trkpt><trkpt lat="45.65611992033498" lon="10.082506101643563"><ele>503.75</ele><time>2026-03-28T17:13:55Z</time></trkpt><trkpt lat="45.656089886091394" lon="10.082309262331263"><ele>506.5</ele><time>2026-03-28T17:13:56Z</time></trkpt><trkpt lat="45.65604537318848" lon="10.082133631103956"><ele>509.25</ele><time>2026-03-28T17:13:57Z</time></trkpt><trkpt lat="45.655987343851024" lon="10.081954430658019"><ele>512.0</ele><time>2026-03-28T17:13:58Z</time></trkpt><trkpt lat="45.655917107018304" lon="10.081774678789202"><ele>509.75</ele><time>2026-03-28T17:13:59Z</time></trkpt><trkpt lat="45.655861931774595" lon="10.081587805729441"><ele>507.5</ele><time>2026-03-28T17:14:00Z</time></trkpt><trkpt lat="45.6558109245802" lon="10.081399615413808"><ele>505.25</ele><time>2026-03-28T17:14:01Z</time></trkpt><trkpt lat="45.65576982442972" lon="10.08119991612361"><ele>503.0</ele><time>2026-03-28T17:14:02Z</time></trkpt><trkpt lat="45.65573659045815" lon="10.081031027997046"><ele>503.0</ele><time>2026-03-28T17:14:03Z</time></trkpt><trkpt lat="45.65570835706581" lon="10.080921768194374"><ele>502.99999999999994</ele><time>2026-03-28T17:14:04Z</time></trkpt><trkpt lat="45.655567838993974" lon="10.08080540951573"><ele>502.99999999999994</ele><time>2026-03-28T17:14:18Z</time></trkpt><trkpt lat="45.65549362915979" lon="10.080815089184785"><ele>503.0</ele><time>2026-03-28T17:14:19Z</time></trkpt><trkpt lat="45.65542486148151" lon="10.080857136269383"><ele>503.0</ele><time>2026-03-28T17:14:20Z</time></trkpt><trkpt lat="45.655358657538144" lon="10.080918499164195"><ele>503.0</ele><time>2026-03-28T17:14:21Z</time></trkpt><trkpt lat="45.65529011176146" lon="10.080962230164442"><ele>502.99999999999994</ele><time>2026-03-28T17:14:22Z</time></trkpt><trkpt lat="45.655216259438546" lon="10.080986006946983"><ele>502.99999999999994</ele><time>2026-03-28T17:14:23Z</time></trkpt><trkpt lat="45.65512129539529" lon="10.08099733578644"><ele>503.0</ele><time>2026-03-28T17:14:24Z</time></trkpt><trkpt lat="45.65500599592369" lon="10.081001553972527"><ele>503.0</ele><time>2026-03-28T17:14:25Z</time></trkpt><trkpt lat="45.65488395528856" lon="10.08103043784847"><ele>505.5</ele><time>2026-03-28T17:14:26Z</time></trkpt><trkpt lat="45.654741755856335" lon="10.081037158155196"><ele>508.0</ele><time>2026-03-28T17:14:27Z</time></trkpt><trkpt lat="45.654613348402854" lon="10.081022457590212"><ele>510.5</ele><time>2026-03-28T17:14:28Z</time></trkpt><trkpt lat="45.65452279620791" lon="10.080998483107232"><ele>513.0</ele><time>2026-03-28T17:14:29Z</time></trkpt><trkpt lat="45.65441931355443" lon="10.080920520313715"><ele>513.0</ele><time>2026-03-28T17:14:30Z</time></trkpt><trkpt lat="45.65429337957324" lon="10.080779375445978"><ele>513.0</ele><time>2026-03-28T17:14:31Z</time></trkpt><trkpt lat="45.654173829071624" lon="10.080610343468948"><ele>513.0</ele><time>2026-03-28T17:14:32Z</time></trkpt><trkpt lat="45.654047631521216" lon="10.08043176094873"><ele>513.0</ele><time>2026-03-28T17:14:33Z</time></trkpt><trkpt lat="45.653931585412465" lon="10.0802124991336"><ele>513.0</ele><time>2026-03-28T17:14:34Z</time></trkpt><trkpt lat="45.65382264943151" lon="10.079976204137102"><ele>513.0</ele><time>2026-03-28T17:14:35Z</time></trkpt><trkpt lat="45.653726747264436" lon="10.079751862051186"><ele>511.66666666666663</ele><time>2026-03-28T17:14:36Z</time></trkpt><trkpt lat="45.65367145471207" lon="10.079502670514328"><ele>510.3333333333333</ele><time>2026-03-28T17:14:37Z</time></trkpt><trkpt lat="45.65364086517194" lon="10.079237044583268"><ele>509.0</ele><time>2026-03-28T17:14:38Z</time></trkpt><trkpt lat="45.653600432044314" lon="10.07897800269808"><ele>511.25</ele><time>2026-03-28T17:14:39Z</time></trkpt><trkpt lat="45.6535583873994" lon="10.078756168564137"><ele>513.5</ele><time>2026-03-28T17:14:40Z</time></trkpt><trkpt lat="45.653491488247354" lon="10.078584786393813"><ele>515.75</ele><time>2026-03-28T17:14:41Z</time></trkpt><trkpt lat="45.653443662225925" lon="10.078396056491835"><ele>518.0</ele><time>2026-03-28T17:14:42Z</time></trkpt><trkpt lat="45.65336239867741" lon="10.07820688745004"><ele>518.0</ele><time>2026-03-28T17:14:43Z</time></trkpt><trkpt lat="45.653280724099325" lon="10.077994556273651"><ele>518.0</ele><time>2026-03-28T17:14:44Z</time></trkpt><trkpt lat="45.6532054748879" lon="10.077758044239285"><ele>518.0</ele><time>2026-03-28T17:14:45Z</time></trkpt><trkpt lat="45.653129982610515" lon="10.077497439719604"><ele>516.3333333333333</ele><time>2026-03-28T17:14:46Z</time></trkpt><trkpt lat="45.653064872583265" lon="10.077260346798418"><ele>514.6666666666666</ele><time>2026-03-28T17:14:47Z</time></trkpt><trkpt lat="45.6530078734241" lon="10.077038268977677"><ele>513.0</ele><time>2026-03-28T17:14:48Z</time></trkpt><trkpt lat="45.65295317129583" lon="10.076831458152563"><ele>513.0</ele><time>2026-03-28T17:14:49Z</time></trkpt><trkpt lat="45.652900113216816" lon="10.076665350421086"><ele>513.0</ele><time>2026-03-28T17:14:50Z</time></trkpt><trkpt lat="45.6528484241646" lon="10.076480334844117"><ele>513.0</ele><time>2026-03-28T17:14:51Z</time></trkpt><trkpt lat="45.6527908772463" lon="10.076295682670633"><ele>513.0</ele><time>2026-03-28T17:14:52Z</time></trkpt><trkpt lat="45.65272006685174" lon="10.076118489641763"><ele>514.5</ele><time>2026-03-28T17:14:53Z</time></trkpt><trkpt lat="45.652641002927886" lon="10.075944622799083"><ele>516.0</ele><time>2026-03-28T17:14:54Z</time></trkpt><trkpt lat="45.65257241965648" lon="10.075816444141276"><ele>517.5</ele><time>2026-03-28T17:14:55Z</time></trkpt><trkpt lat="45.652480977900936" lon="10.075675717385325"><ele>519.0</ele><time>2026-03-28T17:14:56Z</time></trkpt><trkpt lat="45.652390025415606" lon="10.075529496707524"><ele>519.0</ele><time>2026-03-28T17:14:57Z</time></trkpt><trkpt lat="45.6522712809492" lon="10.07540278938208"><ele>519.0</ele><time>2026-03-28T17:14:58Z</time></trkpt><trkpt lat="45.65216451907846" lon="10.07527409921371"><ele>519.0</ele><time>2026-03-28T17:14:59Z</time></trkpt><trkpt lat="45.652053740243595" lon="10.07513005640371"><ele>519.0</ele><time>2026-03-28T17:15:00Z</time></trkpt><trkpt lat="45.65194992577912" lon="10.074976249312082"><ele>521.25</ele><time>2026-03-28T17:15:01Z</time></trkpt><trkpt lat="45.65187789416299" lon="10.074858916773744"><ele>523.5</ele><time>2026-03-28T17:15:02Z</time></trkpt><trkpt lat="45.65176754425386" lon="10.074823109532105"><ele>525.75</ele><time>2026-03-28T17:15:03Z</time></trkpt><trkpt lat="45.65165673543841" lon="10.074824075591513"><ele>528.0</ele><time>2026-03-28T17:15:04Z</time></trkpt><trkpt lat="45.65153856078187" lon="10.074785943136177"><ele>528.0</ele><time>2026-03-28T17:15:05Z</time></trkpt><trkpt lat="45.651411048498886" lon="10.07472032562163"><ele>528.0</ele><time>2026-03-28T17:15:06Z</time></trkpt><trkpt lat="45.65128767911857" lon="10.074674087158215"><ele>528.0</ele><time>2026-03-28T17:15:07Z</time></trkpt><trkpt lat="45.651156186512054" lon="10.074609099511267"><ele>528.0</ele><time>2026-03-28T17:15:08Z</time></trkpt><trkpt lat="45.65103388792203" lon="10.074548853588304"><ele>535.0</ele><time>2026-03-28T17:15:09Z</time></trkpt><trkpt lat="45.6508977994779" lon="10.074495842585646"><ele>542.0</ele><time>2026-03-28T17:15:10Z</time></trkpt><trkpt lat="45.65073522506566" lon="10.07450394624416"><ele>549.0</ele><time>2026-03-28T17:15:11Z</time></trkpt><trkpt lat="45.65056104766805" lon="10.074491794967756"><ele>549.0</ele><time>2026-03-28T17:15:12Z</time></trkpt><trkpt lat="45.650385986139725" lon="10.074476141412974"><ele>549.0</ele><time>2026-03-28T17:15:13Z</time></trkpt><trkpt lat="45.650216661213264" lon="10.074462123483178"><ele>549.0</ele><time>2026-03-28T17:15:14Z</time></trkpt><trkpt lat="45.65006090327227" lon="10.074480529313766"><ele>552.4</ele><time>2026-03-28T17:15:15Z</time></trkpt><trkpt lat="45.64992375887314" lon="10.074442344330702"><ele>555.8</ele><time>2026-03-28T17:15:16Z</time></trkpt><trkpt lat="45.64980347507209" lon="10.07438286894671"><ele>559.2</ele><time>2026-03-28T17:15:17Z</time></trkpt><trkpt lat="45.64972456407875" lon="10.07434269276615"><ele>562.6</ele><time>2026-03-28T17:15:18Z</time></trkpt><trkpt lat="45.64965590095786" lon="10.074328169814688"><ele>566.0</ele><time>2026-03-28T17:15:19Z</time></trkpt><trkpt lat="45.64956666734134" lon="10.074369563562481"><ele>566.0</ele><time>2026-03-28T17:15:21Z</time></trkpt><trkpt lat="45.64951781704164" lon="10.074295071723324"><ele>566.0</ele><time>2026-03-28T17:15:24Z</time></trkpt><trkpt lat="45.64943623173668" lon="10.074033900481552"><ele>566.0</ele><time>2026-03-28T17:15:27Z</time></trkpt><trkpt lat="45.64939852690749" lon="10.073928201425849"><ele>566.0</ele><time>2026-03-28T17:15:28Z</time></trkpt><trkpt lat="45.64937517178303" lon="10.073766147570032"><ele>567.25</ele><time>2026-03-28T17:15:29Z</time></trkpt><trkpt lat="45.64935053034784" lon="10.073592863960437"><ele>568.5</ele><time>2026-03-28T17:15:30Z</time></trkpt><trkpt lat="45.6493428069367" lon="10.073416013975754"><ele>569.75</ele><time>2026-03-28T17:15:31Z</time></trkpt><trkpt lat="45.64934793674099" lon="10.073232638613245"><ele>571.0</ele><time>2026-03-28T17:15:32Z</time></trkpt><trkpt lat="45.649350477326735" lon="10.07304096077659"><ele>571.75</ele><time>2026-03-28T17:15:33Z</time></trkpt><trkpt lat="45.649351312352465" lon="10.072859740653978"><ele>572.5</ele><time>2026-03-28T17:15:34Z</time></trkpt><trkpt lat="45.64932452302637" lon="10.072691476031187"><ele>573.25</ele><time>2026-03-28T17:15:35Z</time></trkpt><trkpt lat="45.649267085779336" lon="10.072534673337163"><ele>574.0</ele><time>2026-03-28T17:15:36Z</time></trkpt><trkpt lat="45.649220545275796" lon="10.072346770442728"><ele>574.0</ele><time>2026-03-28T17:15:37Z</time></trkpt><trkpt lat="45.64917044114777" lon="10.072140138387697"><ele>574.0</ele><time>2026-03-28T17:15:38Z</time></trkpt><trkpt lat="45.64913439119563" lon="10.071935183871481"><ele>574.0</ele><time>2026-03-28T17:15:39Z</time></trkpt><trkpt lat="45.649128987593826" lon="10.071698120811396"><ele>575.0</ele><time>2026-03-28T17:15:40Z</time></trkpt><trkpt lat="45.64909772508108" lon="10.071509776997148"><ele>576.0</ele><time>2026-03-28T17:15:41Z</time></trkpt><trkpt lat="45.64910809751567" lon="10.071303929921212"><ele>577.0</ele><time>2026-03-28T17:15:42Z</time></trkpt><trkpt lat="45.64915709878193" lon="10.071087992718029"><ele>578.0</ele><time>2026-03-28T17:15:43Z</time></trkpt><trkpt lat="45.649157466751625" lon="10.070869442764623"><ele>576.75</ele><time>2026-03-28T17:15:44Z</time></trkpt><trkpt lat="45.64914112615466" lon="10.070676424208425"><ele>575.5</ele><time>2026-03-28T17:15:45Z</time></trkpt><trkpt lat="45.649137915644374" lon="10.070472821046284"><ele>574.25</ele><time>2026-03-28T17:15:46Z</time></trkpt><trkpt lat="45.64917262268393" lon="10.07029438621348"><ele>573.0</ele><time>2026-03-28T17:15:47Z</time></trkpt><trkpt lat="45.64916687866055" lon="10.070115510472444"><ele>573.0</ele><time>2026-03-28T17:15:48Z</time></trkpt><trkpt lat="45.64917068794348" lon="10.06995295990454"><ele>573.0</ele><time>2026-03-28T17:15:49Z</time></trkpt><trkpt lat="45.649161176717804" lon="10.069780262338329"><ele>573.0</ele><time>2026-03-28T17:15:50Z</time></trkpt><trkpt lat="45.64914850382499" lon="10.069620399863302"><ele>573.0</ele><time>2026-03-28T17:15:51Z</time></trkpt><trkpt lat="45.649143551036495" lon="10.069447967617489"><ele>572.5</ele><time>2026-03-28T17:15:52Z</time></trkpt><trkpt lat="45.64916044005663" lon="10.069258180979531"><ele>572.0</ele><time>2026-03-28T17:15:53Z</time></trkpt><trkpt lat="45.64917002826458" lon="10.0690746848362"><ele>571.5</ele><time>2026-03-28T17:15:54Z</time></trkpt><trkpt lat="45.64918450119394" lon="10.068895498285706"><ele>571.0</ele><time>2026-03-28T17:15:55Z</time></trkpt><trkpt lat="45.649220542262704" lon="10.068713327190316"><ele>571.0</ele><time>2026-03-28T17:15:56Z</time></trkpt><trkpt lat="45.64925417210001" lon="10.068543622043627"><ele>571.0</ele><time>2026-03-28T17:15:57Z</time></trkpt><trkpt lat="45.64927436979682" lon="10.068413797052786"><ele>571.0</ele><time>2026-03-28T17:15:58Z</time></trkpt><trkpt lat="45.6492408798895" lon="10.068202446144497"><ele>571.0</ele><time>2026-03-28T17:16:00Z</time></trkpt><trkpt lat="45.649227800031866" lon="10.068070030152617"><ele>572.4</ele><time>2026-03-28T17:16:01Z</time></trkpt><trkpt lat="45.64921193106378" lon="10.067938712522663"><ele>573.8</ele><time>2026-03-28T17:16:02Z</time></trkpt><trkpt lat="45.649193322689904" lon="10.067836250784307"><ele>575.1999999999999</ele><time>2026-03-28T17:16:03Z</time></trkpt><trkpt lat="45.64911340198857" lon="10.06761908427879"><ele>576.6</ele><time>2026-03-28T17:16:13Z</time></trkpt><trkpt lat="45.64907638206305" lon="10.067530224833002"><ele>578.0</ele><time>2026-03-28T17:16:14Z</time></trkpt><trkpt lat="45.649022643773975" lon="10.067401454015107"><ele>579.4</ele><time>2026-03-28T17:16:15Z</time></trkpt><trkpt lat="45.648952319763914" lon="10.067235481498535"><ele>580.8</ele><time>2026-03-28T17:16:16Z</time></trkpt><trkpt lat="45.64889820889637" lon="10.067091544827544"><ele>582.2</ele><time>2026-03-28T17:16:17Z</time></trkpt><trkpt lat="45.64885897187944" lon="10.06699952671635"><ele>583.6</ele><time>2026-03-28T17:16:18Z</time></trkpt><trkpt lat="45.648810974507484" lon="10.06687514729948"><ele>585.0</ele><time>2026-03-28T17:16:19Z</time></trkpt><trkpt lat="45.648744418588656" lon="10.066735600326698"><ele>583.2</ele><time>2026-03-28T17:16:20Z</time></trkpt><trkpt lat="45.64868911544797" lon="10.066608512724182"><ele>581.4</ele><time>2026-03-28T17:16:21Z</time></trkpt><trkpt lat="45.6486491599691" lon="10.06649477437926"><ele>579.6</ele><time>2026-03-28T17:16:22Z</time></trkpt><trkpt lat="45.64860692454922" lon="10.066376478596759"><ele>577.8</ele><time>2026-03-28T17:16:23Z</time></trkpt><trkpt lat="45.64856932198422" lon="10.066286996656205"><ele>576.0</ele><time>2026-03-28T17:16:24Z</time></trkpt><trkpt lat="45.64855540442303" lon="10.066150044662635"><ele>576.0</ele><time>2026-03-28T17:16:25Z</time></trkpt><trkpt lat="45.648570429699454" lon="10.065981302339326"><ele>576.0</ele><time>2026-03-28T17:16:26Z</time></trkpt><trkpt lat="45.64854836293515" lon="10.065847645423155"><ele>576.0</ele><time>2026-03-28T17:16:27Z</time></trkpt><trkpt lat="45.648509563654606" lon="10.065770830869775"><ele>576.0</ele><time>2026-03-28T17:16:28Z</time></trkpt><trkpt lat="45.64842128236358" lon="10.06576184461473"><ele>576.0</ele><time>2026-03-28T17:16:29Z</time></trkpt><trkpt lat="45.648282449001584" lon="10.065809852086513"><ele>576.0</ele><time>2026-03-28T17:16:30Z</time></trkpt><trkpt lat="45.64815032595366" lon="10.06584635433966"><ele>576.0</ele><time>2026-03-28T17:16:31Z</time></trkpt><trkpt lat="45.64801859310347" lon="10.065860099335307"><ele>576.0</ele><time>2026-03-28T17:16:32Z</time></trkpt><trkpt lat="45.64794736516087" lon="10.065827444898046"><ele>576.0</ele><time>2026-03-28T17:16:33Z</time></trkpt><trkpt lat="45.64789483962176" lon="10.065757596164683"><ele>576.0</ele><time>2026-03-28T17:16:34Z</time></trkpt><trkpt lat="45.64784967584799" lon="10.065631746938505"><ele>575.6666666666666</ele><time>2026-03-28T17:16:35Z</time></trkpt><trkpt lat="45.647850426351894" lon="10.06548718485427"><ele>575.3333333333334</ele><time>2026-03-28T17:16:36Z</time></trkpt><trkpt lat="45.64779831222932" lon="10.065425929246748"><ele>575.0</ele><time>2026-03-28T17:16:37Z</time></trkpt><trkpt lat="45.64773971648549" lon="10.065469202377303"><ele>574.6666666666667</ele><time>2026-03-28T17:16:38Z</time></trkpt><trkpt lat="45.64766033889875" lon="10.065491126477351"><ele>574.3333333333334</ele><time>2026-03-28T17:16:39Z</time></trkpt><trkpt lat="45.64758298739778" lon="10.065461335220009"><ele>574.0</ele><time>2026-03-28T17:16:40Z</time></trkpt><trkpt lat="45.64751951610557" lon="10.065384662837571"><ele>574.0</ele><time>2026-03-28T17:16:41Z</time></trkpt><trkpt lat="45.647430045222606" lon="10.065388639268757"><ele>574.0</ele><time>2026-03-28T17:16:42Z</time></trkpt><trkpt lat="45.64734236680928" lon="10.065399555409769"><ele>574.0</ele><time>2026-03-28T17:16:43Z</time></trkpt><trkpt lat="45.64722736423506" lon="10.065358258850756"><ele>574.0</ele><time>2026-03-28T17:16:44Z</time></trkpt><trkpt lat="45.64709996283982" lon="10.06529634007237"><ele>574.0</ele><time>2026-03-28T17:16:45Z</time></trkpt><trkpt lat="45.64700877758197" lon="10.06522347300258"><ele>572.8</ele><time>2026-03-28T17:16:46Z</time></trkpt><trkpt lat="45.64693467489091" lon="10.065136835187808"><ele>571.5999999999999</ele><time>2026-03-28T17:16:47Z</time></trkpt><trkpt lat="45.64684842063312" lon="10.065036874989262"><ele>570.4</ele><time>2026-03-28T17:16:48Z</time></trkpt><trkpt lat="45.64680066592636" lon="10.064932644080965"><ele>569.1999999999999</ele><time>2026-03-28T17:16:49Z</time></trkpt><trkpt lat="45.646760367084" lon="10.064836839323327"><ele>568.0</ele><time>2026-03-28T17:16:50Z</time></trkpt><trkpt lat="45.64672478343258" lon="10.064694843534657"><ele>568.0</ele><time>2026-03-28T17:16:51Z</time></trkpt><trkpt lat="45.646673977582296" lon="10.064596803989243"><ele>568.0</ele><time>2026-03-28T17:16:52Z</time></trkpt><trkpt lat="45.646618893826705" lon="10.064512344885047"><ele>568.0</ele><time>2026-03-28T17:16:53Z</time></trkpt><trkpt lat="45.64658683869865" lon="10.064408904948165"><ele>568.0</ele><time>2026-03-28T17:16:54Z</time></trkpt><trkpt lat="45.646519835352194" lon="10.064340582482528"><ele>568.0</ele><time>2026-03-28T17:16:55Z</time></trkpt><trkpt lat="45.6464832765232" lon="10.064236400623821"><ele>568.0</ele><time>2026-03-28T17:16:56Z</time></trkpt><trkpt lat="45.646444171965754" lon="10.064132007328489"><ele>566.1666666666667</ele><time>2026-03-28T17:16:57Z</time></trkpt><trkpt lat="45.64636996347305" lon="10.064059868207762"><ele>564.3333333333334</ele><time>2026-03-28T17:16:58Z</time></trkpt><trkpt lat="45.64629626766411" lon="10.063974321635568"><ele>562.5</ele><time>2026-03-28T17:16:59Z</time></trkpt><trkpt lat="45.64623797286827" lon="10.063884712175986"><ele>560.6666666666666</ele><time>2026-03-28T17:17:00Z</time></trkpt><trkpt lat="45.64615186360205" lon="10.063823932767036"><ele>558.8333333333333</ele><time>2026-03-28T17:17:02Z</time></trkpt><trkpt lat="45.6460885180332" lon="10.063856245360014"><ele>557.0</ele><time>2026-03-28T17:17:03Z</time></trkpt><trkpt lat="45.64601813156871" lon="10.063917866013696"><ele>557.0</ele><time>2026-03-28T17:17:04Z</time></trkpt><trkpt lat="45.64594199454517" lon="10.063972451140389"><ele>557.0</ele><time>2026-03-28T17:17:05Z</time></trkpt><trkpt lat="45.64584977491795" lon="10.064038561777835"><ele>557.0</ele><time>2026-03-28T17:17:06Z</time></trkpt><trkpt lat="45.64576863257967" lon="10.06405377386619"><ele>557.0</ele><time>2026-03-28T17:17:07Z</time></trkpt><trkpt lat="45.64566086883647" lon="10.063969052047273"><ele>557.0</ele><time>2026-03-28T17:17:09Z</time></trkpt><trkpt lat="45.64557789402888" lon="10.0638167474669"><ele>557.0</ele><time>2026-03-28T17:17:10Z</time></trkpt><trkpt lat="45.645533463479545" lon="10.063653129398563"><ele>557.0</ele><time>2026-03-28T17:17:11Z</time></trkpt><trkpt lat="45.64552788374276" lon="10.063499150662498"><ele>557.0</ele><time>2026-03-28T17:17:12Z</time></trkpt><trkpt lat="45.64551774936203" lon="10.063394557520624"><ele>557.0</ele><time>2026-03-28T17:17:13Z</time></trkpt><trkpt lat="45.64554171414648" lon="10.063294578814878"><ele>557.0</ele><time>2026-03-28T17:17:14Z</time></trkpt><trkpt lat="45.6455356151316" lon="10.063193050644553"><ele>557.0</ele><time>2026-03-28T17:17:15Z</time></trkpt><trkpt lat="45.645552304365445" lon="10.063010637909196"><ele>558.4</ele><time>2026-03-28T17:17:17Z</time></trkpt><trkpt lat="45.64559978509168" lon="10.062924954752534"><ele>559.8000000000001</ele><time>2026-03-28T17:17:18Z</time></trkpt><trkpt lat="45.64564093890553" lon="10.062837342872841"><ele>561.2</ele><time>2026-03-28T17:17:19Z</time></trkpt><trkpt lat="45.64550950497445" lon="10.062692448809173"><ele>562.6</ele><time>2026-03-28T17:17:21Z</time></trkpt><trkpt lat="45.64538286492909" lon="10.062650592930922"><ele>564.0</ele><time>2026-03-28T17:17:22Z</time></trkpt><trkpt lat="45.64531595942437" lon="10.062604161731254"><ele>564.1666666666666</ele><time>2026-03-28T17:17:23Z</time></trkpt><trkpt lat="45.645243568178365" lon="10.062476006550474"><ele>564.3333333333334</ele><time>2026-03-28T17:17:25Z</time></trkpt><trkpt lat="45.64515135002793" lon="10.062434517127286"><ele>564.5</ele><time>2026-03-28T17:17:27Z</time></trkpt><trkpt lat="45.64509612038185" lon="10.062496119451136"><ele>564.6666666666667</ele><time>2026-03-28T17:17:28Z</time></trkpt><trkpt lat="45.64503303256653" lon="10.062554539476748"><ele>564.8333333333334</ele><time>2026-03-28T17:17:29Z</time></trkpt><trkpt lat="45.64497320672639" lon="10.062599950518637"><ele>565.0</ele><time>2026-03-28T17:17:30Z</time></trkpt><trkpt lat="45.64489012008926" lon="10.062549419964691"><ele>563.0</ele><time>2026-03-28T17:17:31Z</time></trkpt><trkpt lat="45.64481827024163" lon="10.062548435944018"><ele>561.0</ele><time>2026-03-28T17:17:32Z</time></trkpt><trkpt lat="45.64476794287179" lon="10.06262797807023"><ele>559.0</ele><time>2026-03-28T17:17:33Z</time></trkpt><trkpt lat="45.64471193284496" lon="10.062751281297661"><ele>557.0</ele><time>2026-03-28T17:17:34Z</time></trkpt><trkpt lat="45.644651564126434" lon="10.062814183216666"><ele>555.0</ele><time>2026-03-28T17:17:35Z</time></trkpt><trkpt lat="45.64456073629723" lon="10.062871375313705"><ele>553.0</ele><time>2026-03-28T17:17:36Z</time></trkpt><trkpt lat="45.644444012839834" lon="10.062922578178252"><ele>553.0</ele><time>2026-03-28T17:17:37Z</time></trkpt><trkpt lat="45.64434819006045" lon="10.063006753573186"><ele>553.0</ele><time>2026-03-28T17:17:38Z</time></trkpt><trkpt lat="45.64425758987106" lon="10.063082019156617"><ele>553.0</ele><time>2026-03-28T17:17:39Z</time></trkpt><trkpt lat="45.64412510882912" lon="10.063132000985876"><ele>553.0</ele><time>2026-03-28T17:17:40Z</time></trkpt><trkpt lat="45.644015617270576" lon="10.063178536503775"><ele>553.0</ele><time>2026-03-28T17:17:41Z</time></trkpt><trkpt lat="45.64392930363082" lon="10.063264590257006"><ele>553.0</ele><time>2026-03-28T17:17:42Z</time></trkpt><trkpt lat="45.643846530457665" lon="10.06336516108213"><ele>553.0</ele><time>2026-03-28T17:17:43Z</time></trkpt><trkpt lat="45.64376851392698" lon="10.063392184026377"><ele>553.0</ele><time>2026-03-28T17:17:44Z</time></trkpt><trkpt lat="45.643708042908145" lon="10.063461338518925"><ele>553.0</ele><time>2026-03-28T17:17:45Z</time></trkpt><trkpt lat="45.64369889704794" lon="10.063631560946645"><ele>548.8</ele><time>2026-03-28T17:17:46Z</time></trkpt><trkpt lat="45.64367320830833" lon="10.0638041696661"><ele>544.5999999999999</ele><time>2026-03-28T17:17:47Z</time></trkpt><trkpt lat="45.64360997218555" lon="10.063914103619283"><ele>540.4000000000001</ele><time>2026-03-28T17:17:48Z</time></trkpt><trkpt lat="45.64353385326763" lon="10.064012912696768"><ele>536.2</ele><time>2026-03-28T17:17:49Z</time></trkpt><trkpt lat="45.64345060566315" lon="10.064110120706303"><ele>532.0</ele><time>2026-03-28T17:17:50Z</time></trkpt><trkpt lat="45.64339157882601" lon="10.064182949960149"><ele>528.0</ele><time>2026-03-28T17:17:51Z</time></trkpt><trkpt lat="45.643320967781264" lon="10.064243202062109"><ele>524.0</ele><time>2026-03-28T17:17:52Z</time></trkpt><trkpt lat="45.643258603056694" lon="10.064322702853467"><ele>520.0</ele><time>2026-03-28T17:17:53Z</time></trkpt><trkpt lat="45.64320186933717" lon="10.064517721072407"><ele>516.0</ele><time>2026-03-28T17:17:54Z</time></trkpt><trkpt lat="45.643140304504996" lon="10.064635640931995"><ele>512.0</ele><time>2026-03-28T17:17:55Z</time></trkpt><trkpt lat="45.64305278181134" lon="10.064734606130179"><ele>511.99999999999994</ele><time>2026-03-28T17:17:56Z</time></trkpt><trkpt lat="45.64295230383922" lon="10.064819278550805"><ele>512.0</ele><time>2026-03-28T17:17:57Z</time></trkpt><trkpt lat="45.64288662558779" lon="10.064899538888351"><ele>512.0</ele><time>2026-03-28T17:17:58Z</time></trkpt><trkpt lat="45.642830562733295" lon="10.064966246434894"><ele>512.0</ele><time>2026-03-28T17:17:59Z</time></trkpt><trkpt lat="45.642754752773556" lon="10.065015306107846"><ele>511.99999999999994</ele><time>2026-03-28T17:18:00Z</time></trkpt><trkpt lat="45.642701422406326" lon="10.065081182681508"><ele>512.0</ele><time>2026-03-28T17:18:01Z</time></trkpt><trkpt lat="45.64265617632861" lon="10.065163241206033"><ele>508.49999999999994</ele><time>2026-03-28T17:18:02Z</time></trkpt><trkpt lat="45.642623572097854" lon="10.065246390228792"><ele>505.0</ele><time>2026-03-28T17:18:03Z</time></trkpt><trkpt lat="45.64260392150311" lon="10.065333005489661"><ele>501.5</ele><time>2026-03-28T17:18:04Z</time></trkpt><trkpt lat="45.64263495044237" lon="10.06550729659801"><ele>498.0</ele><time>2026-03-28T17:18:06Z</time></trkpt><trkpt lat="45.642686900116836" lon="10.065624436290237"><ele>494.49999999999994</ele><time>2026-03-28T17:18:07Z</time></trkpt><trkpt lat="45.64272819442907" lon="10.065746419529836"><ele>491.0</ele><time>2026-03-28T17:18:08Z</time></trkpt><trkpt lat="45.6427456420454" lon="10.065878010921626"><ele>488.6</ele><time>2026-03-28T17:18:09Z</time></trkpt><trkpt lat="45.64277607815651" lon="10.065986359592827"><ele>486.20000000000005</ele><time>2026-03-28T17:18:10Z</time></trkpt><trkpt lat="45.6427891471775" lon="10.066093051573644"><ele>483.79999999999995</ele><time>2026-03-28T17:18:11Z</time></trkpt><trkpt lat="45.642823473463935" lon="10.066246444126952"><ele>481.4</ele><time>2026-03-28T17:18:13Z</time></trkpt><trkpt lat="45.642859489409496" lon="10.066321427223953"><ele>479.0</ele><time>2026-03-28T17:18:14Z</time></trkpt><trkpt lat="45.64281149448264" lon="10.066486814137257"><ele>478.99999999999994</ele><time>2026-03-28T17:18:16Z</time></trkpt><trkpt lat="45.642771081364145" lon="10.0665938485009"><ele>479.0</ele><time>2026-03-28T17:18:17Z</time></trkpt><trkpt lat="45.642691446998256" lon="10.06667532089362"><ele>479.0</ele><time>2026-03-28T17:18:18Z</time></trkpt><trkpt lat="45.64265915433352" lon="10.066758301589916"><ele>479.0</ele><time>2026-03-28T17:18:19Z</time></trkpt><trkpt lat="45.64266707116297" lon="10.066848839276968"><ele>478.99999999999994</ele><time>2026-03-28T17:18:20Z</time></trkpt><trkpt lat="45.642583207461314" lon="10.066955142869896"><ele>479.0</ele><time>2026-03-28T17:18:22Z</time></trkpt><trkpt lat="45.64250953869938" lon="10.06697229712373"><ele>478.99999999999994</ele><time>2026-03-28T17:18:23Z</time></trkpt><trkpt lat="45.64240126205284" lon="10.067025664843275"><ele>479.0</ele><time>2026-03-28T17:18:25Z</time></trkpt><trkpt lat="45.642346354342656" lon="10.066966922911458"><ele>479.0</ele><time>2026-03-28T17:18:26Z</time></trkpt><trkpt lat="45.642304251819624" lon="10.066861438903029"><ele>479.0</ele><time>2026-03-28T17:18:27Z</time></trkpt><trkpt lat="45.642273714402066" lon="10.066757143239629"><ele>478.99999999999994</ele><time>2026-03-28T17:18:28Z</time></trkpt><trkpt lat="45.64223240996074" lon="10.066653877532572"><ele>479.0</ele><time>2026-03-28T17:18:29Z</time></trkpt><trkpt lat="45.6421986377407" lon="10.0665723692624"><ele>478.99999999999994</ele><time>2026-03-28T17:18:30Z</time></trkpt><trkpt lat="45.64217033315457" lon="10.066491871329362"><ele>479.0</ele><time>2026-03-28T17:18:31Z</time></trkpt><trkpt lat="45.64212451240775" lon="10.066418473245635"><ele>479.0</ele><time>2026-03-28T17:18:32Z</time></trkpt><trkpt lat="45.642034574422155" lon="10.066418687286452"><ele>479.0</ele><time>2026-03-28T17:18:33Z</time></trkpt><trkpt lat="45.641970443622334" lon="10.066409243673302"><ele>478.99999999999994</ele><time>2026-03-28T17:18:34Z</time></trkpt><trkpt lat="45.64188155189168" lon="10.066536849085027"><ele>479.0</ele><time>2026-03-28T17:18:36Z</time></trkpt><trkpt lat="45.641784966463895" lon="10.066627490769262"><ele>474.8333333333333</ele><time>2026-03-28T17:18:38Z</time></trkpt><trkpt lat="45.64170720781105" lon="10.066637904132115"><ele>470.66666666666663</ele><time>2026-03-28T17:18:39Z</time></trkpt><trkpt lat="45.64162123102217" lon="10.066581753337866"><ele>466.5</ele><time>2026-03-28T17:18:40Z</time></trkpt><trkpt lat="45.64155603502026" lon="10.066523966318341"><ele>462.33333333333337</ele><time>2026-03-28T17:18:41Z</time></trkpt><trkpt lat="45.6414943639364" lon="10.066448253533"><ele>458.1666666666667</ele><time>2026-03-28T17:18:42Z</time></trkpt><trkpt lat="45.64143303163356" lon="10.066403548894506"><ele>454.0</ele><time>2026-03-28T17:18:43Z</time></trkpt><trkpt lat="45.64128548328016" lon="10.06650795584495"><ele>454.0</ele><time>2026-03-28T17:18:45Z</time></trkpt><trkpt lat="45.641211630515144" lon="10.066586856312249"><ele>454.0</ele><time>2026-03-28T17:18:46Z</time></trkpt><trkpt lat="45.64110032021626" lon="10.066648774379834"><ele>454.0</ele><time>2026-03-28T17:18:48Z</time></trkpt><trkpt lat="45.64097649440134" lon="10.0666385398156"><ele>454.0</ele><time>2026-03-28T17:18:50Z</time></trkpt><trkpt lat="45.64085440946926" lon="10.066627673339571"><ele>445.79999999999995</ele><time>2026-03-28T17:18:51Z</time></trkpt><trkpt lat="45.64072890613206" lon="10.066638850589234"><ele>437.59999999999997</ele><time>2026-03-28T17:18:52Z</time></trkpt><trkpt lat="45.64064359258032" lon="10.06666911277157"><ele>429.4</ele><time>2026-03-28T17:18:53Z</time></trkpt><trkpt lat="45.64053885050741" lon="10.066713033801747"><ele>421.2</ele><time>2026-03-28T17:18:54Z</time></trkpt><trkpt lat="45.64044517719497" lon="10.066775954475903"><ele>413.0</ele><time>2026-03-28T17:18:55Z</time></trkpt><trkpt lat="45.64036364977769" lon="10.066800801462724"><ele>410.59999999999997</ele><time>2026-03-28T17:18:56Z</time></trkpt><trkpt lat="45.64025465836525" lon="10.066827219129998"><ele>408.2</ele><time>2026-03-28T17:18:57Z</time></trkpt><trkpt lat="45.64016574735729" lon="10.066848276099286"><ele>405.8</ele><time>2026-03-28T17:18:58Z</time></trkpt><trkpt lat="45.64009911148031" lon="10.06682959335797"><ele>403.4</ele><time>2026-03-28T17:18:59Z</time></trkpt><trkpt lat="45.640010818245365" lon="10.066814932327013"><ele>401.0</ele><time>2026-03-28T17:19:00Z</time></trkpt><trkpt lat="45.639904326244306" lon="10.066749608224214"><ele>401.0</ele><time>2026-03-28T17:19:01Z</time></trkpt><trkpt lat="45.639751120167546" lon="10.066667526729153"><ele>401.0</ele><time>2026-03-28T17:19:02Z</time></trkpt><trkpt lat="45.63961211634778" lon="10.066596753226126"><ele>401.0</ele><time>2026-03-28T17:19:03Z</time></trkpt><trkpt lat="45.6395262969114" lon="10.066541995966004"><ele>401.0</ele><time>2026-03-28T17:19:04Z</time></trkpt><trkpt lat="45.639452436111235" lon="10.066490151684857"><ele>394.20000000000005</ele><time>2026-03-28T17:19:05Z</time></trkpt><trkpt lat="45.63938376535889" lon="10.066448893033304"><ele>387.40000000000003</ele><time>2026-03-28T17:19:06Z</time></trkpt><trkpt lat="45.63934415930618" lon="10.066343501153359"><ele>380.6</ele><time>2026-03-28T17:19:07Z</time></trkpt><trkpt lat="45.63924189027094" lon="10.066281475175783"><ele>373.8</ele><time>2026-03-28T17:19:09Z</time></trkpt><trkpt lat="45.63921193656066" lon="10.066113414671126"><ele>367.0</ele><time>2026-03-28T17:19:11Z</time></trkpt><trkpt lat="45.639217559264054" lon="10.066006853511636"><ele>367.0</ele><time>2026-03-28T17:19:12Z</time></trkpt><trkpt lat="45.639237276338" lon="10.065895964089961"><ele>367.0</ele><time>2026-03-28T17:19:13Z</time></trkpt><trkpt lat="45.6392674683232" lon="10.065801813615137"><ele>367.0</ele><time>2026-03-28T17:19:14Z</time></trkpt><trkpt lat="45.63932014345538" lon="10.065715774532656"><ele>367.0</ele><time>2026-03-28T17:19:15Z</time></trkpt><trkpt lat="45.639373143998014" lon="10.065650111996028"><ele>367.0</ele><time>2026-03-28T17:19:16Z</time></trkpt><trkpt lat="45.63942745313841" lon="10.065561100403988"><ele>367.0</ele><time>2026-03-28T17:19:17Z</time></trkpt><trkpt lat="45.639482227642226" lon="10.065463983026504"><ele>366.3333333333333</ele><time>2026-03-28T17:19:18Z</time></trkpt><trkpt lat="45.63953429115949" lon="10.065375012596016"><ele>365.66666666666663</ele><time>2026-03-28T17:19:19Z</time></trkpt><trkpt lat="45.63959229538409" lon="10.065289473846438"><ele>365.0</ele><time>2026-03-28T17:19:20Z</time></trkpt><trkpt lat="45.63965602527038" lon="10.06521484657758"><ele>364.3333333333333</ele><time>2026-03-28T17:19:21Z</time></trkpt><trkpt lat="45.639714293785346" lon="10.065110701693978"><ele>363.6666666666667</ele><time>2026-03-28T17:19:22Z</time></trkpt><trkpt lat="45.63977600076487" lon="10.06502766038161"><ele>363.0</ele><time>2026-03-28T17:19:23Z</time></trkpt><trkpt lat="45.63981176499614" lon="10.064936834071757"><ele>363.0</ele><time>2026-03-28T17:19:24Z</time></trkpt><trkpt lat="45.63985953953712" lon="10.064869331776922"><ele>363.0</ele><time>2026-03-28T17:19:25Z</time></trkpt><trkpt lat="45.63990670309084" lon="10.064776039847604"><ele>363.0</ele><time>2026-03-28T17:19:26Z</time></trkpt><trkpt lat="45.63996862859915" lon="10.06468970326914"><ele>363.0</ele><time>2026-03-28T17:19:27Z</time></trkpt><trkpt lat="45.64003133433042" lon="10.064611890380856"><ele>363.0</ele><time>2026-03-28T17:19:28Z</time></trkpt><trkpt lat="45.640116375444826" lon="10.064528608308358"><ele>363.0</ele><time>2026-03-28T17:19:29Z</time></trkpt><trkpt lat="45.640172327682514" lon="10.064438504331497"><ele>363.0</ele><time>2026-03-28T17:19:30Z</time></trkpt><trkpt lat="45.64021025383722" lon="10.064362951511436"><ele>363.0</ele><time>2026-03-28T17:19:31Z</time></trkpt><trkpt lat="45.64032269971337" lon="10.064341528116422"><ele>363.0</ele><time>2026-03-28T17:19:33Z</time></trkpt><trkpt lat="45.640428491486844" lon="10.064301775155789"><ele>363.0</ele><time>2026-03-28T17:19:35Z</time></trkpt><trkpt lat="45.64042655024634" lon="10.064183242745287"><ele>363.0</ele><time>2026-03-28T17:19:36Z</time></trkpt><trkpt lat="45.64043685005054" lon="10.064088061987828"><ele>363.0</ele><time>2026-03-28T17:19:37Z</time></trkpt><trkpt lat="45.64034053622713" lon="10.063972252757956"><ele>365.5</ele><time>2026-03-28T17:19:40Z</time></trkpt><trkpt lat="45.64027795011085" lon="10.0639520391959"><ele>368.0</ele><time>2026-03-28T17:19:41Z</time></trkpt><trkpt lat="45.64015044065172" lon="10.063980756568181"><ele>370.5</ele><time>2026-03-28T17:19:43Z</time></trkpt><trkpt lat="45.64008301762835" lon="10.063971682222359"><ele>373.0</ele><time>2026-03-28T17:19:44Z</time></trkpt><trkpt lat="45.64001067679225" lon="10.063951604066826"><ele>375.5</ele><time>2026-03-28T17:19:45Z</time></trkpt><trkpt lat="45.6399092983514" lon="10.063893804076583"><ele>378.0</ele><time>2026-03-28T17:19:46Z</time></trkpt><trkpt lat="45.63978720588809" lon="10.063825333764548"><ele>378.0</ele><time>2026-03-28T17:19:47Z</time></trkpt><trkpt lat="45.63965399186589" lon="10.063739400142321"><ele>378.0</ele><time>2026-03-28T17:19:48Z</time></trkpt><trkpt lat="45.63950185187219" lon="10.063653598652303"><ele>378.0</ele><time>2026-03-28T17:19:49Z</time></trkpt><trkpt lat="45.639379650220114" lon="10.063576621898424"><ele>378.0</ele><time>2026-03-28T17:19:50Z</time></trkpt><trkpt lat="45.63926905469624" lon="10.063557539763588"><ele>372.59999999999997</ele><time>2026-03-28T17:19:51Z</time></trkpt><trkpt lat="45.63918216375784" lon="10.06347719787099"><ele>367.2</ele><time>2026-03-28T17:19:52Z</time></trkpt><trkpt lat="45.63910591411416" lon="10.063438465653071"><ele>361.8</ele><time>2026-03-28T17:19:53Z</time></trkpt><trkpt lat="45.63903404603055" lon="10.063441885333214"><ele>356.4</ele><time>2026-03-28T17:19:54Z</time></trkpt><trkpt lat="45.63892314697742" lon="10.063516468548638"><ele>351.0</ele><time>2026-03-28T17:19:56Z</time></trkpt><trkpt lat="45.63882020862292" lon="10.063586766076234"><ele>351.0</ele><time>2026-03-28T17:19:58Z</time></trkpt><trkpt lat="45.63875580631631" lon="10.063601285238708"><ele>351.0</ele><time>2026-03-28T17:19:59Z</time></trkpt><trkpt lat="45.63866667574695" lon="10.06363841253226"><ele>351.0</ele><time>2026-03-28T17:20:00Z</time></trkpt><trkpt lat="45.63859011674214" lon="10.063671606541416"><ele>351.0</ele><time>2026-03-28T17:20:01Z</time></trkpt><trkpt lat="45.638507043915446" lon="10.063698138692585"><ele>351.0</ele><time>2026-03-28T17:20:02Z</time></trkpt><trkpt lat="45.63842125909833" lon="10.063732912910414"><ele>351.0</ele><time>2026-03-28T17:20:03Z</time></trkpt><trkpt lat="45.63833383875053" lon="10.063763173473625"><ele>348.3333333333333</ele><time>2026-03-28T17:20:04Z</time></trkpt><trkpt lat="45.63825861240387" lon="10.063798198235071"><ele>345.6666666666667</ele><time>2026-03-28T17:20:05Z</time></trkpt><trkpt lat="45.638192922518805" lon="10.063894315182928"><ele>343.0</ele><time>2026-03-28T17:20:07Z</time></trkpt><trkpt lat="45.63816580012298" lon="10.063987714492898"><ele>340.33333333333337</ele><time>2026-03-28T17:20:08Z</time></trkpt><trkpt lat="45.638123902926964" lon="10.064086875312112"><ele>337.6666666666667</ele><time>2026-03-28T17:20:09Z</time></trkpt><trkpt lat="45.63806788619366" lon="10.064173387356302"><ele>335.0</ele><time>2026-03-28T17:20:10Z</time></trkpt><trkpt lat="45.63798931633531" lon="10.064217915690184"><ele>333.2</ele><time>2026-03-28T17:20:11Z</time></trkpt><trkpt lat="45.637932040885694" lon="10.06425814890774"><ele>331.4</ele><time>2026-03-28T17:20:12Z</time></trkpt><trkpt lat="45.63783405900575" lon="10.06426027265804"><ele>329.6</ele><time>2026-03-28T17:20:14Z</time></trkpt><trkpt lat="45.63771757915457" lon="10.064163838690321"><ele>327.8</ele><time>2026-03-28T17:20:16Z</time></trkpt><trkpt lat="45.637627521346985" lon="10.064168991796073"><ele>326.0</ele><time>2026-03-28T17:20:17Z</time></trkpt><trkpt lat="45.63757527801917" lon="10.064322576161835"><ele>323.83333333333337</ele><time>2026-03-28T17:20:19Z</time></trkpt><trkpt lat="45.637528067200506" lon="10.064399479851481"><ele>321.6666666666667</ele><time>2026-03-28T17:20:20Z</time></trkpt><trkpt lat="45.637482175963804" lon="10.0644957860182"><ele>319.5</ele><time>2026-03-28T17:20:21Z</time></trkpt><trkpt lat="45.63742916769872" lon="10.064573759459217"><ele>317.3333333333333</ele><time>2026-03-28T17:20:22Z</time></trkpt><trkpt lat="45.63737719609002" lon="10.064636326704942"><ele>315.16666666666663</ele><time>2026-03-28T17:20:23Z</time></trkpt><trkpt lat="45.63731095587676" lon="10.064713636276013"><ele>313.0</ele><time>2026-03-28T17:20:24Z</time></trkpt><trkpt lat="45.63723098458277" lon="10.064806971534134"><ele>313.0</ele><time>2026-03-28T17:20:25Z</time></trkpt><trkpt lat="45.63711613968281" lon="10.064928201860631"><ele>313.0</ele><time>2026-03-28T17:20:26Z</time></trkpt><trkpt lat="45.63701138113307" lon="10.065064144855276"><ele>313.0</ele><time>2026-03-28T17:20:27Z</time></trkpt><trkpt lat="45.636948785654596" lon="10.065144426097786"><ele>313.0</ele><time>2026-03-28T17:20:28Z</time></trkpt><trkpt lat="45.63689172983307" lon="10.06521993636795"><ele>313.0</ele><time>2026-03-28T17:20:30Z</time></trkpt><trkpt lat="45.6367469666961" lon="10.065189423910727"><ele>310.3333333333333</ele><time>2026-03-28T17:20:33Z</time></trkpt><trkpt lat="45.63665305580464" lon="10.065198943191442"><ele>307.66666666666663</ele><time>2026-03-28T17:20:34Z</time></trkpt><trkpt lat="45.636548031847596" lon="10.065210642755295"><ele>305.0</ele><time>2026-03-28T17:20:35Z</time></trkpt><trkpt lat="45.63645701752349" lon="10.065245058225846"><ele>302.3333333333333</ele><time>2026-03-28T17:20:36Z</time></trkpt><trkpt lat="45.63638427993968" lon="10.065228034279373"><ele>299.6666666666667</ele><time>2026-03-28T17:20:37Z</time></trkpt><trkpt lat="45.636320979905754" lon="10.065217459279989"><ele>297.0</ele><time>2026-03-28T17:20:38Z</time></trkpt><trkpt lat="45.636255314523176" lon="10.065203300178814"><ele>297.0</ele><time>2026-03-28T17:20:39Z</time></trkpt><trkpt lat="45.63619018634946" lon="10.065195740542425"><ele>297.0</ele><time>2026-03-28T17:20:40Z</time></trkpt><trkpt lat="45.63612457348615" lon="10.065188124650017"><ele>297.0</ele><time>2026-03-28T17:20:41Z</time></trkpt><trkpt lat="45.63603469003252" lon="10.065264760438884"><ele>297.0</ele><time>2026-03-28T17:20:42Z</time></trkpt><trkpt lat="45.63595147478946" lon="10.065268269966316"><ele>297.0</ele><time>2026-03-28T17:20:43Z</time></trkpt><trkpt lat="45.63585919666019" lon="10.065232479209422"><ele>297.0</ele><time>2026-03-28T17:20:45Z</time></trkpt><trkpt lat="45.63581663317205" lon="10.065025383352097"><ele>295.8</ele><time>2026-03-28T17:20:48Z</time></trkpt><trkpt lat="45.63580924043517" lon="10.064871308295446"><ele>294.6</ele><time>2026-03-28T17:20:49Z</time></trkpt><trkpt lat="45.63579901130469" lon="10.064718894534442"><ele>293.40000000000003</ele><time>2026-03-28T17:20:50Z</time></trkpt><trkpt lat="45.6357815118787" lon="10.06457464629602"><ele>292.2</ele><time>2026-03-28T17:20:51Z</time></trkpt><trkpt lat="45.635749878866136" lon="10.06447784756208"><ele>291.0</ele><time>2026-03-28T17:20:52Z</time></trkpt><trkpt lat="45.635683253139085" lon="10.06445775404292"><ele>291.0</ele><time>2026-03-28T17:20:57Z</time></trkpt><trkpt lat="45.63558112150684" lon="10.064503550822565"><ele>291.0</ele><time>2026-03-28T17:20:58Z</time></trkpt><trkpt lat="45.63546253082733" lon="10.064535997796659"><ele>291.0</ele><time>2026-03-28T17:20:59Z</time></trkpt><trkpt lat="45.63531718906227" lon="10.064620931206985"><ele>291.0</ele><time>2026-03-28T17:21:00Z</time></trkpt><trkpt lat="45.63517646627563" lon="10.064704477116772"><ele>289.0</ele><time>2026-03-28T17:21:01Z</time></trkpt><trkpt lat="45.63501695108186" lon="10.064794843066155"><ele>287.0</ele><time>2026-03-28T17:21:02Z</time></trkpt><trkpt lat="45.63486999809109" lon="10.064844561971938"><ele>285.0</ele><time>2026-03-28T17:21:03Z</time></trkpt><trkpt lat="45.634736536123" lon="10.064862932002216"><ele>285.0</ele><time>2026-03-28T17:21:04Z</time></trkpt><trkpt lat="45.63463436367862" lon="10.064859847730743"><ele>285.0</ele><time>2026-03-28T17:21:05Z</time></trkpt><trkpt lat="45.634563712010056" lon="10.064829029379327"><ele>285.0</ele><time>2026-03-28T17:21:06Z</time></trkpt><trkpt lat="45.634503954967265" lon="10.06468651548376"><ele>285.0</ele><time>2026-03-28T17:21:07Z</time></trkpt><trkpt lat="45.63440715243117" lon="10.06461617963482"><ele>285.0</ele><time>2026-03-28T17:21:08Z</time></trkpt><trkpt lat="45.634323651150964" lon="10.064559361562402"><ele>286.2</ele><time>2026-03-28T17:21:09Z</time></trkpt><trkpt lat="45.634217695013824" lon="10.06456001270974"><ele>287.4</ele><time>2026-03-28T17:21:10Z</time></trkpt><trkpt lat="45.63411004911116" lon="10.064618655262642"><ele>288.6</ele><time>2026-03-28T17:21:11Z</time></trkpt><trkpt lat="45.63400700214342" lon="10.064661094301364"><ele>289.8</ele><time>2026-03-28T17:21:12Z</time></trkpt><trkpt lat="45.63390556846908" lon="10.064694141909232"><ele>291.0</ele><time>2026-03-28T17:21:13Z</time></trkpt><trkpt lat="45.633770831297404" lon="10.064726185988034"><ele>291.0</ele><time>2026-03-28T17:21:14Z</time></trkpt><trkpt lat="45.63365603775464" lon="10.064715621220648"><ele>291.0</ele><time>2026-03-28T17:21:15Z</time></trkpt><trkpt lat="45.63354113835439" lon="10.064701344444526"><ele>291.0</ele><time>2026-03-28T17:21:16Z</time></trkpt><trkpt lat="45.633435885623825" lon="10.06468009423789"><ele>291.0</ele><time>2026-03-28T17:21:17Z</time></trkpt><trkpt lat="45.63334755849288" lon="10.064664875830328"><ele>291.0</ele><time>2026-03-28T17:21:18Z</time></trkpt><trkpt lat="45.633226435912135" lon="10.064643146962714"><ele>290.40000000000003</ele><time>2026-03-28T17:21:19Z</time></trkpt><trkpt lat="45.633123216505005" lon="10.064590117783517"><ele>289.8</ele><time>2026-03-28T17:21:20Z</time></trkpt><trkpt lat="45.63304526428176" lon="10.064541523666565"><ele>289.20000000000005</ele><time>2026-03-28T17:21:21Z</time></trkpt><trkpt lat="45.63298055065151" lon="10.064513750112745"><ele>288.6</ele><time>2026-03-28T17:21:22Z</time></trkpt><trkpt lat="45.632903321964804" lon="10.06440830888036"><ele>288.0</ele><time>2026-03-28T17:21:24Z</time></trkpt><trkpt lat="45.632853616460295" lon="10.064240870732998"><ele>286.6</ele><time>2026-03-28T17:21:26Z</time></trkpt><trkpt lat="45.6327623164367" lon="10.064128940355648"><ele>285.20000000000005</ele><time>2026-03-28T17:21:27Z</time></trkpt><trkpt lat="45.63267378351868" lon="10.064059513825361"><ele>283.8</ele><time>2026-03-28T17:21:28Z</time></trkpt><trkpt lat="45.63260326789179" lon="10.063962390782615"><ele>282.40000000000003</ele><time>2026-03-28T17:21:29Z</time></trkpt><trkpt lat="45.632521247993445" lon="10.063900983781012"><ele>281.0</ele><time>2026-03-28T17:21:30Z</time></trkpt><trkpt lat="45.63245119746731" lon="10.063833661561437"><ele>278.5</ele><time>2026-03-28T17:21:31Z</time></trkpt><trkpt lat="45.632369788391216" lon="10.063808747120754"><ele>276.0</ele><time>2026-03-28T17:21:32Z</time></trkpt><trkpt lat="45.6322835578819" lon="10.063793159737092"><ele>273.5</ele><time>2026-03-28T17:21:33Z</time></trkpt><trkpt lat="45.63219888575236" lon="10.063795808273584"><ele>271.0</ele><time>2026-03-28T17:21:34Z</time></trkpt><trkpt lat="45.63212091340404" lon="10.063803350456583"><ele>268.5</ele><time>2026-03-28T17:21:35Z</time></trkpt><trkpt lat="45.632043092228876" lon="10.063834556254815"><ele>266.0</ele><time>2026-03-28T17:21:36Z</time></trkpt><trkpt lat="45.631943434424294" lon="10.063893003019935"><ele>267.33333333333337</ele><time>2026-03-28T17:21:37Z</time></trkpt><trkpt lat="45.63181766752348" lon="10.063959623439692"><ele>268.6666666666667</ele><time>2026-03-28T17:21:38Z</time></trkpt><trkpt lat="45.6316637980538" lon="10.064066470860302"><ele>270.0</ele><time>2026-03-28T17:21:39Z</time></trkpt><trkpt lat="45.63150183603893" lon="10.064186226538625"><ele>270.0</ele><time>2026-03-28T17:21:40Z</time></trkpt><trkpt lat="45.6313479979381" lon="10.0642946528283"><ele>270.0</ele><time>2026-03-28T17:21:41Z</time></trkpt><trkpt lat="45.63123198519932" lon="10.064338736719174"><ele>270.0</ele><time>2026-03-28T17:21:42Z</time></trkpt><trkpt lat="45.63113853358683" lon="10.064386690397264"><ele>270.0</ele><time>2026-03-28T17:21:43Z</time></trkpt><trkpt lat="45.631041901097404" lon="10.064422782893272"><ele>266.6</ele><time>2026-03-28T17:21:44Z</time></trkpt><trkpt lat="45.63094516382244" lon="10.064445875897198"><ele>263.2</ele><time>2026-03-28T17:21:45Z</time></trkpt><trkpt lat="45.63084919032835" lon="10.064457751001353"><ele>259.8</ele><time>2026-03-28T17:21:46Z</time></trkpt><trkpt lat="45.6307554299346" lon="10.064452454391954"><ele>256.4</ele><time>2026-03-28T17:21:47Z</time></trkpt><trkpt lat="45.63067283057643" lon="10.064431156961245"><ele>253.0</ele><time>2026-03-28T17:21:48Z</time></trkpt><trkpt lat="45.63058565509608" lon="10.0644108107378"><ele>253.0</ele><time>2026-03-28T17:21:49Z</time></trkpt><trkpt lat="45.63050971190452" lon="10.064395344214692"><ele>253.0</ele><time>2026-03-28T17:21:50Z</time></trkpt><trkpt lat="45.63040322584181" lon="10.064371315863557"><ele>253.0</ele><time>2026-03-28T17:21:52Z</time></trkpt><trkpt lat="45.630327933976666" lon="10.064365548375639"><ele>253.0</ele><time>2026-03-28T17:21:53Z</time></trkpt><trkpt lat="45.6302278259588" lon="10.064419705213846"><ele>253.0</ele><time>2026-03-28T17:21:54Z</time></trkpt><trkpt lat="45.63013501671177" lon="10.064493407470147"><ele>252.25</ele><time>2026-03-28T17:21:55Z</time></trkpt><trkpt lat="45.63003491458692" lon="10.064518475494125"><ele>251.5</ele><time>2026-03-28T17:21:56Z</time></trkpt><trkpt lat="45.62991828488569" lon="10.064533633678428"><ele>250.75</ele><time>2026-03-28T17:21:57Z</time></trkpt><trkpt lat="45.62976579585899" lon="10.064538309949599"><ele>250.0</ele><time>2026-03-28T17:21:58Z</time></trkpt><trkpt lat="45.629589514196724" lon="10.064558361291537"><ele>249.33333333333331</ele><time>2026-03-28T17:21:59Z</time></trkpt><trkpt lat="45.62940031849483" lon="10.064556590181093"><ele>248.66666666666669</ele><time>2026-03-28T17:22:00Z</time></trkpt><trkpt lat="45.629199489682804" lon="10.06454450469382"><ele>248.0</ele><time>2026-03-28T17:22:01Z</time></trkpt><trkpt lat="45.62901906423002" lon="10.064566242360634"><ele>248.0</ele><time>2026-03-28T17:22:02Z</time></trkpt><trkpt lat="45.62886014997431" lon="10.0646165854919"><ele>248.0</ele><time>2026-03-28T17:22:03Z</time></trkpt><trkpt lat="45.62872010614344" lon="10.064647948695535"><ele>248.0</ele><time>2026-03-28T17:22:04Z</time></trkpt><trkpt lat="45.62859631649059" lon="10.064687767526419"><ele>248.0</ele><time>2026-03-28T17:22:05Z</time></trkpt><trkpt lat="45.6284700881825" lon="10.064744096752367"><ele>246.75</ele><time>2026-03-28T17:22:06Z</time></trkpt><trkpt lat="45.628335801887104" lon="10.064811147006417"><ele>245.5</ele><time>2026-03-28T17:22:07Z</time></trkpt><trkpt lat="45.62821052475373" lon="10.064896553469758"><ele>244.25</ele><time>2026-03-28T17:22:08Z</time></trkpt><trkpt lat="45.628079681191515" lon="10.064984317888777"><ele>243.0</ele><time>2026-03-28T17:22:09Z</time></trkpt><trkpt lat="45.627957452139974" lon="10.065059499783896"><ele>243.0</ele><time>2026-03-28T17:22:10Z</time></trkpt><trkpt lat="45.6278445922846" lon="10.06510758134793"><ele>243.0</ele><time>2026-03-28T17:22:11Z</time></trkpt><trkpt lat="45.6277584827164" lon="10.065144844243774"><ele>243.0</ele><time>2026-03-28T17:22:12Z</time></trkpt><trkpt lat="45.627689922670555" lon="10.06515215901083"><ele>243.0</ele><time>2026-03-28T17:22:13Z</time></trkpt><trkpt lat="45.62761181992091" lon="10.065134959045574"><ele>243.0</ele><time>2026-03-28T17:22:15Z</time></trkpt><trkpt lat="45.62758907922237" lon="10.064923854725595"><ele>243.0</ele><time>2026-03-28T17:22:19Z</time></trkpt><trkpt lat="45.627638262116925" lon="10.06479846443775"><ele>243.0</ele><time>2026-03-28T17:22:20Z</time></trkpt><trkpt lat="45.6276901829444" lon="10.064641145148112"><ele>243.0</ele><time>2026-03-28T17:22:21Z</time></trkpt><trkpt lat="45.62773336393687" lon="10.064460340451305"><ele>243.0</ele><time>2026-03-28T17:22:22Z</time></trkpt><trkpt lat="45.62777204203698" lon="10.064267008359298"><ele>243.66666666666669</ele><time>2026-03-28T17:22:23Z</time></trkpt><trkpt lat="45.62779013607092" lon="10.06405061945159"><ele>244.33333333333334</ele><time>2026-03-28T17:22:24Z</time></trkpt><trkpt lat="45.62783181532023" lon="10.063810040264975"><ele>245.0</ele><time>2026-03-28T17:22:25Z</time></trkpt><trkpt lat="45.627892820250565" lon="10.063529994644295"><ele>246.33333333333334</ele><time>2026-03-28T17:22:26Z</time></trkpt><trkpt lat="45.627924614099875" lon="10.063240206049498"><ele>247.66666666666669</ele><time>2026-03-28T17:22:27Z</time></trkpt><trkpt lat="45.62798683798343" lon="10.062981417229288"><ele>249.0</ele><time>2026-03-28T17:22:28Z</time></trkpt><trkpt lat="45.628027905618204" lon="10.06271897443859"><ele>249.0</ele><time>2026-03-28T17:22:29Z</time></trkpt><trkpt lat="45.628085077426995" lon="10.062502683709116"><ele>249.0</ele><time>2026-03-28T17:22:30Z</time></trkpt><trkpt lat="45.62814044530835" lon="10.062344669098305"><ele>249.0</ele><time>2026-03-28T17:22:31Z</time></trkpt><trkpt lat="45.62819868889318" lon="10.06219473768057"><ele>249.0</ele><time>2026-03-28T17:22:32Z</time></trkpt><trkpt lat="45.62825684801915" lon="10.062052876698354"><ele>250.0</ele><time>2026-03-28T17:22:33Z</time></trkpt><trkpt lat="45.62835905505076" lon="10.061940398155313"><ele>251.0</ele><time>2026-03-28T17:22:34Z</time></trkpt><trkpt lat="45.62845542048752" lon="10.061813491522551"><ele>252.0</ele><time>2026-03-28T17:22:35Z</time></trkpt><trkpt lat="45.62854195407088" lon="10.061672057955944"><ele>253.0</ele><time>2026-03-28T17:22:36Z</time></trkpt><trkpt lat="45.62863237845229" lon="10.061551650260162"><ele>253.8</ele><time>2026-03-28T17:22:37Z</time></trkpt><trkpt lat="45.628737531047456" lon="10.06142491774907"><ele>254.60000000000002</ele><time>2026-03-28T17:22:38Z</time></trkpt><trkpt lat="45.628830798497724" lon="10.06129913520524"><ele>255.39999999999998</ele><time>2026-03-28T17:22:39Z</time></trkpt><trkpt lat="45.62889238463631" lon="10.061189248794935"><ele>256.2</ele><time>2026-03-28T17:22:40Z</time></trkpt><trkpt lat="45.628943623172894" lon="10.061131047419497"><ele>257.0</ele><time>2026-03-28T17:22:41Z</time></trkpt><trkpt lat="45.62879612987319" lon="10.061036736572706"><ele>257.0</ele><time>2026-03-28T17:22:46Z</time></trkpt><trkpt lat="45.628714754527465" lon="10.061075561431496"><ele>257.0</ele><time>2026-03-28T17:22:47Z</time></trkpt><trkpt lat="45.628619885477704" lon="10.061053849131808"><ele>257.0</ele><time>2026-03-28T17:22:48Z</time></trkpt><trkpt lat="45.62849954777805" lon="10.061003635691092"><ele>257.0</ele><time>2026-03-28T17:22:49Z</time></trkpt><trkpt lat="45.628369315888534" lon="10.060957603840013"><ele>257.0</ele><time>2026-03-28T17:22:50Z</time></trkpt><trkpt lat="45.62823242821845" lon="10.0609470176641"><ele>256.75</ele><time>2026-03-28T17:22:51Z</time></trkpt><trkpt lat="45.62809191462772" lon="10.060932436395666"><ele>256.5</ele><time>2026-03-28T17:22:52Z</time></trkpt><trkpt lat="45.62794505380301" lon="10.060903014140793"><ele>256.25</ele><time>2026-03-28T17:22:53Z</time></trkpt><trkpt lat="45.627820716449" lon="10.0608803794047"><ele>256.0</ele><time>2026-03-28T17:22:54Z</time></trkpt><trkpt lat="45.62772603729667" lon="10.06085797887359"><ele>256.0</ele><time>2026-03-28T17:22:55Z</time></trkpt><trkpt lat="45.627612594981926" lon="10.060821476697004"><ele>256.0</ele><time>2026-03-28T17:22:56Z</time></trkpt><trkpt lat="45.627494566489084" lon="10.060765360115326"><ele>256.0</ele><time>2026-03-28T17:22:57Z</time></trkpt><trkpt lat="45.62738135390824" lon="10.060711260442961"><ele>256.0</ele><time>2026-03-28T17:22:58Z</time></trkpt><trkpt lat="45.62726496755335" lon="10.060663309411284"><ele>259.0</ele><time>2026-03-28T17:22:59Z</time></trkpt><trkpt lat="45.62714872780684" lon="10.060658633198983"><ele>262.0</ele><time>2026-03-28T17:23:00Z</time></trkpt><trkpt lat="45.627024805336454" lon="10.060654071944265"><ele>265.0</ele><time>2026-03-28T17:23:01Z</time></trkpt><trkpt lat="45.626894196467845" lon="10.060650246705464"><ele>268.0</ele><time>2026-03-28T17:23:02Z</time></trkpt><trkpt lat="45.62675139789613" lon="10.060615485196815"><ele>268.0</ele><time>2026-03-28T17:23:03Z</time></trkpt><trkpt lat="45.6266104818765" lon="10.06058549015298"><ele>268.0</ele><time>2026-03-28T17:23:04Z</time></trkpt><trkpt lat="45.62649560937736" lon="10.060544600175682"><ele>268.0</ele><time>2026-03-28T17:23:05Z</time></trkpt><trkpt lat="45.62640278973468" lon="10.060536374505313"><ele>268.0</ele><time>2026-03-28T17:23:06Z</time></trkpt><trkpt lat="45.626301509547034" lon="10.060546828100387"><ele>268.0</ele><time>2026-03-28T17:23:07Z</time></trkpt><trkpt lat="45.62618130051877" lon="10.06057412306483"><ele>268.0</ele><time>2026-03-28T17:23:08Z</time></trkpt><trkpt lat="45.62605570407328" lon="10.06058698359533"><ele>268.0</ele><time>2026-03-28T17:23:09Z</time></trkpt><trkpt lat="45.625952810411626" lon="10.060592729420366"><ele>268.0</ele><time>2026-03-28T17:23:10Z</time></trkpt><trkpt lat="45.62586624443554" lon="10.060629627442161"><ele>268.0</ele><time>2026-03-28T17:23:11Z</time></trkpt><trkpt lat="45.62579376799458" lon="10.06070264190058"><ele>266.8</ele><time>2026-03-28T17:23:12Z</time></trkpt><trkpt lat="45.62571671683921" lon="10.060710504265776"><ele>265.6</ele><time>2026-03-28T17:23:13Z</time></trkpt><trkpt lat="45.62560294993227" lon="10.060682746457553"><ele>264.4</ele><time>2026-03-28T17:23:14Z</time></trkpt><trkpt lat="45.625476039981486" lon="10.060663604254607"><ele>263.2</ele><time>2026-03-28T17:23:15Z</time></trkpt><trkpt lat="45.62536878150978" lon="10.060636791458231"><ele>262.0</ele><time>2026-03-28T17:23:16Z</time></trkpt><trkpt lat="45.62529045780839" lon="10.060587684062149"><ele>260.8</ele><time>2026-03-28T17:23:17Z</time></trkpt><trkpt lat="45.62522403433569" lon="10.060476341578905"><ele>259.6</ele><time>2026-03-28T17:23:18Z</time></trkpt><trkpt lat="45.62514053309985" lon="10.060393588761281"><ele>258.40000000000003</ele><time>2026-03-28T17:23:19Z</time></trkpt><trkpt lat="45.6250522826044" lon="10.060365466902539"><ele>257.2</ele><time>2026-03-28T17:23:20Z</time></trkpt><trkpt lat="45.624973526350395" lon="10.060374540258962"><ele>256.0</ele><time>2026-03-28T17:23:21Z</time></trkpt><trkpt lat="45.62491699169063" lon="10.060259858537508"><ele>256.0</ele><time>2026-03-28T17:23:23Z</time></trkpt><trkpt lat="45.62493935443736" lon="10.060133243681712"><ele>256.0</ele><time>2026-03-28T17:23:24Z</time></trkpt><trkpt lat="45.62497886237355" lon="10.059992472136514"><ele>256.0</ele><time>2026-03-28T17:23:25Z</time></trkpt><trkpt lat="45.6250068246877" lon="10.059844370036876"><ele>256.0</ele><time>2026-03-28T17:23:26Z</time></trkpt><trkpt lat="45.624994821174134" lon="10.059733668371772"><ele>256.0</ele><time>2026-03-28T17:23:27Z</time></trkpt><trkpt lat="45.62492199781242" lon="10.059680050378756"><ele>256.75</ele><time>2026-03-28T17:23:28Z</time></trkpt><trkpt lat="45.6248137003154" lon="10.059628448796406"><ele>257.5</ele><time>2026-03-28T17:23:29Z</time></trkpt><trkpt lat="45.624658770420226" lon="10.05962592048745"><ele>258.25</ele><time>2026-03-28T17:23:30Z</time></trkpt><trkpt lat="45.62448146250547" lon="10.059628605452975"><ele>259.0</ele><time>2026-03-28T17:23:31Z</time></trkpt><trkpt lat="45.62428432162132" lon="10.059591566487917"><ele>259.0</ele><time>2026-03-28T17:23:32Z</time></trkpt><trkpt lat="45.62405354018487" lon="10.059525768240063"><ele>259.0</ele><time>2026-03-28T17:23:33Z</time></trkpt><trkpt lat="45.62382502162453" lon="10.059448157359096"><ele>260.0</ele><time>2026-03-28T17:23:34Z</time></trkpt><trkpt lat="45.62364026157133" lon="10.059390788950038"><ele>261.0</ele><time>2026-03-28T17:23:35Z</time></trkpt><trkpt lat="45.623502782765485" lon="10.059355732011635"><ele>262.0</ele><time>2026-03-28T17:23:36Z</time></trkpt><trkpt lat="45.62339168473135" lon="10.05934252088896"><ele>263.0</ele><time>2026-03-28T17:23:37Z</time></trkpt><trkpt lat="45.62327712447899" lon="10.059345367772629"><ele>263.0</ele><time>2026-03-28T17:23:38Z</time></trkpt><trkpt lat="45.62320781890869" lon="10.059377254373954"><ele>263.0</ele><time>2026-03-28T17:23:39Z</time></trkpt><trkpt lat="45.6231391064271" lon="10.05938664815518"><ele>263.0</ele><time>2026-03-28T17:23:41Z</time></trkpt><trkpt lat="45.62322628514925" lon="10.059402588797864"><ele>263.0</ele><time>2026-03-28T17:23:44Z</time></trkpt><trkpt lat="45.623274362191246" lon="10.059318721126058"><ele>263.0</ele><time>2026-03-28T17:23:45Z</time></trkpt><trkpt lat="45.623319268335806" lon="10.059239641626721"><ele>263.0</ele><time>2026-03-28T17:23:46Z</time></trkpt><trkpt lat="45.623375366783506" lon="10.05918332907332"><ele>263.0</ele><time>2026-03-28T17:23:47Z</time></trkpt><trkpt lat="45.623442026618264" lon="10.05917588486195"><ele>263.0</ele><time>2026-03-28T17:23:48Z</time></trkpt><trkpt lat="45.62352817563367" lon="10.059130452235651"><ele>263.0</ele><time>2026-03-28T17:23:49Z</time></trkpt><trkpt lat="45.62364014873001" lon="10.05907397325007"><ele>263.0</ele><time>2026-03-28T17:23:50Z</time></trkpt><trkpt lat="45.62376261073131" lon="10.05904950003012"><ele>263.0</ele><time>2026-03-28T17:23:51Z</time></trkpt><trkpt lat="45.62390083672103" lon="10.05899055905544"><ele>264.83333333333337</ele><time>2026-03-28T17:23:52Z</time></trkpt><trkpt lat="45.62399227366302" lon="10.058958171830751"><ele>266.6666666666667</ele><time>2026-03-28T17:23:53Z</time></trkpt><trkpt lat="45.62407702965679" lon="10.058857854723222"><ele>268.5</ele><time>2026-03-28T17:23:55Z</time></trkpt><trkpt lat="45.62409599609608" lon="10.058771783676201"><ele>270.3333333333333</ele><time>2026-03-28T17:23:56Z</time></trkpt><trkpt lat="45.62408389187718" lon="10.058662680779333"><ele>272.16666666666663</ele><time>2026-03-28T17:23:57Z</time></trkpt><trkpt lat="45.62404432698977" lon="10.05856657030401"><ele>274.0</ele><time>2026-03-28T17:23:58Z</time></trkpt><trkpt lat="45.624067582776505" lon="10.058450638942563"><ele>274.0</ele><time>2026-03-28T17:24:00Z</time></trkpt><trkpt lat="45.624129063126" lon="10.058409295786754"><ele>274.0</ele><time>2026-03-28T17:24:01Z</time></trkpt><trkpt lat="45.624207681108345" lon="10.058356820297078"><ele>274.0</ele><time>2026-03-28T17:24:02Z</time></trkpt><trkpt lat="45.624272165407135" lon="10.058322761931365"><ele>274.0</ele><time>2026-03-28T17:24:03Z</time></trkpt><trkpt lat="45.62439381632502" lon="10.058278501465805"><ele>274.0</ele><time>2026-03-28T17:24:05Z</time></trkpt><trkpt lat="45.62445696076346" lon="10.058257607561018"><ele>274.0</ele><time>2026-03-28T17:24:06Z</time></trkpt><trkpt lat="45.624547939050004" lon="10.058105259424481"><ele>278.4</ele><time>2026-03-28T17:24:08Z</time></trkpt><trkpt lat="45.624596955111926" lon="10.058047649686904"><ele>282.79999999999995</ele><time>2026-03-28T17:24:09Z</time></trkpt><trkpt lat="45.62460026296505" lon="10.057877105294864"><ele>287.20000000000005</ele><time>2026-03-28T17:24:11Z</time></trkpt><trkpt lat="45.62458266796585" lon="10.05777105473293"><ele>291.6</ele><time>2026-03-28T17:24:12Z</time></trkpt><trkpt lat="45.624570772602596" lon="10.057637590096505"><ele>296.0</ele><time>2026-03-28T17:24:13Z</time></trkpt><trkpt lat="45.624542896512764" lon="10.05749408837541"><ele>297.5</ele><time>2026-03-28T17:24:15Z</time></trkpt><trkpt lat="45.62445111264135" lon="10.057377019282931"><ele>299.0</ele><time>2026-03-28T17:24:17Z</time></trkpt><trkpt lat="45.624397761229076" lon="10.057324161037464"><ele>300.5</ele><time>2026-03-28T17:24:18Z</time></trkpt><trkpt lat="45.624328201283696" lon="10.057272223052456"><ele>302.0</ele><time>2026-03-28T17:24:19Z</time></trkpt><trkpt lat="45.62425554477303" lon="10.057212924984363"><ele>303.5</ele><time>2026-03-28T17:24:20Z</time></trkpt><trkpt lat="45.62419307964572" lon="10.057238361804103"><ele>305.0</ele><time>2026-03-28T17:24:21Z</time></trkpt><trkpt lat="45.62405347930222" lon="10.05710545619307"><ele>305.0</ele><time>2026-03-28T17:24:23Z</time></trkpt><trkpt lat="45.62396133160121" lon="10.057053972749438"><ele>305.0</ele><time>2026-03-28T17:24:24Z</time></trkpt><trkpt lat="45.62382126087274" lon="10.057018269997755"><ele>305.0</ele><time>2026-03-28T17:24:25Z</time></trkpt><trkpt lat="45.62371424282577" lon="10.056965181864777"><ele>305.0</ele><time>2026-03-28T17:24:26Z</time></trkpt><trkpt lat="45.62363153885954" lon="10.056938043459635"><ele>305.0</ele><time>2026-03-28T17:24:27Z</time></trkpt><trkpt lat="45.62355890028458" lon="10.05687542426222"><ele>305.4</ele><time>2026-03-28T17:24:28Z</time></trkpt><trkpt lat="45.62349183351606" lon="10.056805170365894"><ele>305.8</ele><time>2026-03-28T17:24:29Z</time></trkpt><trkpt lat="45.623392790691206" lon="10.0567079199095"><ele>306.2</ele><time>2026-03-28T17:24:31Z</time></trkpt><trkpt lat="45.62331313294627" lon="10.056748424342178"><ele>306.6</ele><time>2026-03-28T17:24:32Z</time></trkpt><trkpt lat="45.62321783610741" lon="10.056788616434618"><ele>307.0</ele><time>2026-03-28T17:24:33Z</time></trkpt><trkpt lat="45.62312036253562" lon="10.056788722103725"><ele>307.0</ele><time>2026-03-28T17:24:34Z</time></trkpt><trkpt lat="45.623029967062976" lon="10.056790019679518"><ele>307.0</ele><time>2026-03-28T17:24:35Z</time></trkpt><trkpt lat="45.62292948477022" lon="10.056802191422728"><ele>307.0</ele><time>2026-03-28T17:24:36Z</time></trkpt><trkpt lat="45.622818292515184" lon="10.056924186079618"><ele>307.0</ele><time>2026-03-28T17:24:37Z</time></trkpt><trkpt lat="45.622691438922594" lon="10.057025284432399"><ele>306.25</ele><time>2026-03-28T17:24:38Z</time></trkpt><trkpt lat="45.62254049553135" lon="10.057076744419547"><ele>305.5</ele><time>2026-03-28T17:24:39Z</time></trkpt><trkpt lat="45.622401281771246" lon="10.05711776948539"><ele>304.75</ele><time>2026-03-28T17:24:40Z</time></trkpt><trkpt lat="45.62226849286724" lon="10.057129017559346"><ele>304.0</ele><time>2026-03-28T17:24:41Z</time></trkpt><trkpt lat="45.62217280989189" lon="10.05715863862966"><ele>304.0</ele><time>2026-03-28T17:24:42Z</time></trkpt><trkpt lat="45.62206577492476" lon="10.05714926471754"><ele>304.0</ele><time>2026-03-28T17:24:43Z</time></trkpt><trkpt lat="45.62192109402045" lon="10.057120761820814"><ele>304.0</ele><time>2026-03-28T17:24:44Z</time></trkpt><trkpt lat="45.621785334417844" lon="10.05709213457843"><ele>304.0</ele><time>2026-03-28T17:24:45Z</time></trkpt><trkpt lat="45.62166690623944" lon="10.057101067119518"><ele>302.66666666666663</ele><time>2026-03-28T17:24:46Z</time></trkpt><trkpt lat="45.621578623144586" lon="10.057077922896044"><ele>301.3333333333333</ele><time>2026-03-28T17:24:47Z</time></trkpt><trkpt lat="45.62147280290524" lon="10.057074047058473"><ele>300.0</ele><time>2026-03-28T17:24:48Z</time></trkpt><trkpt lat="45.62139059609686" lon="10.05707714787095"><ele>298.6666666666667</ele><time>2026-03-28T17:24:49Z</time></trkpt><trkpt lat="45.62131374452924" lon="10.057111171639473"><ele>297.33333333333337</ele><time>2026-03-28T17:24:50Z</time></trkpt><trkpt lat="45.621245375663605" lon="10.057126669322852"><ele>296.0</ele><time>2026-03-28T17:24:51Z</time></trkpt><trkpt lat="45.62116030569017" lon="10.057091286482377"><ele>295.6</ele><time>2026-03-28T17:24:52Z</time></trkpt><trkpt lat="45.621047967501795" lon="10.05712239266228"><ele>295.20000000000005</ele><time>2026-03-28T17:24:53Z</time></trkpt><trkpt lat="45.620970563039386" lon="10.057132748159866"><ele>294.79999999999995</ele><time>2026-03-28T17:24:54Z</time></trkpt><trkpt lat="45.62089574031695" lon="10.057150396586874"><ele>294.4</ele><time>2026-03-28T17:24:55Z</time></trkpt><trkpt lat="45.620790202140654" lon="10.05716412334539"><ele>294.0</ele><time>2026-03-28T17:24:56Z</time></trkpt><trkpt lat="45.62068907898554" lon="10.057143167498511"><ele>294.0</ele><time>2026-03-28T17:24:57Z</time></trkpt><trkpt lat="45.62058892884258" lon="10.057111270718412"><ele>294.0</ele><time>2026-03-28T17:24:58Z</time></trkpt><trkpt lat="45.62047795990093" lon="10.057065335937752"><ele>294.0</ele><time>2026-03-28T17:24:59Z</time></trkpt><trkpt lat="45.620381201331966" lon="10.057067255415527"><ele>294.0</ele><time>2026-03-28T17:25:00Z</time></trkpt><trkpt lat="45.62029802955811" lon="10.05705452757365"><ele>294.0</ele><time>2026-03-28T17:25:01Z</time></trkpt><trkpt lat="45.620220362808105" lon="10.057097370812064"><ele>292.4</ele><time>2026-03-28T17:25:02Z</time></trkpt><trkpt lat="45.620141530540586" lon="10.057087107791968"><ele>290.79999999999995</ele><time>2026-03-28T17:25:03Z</time></trkpt><trkpt lat="45.62005452484485" lon="10.057089735591907"><ele>289.20000000000005</ele><time>2026-03-28T17:25:04Z</time></trkpt><trkpt lat="45.61997459633108" lon="10.057075596194318"><ele>287.6</ele><time>2026-03-28T17:25:05Z</time></trkpt><trkpt lat="45.61986687709564" lon="10.057043683794566"><ele>286.0</ele><time>2026-03-28T17:25:06Z</time></trkpt><trkpt lat="45.61973078821541" lon="10.05700607297533"><ele>286.0</ele><time>2026-03-28T17:25:07Z</time></trkpt><trkpt lat="45.619581247263255" lon="10.056967176768985"><ele>286.0</ele><time>2026-03-28T17:25:08Z</time></trkpt><trkpt lat="45.61939689151139" lon="10.056876686466584"><ele>286.0</ele><time>2026-03-28T17:25:09Z</time></trkpt><trkpt lat="45.61920849556545" lon="10.056792110249193"><ele>284.2</ele><time>2026-03-28T17:25:10Z</time></trkpt><trkpt lat="45.61907844790604" lon="10.056748073049812"><ele>282.40000000000003</ele><time>2026-03-28T17:25:11Z</time></trkpt><trkpt lat="45.618977318324205" lon="10.056703433174519"><ele>280.6</ele><time>2026-03-28T17:25:12Z</time></trkpt><trkpt lat="45.6189020445611" lon="10.056665628868299"><ele>278.8</ele><time>2026-03-28T17:25:13Z</time></trkpt><trkpt lat="45.618798688263006" lon="10.056619580498095"><ele>277.0</ele><time>2026-03-28T17:25:15Z</time></trkpt><trkpt lat="45.61868604195793" lon="10.056470748929826"><ele>280.5</ele><time>2026-03-28T17:25:17Z</time></trkpt><trkpt lat="45.618584183334214" lon="10.056359815364026"><ele>284.0</ele><time>2026-03-28T17:25:18Z</time></trkpt><trkpt lat="45.618486892123364" lon="10.056253818753527"><ele>287.5</ele><time>2026-03-28T17:25:19Z</time></trkpt><trkpt lat="45.61838078310328" lon="10.056171061411355"><ele>291.0</ele><time>2026-03-28T17:25:20Z</time></trkpt><trkpt lat="45.618284221374196" lon="10.056079879375673"><ele>291.0</ele><time>2026-03-28T17:25:21Z</time></trkpt><trkpt lat="45.6182080493086" lon="10.055963074679754"><ele>291.0</ele><time>2026-03-28T17:25:22Z</time></trkpt><trkpt lat="45.61813011626806" lon="10.055890664396655"><ele>291.0</ele><time>2026-03-28T17:25:23Z</time></trkpt><trkpt lat="45.618076652065575" lon="10.055832230153317"><ele>291.0</ele><time>2026-03-28T17:25:24Z</time></trkpt><trkpt lat="45.618038714069584" lon="10.055760022819108"><ele>291.0</ele><time>2026-03-28T17:25:25Z</time></trkpt><trkpt lat="45.61800396276604" lon="10.05565511630315"><ele>291.0</ele><time>2026-03-28T17:25:26Z</time></trkpt><trkpt lat="45.617940577565506" lon="10.05557053355698"><ele>293.40000000000003</ele><time>2026-03-28T17:25:27Z</time></trkpt><trkpt lat="45.61787241516832" lon="10.055493997125946"><ele>295.8</ele><time>2026-03-28T17:25:28Z</time></trkpt><trkpt lat="45.61779710513123" lon="10.05537023014592"><ele>298.20000000000005</ele><time>2026-03-28T17:25:29Z</time></trkpt><trkpt lat="45.61771833107467" lon="10.055284446097602"><ele>300.6</ele><time>2026-03-28T17:25:30Z</time></trkpt><trkpt lat="45.61764580667998" lon="10.055180874236392"><ele>303.0</ele><time>2026-03-28T17:25:31Z</time></trkpt><trkpt lat="45.61757599939623" lon="10.055070573536208"><ele>303.0</ele><time>2026-03-28T17:25:32Z</time></trkpt><trkpt lat="45.61751709277079" lon="10.054998822125818"><ele>303.0</ele><time>2026-03-28T17:25:33Z</time></trkpt><trkpt lat="45.61747577803886" lon="10.054900128736929"><ele>303.0</ele><time>2026-03-28T17:25:34Z</time></trkpt><trkpt lat="45.61743721507478" lon="10.054827488738725"><ele>303.0</ele><time>2026-03-28T17:25:35Z</time></trkpt><trkpt lat="45.6173969109389" lon="10.054736551452876"><ele>303.0</ele><time>2026-03-28T17:25:36Z</time></trkpt><trkpt lat="45.617364663354586" lon="10.054602162030983"><ele>303.0</ele><time>2026-03-28T17:25:38Z</time></trkpt><trkpt lat="45.617336025398586" lon="10.05447060162117"><ele>304.5</ele><time>2026-03-28T17:25:40Z</time></trkpt><trkpt lat="45.61728460610802" lon="10.054354514161766"><ele>306.0</ele><time>2026-03-28T17:25:42Z</time></trkpt><trkpt lat="45.61726535388968" lon="10.054241525728468"><ele>307.5</ele><time>2026-03-28T17:25:45Z</time></trkpt><trkpt lat="45.61721976285685" lon="10.054170536546533"><ele>309.0</ele><time>2026-03-28T17:25:48Z</time></trkpt><trkpt lat="45.61716967546278" lon="10.054089861672178"><ele>310.5</ele><time>2026-03-28T17:25:49Z</time></trkpt><trkpt lat="45.617100153744936" lon="10.054052918468342"><ele>312.0</ele><time>2026-03-28T17:25:50Z</time></trkpt><trkpt lat="45.617024310600314" lon="10.054002000184845"><ele>312.25</ele><time>2026-03-28T17:25:51Z</time></trkpt><trkpt lat="45.616913717925094" lon="10.053897142132827"><ele>312.5</ele><time>2026-03-28T17:25:53Z</time></trkpt><trkpt lat="45.61681689418455" lon="10.05383757092929"><ele>312.75</ele><time>2026-03-28T17:25:54Z</time></trkpt><trkpt lat="45.616699405931996" lon="10.053718653515636"><ele>313.0</ele><time>2026-03-28T17:25:55Z</time></trkpt><trkpt lat="45.61655427703955" lon="10.053642271147135"><ele>313.0</ele><time>2026-03-28T17:25:56Z</time></trkpt><trkpt lat="45.6164326817353" lon="10.053558192280931"><ele>313.0</ele><time>2026-03-28T17:25:57Z</time></trkpt><trkpt lat="45.61633942581799" lon="10.05347633805622"><ele>313.0</ele><time>2026-03-28T17:25:58Z</time></trkpt><trkpt lat="45.61626653490117" lon="10.053438603368852"><ele>313.0</ele><time>2026-03-28T17:25:59Z</time></trkpt><trkpt lat="45.61620240580915" lon="10.053381486556896"><ele>313.0</ele><time>2026-03-28T17:26:00Z</time></trkpt><trkpt lat="45.61610855464571" lon="10.053259701841267"><ele>311.0</ele><time>2026-03-28T17:26:02Z</time></trkpt><trkpt lat="45.615993181396824" lon="10.05324593990364"><ele>309.0</ele><time>2026-03-28T17:26:03Z</time></trkpt><trkpt lat="45.61589805192677" lon="10.053239280438685"><ele>307.0</ele><time>2026-03-28T17:26:04Z</time></trkpt><trkpt lat="45.6158252915026" lon="10.05319771627908"><ele>305.0</ele><time>2026-03-28T17:26:05Z</time></trkpt><trkpt lat="45.61575607099315" lon="10.053159120432662"><ele>303.0</ele><time>2026-03-28T17:26:06Z</time></trkpt><trkpt lat="45.615666322963385" lon="10.053061485957773"><ele>303.0</ele><time>2026-03-28T17:26:07Z</time></trkpt><trkpt lat="45.615585392338446" lon="10.052934050342463"><ele>303.0</ele><time>2026-03-28T17:26:08Z</time></trkpt><trkpt lat="45.615484945375826" lon="10.052751324860063"><ele>303.0</ele><time>2026-03-28T17:26:09Z</time></trkpt><trkpt lat="45.6153746822637" lon="10.052614457789698"><ele>303.0</ele><time>2026-03-28T17:26:10Z</time></trkpt><trkpt lat="45.61527425376541" lon="10.052498837100178"><ele>303.5</ele><time>2026-03-28T17:26:11Z</time></trkpt><trkpt lat="45.6151922218923" lon="10.05237362824801"><ele>304.0</ele><time>2026-03-28T17:26:12Z</time></trkpt><trkpt lat="45.61510100501128" lon="10.052256322223553"><ele>304.5</ele><time>2026-03-28T17:26:13Z</time></trkpt><trkpt lat="45.6150037090581" lon="10.052130322834909"><ele>305.0</ele><time>2026-03-28T17:26:14Z</time></trkpt><trkpt lat="45.614935783197836" lon="10.05204102996874"><ele>305.0</ele><time>2026-03-28T17:26:15Z</time></trkpt><trkpt lat="45.614891057420465" lon="10.051957146395372"><ele>305.0</ele><time>2026-03-28T17:26:16Z</time></trkpt><trkpt lat="45.61487992383038" lon="10.051850072090025"><ele>305.0</ele><time>2026-03-28T17:26:17Z</time></trkpt><trkpt lat="45.6148648116589" lon="10.051740888670604"><ele>305.0</ele><time>2026-03-28T17:26:18Z</time></trkpt><trkpt lat="45.61480059489397" lon="10.051623706081278"><ele>305.0</ele><time>2026-03-28T17:26:20Z</time></trkpt><trkpt lat="45.61467929448299" lon="10.051565193561755"><ele>303.6</ele><time>2026-03-28T17:26:22Z</time></trkpt><trkpt lat="45.61458505529157" lon="10.051557505297069"><ele>302.2</ele><time>2026-03-28T17:26:23Z</time></trkpt><trkpt lat="45.61447722295031" lon="10.051562462497857"><ele>300.8</ele><time>2026-03-28T17:26:24Z</time></trkpt><trkpt lat="45.61436428477563" lon="10.051573928116172"><ele>299.4</ele><time>2026-03-28T17:26:25Z</time></trkpt><trkpt lat="45.61424194754647" lon="10.051590166036553"><ele>298.0</ele><time>2026-03-28T17:26:26Z</time></trkpt><trkpt lat="45.61412622696763" lon="10.051611409698175"><ele>298.0</ele><time>2026-03-28T17:26:27Z</time></trkpt><trkpt lat="45.614028311422665" lon="10.051613118289172"><ele>298.0</ele><time>2026-03-28T17:26:28Z</time></trkpt><trkpt lat="45.61394981877327" lon="10.051639607906804"><ele>298.0</ele><time>2026-03-28T17:26:29Z</time></trkpt><trkpt lat="45.61387914250846" lon="10.05168668886815"><ele>298.0</ele><time>2026-03-28T17:26:30Z</time></trkpt><trkpt lat="45.613803128078196" lon="10.051761319160155"><ele>298.0</ele><time>2026-03-28T17:26:31Z</time></trkpt><trkpt lat="45.61371850616583" lon="10.051860523076178"><ele>296.25</ele><time>2026-03-28T17:26:32Z</time></trkpt><trkpt lat="45.61362520711702" lon="10.051950991018295"><ele>294.5</ele><time>2026-03-28T17:26:33Z</time></trkpt><trkpt lat="45.61353171112194" lon="10.052069788918576"><ele>292.75</ele><time>2026-03-28T17:26:34Z</time></trkpt><trkpt lat="45.613413063473956" lon="10.052200895867689"><ele>291.0</ele><time>2026-03-28T17:26:35Z</time></trkpt><trkpt lat="45.613307087665" lon="10.05235616958212"><ele>291.6</ele><time>2026-03-28T17:26:36Z</time></trkpt><trkpt lat="45.61321983439981" lon="10.052479754173676"><ele>292.20000000000005</ele><time>2026-03-28T17:26:37Z</time></trkpt><trkpt lat="45.613135388111075" lon="10.052580437174099"><ele>292.79999999999995</ele><time>2026-03-28T17:26:38Z</time></trkpt><trkpt lat="45.61304791305095" lon="10.052636340538651"><ele>293.4</ele><time>2026-03-28T17:26:39Z</time></trkpt><trkpt lat="45.61297982276837" lon="10.052700167169595"><ele>294.0</ele><time>2026-03-28T17:26:40Z</time></trkpt><trkpt lat="45.612915290813795" lon="10.052735115431727"><ele>294.0</ele><time>2026-03-28T17:26:41Z</time></trkpt><trkpt lat="45.61285047119914" lon="10.052687662746814"><ele>294.0</ele><time>2026-03-28T17:26:43Z</time></trkpt><trkpt lat="45.61280814795961" lon="10.052556891969477"><ele>294.0</ele><time>2026-03-28T17:26:45Z</time></trkpt><trkpt lat="45.61275131664975" lon="10.05261667842644"><ele>294.0</ele><time>2026-03-28T17:26:49Z</time></trkpt><trkpt lat="45.61269074939391" lon="10.052737258569254"><ele>294.0</ele><time>2026-03-28T17:26:50Z</time></trkpt><trkpt lat="45.61265013413442" lon="10.052890746352576"><ele>293.8</ele><time>2026-03-28T17:26:51Z</time></trkpt><trkpt lat="45.61262283370456" lon="10.053034645499014"><ele>293.59999999999997</ele><time>2026-03-28T17:26:52Z</time></trkpt><trkpt lat="45.612597813951886" lon="10.053144628036886"><ele>293.4</ele><time>2026-03-28T17:26:53Z</time></trkpt><trkpt lat="45.6125589968283" lon="10.053237576995093"><ele>293.2</ele><time>2026-03-28T17:26:54Z</time></trkpt><trkpt lat="45.61244028843919" lon="10.053336244684898"><ele>293.0</ele><time>2026-03-28T17:26:56Z</time></trkpt><trkpt lat="45.61231299604775" lon="10.053334177821599"><ele>290.25</ele><time>2026-03-28T17:26:57Z</time></trkpt><trkpt lat="45.61219490279686" lon="10.053347847737871"><ele>287.5</ele><time>2026-03-28T17:26:58Z</time></trkpt><trkpt lat="45.61209416370659" lon="10.053361256615903"><ele>284.75</ele><time>2026-03-28T17:26:59Z</time></trkpt><trkpt lat="45.611970515490526" lon="10.053365824897995"><ele>282.0</ele><time>2026-03-28T17:27:00Z</time></trkpt><trkpt lat="45.6118507641653" lon="10.053349510696632"><ele>283.0</ele><time>2026-03-28T17:27:01Z</time></trkpt><trkpt lat="45.61169480982727" lon="10.05328601347267"><ele>284.0</ele><time>2026-03-28T17:27:02Z</time></trkpt><trkpt lat="45.61156825823354" lon="10.053229501265285"><ele>285.0</ele><time>2026-03-28T17:27:03Z</time></trkpt><trkpt lat="45.611506882562864" lon="10.053199864125041"><ele>286.0</ele><time>2026-03-28T17:27:04Z</time></trkpt><trkpt lat="45.611436520171736" lon="10.053220415764198"><ele>287.0</ele><time>2026-03-28T17:27:05Z</time></trkpt><trkpt lat="45.61137121419661" lon="10.053266290715436"><ele>283.6</ele><time>2026-03-28T17:27:06Z</time></trkpt><trkpt lat="45.61131128315061" lon="10.053343109166027"><ele>280.2</ele><time>2026-03-28T17:27:07Z</time></trkpt><trkpt lat="45.611276543989575" lon="10.053451051081709"><ele>276.8</ele><time>2026-03-28T17:27:08Z</time></trkpt><trkpt lat="45.611242233095545" lon="10.053551298235686"><ele>273.4</ele><time>2026-03-28T17:27:09Z</time></trkpt><trkpt lat="45.61120177630641" lon="10.053645313021725"><ele>270.0</ele><time>2026-03-28T17:27:11Z</time></trkpt><trkpt lat="45.61109403557315" lon="10.053534872996625"><ele>270.25</ele><time>2026-03-28T17:27:14Z</time></trkpt><trkpt lat="45.611009116925764" lon="10.053513200888531"><ele>270.5</ele><time>2026-03-28T17:27:15Z</time></trkpt><trkpt lat="45.610896854282885" lon="10.053438191872965"><ele>270.75</ele><time>2026-03-28T17:27:16Z</time></trkpt><trkpt lat="45.61074774659927" lon="10.053284139660395"><ele>271.0</ele><time>2026-03-28T17:27:17Z</time></trkpt><trkpt lat="45.6105625560259" lon="10.053113339078338"><ele>271.0</ele><time>2026-03-28T17:27:18Z</time></trkpt><trkpt lat="45.61036554715518" lon="10.052935361472283"><ele>271.0</ele><time>2026-03-28T17:27:19Z</time></trkpt><trkpt lat="45.61021911308641" lon="10.05281944482374"><ele>271.0</ele><time>2026-03-28T17:27:20Z</time></trkpt><trkpt lat="45.610124281483486" lon="10.052728229379877"><ele>268.8333333333333</ele><time>2026-03-28T17:27:21Z</time></trkpt><trkpt lat="45.61005366669949" lon="10.05265942511648"><ele>266.66666666666663</ele><time>2026-03-28T17:27:22Z</time></trkpt><trkpt lat="45.609947503003696" lon="10.052666571390498"><ele>264.5</ele><time>2026-03-28T17:27:24Z</time></trkpt><trkpt lat="45.60990060139937" lon="10.052733566463864"><ele>262.3333333333333</ele><time>2026-03-28T17:27:25Z</time></trkpt><trkpt lat="45.60985663486645" lon="10.052810526938524"><ele>260.1666666666667</ele><time>2026-03-28T17:27:26Z</time></trkpt><trkpt lat="45.60977399877464" lon="10.0529141993861"><ele>258.0</ele><time>2026-03-28T17:27:28Z</time></trkpt><trkpt lat="45.609673675689784" lon="10.052940091729587"><ele>258.0</ele><time>2026-03-28T17:27:30Z</time></trkpt><trkpt lat="45.60956306533019" lon="10.052838554248519"><ele>258.0</ele><time>2026-03-28T17:27:32Z</time></trkpt><trkpt lat="45.60950832082091" lon="10.052790166111677"><ele>258.0</ele><time>2026-03-28T17:27:33Z</time></trkpt><trkpt lat="45.609445694288695" lon="10.052780361405812"><ele>258.0</ele><time>2026-03-28T17:27:34Z</time></trkpt><trkpt lat="45.60934451474788" lon="10.052766263573126"><ele>258.0</ele><time>2026-03-28T17:27:35Z</time></trkpt><trkpt lat="45.609236745737185" lon="10.052727861123541"><ele>257.5</ele><time>2026-03-28T17:27:36Z</time></trkpt><trkpt lat="45.60912520754058" lon="10.052672962204074"><ele>257.0</ele><time>2026-03-28T17:27:37Z</time></trkpt><trkpt lat="45.60900142792395" lon="10.052628805315305"><ele>256.5</ele><time>2026-03-28T17:27:38Z</time></trkpt><trkpt lat="45.60888127061426" lon="10.052575542432749"><ele>256.0</ele><time>2026-03-28T17:27:39Z</time></trkpt><trkpt lat="45.608752722913906" lon="10.05251967100411"><ele>255.20000000000002</ele><time>2026-03-28T17:27:40Z</time></trkpt><trkpt lat="45.60861768897745" lon="10.052463221690198"><ele>254.40000000000003</ele><time>2026-03-28T17:27:41Z</time></trkpt><trkpt lat="45.60848137732777" lon="10.052413836775147"><ele>253.6</ele><time>2026-03-28T17:27:42Z</time></trkpt><trkpt lat="45.6083870673509" lon="10.052381359235357"><ele>252.8</ele><time>2026-03-28T17:27:43Z</time></trkpt><trkpt lat="45.60832036724828" lon="10.05236199678915"><ele>252.0</ele><time>2026-03-28T17:27:44Z</time></trkpt><trkpt lat="45.60819420334078" lon="10.052276976002528"><ele>254.6</ele><time>2026-03-28T17:27:46Z</time></trkpt><trkpt lat="45.6080959702897" lon="10.052198524263227"><ele>257.2</ele><time>2026-03-28T17:27:47Z</time></trkpt><trkpt lat="45.60803802571123" lon="10.052091999986677"><ele>259.8</ele><time>2026-03-28T17:27:48Z</time></trkpt><trkpt lat="45.60799080583547" lon="10.052001485774484"><ele>262.4</ele><time>2026-03-28T17:27:49Z</time></trkpt><trkpt lat="45.60791685244796" lon="10.051826563456142"><ele>265.0</ele><time>2026-03-28T17:27:51Z</time></trkpt><trkpt lat="45.607919543036" lon="10.051648451308107"><ele>268.75</ele><time>2026-03-28T17:27:53Z</time></trkpt><trkpt lat="45.60789220327407" lon="10.051544327370802"><ele>272.5</ele><time>2026-03-28T17:27:54Z</time></trkpt><trkpt lat="45.60777298760449" lon="10.051529404810427"><ele>276.25</ele><time>2026-03-28T17:27:55Z</time></trkpt><trkpt lat="45.60761746957861" lon="10.051459095742162"><ele>280.0</ele><time>2026-03-28T17:27:56Z</time></trkpt><trkpt lat="45.60743579542488" lon="10.05134702485973"><ele>280.0</ele><time>2026-03-28T17:27:57Z</time></trkpt><trkpt lat="45.60723829590063" lon="10.051204838521057"><ele>280.0</ele><time>2026-03-28T17:27:58Z</time></trkpt><trkpt lat="45.6070576104967" lon="10.051105000728105"><ele>280.0</ele><time>2026-03-28T17:27:59Z</time></trkpt><trkpt lat="45.60692328782547" lon="10.051016370809648"><ele>275.5</ele><time>2026-03-28T17:28:00Z</time></trkpt><trkpt lat="45.60681494583029" lon="10.05093178796696"><ele>271.0</ele><time>2026-03-28T17:28:01Z</time></trkpt><trkpt lat="45.60672428652623" lon="10.050876842472627"><ele>266.5</ele><time>2026-03-28T17:28:02Z</time></trkpt><trkpt lat="45.606604509603514" lon="10.05088936820368"><ele>262.0</ele><time>2026-03-28T17:28:04Z</time></trkpt><trkpt lat="45.60649157103309" lon="10.050849690637675"><ele>261.5</ele><time>2026-03-28T17:28:06Z</time></trkpt><trkpt lat="45.606402255979845" lon="10.050735500111818"><ele>261.0</ele><time>2026-03-28T17:28:07Z</time></trkpt><trkpt lat="45.606260272567205" lon="10.050674475606588"><ele>260.5</ele><time>2026-03-28T17:28:08Z</time></trkpt><trkpt lat="45.60610476732798" lon="10.050618990616718"><ele>260.0</ele><time>2026-03-28T17:28:09Z</time></trkpt><trkpt lat="45.60597474802045" lon="10.05055836953041"><ele>260.0</ele><time>2026-03-28T17:28:10Z</time></trkpt><trkpt lat="45.60587524989285" lon="10.050489164156454"><ele>260.0</ele><time>2026-03-28T17:28:11Z</time></trkpt><trkpt lat="45.60574401751741" lon="10.05035977729556"><ele>260.0</ele><time>2026-03-28T17:28:12Z</time></trkpt><trkpt lat="45.60558672710943" lon="10.050239730923387"><ele>260.0</ele><time>2026-03-28T17:28:13Z</time></trkpt><trkpt lat="45.60547854170721" lon="10.0501669756252"><ele>260.0</ele><time>2026-03-28T17:28:14Z</time></trkpt><trkpt lat="45.60541158063821" lon="10.050119084762208"><ele>260.0</ele><time>2026-03-28T17:28:15Z</time></trkpt><trkpt lat="45.60533356353471" lon="10.050127253807787"><ele>260.0</ele><time>2026-03-28T17:28:17Z</time></trkpt><trkpt lat="45.60526646985058" lon="10.05008995480065"><ele>260.0</ele><time>2026-03-28T17:28:19Z</time></trkpt><trkpt lat="45.60512836766465" lon="10.049994967294882"><ele>260.0</ele><time>2026-03-28T17:28:20Z</time></trkpt><trkpt lat="45.60496982482826" lon="10.049884675753287"><ele>260.2</ele><time>2026-03-28T17:28:21Z</time></trkpt><trkpt lat="45.60481763058458" lon="10.049752068495795"><ele>260.4</ele><time>2026-03-28T17:28:22Z</time></trkpt><trkpt lat="45.60471645576771" lon="10.049681531833171"><ele>260.6</ele><time>2026-03-28T17:28:23Z</time></trkpt><trkpt lat="45.60468247923738" lon="10.04955993825309"><ele>260.8</ele><time>2026-03-28T17:28:25Z</time></trkpt><trkpt lat="45.60469290574517" lon="10.049467148427102"><ele>261.0</ele><time>2026-03-28T17:28:26Z</time></trkpt><trkpt lat="45.60466883723485" lon="10.049374665644539"><ele>261.0</ele><time>2026-03-28T17:28:28Z</time></trkpt><trkpt lat="45.60455331318938" lon="10.04931877271086"><ele>261.0</ele><time>2026-03-28T17:28:29Z</time></trkpt><trkpt lat="45.60443060536961" lon="10.049208533013612"><ele>261.0</ele><time>2026-03-28T17:28:30Z</time></trkpt><trkpt lat="45.60427399124812" lon="10.049041119771568"><ele>261.6666666666667</ele><time>2026-03-28T17:28:31Z</time></trkpt><trkpt lat="45.604097103938656" lon="10.048871896854335"><ele>262.33333333333337</ele><time>2026-03-28T17:28:32Z</time></trkpt><trkpt lat="45.603918570289096" lon="10.048691375268584"><ele>263.0</ele><time>2026-03-28T17:28:33Z</time></trkpt><trkpt lat="45.60376754231579" lon="10.048545341037249"><ele>260.5</ele><time>2026-03-28T17:28:34Z</time></trkpt><trkpt lat="45.603642179613956" lon="10.048413636835107"><ele>258.0</ele><time>2026-03-28T17:28:35Z</time></trkpt><trkpt lat="45.603543922432834" lon="10.048307150857967"><ele>255.5</ele><time>2026-03-28T17:28:36Z</time></trkpt><trkpt lat="45.60346408799787" lon="10.048231095255609"><ele>253.0</ele><time>2026-03-28T17:28:37Z</time></trkpt><trkpt lat="45.603400743774806" lon="10.048159306330282"><ele>253.0</ele><time>2026-03-28T17:28:38Z</time></trkpt><trkpt lat="45.60334327894231" lon="10.048107254724107"><ele>253.0</ele><time>2026-03-28T17:28:39Z</time></trkpt><trkpt lat="45.60329098674278" lon="10.04805559925082"><ele>253.0</ele><time>2026-03-28T17:28:40Z</time></trkpt><trkpt lat="45.60323312264155" lon="10.04790846858895"><ele>253.0</ele><time>2026-03-28T17:28:42Z</time></trkpt><trkpt lat="45.60321850143412" lon="10.047764443418325"><ele>253.0</ele><time>2026-03-28T17:28:43Z</time></trkpt><trkpt lat="45.60320916805145" lon="10.047583026551386"><ele>253.0</ele><time>2026-03-28T17:28:44Z</time></trkpt><trkpt lat="45.60321371565146" lon="10.04746359316195"><ele>253.0</ele><time>2026-03-28T17:28:45Z</time></trkpt><trkpt lat="45.603233293496004" lon="10.047343681093407"><ele>253.0</ele><time>2026-03-28T17:28:46Z</time></trkpt><trkpt lat="45.60327725541499" lon="10.047145347500097"><ele>253.0</ele><time>2026-03-28T17:28:47Z</time></trkpt><trkpt lat="45.603333925261154" lon="10.046890611730657"><ele>254.5</ele><time>2026-03-28T17:28:48Z</time></trkpt><trkpt lat="45.60337744932323" lon="10.04669537291702"><ele>256.0</ele><time>2026-03-28T17:28:49Z</time></trkpt><trkpt lat="45.60340788885057" lon="10.046558130247162"><ele>257.5</ele><time>2026-03-28T17:28:50Z</time></trkpt><trkpt lat="45.60341437670639" lon="10.046465424275405"><ele>259.0</ele><time>2026-03-28T17:28:51Z</time></trkpt><trkpt lat="45.603267847569754" lon="10.046295862261474"><ele>260.2</ele><time>2026-03-28T17:28:53Z</time></trkpt><trkpt lat="45.6031849451741" lon="10.046197033107848"><ele>261.4</ele><time>2026-03-28T17:28:54Z</time></trkpt><trkpt lat="45.60313857066941" lon="10.04609756395286"><ele>262.6</ele><time>2026-03-28T17:28:56Z</time></trkpt><trkpt lat="45.60319027061583" lon="10.045983056563475"><ele>263.8</ele><time>2026-03-28T17:28:58Z</time></trkpt><trkpt lat="45.60326916732843" lon="10.045861230585833"><ele>265.0</ele><time>2026-03-28T17:28:59Z</time></trkpt><trkpt lat="45.60333733841189" lon="10.045680230588124"><ele>268.0</ele><time>2026-03-28T17:29:00Z</time></trkpt><trkpt lat="45.603398860224786" lon="10.045499461519022"><ele>271.0</ele><time>2026-03-28T17:29:01Z</time></trkpt><trkpt lat="45.60347214207846" lon="10.045339286557912"><ele>274.0</ele><time>2026-03-28T17:29:02Z</time></trkpt><trkpt lat="45.60350867829144" lon="10.045205821851415"><ele>277.0</ele><time>2026-03-28T17:29:03Z</time></trkpt><trkpt lat="45.603564100161854" lon="10.045095538498993"><ele>277.0</ele><time>2026-03-28T17:29:04Z</time></trkpt><trkpt lat="45.60366265275945" lon="10.044965590790545"><ele>277.0</ele><time>2026-03-28T17:29:05Z</time></trkpt><trkpt lat="45.60377761602669" lon="10.0447892623176"><ele>277.0</ele><time>2026-03-28T17:29:06Z</time></trkpt><trkpt lat="45.60384793760474" lon="10.044622909442118"><ele>277.0</ele><time>2026-03-28T17:29:07Z</time></trkpt><trkpt lat="45.60391348848273" lon="10.044464021204517"><ele>276.5</ele><time>2026-03-28T17:29:08Z</time></trkpt><trkpt lat="45.60396731082451" lon="10.044297471146818"><ele>276.0</ele><time>2026-03-28T17:29:09Z</time></trkpt><trkpt lat="45.604018717886" lon="10.044121317736021"><ele>275.5</ele><time>2026-03-28T17:29:10Z</time></trkpt><trkpt lat="45.604085247778116" lon="10.04396282635829"><ele>275.0</ele><time>2026-03-28T17:29:11Z</time></trkpt><trkpt lat="45.604176444168594" lon="10.043798858096157"><ele>275.0</ele><time>2026-03-28T17:29:12Z</time></trkpt><trkpt lat="45.604309607663986" lon="10.043612577667552"><ele>275.0</ele><time>2026-03-28T17:29:13Z</time></trkpt><trkpt lat="45.604451809735835" lon="10.043431506461959"><ele>275.0</ele><time>2026-03-28T17:29:14Z</time></trkpt><trkpt lat="45.60457918513982" lon="10.04330661033028"><ele>273.0</ele><time>2026-03-28T17:29:15Z</time></trkpt><trkpt lat="45.6046915489013" lon="10.043213202106319"><ele>271.0</ele><time>2026-03-28T17:29:16Z</time></trkpt><trkpt lat="45.60480162901189" lon="10.043133221387198"><ele>269.0</ele><time>2026-03-28T17:29:17Z</time></trkpt><trkpt lat="45.60488631589283" lon="10.043081933771392"><ele>267.0</ele><time>2026-03-28T17:29:18Z</time></trkpt><trkpt lat="45.604947238371075" lon="10.04295612275435"><ele>267.0</ele><time>2026-03-28T17:29:19Z</time></trkpt><trkpt lat="45.605058255186314" lon="10.042911748114436"><ele>267.0</ele><time>2026-03-28T17:29:20Z</time></trkpt><trkpt lat="45.605181587143484" lon="10.042880156672167"><ele>267.0</ele><time>2026-03-28T17:29:21Z</time></trkpt><trkpt lat="45.605307166996596" lon="10.042850706031434"><ele>267.0</ele><time>2026-03-28T17:29:22Z</time></trkpt><trkpt lat="45.605408903467016" lon="10.04282834515931"><ele>266.0</ele><time>2026-03-28T17:29:23Z</time></trkpt><trkpt lat="45.60550055481842" lon="10.04281199105716"><ele>265.0</ele><time>2026-03-28T17:29:24Z</time></trkpt><trkpt lat="45.60558737152202" lon="10.042804992456574"><ele>264.0</ele><time>2026-03-28T17:29:25Z</time></trkpt><trkpt lat="45.60566007924152" lon="10.042784511022862"><ele>263.0</ele><time>2026-03-28T17:29:26Z</time></trkpt><trkpt lat="45.60573471347707" lon="10.042815214454295"><ele>262.0</ele><time>2026-03-28T17:29:27Z</time></trkpt><trkpt lat="45.60581171644515" lon="10.042813168971977"><ele>261.0</ele><time>2026-03-28T17:29:28Z</time></trkpt><trkpt lat="45.60588641849927" lon="10.042796783505693"><ele>261.0</ele><time>2026-03-28T17:29:29Z</time></trkpt><trkpt lat="45.60597474809914" lon="10.042786708024284"><ele>261.0</ele><time>2026-03-28T17:29:31Z</time></trkpt><trkpt lat="45.60601670362892" lon="10.042559079201718"><ele>261.0</ele><time>2026-03-28T17:29:32Z</time></trkpt><trkpt lat="45.60608031170761" lon="10.042420040392052"><ele>261.0</ele><time>2026-03-28T17:29:33Z</time></trkpt><trkpt lat="45.60614859048761" lon="10.042285135171106"><ele>260.1666666666667</ele><time>2026-03-28T17:29:34Z</time></trkpt><trkpt lat="45.606202752962226" lon="10.042175198776066"><ele>259.3333333333333</ele><time>2026-03-28T17:29:35Z</time></trkpt><trkpt lat="45.6062570404743" lon="10.04207295922628"><ele>258.5</ele><time>2026-03-28T17:29:36Z</time></trkpt><trkpt lat="45.606314825441586" lon="10.041978561755617"><ele>257.66666666666663</ele><time>2026-03-28T17:29:37Z</time></trkpt><trkpt lat="45.60636454981266" lon="10.041892082910666"><ele>256.8333333333333</ele><time>2026-03-28T17:29:38Z</time></trkpt><trkpt lat="45.60640916973022" lon="10.041808963436278"><ele>256.0</ele><time>2026-03-28T17:29:39Z</time></trkpt><trkpt lat="45.60645522036493" lon="10.041738677369326"><ele>255.4</ele><time>2026-03-28T17:29:40Z</time></trkpt><trkpt lat="45.60653154369425" lon="10.041594208973239"><ele>254.8</ele><time>2026-03-28T17:29:42Z</time></trkpt><trkpt lat="45.606578988426676" lon="10.04151852240633"><ele>254.20000000000002</ele><time>2026-03-28T17:29:43Z</time></trkpt><trkpt lat="45.60663247274434" lon="10.041418791615275"><ele>253.60000000000002</ele><time>2026-03-28T17:29:44Z</time></trkpt><trkpt lat="45.606689402002836" lon="10.04129144967116"><ele>253.0</ele><time>2026-03-28T17:29:45Z</time></trkpt><trkpt lat="45.60676111614374" lon="10.041126952347176"><ele>253.0</ele><time>2026-03-28T17:29:46Z</time></trkpt><trkpt lat="45.60683184639175" lon="10.040918065099701"><ele>253.0</ele><time>2026-03-28T17:29:47Z</time></trkpt><trkpt lat="45.60689424453158" lon="10.040711957429874"><ele>253.0</ele><time>2026-03-28T17:29:48Z</time></trkpt><trkpt lat="45.60692580296105" lon="10.040574473574704"><ele>253.0</ele><time>2026-03-28T17:29:49Z</time></trkpt><trkpt lat="45.60698106518416" lon="10.040452177278842"><ele>252.33333333333331</ele><time>2026-03-28T17:29:52Z</time></trkpt><trkpt lat="45.606954416671684" lon="10.040147405957862"><ele>251.66666666666669</ele><time>2026-03-28T17:29:54Z</time></trkpt><trkpt lat="45.60694144556791" lon="10.03994652844408"><ele>251.0</ele><time>2026-03-28T17:29:55Z</time></trkpt><trkpt lat="45.60691696155066" lon="10.039736009115922"><ele>251.0</ele><time>2026-03-28T17:29:56Z</time></trkpt><trkpt lat="45.6068903385172" lon="10.039570584604629"><ele>251.00000000000003</ele><time>2026-03-28T17:29:57Z</time></trkpt><trkpt lat="45.60687660752203" lon="10.039455310333574"><ele>251.00000000000003</ele><time>2026-03-28T17:29:58Z</time></trkpt><trkpt lat="45.60687941880788" lon="10.039358831491912"><ele>251.0</ele><time>2026-03-28T17:30:00Z</time></trkpt><trkpt lat="45.6068857766638" lon="10.03923868814324"><ele>251.0</ele><time>2026-03-28T17:30:02Z</time></trkpt><trkpt lat="45.60673903651466" lon="10.03912108057618"><ele>250.66666666666669</ele><time>2026-03-28T17:30:03Z</time></trkpt><trkpt lat="45.606640773658526" lon="10.038994882511764"><ele>250.33333333333331</ele><time>2026-03-28T17:30:04Z</time></trkpt><trkpt lat="45.60652455417462" lon="10.038843591909709"><ele>250.0</ele><time>2026-03-28T17:30:05Z</time></trkpt><trkpt lat="45.606408899698565" lon="10.038666097293596"><ele>250.0</ele><time>2026-03-28T17:30:06Z</time></trkpt><trkpt lat="45.60630726942607" lon="10.038506848291348"><ele>250.0</ele><time>2026-03-28T17:30:07Z</time></trkpt><trkpt lat="45.606201939942636" lon="10.038350074512534"><ele>250.0</ele><time>2026-03-28T17:30:08Z</time></trkpt><trkpt lat="45.60610370634864" lon="10.038212249268243"><ele>250.0</ele><time>2026-03-28T17:30:09Z</time></trkpt><trkpt lat="45.60602310076717" lon="10.03811628136318"><ele>251.0</ele><time>2026-03-28T17:30:10Z</time></trkpt><trkpt lat="45.605970299683776" lon="10.038023300142507"><ele>252.0</ele><time>2026-03-28T17:30:11Z</time></trkpt><trkpt lat="45.60594082761179" lon="10.037890658285614"><ele>253.0</ele><time>2026-03-28T17:30:13Z</time></trkpt><trkpt lat="45.606050948571436" lon="10.037767019320398"><ele>254.0</ele><time>2026-03-28T17:30:15Z</time></trkpt><trkpt lat="45.60609216077241" lon="10.037642376220525"><ele>255.0</ele><time>2026-03-28T17:30:17Z</time></trkpt><trkpt lat="45.606009955141445" lon="10.037544217521265"><ele>254.4</ele><time>2026-03-28T17:30:18Z</time></trkpt><trkpt lat="45.605946374667106" lon="10.0374476884528"><ele>253.8</ele><time>2026-03-28T17:30:19Z</time></trkpt><trkpt lat="45.6058819304236" lon="10.037334717207981"><ele>253.2</ele><time>2026-03-28T17:30:20Z</time></trkpt><trkpt lat="45.60581561078102" lon="10.037220074778617"><ele>252.6</ele><time>2026-03-28T17:30:21Z</time></trkpt><trkpt lat="45.60574514776285" lon="10.037093026496933"><ele>252.0</ele><time>2026-03-28T17:30:22Z</time></trkpt><trkpt lat="45.60567014011294" lon="10.036958867001168"><ele>252.0</ele><time>2026-03-28T17:30:23Z</time></trkpt><trkpt lat="45.60558455799223" lon="10.036827537403603"><ele>252.0</ele><time>2026-03-28T17:30:24Z</time></trkpt><trkpt lat="45.60550142954368" lon="10.036684930880137"><ele>252.0</ele><time>2026-03-28T17:30:25Z</time></trkpt><trkpt lat="45.605406441872375" lon="10.03652487042769"><ele>252.0</ele><time>2026-03-28T17:30:26Z</time></trkpt><trkpt lat="45.60531676583161" lon="10.036364344555244"><ele>250.75</ele><time>2026-03-28T17:30:27Z</time></trkpt><trkpt lat="45.60523027615802" lon="10.03622253418254"><ele>249.5</ele><time>2026-03-28T17:30:28Z</time></trkpt><trkpt lat="45.60516662319146" lon="10.036083655782038"><ele>248.25</ele><time>2026-03-28T17:30:29Z</time></trkpt><trkpt lat="45.605132243236824" lon="10.035930858986557"><ele>247.0</ele><time>2026-03-28T17:30:30Z</time></trkpt><trkpt lat="45.605080661619546" lon="10.035818974091468"><ele>246.49999999999997</ele><time>2026-03-28T17:30:31Z</time></trkpt><trkpt lat="45.605034271938514" lon="10.035721561952226"><ele>246.0</ele><time>2026-03-28T17:30:32Z</time></trkpt><trkpt lat="45.60499085283591" lon="10.035643362139561"><ele>245.5</ele><time>2026-03-28T17:30:33Z</time></trkpt><trkpt lat="45.60493518309887" lon="10.035579842494114"><ele>245.0</ele><time>2026-03-28T17:30:34Z</time></trkpt><trkpt lat="45.604904172218525" lon="10.035401388818919"><ele>244.49999999999997</ele><time>2026-03-28T17:30:36Z</time></trkpt><trkpt lat="45.60490737984738" lon="10.035281997139066"><ele>244.0</ele><time>2026-03-28T17:30:37Z</time></trkpt><trkpt lat="45.6049496317077" lon="10.035141467858496"><ele>242.75</ele><time>2026-03-28T17:30:38Z</time></trkpt><trkpt lat="45.60502098509434" lon="10.034917833775278"><ele>241.5</ele><time>2026-03-28T17:30:39Z</time></trkpt><trkpt lat="45.60507392953001" lon="10.034704227682214"><ele>240.25</ele><time>2026-03-28T17:30:40Z</time></trkpt><trkpt lat="45.60511406951464" lon="10.03460417769498"><ele>239.0</ele><time>2026-03-28T17:30:41Z</time></trkpt><trkpt lat="45.60521251315571" lon="10.034485257723183"><ele>239.0</ele><time>2026-03-28T17:30:43Z</time></trkpt><trkpt lat="45.60531249297836" lon="10.034463682611214"><ele>239.0</ele><time>2026-03-28T17:30:44Z</time></trkpt><trkpt lat="45.605439561827254" lon="10.03441339755903"><ele>239.0</ele><time>2026-03-28T17:30:45Z</time></trkpt><trkpt lat="45.60555298095233" lon="10.034343947747173"><ele>239.0</ele><time>2026-03-28T17:30:46Z</time></trkpt><trkpt lat="45.605632552797346" lon="10.034205001134197"><ele>237.0</ele><time>2026-03-28T17:30:47Z</time></trkpt><trkpt lat="45.60573231389372" lon="10.0340678763729"><ele>235.0</ele><time>2026-03-28T17:30:48Z</time></trkpt><trkpt lat="45.60581235081016" lon="10.03387975388524"><ele>233.0</ele><time>2026-03-28T17:30:49Z</time></trkpt><trkpt lat="45.605887405349414" lon="10.033709691009122"><ele>231.0</ele><time>2026-03-28T17:30:50Z</time></trkpt><trkpt lat="45.60597661964623" lon="10.033566111129197"><ele>231.0</ele><time>2026-03-28T17:30:51Z</time></trkpt><trkpt lat="45.60603143316378" lon="10.033385718122588"><ele>231.0</ele><time>2026-03-28T17:30:52Z</time></trkpt><trkpt lat="45.60607255756979" lon="10.033209198440382"><ele>231.0</ele><time>2026-03-28T17:30:53Z</time></trkpt><trkpt lat="45.60610161986936" lon="10.033028459788323"><ele>231.0</ele><time>2026-03-28T17:30:54Z</time></trkpt><trkpt lat="45.60616451102398" lon="10.032879010930417"><ele>230.0</ele><time>2026-03-28T17:30:55Z</time></trkpt><trkpt lat="45.60620015840165" lon="10.032752317943158"><ele>229.0</ele><time>2026-03-28T17:30:56Z</time></trkpt><trkpt lat="45.60623534597154" lon="10.03264990370882"><ele>228.0</ele><time>2026-03-28T17:30:57Z</time></trkpt><trkpt lat="45.60623569367083" lon="10.032517566280182"><ele>227.0</ele><time>2026-03-28T17:30:59Z</time></trkpt><trkpt lat="45.60616456798374" lon="10.032434127550331"><ele>226.0</ele><time>2026-03-28T17:31:00Z</time></trkpt><trkpt lat="45.60610019724904" lon="10.032386000852588"><ele>225.0</ele><time>2026-03-28T17:31:01Z</time></trkpt><trkpt lat="45.606025204798456" lon="10.032320427076172"><ele>224.83333333333334</ele><time>2026-03-28T17:31:02Z</time></trkpt><trkpt lat="45.605948630739825" lon="10.032243636741532"><ele>224.66666666666669</ele><time>2026-03-28T17:31:03Z</time></trkpt><trkpt lat="45.605874613099814" lon="10.032167101462393"><ele>224.5</ele><time>2026-03-28T17:31:04Z</time></trkpt><trkpt lat="45.60581057371122" lon="10.032090698110471"><ele>224.33333333333334</ele><time>2026-03-28T17:31:05Z</time></trkpt><trkpt lat="45.6057525130908" lon="10.032010378524523"><ele>224.16666666666669</ele><time>2026-03-28T17:31:06Z</time></trkpt><trkpt lat="45.60571080478302" lon="10.031939520241544"><ele>224.0</ele><time>2026-03-28T17:31:07Z</time></trkpt><trkpt lat="45.605674668434716" lon="10.031785436612482"><ele>224.00000000000003</ele><time>2026-03-28T17:31:09Z</time></trkpt><trkpt lat="45.60571090230882" lon="10.031686772900466"><ele>224.0</ele><time>2026-03-28T17:31:10Z</time></trkpt><trkpt lat="45.605770936848685" lon="10.031598660224399"><ele>224.0</ele><time>2026-03-28T17:31:11Z</time></trkpt><trkpt lat="45.60581903115446" lon="10.031505645962197"><ele>224.0</ele><time>2026-03-28T17:31:12Z</time></trkpt><trkpt lat="45.60585641550914" lon="10.031381353052176"><ele>224.00000000000003</ele><time>2026-03-28T17:31:13Z</time></trkpt><trkpt lat="45.60586758101627" lon="10.031261083756025"><ele>224.0</ele><time>2026-03-28T17:31:14Z</time></trkpt><trkpt lat="45.60586562452688" lon="10.031157905830764"><ele>223.39999999999998</ele><time>2026-03-28T17:31:15Z</time></trkpt><trkpt lat="45.60587424935722" lon="10.031067036626277"><ele>222.79999999999998</ele><time>2026-03-28T17:31:16Z</time></trkpt><trkpt lat="45.60602149829106" lon="10.030907181112147"><ele>222.20000000000002</ele><time>2026-03-28T17:31:18Z</time></trkpt><trkpt lat="45.60605058334048" lon="10.030818076243184"><ele>221.60000000000002</ele><time>2026-03-28T17:31:19Z</time></trkpt><trkpt lat="45.6060745196947" lon="10.030722497662682"><ele>221.0</ele><time>2026-03-28T17:31:20Z</time></trkpt><trkpt lat="45.60609798421563" lon="10.030608347511956"><ele>220.50000000000003</ele><time>2026-03-28T17:31:21Z</time></trkpt><trkpt lat="45.606119615640495" lon="10.030509225237845"><ele>220.0</ele><time>2026-03-28T17:31:22Z</time></trkpt><trkpt lat="45.60614922625879" lon="10.030407994239889"><ele>219.5</ele><time>2026-03-28T17:31:23Z</time></trkpt><trkpt lat="45.60617033312413" lon="10.030301247588046"><ele>219.0</ele><time>2026-03-28T17:31:24Z</time></trkpt><trkpt lat="45.60618332664247" lon="10.03020660906101"><ele>218.50000000000003</ele><time>2026-03-28T17:31:25Z</time></trkpt><trkpt lat="45.606191041123594" lon="10.030112369960941"><ele>218.0</ele><time>2026-03-28T17:31:26Z</time></trkpt><trkpt lat="45.60628049806961" lon="10.029998088158967"><ele>218.0</ele><time>2026-03-28T17:31:28Z</time></trkpt><trkpt lat="45.60635074391701" lon="10.030001273300146"><ele>218.0</ele><time>2026-03-28T17:31:29Z</time></trkpt><trkpt lat="45.60642951635618" lon="10.03000121696367"><ele>218.0</ele><time>2026-03-28T17:31:30Z</time></trkpt><trkpt lat="45.60649952682211" lon="10.029984046980514"><ele>218.0</ele><time>2026-03-28T17:31:31Z</time></trkpt><trkpt lat="45.60656553910958" lon="10.029962194273347"><ele>218.0</ele><time>2026-03-28T17:31:32Z</time></trkpt><trkpt lat="45.60663991240334" lon="10.029943944062484"><ele>218.0</ele><time>2026-03-28T17:31:33Z</time></trkpt><trkpt lat="45.60670644595472" lon="10.029933200493161"><ele>218.0</ele><time>2026-03-28T17:31:34Z</time></trkpt><trkpt lat="45.606784864780685" lon="10.02992851917411"><ele>217.8</ele><time>2026-03-28T17:31:35Z</time></trkpt><trkpt lat="45.6068566871621" lon="10.02993613956121"><ele>217.60000000000002</ele><time>2026-03-28T17:31:36Z</time></trkpt><trkpt lat="45.60695486729619" lon="10.029866784442588"><ele>217.39999999999998</ele><time>2026-03-28T17:31:38Z</time></trkpt><trkpt lat="45.606957198381714" lon="10.029749636960263"><ele>217.2</ele><time>2026-03-28T17:31:39Z</time></trkpt><trkpt lat="45.606965725167555" lon="10.029611584097607"><ele>217.0</ele><time>2026-03-28T17:31:40Z</time></trkpt><trkpt lat="45.60698955245326" lon="10.029482111780236"><ele>216.83333333333331</ele><time>2026-03-28T17:31:41Z</time></trkpt><trkpt lat="45.60702241581316" lon="10.029352822175838"><ele>216.66666666666666</ele><time>2026-03-28T17:31:42Z</time></trkpt><trkpt lat="45.60703706430505" lon="10.029236272442402"><ele>216.5</ele><time>2026-03-28T17:31:43Z</time></trkpt><trkpt lat="45.60703576093307" lon="10.029139088005975"><ele>216.33333333333331</ele><time>2026-03-28T17:31:44Z</time></trkpt><trkpt lat="45.60700385076271" lon="10.02904760303691"><ele>216.16666666666666</ele><time>2026-03-28T17:31:45Z</time></trkpt><trkpt lat="45.60693833686682" lon="10.028956209279714"><ele>216.0</ele><time>2026-03-28T17:31:46Z</time></trkpt><trkpt lat="45.60684760426516" lon="10.028888454110554"><ele>216.4</ele><time>2026-03-28T17:31:47Z</time></trkpt><trkpt lat="45.60677526027637" lon="10.028805411834979"><ele>216.8</ele><time>2026-03-28T17:31:48Z</time></trkpt><trkpt lat="45.60670739358443" lon="10.028704641893592"><ele>217.20000000000002</ele><time>2026-03-28T17:31:49Z</time></trkpt><trkpt lat="45.60665350940697" lon="10.02860994094665"><ele>217.60000000000002</ele><time>2026-03-28T17:31:50Z</time></trkpt><trkpt lat="45.6065725647374" lon="10.02849806817774"><ele>218.0</ele><time>2026-03-28T17:31:52Z</time></trkpt><trkpt lat="45.60650857897548" lon="10.02848168924533"><ele>218.0</ele><time>2026-03-28T17:31:53Z</time></trkpt><trkpt lat="45.606427635666286" lon="10.028520739579664"><ele>218.0</ele><time>2026-03-28T17:31:54Z</time></trkpt><trkpt lat="45.606352248693454" lon="10.028599409980327"><ele>218.0</ele><time>2026-03-28T17:31:55Z</time></trkpt><trkpt lat="45.60627189913487" lon="10.028653761278864"><ele>218.0</ele><time>2026-03-28T17:31:56Z</time></trkpt><trkpt lat="45.60616860504105" lon="10.028683890159872"><ele>218.0</ele><time>2026-03-28T17:31:57Z</time></trkpt><trkpt lat="45.60606074559645" lon="10.028695581737075"><ele>217.5</ele><time>2026-03-28T17:31:58Z</time></trkpt><trkpt lat="45.60595086049648" lon="10.028677779435418"><ele>217.0</ele><time>2026-03-28T17:31:59Z</time></trkpt><trkpt lat="45.60584465173605" lon="10.02862396327006"><ele>216.5</ele><time>2026-03-28T17:32:00Z</time></trkpt><trkpt lat="45.6057397880759" lon="10.028573393565903"><ele>216.0</ele><time>2026-03-28T17:32:01Z</time></trkpt><trkpt lat="45.605610558902384" lon="10.02854590834446"><ele>216.0</ele><time>2026-03-28T17:32:02Z</time></trkpt><trkpt lat="45.60547494046586" lon="10.028550162510381"><ele>216.0</ele><time>2026-03-28T17:32:03Z</time></trkpt><trkpt lat="45.605337022442995" lon="10.028602885831736"><ele>216.0</ele><time>2026-03-28T17:32:04Z</time></trkpt><trkpt lat="45.60520259581052" lon="10.02867772800405"><ele>216.0</ele><time>2026-03-28T17:32:05Z</time></trkpt><trkpt lat="45.60507548271984" lon="10.028780445049202"><ele>213.75</ele><time>2026-03-28T17:32:06Z</time></trkpt><trkpt lat="45.60494413351007" lon="10.02887852070266"><ele>211.5</ele><time>2026-03-28T17:32:07Z</time></trkpt><trkpt lat="45.604809999766175" lon="10.02896186302634"><ele>209.25</ele><time>2026-03-28T17:32:08Z</time></trkpt><trkpt lat="45.6046803003978" lon="10.02902988441586"><ele>207.0</ele><time>2026-03-28T17:32:09Z</time></trkpt><trkpt lat="45.60455973517264" lon="10.029088898205595"><ele>206.2</ele><time>2026-03-28T17:32:10Z</time></trkpt><trkpt lat="45.604445978618344" lon="10.02914798997223"><ele>205.39999999999998</ele><time>2026-03-28T17:32:11Z</time></trkpt><trkpt lat="45.60433948741526" lon="10.029206534807221"><ele>204.60000000000002</ele><time>2026-03-28T17:32:12Z</time></trkpt><trkpt lat="45.60423936517699" lon="10.029264886116058"><ele>203.8</ele><time>2026-03-28T17:32:13Z</time></trkpt><trkpt lat="45.604143226688294" lon="10.029320962055374"><ele>203.0</ele><time>2026-03-28T17:32:14Z</time></trkpt><trkpt lat="45.60404798133091" lon="10.029361612208367"><ele>203.0</ele><time>2026-03-28T17:32:15Z</time></trkpt><trkpt lat="45.603949305351065" lon="10.029370427017623"><ele>203.0</ele><time>2026-03-28T17:32:16Z</time></trkpt><trkpt lat="45.60386660829608" lon="10.029414534644438"><ele>203.0</ele><time>2026-03-28T17:32:17Z</time></trkpt><trkpt lat="45.60378300788946" lon="10.029183498652118"><ele>203.0</ele><time>2026-03-28T17:32:18Z</time></trkpt><trkpt lat="45.60369130106076" lon="10.02906483272368"><ele>201.25</ele><time>2026-03-28T17:32:19Z</time></trkpt><trkpt lat="45.60358999007875" lon="10.028953716557803"><ele>199.5</ele><time>2026-03-28T17:32:20Z</time></trkpt><trkpt lat="45.60349654135245" lon="10.028828242820536"><ele>197.75</ele><time>2026-03-28T17:32:21Z</time></trkpt><trkpt lat="45.60339743798759" lon="10.028701161117056"><ele>196.0</ele><time>2026-03-28T17:32:22Z</time></trkpt><trkpt lat="45.603306577037365" lon="10.028559165913084"><ele>196.0</ele><time>2026-03-28T17:32:23Z</time></trkpt><trkpt lat="45.60319007358312" lon="10.02845612896884"><ele>196.0</ele><time>2026-03-28T17:32:24Z</time></trkpt><trkpt lat="45.60308191034525" lon="10.028342379725643"><ele>196.0</ele><time>2026-03-28T17:32:25Z</time></trkpt><trkpt lat="45.60297035261319" lon="10.02824057856495"><ele>196.0</ele><time>2026-03-28T17:32:26Z</time></trkpt><trkpt lat="45.60286751373513" lon="10.028149850706418"><ele>199.60000000000002</ele><time>2026-03-28T17:32:27Z</time></trkpt><trkpt lat="45.602777819446665" lon="10.028068571897201"><ele>203.2</ele><time>2026-03-28T17:32:28Z</time></trkpt><trkpt lat="45.60269899332909" lon="10.028001326373262"><ele>206.79999999999998</ele><time>2026-03-28T17:32:29Z</time></trkpt><trkpt lat="45.6026182285211" lon="10.027953847123362"><ele>210.39999999999998</ele><time>2026-03-28T17:32:30Z</time></trkpt><trkpt lat="45.602540136487875" lon="10.027942787404154"><ele>214.0</ele><time>2026-03-28T17:32:31Z</time></trkpt><trkpt lat="45.60245204692824" lon="10.028005919195389"><ele>214.0</ele><time>2026-03-28T17:32:32Z</time></trkpt><trkpt lat="45.602396197106174" lon="10.0281820332203"><ele>214.0</ele><time>2026-03-28T17:32:33Z</time></trkpt><trkpt lat="45.602323966167816" lon="10.028318885389597"><ele>214.0</ele><time>2026-03-28T17:32:34Z</time></trkpt><trkpt lat="45.60224709719761" lon="10.028465616433328"><ele>214.0</ele><time>2026-03-28T17:32:35Z</time></trkpt><trkpt lat="45.60216878333578" lon="10.028615828739953"><ele>214.0</ele><time>2026-03-28T17:32:36Z</time></trkpt><trkpt lat="45.60208370214558" lon="10.028782682829997"><ele>214.0</ele><time>2026-03-28T17:32:37Z</time></trkpt><trkpt lat="45.602011248872515" lon="10.028938151540421"><ele>214.0</ele><time>2026-03-28T17:32:38Z</time></trkpt><trkpt lat="45.601952947294365" lon="10.029070814075947"><ele>214.0</ele><time>2026-03-28T17:32:39Z</time></trkpt><trkpt lat="45.60191390932421" lon="10.02920096787649"><ele>211.6</ele><time>2026-03-28T17:32:40Z</time></trkpt><trkpt lat="45.601847646664964" lon="10.029268679583186"><ele>209.2</ele><time>2026-03-28T17:32:41Z</time></trkpt><trkpt lat="45.601782026571186" lon="10.029309090291925"><ele>206.79999999999998</ele><time>2026-03-28T17:32:42Z</time></trkpt><trkpt lat="45.601710536244596" lon="10.029332069287502"><ele>204.39999999999998</ele><time>2026-03-28T17:32:43Z</time></trkpt><trkpt lat="45.60162296602292" lon="10.029255188547792"><ele>202.0</ele><time>2026-03-28T17:32:44Z</time></trkpt><trkpt lat="45.60151055940981" lon="10.029191525391532"><ele>202.0</ele><time>2026-03-28T17:32:45Z</time></trkpt><trkpt lat="45.60138090871327" lon="10.029144887176454"><ele>202.0</ele><time>2026-03-28T17:32:46Z</time></trkpt><trkpt lat="45.60124617049606" lon="10.029071458566209"><ele>202.0</ele><time>2026-03-28T17:32:47Z</time></trkpt><trkpt lat="45.60109117939688" lon="10.028993623402783"><ele>202.0</ele><time>2026-03-28T17:32:48Z</time></trkpt><trkpt lat="45.60092260238027" lon="10.028909368256716"><ele>204.33333333333331</ele><time>2026-03-28T17:32:49Z</time></trkpt><trkpt lat="45.600738137608595" lon="10.02881781882258"><ele>206.66666666666669</ele><time>2026-03-28T17:32:50Z</time></trkpt><trkpt lat="45.60054069161086" lon="10.02869943239767"><ele>209.0</ele><time>2026-03-28T17:32:51Z</time></trkpt><trkpt lat="45.600308094474784" lon="10.028587763973288"><ele>209.0</ele><time>2026-03-28T17:32:52Z</time></trkpt><trkpt lat="45.600057133361794" lon="10.028471506343108"><ele>209.0</ele><time>2026-03-28T17:32:53Z</time></trkpt><trkpt lat="45.59979764320211" lon="10.028367824095103"><ele>215.0</ele><time>2026-03-28T17:32:54Z</time></trkpt><trkpt lat="45.599567584384694" lon="10.028252958368876"><ele>221.0</ele><time>2026-03-28T17:32:55Z</time></trkpt><trkpt lat="45.599371192644675" lon="10.028168752613318"><ele>227.0</ele><time>2026-03-28T17:32:56Z</time></trkpt><trkpt lat="45.59919465945298" lon="10.028095225744451"><ele>227.0</ele><time>2026-03-28T17:32:57Z</time></trkpt><trkpt lat="45.599014645834984" lon="10.028017406759039"><ele>227.0</ele><time>2026-03-28T17:32:58Z</time></trkpt><trkpt lat="45.59883835112526" lon="10.027946772781094"><ele>227.0</ele><time>2026-03-28T17:32:59Z</time></trkpt><trkpt lat="45.59866012394945" lon="10.027857204456385"><ele>224.66666666666669</ele><time>2026-03-28T17:33:00Z</time></trkpt><trkpt lat="45.59849118058456" lon="10.027774382558025"><ele>222.33333333333331</ele><time>2026-03-28T17:33:01Z</time></trkpt><trkpt lat="45.598318582515795" lon="10.027651466582782"><ele>220.0</ele><time>2026-03-28T17:33:02Z</time></trkpt><trkpt lat="45.598140017151806" lon="10.027565470060475"><ele>220.0</ele><time>2026-03-28T17:33:03Z</time></trkpt><trkpt lat="45.59795304505486" lon="10.027489089470421"><ele>220.0</ele><time>2026-03-28T17:33:04Z</time></trkpt><trkpt lat="45.5977688797652" lon="10.027432421422645"><ele>220.0</ele><time>2026-03-28T17:33:05Z</time></trkpt><trkpt lat="45.59757897283022" lon="10.027360978154205"><ele>226.0</ele><time>2026-03-28T17:33:06Z</time></trkpt><trkpt lat="45.597390454879616" lon="10.027295675779712"><ele>232.0</ele><time>2026-03-28T17:33:07Z</time></trkpt><trkpt lat="45.597206609381516" lon="10.027208617291405"><ele>238.0</ele><time>2026-03-28T17:33:08Z</time></trkpt><trkpt lat="45.597033310227424" lon="10.027074569849345"><ele>233.0</ele><time>2026-03-28T17:33:09Z</time></trkpt><trkpt lat="45.596862026145274" lon="10.026935852952525"><ele>228.0</ele><time>2026-03-28T17:33:10Z</time></trkpt><trkpt lat="45.596690289438904" lon="10.026814044639659"><ele>223.0</ele><time>2026-03-28T17:33:11Z</time></trkpt><trkpt lat="45.59652957627072" lon="10.026662843947985"><ele>223.0</ele><time>2026-03-28T17:33:12Z</time></trkpt><trkpt lat="45.59637204588899" lon="10.026504651104682"><ele>223.0</ele><time>2026-03-28T17:33:13Z</time></trkpt><trkpt lat="45.5962121418742" lon="10.026333831346507"><ele>223.0</ele><time>2026-03-28T17:33:14Z</time></trkpt><trkpt lat="45.59606410743382" lon="10.026158333601856"><ele>223.0</ele><time>2026-03-28T17:33:15Z</time></trkpt><trkpt lat="45.59591857641387" lon="10.025974432029638"><ele>223.0</ele><time>2026-03-28T17:33:16Z</time></trkpt><trkpt lat="45.59578575440027" lon="10.025770265427223"><ele>223.0</ele><time>2026-03-28T17:33:17Z</time></trkpt><trkpt lat="45.59565750524463" lon="10.025553248108583"><ele>221.33333333333331</ele><time>2026-03-28T17:33:18Z</time></trkpt><trkpt lat="45.5955284394491" lon="10.025347650527204"><ele>219.66666666666669</ele><time>2026-03-28T17:33:19Z</time></trkpt><trkpt lat="45.59537169337546" lon="10.025190087519288"><ele>218.0</ele><time>2026-03-28T17:33:20Z</time></trkpt><trkpt lat="45.59521164081032" lon="10.025043747372864"><ele>223.0</ele><time>2026-03-28T17:33:21Z</time></trkpt><trkpt lat="45.59505823423684" lon="10.02489368398293"><ele>228.0</ele><time>2026-03-28T17:33:22Z</time></trkpt><trkpt lat="45.59490458026777" lon="10.024743319224932"><ele>233.0</ele><time>2026-03-28T17:33:23Z</time></trkpt><trkpt lat="45.59477023143093" lon="10.024595936735533"><ele>233.0</ele><time>2026-03-28T17:33:24Z</time></trkpt><trkpt lat="45.594675524783185" lon="10.024477510592796"><ele>233.0</ele><time>2026-03-28T17:33:25Z</time></trkpt><trkpt lat="45.594602547012876" lon="10.02437715028426"><ele>233.0</ele><time>2026-03-28T17:33:26Z</time></trkpt><trkpt lat="45.594565505708275" lon="10.024276475067994"><ele>233.0</ele><time>2026-03-28T17:33:27Z</time></trkpt><trkpt lat="45.59455900618066" lon="10.024159567636525"><ele>233.0</ele><time>2026-03-28T17:33:28Z</time></trkpt><trkpt lat="45.59458285543764" lon="10.024024587560563"><ele>233.4</ele><time>2026-03-28T17:33:29Z</time></trkpt><trkpt lat="45.59464679174549" lon="10.023909193987839"><ele>233.8</ele><time>2026-03-28T17:33:30Z</time></trkpt><trkpt lat="45.59472914815397" lon="10.02381811911828"><ele>234.2</ele><time>2026-03-28T17:33:31Z</time></trkpt><trkpt lat="45.5947833979435" lon="10.023703818856164"><ele>234.6</ele><time>2026-03-28T17:33:32Z</time></trkpt><trkpt lat="45.594798538401" lon="10.023542830126212"><ele>235.0</ele><time>2026-03-28T17:33:33Z</time></trkpt><trkpt lat="45.59481888088611" lon="10.023348787853648"><ele>234.5</ele><time>2026-03-28T17:33:34Z</time></trkpt><trkpt lat="45.59485152845294" lon="10.023153171673146"><ele>234.0</ele><time>2026-03-28T17:33:35Z</time></trkpt><trkpt lat="45.594881383423655" lon="10.022958112882943"><ele>233.5</ele><time>2026-03-28T17:33:36Z</time></trkpt><trkpt lat="45.59490616164559" lon="10.022806633651577"><ele>233.0</ele><time>2026-03-28T17:33:37Z</time></trkpt><trkpt lat="45.59492056164805" lon="10.022714358793172"><ele>233.0</ele><time>2026-03-28T17:33:38Z</time></trkpt><trkpt lat="45.59486668911433" lon="10.0226265965953"><ele>233.0</ele><time>2026-03-28T17:33:40Z</time></trkpt><trkpt lat="45.594778054499095" lon="10.02258592757189"><ele>233.0</ele><time>2026-03-28T17:33:41Z</time></trkpt><trkpt lat="45.594660333904876" lon="10.022522077728954"><ele>233.0</ele><time>2026-03-28T17:33:42Z</time></trkpt><trkpt lat="45.594546286783846" lon="10.022436218867849"><ele>233.0</ele><time>2026-03-28T17:33:43Z</time></trkpt><trkpt lat="45.59442232914911" lon="10.022334833589793"><ele>232.0</ele><time>2026-03-28T17:33:44Z</time></trkpt><trkpt lat="45.59429263250211" lon="10.02223049672733"><ele>231.0</ele><time>2026-03-28T17:33:45Z</time></trkpt><trkpt lat="45.59420895868816" lon="10.022139184609355"><ele>230.0</ele><time>2026-03-28T17:33:46Z</time></trkpt><trkpt lat="45.59414614000754" lon="10.022100164818609"><ele>229.0</ele><time>2026-03-28T17:33:47Z</time></trkpt><trkpt lat="45.59423886615446" lon="10.021915113703658"><ele>229.0</ele><time>2026-03-28T17:33:50Z</time></trkpt><trkpt lat="45.59434164598663" lon="10.02180482579756"><ele>229.0</ele><time>2026-03-28T17:33:51Z</time></trkpt><trkpt lat="45.59446513866101" lon="10.021646925410653"><ele>229.0</ele><time>2026-03-28T17:33:52Z</time></trkpt><trkpt lat="45.59461066616645" lon="10.021492396866726"><ele>229.0</ele><time>2026-03-28T17:33:53Z</time></trkpt><trkpt lat="45.594757456619305" lon="10.021342703175566"><ele>229.0</ele><time>2026-03-28T17:33:54Z</time></trkpt><trkpt lat="45.59491299801915" lon="10.021233025272144"><ele>229.0</ele><time>2026-03-28T17:33:55Z</time></trkpt><trkpt lat="45.59505485035612" lon="10.02119399779797"><ele>229.0</ele><time>2026-03-28T17:33:56Z</time></trkpt><trkpt lat="45.59520873010996" lon="10.021163287818238"><ele>229.0</ele><time>2026-03-28T17:33:57Z</time></trkpt><trkpt lat="45.59536868389203" lon="10.02111265525164"><ele>229.0</ele><time>2026-03-28T17:33:58Z</time></trkpt><trkpt lat="45.59553378565903" lon="10.021097112908835"><ele>230.0</ele><time>2026-03-28T17:33:59Z</time></trkpt><trkpt lat="45.59569885644928" lon="10.021079978210892"><ele>231.0</ele><time>2026-03-28T17:34:00Z</time></trkpt><trkpt lat="45.595863123009174" lon="10.02107441582937"><ele>232.0</ele><time>2026-03-28T17:34:01Z</time></trkpt><trkpt lat="45.59602786430731" lon="10.021075882964034"><ele>233.66666666666666</ele><time>2026-03-28T17:34:02Z</time></trkpt><trkpt lat="45.596193758886855" lon="10.021086932158578"><ele>235.33333333333331</ele><time>2026-03-28T17:34:03Z</time></trkpt><trkpt lat="45.59635904160391" lon="10.021092772707998"><ele>237.0</ele><time>2026-03-28T17:34:04Z</time></trkpt><trkpt lat="45.59652314724783" lon="10.021103937911638"><ele>237.0</ele><time>2026-03-28T17:34:05Z</time></trkpt><trkpt lat="45.596657188631966" lon="10.021111958496325"><ele>237.0</ele><time>2026-03-28T17:34:06Z</time></trkpt><trkpt lat="45.59677143322772" lon="10.021110416554528"><ele>237.0</ele><time>2026-03-28T17:34:07Z</time></trkpt><trkpt lat="45.59687931671303" lon="10.021101180463974"><ele>237.0</ele><time>2026-03-28T17:34:08Z</time></trkpt><trkpt lat="45.596969502361546" lon="10.021114622097656"><ele>237.0</ele><time>2026-03-28T17:34:09Z</time></trkpt><trkpt lat="45.597037817602775" lon="10.021119114811983"><ele>237.8</ele><time>2026-03-28T17:34:10Z</time></trkpt><trkpt lat="45.597112616886044" lon="10.021096167719186"><ele>238.6</ele><time>2026-03-28T17:34:11Z</time></trkpt><trkpt lat="45.597183478318996" lon="10.021057726019738"><ele>239.40000000000003</ele><time>2026-03-28T17:34:12Z</time></trkpt><trkpt lat="45.59725964702431" lon="10.02093213701526"><ele>240.20000000000002</ele><time>2026-03-28T17:34:13Z</time></trkpt><trkpt lat="45.597318437583446" lon="10.020809374914972"><ele>241.0</ele><time>2026-03-28T17:34:14Z</time></trkpt><trkpt lat="45.597389167045264" lon="10.0206898187065"><ele>242.0</ele><time>2026-03-28T17:34:15Z</time></trkpt><trkpt lat="45.59745863260171" lon="10.020570625712697"><ele>243.00000000000003</ele><time>2026-03-28T17:34:16Z</time></trkpt><trkpt lat="45.59752059481138" lon="10.020448470152841"><ele>244.00000000000003</ele><time>2026-03-28T17:34:17Z</time></trkpt><trkpt lat="45.5975584025" lon="10.020363005816879"><ele>245.0</ele><time>2026-03-28T17:34:18Z</time></trkpt><trkpt lat="45.597544875618766" lon="10.020465873258253"><ele>246.0</ele><time>2026-03-28T17:34:19Z</time></trkpt><trkpt lat="45.597678455124814" lon="10.020386690450378"><ele>245.0</ele><time>2026-03-28T17:34:20Z</time></trkpt><trkpt lat="45.597910962953314" lon="10.020137669263638"><ele>244.0</ele><time>2026-03-28T17:34:21Z</time></trkpt><trkpt lat="45.59805516547885" lon="10.019959752818398"><ele>247.0</ele><time>2026-03-28T17:34:22Z</time></trkpt><trkpt lat="45.59822477799787" lon="10.019742546628603"><ele>250.0</ele><time>2026-03-28T17:34:23Z</time></trkpt><trkpt lat="45.59838667819046" lon="10.019511528244593"><ele>250.0</ele><time>2026-03-28T17:34:24Z</time></trkpt><trkpt lat="45.598545434975826" lon="10.019293133038044"><ele>250.0</ele><time>2026-03-28T17:34:25Z</time></trkpt><trkpt lat="45.598639709717546" lon="10.019192226516887"><ele>250.0</ele><time>2026-03-28T17:34:26Z</time></trkpt><trkpt lat="45.5987142572789" lon="10.019134853302223"><ele>250.0</ele><time>2026-03-28T17:34:27Z</time></trkpt><trkpt lat="45.598940442734865" lon="10.018173206157952"><ele>252.25</ele><time>2026-03-28T17:34:37Z</time></trkpt><trkpt lat="45.598942707390144" lon="10.018049364660953"><ele>254.5</ele><time>2026-03-28T17:34:38Z</time></trkpt><trkpt lat="45.59896095756438" lon="10.017898128519125"><ele>256.75</ele><time>2026-03-28T17:34:39Z</time></trkpt><trkpt lat="45.598976396256305" lon="10.017688180765674"><ele>259.0</ele><time>2026-03-28T17:34:40Z</time></trkpt><trkpt lat="45.59898989723522" lon="10.017421811643258"><ele>260.66666666666663</ele><time>2026-03-28T17:34:41Z</time></trkpt><trkpt lat="45.59900350104154" lon="10.017129483463547"><ele>262.3333333333333</ele><time>2026-03-28T17:34:42Z</time></trkpt><trkpt lat="45.59902517696513" lon="10.016809450205164"><ele>264.0</ele><time>2026-03-28T17:34:43Z</time></trkpt><trkpt lat="45.59903874454377" lon="10.01656047990371"><ele>264.8</ele><time>2026-03-28T17:34:44Z</time></trkpt><trkpt lat="45.599048394632696" lon="10.016398055835275"><ele>265.59999999999997</ele><time>2026-03-28T17:34:45Z</time></trkpt><trkpt lat="45.599060528908936" lon="10.016283802944338"><ele>266.4</ele><time>2026-03-28T17:34:46Z</time></trkpt><trkpt lat="45.59914165162357" lon="10.016217728673857"><ele>267.2</ele><time>2026-03-28T17:34:48Z</time></trkpt><trkpt lat="45.599247579005656" lon="10.016242936726984"><ele>268.0</ele><time>2026-03-28T17:34:49Z</time></trkpt><trkpt lat="45.599387742511254" lon="10.016291227032719"><ele>268.0</ele><time>2026-03-28T17:34:50Z</time></trkpt><trkpt lat="45.599565399426936" lon="10.01630064265989"><ele>268.0</ele><time>2026-03-28T17:34:51Z</time></trkpt><trkpt lat="45.59971529554957" lon="10.016289992814299"><ele>268.0</ele><time>2026-03-28T17:34:52Z</time></trkpt><trkpt lat="45.59978897506005" lon="10.016292523266571"><ele>268.0</ele><time>2026-03-28T17:34:53Z</time></trkpt><trkpt lat="45.59985448176301" lon="10.016310991742966"><ele>268.0</ele><time>2026-03-28T17:34:55Z</time></trkpt><trkpt lat="45.599938517275895" lon="10.01621461430403"><ele>268.0</ele><time>2026-03-28T17:34:58Z</time></trkpt><trkpt lat="45.599959325831186" lon="10.01611290580651"><ele>268.0</ele><time>2026-03-28T17:35:13Z</time></trkpt><trkpt lat="45.59989358768452" lon="10.016195684759854"><ele>268.0</ele><time>2026-03-28T17:35:15Z</time></trkpt><trkpt lat="45.59984706443012" lon="10.016338704931712"><ele>268.0</ele><time>2026-03-28T17:35:16Z</time></trkpt><trkpt lat="45.599803919484145" lon="10.016540682331408"><ele>266.0</ele><time>2026-03-28T17:35:17Z</time></trkpt><trkpt lat="45.59977089207791" lon="10.016779360382069"><ele>264.0</ele><time>2026-03-28T17:35:18Z</time></trkpt><trkpt lat="45.59972387269774" lon="10.017031591219029"><ele>262.0</ele><time>2026-03-28T17:35:19Z</time></trkpt><trkpt lat="45.59969080550628" lon="10.017278798145426"><ele>262.0</ele><time>2026-03-28T17:35:20Z</time></trkpt><trkpt lat="45.59968828259593" lon="10.017459084072405"><ele>262.0</ele><time>2026-03-28T17:35:21Z</time></trkpt><trkpt lat="45.59970778457085" lon="10.017601893807237"><ele>262.0</ele><time>2026-03-28T17:35:22Z</time></trkpt><trkpt lat="45.59981959663228" lon="10.017702747780712"><ele>262.0</ele><time>2026-03-28T17:35:24Z</time></trkpt><trkpt lat="45.5998839844178" lon="10.017761613783524"><ele>262.0</ele><time>2026-03-28T17:35:25Z</time></trkpt><trkpt lat="45.59992260969402" lon="10.017844929832085"><ele>262.0</ele><time>2026-03-28T17:35:26Z</time></trkpt><trkpt lat="45.60005894960765" lon="10.017779648719168"><ele>262.0</ele><time>2026-03-28T17:35:30Z</time></trkpt><trkpt lat="45.60013257150593" lon="10.017659573276182"><ele>262.0</ele><time>2026-03-28T17:35:31Z</time></trkpt><trkpt lat="45.60022419764643" lon="10.017486014736454"><ele>262.0</ele><time>2026-03-28T17:35:32Z</time></trkpt><trkpt lat="45.60026031565913" lon="10.017352817911261"><ele>262.0</ele><time>2026-03-28T17:35:33Z</time></trkpt><trkpt lat="45.60024340969728" lon="10.017244140809687"><ele>262.0</ele><time>2026-03-28T17:35:35Z</time></trkpt><trkpt lat="45.60027632230912" lon="10.01714400593801"><ele>262.0</ele><time>2026-03-28T17:35:37Z</time></trkpt><trkpt lat="45.60032633792907" lon="10.017035373741672"><ele>262.0</ele><time>2026-03-28T17:35:38Z</time></trkpt><trkpt lat="45.600360725416884" lon="10.016911926917976"><ele>262.0</ele><time>2026-03-28T17:35:39Z</time></trkpt><trkpt lat="45.60029350562701" lon="10.01688899537979"><ele>262.0</ele><time>2026-03-28T17:35:43Z</time></trkpt><trkpt lat="45.60032229559863" lon="10.016801473455814"><ele>262.0</ele><time>2026-03-28T17:35:47Z</time></trkpt><trkpt lat="45.60033089813409" lon="10.01691988613887"><ele>262.0</ele><time>2026-03-28T17:36:19Z</time></trkpt><trkpt lat="45.6003559473246" lon="10.017013321636435"><ele>262.0</ele><time>2026-03-28T17:36:21Z</time></trkpt><trkpt lat="45.6003165596106" lon="10.01708919400072"><ele>262.0</ele><time>2026-03-28T17:36:22Z</time></trkpt><trkpt lat="45.600284431558705" lon="10.017200400676666"><ele>262.0</ele><time>2026-03-28T17:36:23Z</time></trkpt><trkpt lat="45.600246323866614" lon="10.017304458554069"><ele>262.0</ele><time>2026-03-28T17:36:25Z</time></trkpt><trkpt lat="45.600218391171516" lon="10.017484382845478"><ele>261.0</ele><time>2026-03-28T17:36:27Z</time></trkpt><trkpt lat="45.600147944435555" lon="10.017625869984197"><ele>260.0</ele><time>2026-03-28T17:36:28Z</time></trkpt><trkpt lat="45.60005579796244" lon="10.017806007664012"><ele>259.0</ele><time>2026-03-28T17:36:29Z</time></trkpt><trkpt lat="45.59999033034487" lon="10.01788778951316"><ele>258.0</ele><time>2026-03-28T17:36:30Z</time></trkpt><trkpt lat="45.59991953986355" lon="10.017847535289906"><ele>257.0</ele><time>2026-03-28T17:36:32Z</time></trkpt><trkpt lat="45.59986657853535" lon="10.017739046580182"><ele>257.0</ele><time>2026-03-28T17:36:33Z</time></trkpt><trkpt lat="45.599801760480545" lon="10.017611136875106"><ele>257.0</ele><time>2026-03-28T17:36:34Z</time></trkpt><trkpt lat="45.59970977985888" lon="10.017463130961216"><ele>257.0</ele><time>2026-03-28T17:36:35Z</time></trkpt><trkpt lat="45.59966470701016" lon="10.01732774661763"><ele>257.0</ele><time>2026-03-28T17:36:36Z</time></trkpt><trkpt lat="45.599662201539424" lon="10.017167269867594"><ele>258.25</ele><time>2026-03-28T17:36:37Z</time></trkpt><trkpt lat="45.59966453674849" lon="10.01698283030492"><ele>259.5</ele><time>2026-03-28T17:36:38Z</time></trkpt><trkpt lat="45.59969577793265" lon="10.016846319275889"><ele>260.75</ele><time>2026-03-28T17:36:39Z</time></trkpt><trkpt lat="45.599770457874584" lon="10.016699264842657"><ele>262.0</ele><time>2026-03-28T17:36:40Z</time></trkpt><trkpt lat="45.59983860862959" lon="10.016543930580765"><ele>263.5</ele><time>2026-03-28T17:36:41Z</time></trkpt><trkpt lat="45.5998744911973" lon="10.016390230685493"><ele>265.0</ele><time>2026-03-28T17:36:42Z</time></trkpt><trkpt lat="45.59987615719556" lon="10.016227383093694"><ele>266.5</ele><time>2026-03-28T17:36:43Z</time></trkpt><trkpt lat="45.59990528141658" lon="10.016068135598239"><ele>268.0</ele><time>2026-03-28T17:36:44Z</time></trkpt><trkpt lat="45.59993119916728" lon="10.015872338710997"><ele>268.66666666666663</ele><time>2026-03-28T17:36:45Z</time></trkpt><trkpt lat="45.59993603164673" lon="10.015628666743652"><ele>269.3333333333333</ele><time>2026-03-28T17:36:46Z</time></trkpt><trkpt lat="45.59994676636032" lon="10.01534533767157"><ele>270.0</ele><time>2026-03-28T17:36:47Z</time></trkpt><trkpt lat="45.599975311915806" lon="10.015042278870041"><ele>269.5</ele><time>2026-03-28T17:36:48Z</time></trkpt><trkpt lat="45.59999894905392" lon="10.014799822826006"><ele>269.0</ele><time>2026-03-28T17:36:49Z</time></trkpt><trkpt lat="45.60001238774187" lon="10.014620333010885"><ele>268.5</ele><time>2026-03-28T17:36:50Z</time></trkpt><trkpt lat="45.6000237703084" lon="10.014487817606438"><ele>268.0</ele><time>2026-03-28T17:36:51Z</time></trkpt><trkpt lat="45.600095973910626" lon="10.014381240071614"><ele>268.0</ele><time>2026-03-28T17:36:53Z</time></trkpt><trkpt lat="45.60015929384265" lon="10.014376231306196"><ele>268.0</ele><time>2026-03-28T17:36:54Z</time></trkpt><trkpt lat="45.60027650407114" lon="10.014419476728548"><ele>268.0</ele><time>2026-03-28T17:36:55Z</time></trkpt><trkpt lat="45.60040875841094" lon="10.014469618065599"><ele>268.0</ele><time>2026-03-28T17:36:56Z</time></trkpt><trkpt lat="45.600586572574855" lon="10.014502077248437"><ele>266.0</ele><time>2026-03-28T17:36:57Z</time></trkpt><trkpt lat="45.60078794427401" lon="10.014538848135263"><ele>264.0</ele><time>2026-03-28T17:36:58Z</time></trkpt><trkpt lat="45.60097955642799" lon="10.01457445154363"><ele>262.0</ele><time>2026-03-28T17:36:59Z</time></trkpt><trkpt lat="45.60114009524022" lon="10.014605641783092"><ele>260.0</ele><time>2026-03-28T17:37:00Z</time></trkpt><trkpt lat="45.60126823573792" lon="10.014633454300641"><ele>258.0</ele><time>2026-03-28T17:37:01Z</time></trkpt><trkpt lat="45.601371027698285" lon="10.014669348205937"><ele>256.0</ele><time>2026-03-28T17:37:02Z</time></trkpt><trkpt lat="45.601452139851695" lon="10.014691501631663"><ele>254.0</ele><time>2026-03-28T17:37:03Z</time></trkpt><trkpt lat="45.60155036400603" lon="10.014562757308259"><ele>254.0</ele><time>2026-03-28T17:37:05Z</time></trkpt><trkpt lat="45.601561582011215" lon="10.01439059960326"><ele>254.0</ele><time>2026-03-28T17:37:06Z</time></trkpt><trkpt lat="45.601573890022415" lon="10.014188383061354"><ele>254.0</ele><time>2026-03-28T17:37:07Z</time></trkpt><trkpt lat="45.60161047607484" lon="10.013957876945485"><ele>254.0</ele><time>2026-03-28T17:37:08Z</time></trkpt><trkpt lat="45.601652464255196" lon="10.013727764029387"><ele>254.0</ele><time>2026-03-28T17:37:09Z</time></trkpt><trkpt lat="45.601697560175104" lon="10.013580886168151"><ele>253.99999999999997</ele><time>2026-03-28T17:37:10Z</time></trkpt><trkpt lat="45.60175309110314" lon="10.013500628962207"><ele>253.99999999999997</ele><time>2026-03-28T17:37:11Z</time></trkpt><trkpt lat="45.60182988380401" lon="10.01348471160185"><ele>254.0</ele><time>2026-03-28T17:37:12Z</time></trkpt><trkpt lat="45.601947728168504" lon="10.013519877053522"><ele>254.0</ele><time>2026-03-28T17:37:13Z</time></trkpt><trkpt lat="45.602099083417336" lon="10.013619826425536"><ele>254.0</ele><time>2026-03-28T17:37:14Z</time></trkpt><trkpt lat="45.60223483562948" lon="10.01373576536433"><ele>254.0</ele><time>2026-03-28T17:37:15Z</time></trkpt><trkpt lat="45.60236173441811" lon="10.013791614510748"><ele>254.0</ele><time>2026-03-28T17:37:16Z</time></trkpt><trkpt lat="45.602508274835714" lon="10.013813174604994"><ele>254.0</ele><time>2026-03-28T17:37:17Z</time></trkpt><trkpt lat="45.60266726964765" lon="10.013800912812526"><ele>253.0</ele><time>2026-03-28T17:37:18Z</time></trkpt><trkpt lat="45.602850416249254" lon="10.013681170344437"><ele>252.0</ele><time>2026-03-28T17:37:19Z</time></trkpt><trkpt lat="45.60300599205021" lon="10.013603183636443"><ele>251.0</ele><time>2026-03-28T17:37:20Z</time></trkpt><trkpt lat="45.60312834219335" lon="10.01353596740397"><ele>251.0</ele><time>2026-03-28T17:37:21Z</time></trkpt><trkpt lat="45.60321561198706" lon="10.013429687838347"><ele>251.0</ele><time>2026-03-28T17:37:22Z</time></trkpt><trkpt lat="45.603291537830835" lon="10.013384671824916"><ele>251.0</ele><time>2026-03-28T17:37:23Z</time></trkpt><trkpt lat="45.60337025682914" lon="10.013270622194566"><ele>251.0</ele><time>2026-03-28T17:37:25Z</time></trkpt><trkpt lat="45.60339247754202" lon="10.01304119270768"><ele>251.00000000000003</ele><time>2026-03-28T17:37:34Z</time></trkpt><trkpt lat="45.60344082845353" lon="10.012959675662945"><ele>251.0</ele><time>2026-03-28T17:37:36Z</time></trkpt><trkpt lat="45.603396811043446" lon="10.013065961271845"><ele>251.0</ele><time>2026-03-28T17:38:15Z</time></trkpt><trkpt lat="45.60336972453815" lon="10.013158851217373"><ele>251.0</ele><time>2026-03-28T17:38:17Z</time></trkpt><trkpt lat="45.60340843989729" lon="10.013233002694285"><ele>251.00000000000003</ele><time>2026-03-28T17:38:19Z</time></trkpt><trkpt lat="45.60334208332492" lon="10.013322689947573"><ele>251.0</ele><time>2026-03-28T17:38:22Z</time></trkpt><trkpt lat="45.60327986082148" lon="10.013281676404947"><ele>251.0</ele><time>2026-03-28T17:38:24Z</time></trkpt><trkpt lat="45.60337470075292" lon="10.013391648997208"><ele>251.0</ele><time>2026-03-28T17:39:23Z</time></trkpt><trkpt lat="45.60349378602665" lon="10.013390755022176"><ele>251.0</ele><time>2026-03-28T17:39:25Z</time></trkpt><trkpt lat="45.603616976878136" lon="10.01341714316489"><ele>251.0</ele><time>2026-03-28T17:39:27Z</time></trkpt><trkpt lat="45.60352618044458" lon="10.013378040734027"><ele>251.0</ele><time>2026-03-28T17:39:40Z</time></trkpt><trkpt lat="45.60341058283446" lon="10.013368969012223"><ele>251.00000000000003</ele><time>2026-03-28T17:39:47Z</time></trkpt><trkpt lat="45.60337627203844" lon="10.013178300691512"><ele>251.00000000000003</ele><time>2026-03-28T17:39:51Z</time></trkpt><trkpt lat="45.60336691216586" lon="10.013076217653584"><ele>251.0</ele><time>2026-03-28T17:39:53Z</time></trkpt><trkpt lat="45.60342218336418" lon="10.012996523647068"><ele>251.0</ele><time>2026-03-28T17:39:56Z</time></trkpt><trkpt lat="45.60348086653778" lon="10.012880507750296"><ele>251.0</ele><time>2026-03-28T17:39:58Z</time></trkpt><trkpt lat="45.603427001484434" lon="10.012931068049618"><ele>251.00000000000003</ele><time>2026-03-28T17:41:10Z</time></trkpt><trkpt lat="45.603353492401" lon="10.013060352678368"><ele>251.00000000000003</ele><time>2026-03-28T17:41:14Z</time></trkpt><trkpt lat="45.6033122041991" lon="10.013168447763164"><ele>251.0</ele><time>2026-03-28T17:41:16Z</time></trkpt><trkpt lat="45.603273735052454" lon="10.01335327338828"><ele>251.0</ele><time>2026-03-28T17:41:21Z</time></trkpt><trkpt lat="45.603197854655356" lon="10.013382541686195"><ele>251.0</ele><time>2026-03-28T17:41:22Z</time></trkpt><trkpt lat="45.60312833694688" lon="10.013427841942702"><ele>251.00000000000003</ele><time>2026-03-28T17:41:23Z</time></trkpt><trkpt lat="45.6030537699676" lon="10.013509340748751"><ele>251.00000000000003</ele><time>2026-03-28T17:41:24Z</time></trkpt><trkpt lat="45.602971012878584" lon="10.013602036603666"><ele>251.0</ele><time>2026-03-28T17:41:25Z</time></trkpt><trkpt lat="45.60286616113061" lon="10.013680895309854"><ele>251.0</ele><time>2026-03-28T17:41:26Z</time></trkpt><trkpt lat="45.602749470518404" lon="10.01373556678373"><ele>251.75</ele><time>2026-03-28T17:41:27Z</time></trkpt><trkpt lat="45.60262405158751" lon="10.013776582096131"><ele>252.5</ele><time>2026-03-28T17:41:28Z</time></trkpt><trkpt lat="45.60248614165379" lon="10.013796572605008"><ele>253.25</ele><time>2026-03-28T17:41:29Z</time></trkpt><trkpt lat="45.60236654378581" lon="10.013808566276014"><ele>254.0</ele><time>2026-03-28T17:41:30Z</time></trkpt><trkpt lat="45.602240280859014" lon="10.013779821486564"><ele>254.0</ele><time>2026-03-28T17:41:31Z</time></trkpt><trkpt lat="45.60210667668339" lon="10.013713736996243"><ele>254.0</ele><time>2026-03-28T17:41:32Z</time></trkpt><trkpt lat="45.60196770656618" lon="10.01359171165868"><ele>254.0</ele><time>2026-03-28T17:41:33Z</time></trkpt><trkpt lat="45.60184588856422" lon="10.01347455371493"><ele>254.0</ele><time>2026-03-28T17:41:34Z</time></trkpt><trkpt lat="45.60175607676311" lon="10.013480677649222"><ele>253.99999999999997</ele><time>2026-03-28T17:41:35Z</time></trkpt><trkpt lat="45.601682807783256" lon="10.013506657777938"><ele>253.99999999999997</ele><time>2026-03-28T17:41:36Z</time></trkpt><trkpt lat="45.60161846055637" lon="10.01352120124272"><ele>254.0</ele><time>2026-03-28T17:41:37Z</time></trkpt><trkpt lat="45.60154049248942" lon="10.013554887027466"><ele>254.0</ele><time>2026-03-28T17:41:38Z</time></trkpt><trkpt lat="45.6015566692538" lon="10.0142412651702"><ele>254.0</ele><time>2026-03-28T17:41:40Z</time></trkpt><trkpt lat="45.60153026981039" lon="10.014443938771644"><ele>253.99999999999997</ele><time>2026-03-28T17:41:41Z</time></trkpt><trkpt lat="45.60150635158075" lon="10.014587813553874"><ele>253.99999999999997</ele><time>2026-03-28T17:41:42Z</time></trkpt><trkpt lat="45.601475585954134" lon="10.014673513195328"><ele>254.0</ele><time>2026-03-28T17:41:43Z</time></trkpt><trkpt lat="45.60135330571388" lon="10.014698136566691"><ele>254.0</ele><time>2026-03-28T17:41:45Z</time></trkpt><trkpt lat="45.601233203736506" lon="10.014641499498227"><ele>256.6666666666667</ele><time>2026-03-28T17:41:46Z</time></trkpt><trkpt lat="45.60108337017802" lon="10.014584307621574"><ele>259.3333333333333</ele><time>2026-03-28T17:41:47Z</time></trkpt><trkpt lat="45.60091542870332" lon="10.01454551696729"><ele>262.0</ele><time>2026-03-28T17:41:48Z</time></trkpt><trkpt lat="45.60072434804858" lon="10.014514740553077"><ele>262.0</ele><time>2026-03-28T17:41:49Z</time></trkpt><trkpt lat="45.600529353635984" lon="10.014484538399687"><ele>262.0</ele><time>2026-03-28T17:41:50Z</time></trkpt><trkpt lat="45.60034465516646" lon="10.014450639405418"><ele>262.0</ele><time>2026-03-28T17:41:51Z</time></trkpt><trkpt lat="45.60018810880745" lon="10.0144066370622"><ele>263.2</ele><time>2026-03-28T17:41:52Z</time></trkpt><trkpt lat="45.60009388595706" lon="10.01438265578636"><ele>264.4</ele><time>2026-03-28T17:41:53Z</time></trkpt><trkpt lat="45.600027904433006" lon="10.01439067208016"><ele>265.6</ele><time>2026-03-28T17:41:54Z</time></trkpt><trkpt lat="45.599977494024905" lon="10.01457361108026"><ele>266.8</ele><time>2026-03-28T17:41:56Z</time></trkpt><trkpt lat="45.599988979027984" lon="10.014734824569556"><ele>268.0</ele><time>2026-03-28T17:41:57Z</time></trkpt><trkpt lat="45.599966601045345" lon="10.014970860453142"><ele>268.66666666666663</ele><time>2026-03-28T17:41:58Z</time></trkpt><trkpt lat="45.599942035607974" lon="10.015253764368099"><ele>269.3333333333333</ele><time>2026-03-28T17:41:59Z</time></trkpt><trkpt lat="45.599913143618835" lon="10.015547913626179"><ele>270.0</ele><time>2026-03-28T17:42:00Z</time></trkpt><trkpt lat="45.59989431061704" lon="10.015780410625437"><ele>269.5</ele><time>2026-03-28T17:42:01Z</time></trkpt><trkpt lat="45.599898092596746" lon="10.015953155926265"><ele>269.0</ele><time>2026-03-28T17:42:02Z</time></trkpt><trkpt lat="45.59989407821025" lon="10.016093706434988"><ele>268.5</ele><time>2026-03-28T17:42:03Z</time></trkpt><trkpt lat="45.599879563702025" lon="10.016239083015526"><ele>268.0</ele><time>2026-03-28T17:42:04Z</time></trkpt><trkpt lat="45.59983347761579" lon="10.01643650794464"><ele>266.0</ele><time>2026-03-28T17:42:05Z</time></trkpt><trkpt lat="45.59978292085729" lon="10.016681390977277"><ele>264.0</ele><time>2026-03-28T17:42:06Z</time></trkpt><trkpt lat="45.599736829356324" lon="10.016945434741087"><ele>262.0</ele><time>2026-03-28T17:42:07Z</time></trkpt><trkpt lat="45.59969197195116" lon="10.017220212454248"><ele>262.0</ele><time>2026-03-28T17:42:08Z</time></trkpt><trkpt lat="45.5996852308415" lon="10.017409418471667"><ele>262.0</ele><time>2026-03-28T17:42:09Z</time></trkpt><trkpt lat="45.599705135230266" lon="10.017543310316583"><ele>262.0</ele><time>2026-03-28T17:42:10Z</time></trkpt><trkpt lat="45.59973925261325" lon="10.017632399435756"><ele>262.0</ele><time>2026-03-28T17:42:11Z</time></trkpt><trkpt lat="45.59979795698475" lon="10.017708935625398"><ele>262.0</ele><time>2026-03-28T17:42:12Z</time></trkpt><trkpt lat="45.59988095439281" lon="10.01778741936894"><ele>262.0</ele><time>2026-03-28T17:42:13Z</time></trkpt><trkpt lat="45.59996240940009" lon="10.01788081573339"><ele>262.0</ele><time>2026-03-28T17:42:15Z</time></trkpt><trkpt lat="45.600045029603955" lon="10.01783664959571"><ele>262.0</ele><time>2026-03-28T17:42:17Z</time></trkpt><trkpt lat="45.60010039284359" lon="10.017718419264225"><ele>262.0</ele><time>2026-03-28T17:42:18Z</time></trkpt><trkpt lat="45.600194402958515" lon="10.017557603962075"><ele>262.0</ele><time>2026-03-28T17:42:19Z</time></trkpt><trkpt lat="45.60026934927387" lon="10.01739592146338"><ele>262.0</ele><time>2026-03-28T17:42:20Z</time></trkpt><trkpt lat="45.600263745400845" lon="10.017279300944057"><ele>262.0</ele><time>2026-03-28T17:42:22Z</time></trkpt><trkpt lat="45.600310463215884" lon="10.017125657276473"><ele>262.0</ele><time>2026-03-28T17:42:25Z</time></trkpt><trkpt lat="45.60034410446643" lon="10.017033284387793"><ele>262.0</ele><time>2026-03-28T17:42:26Z</time></trkpt><trkpt lat="45.600334107906896" lon="10.01692114294023"><ele>262.0</ele><time>2026-03-28T17:42:29Z</time></trkpt><trkpt lat="45.600339395864104" lon="10.01682107090799"><ele>262.0</ele><time>2026-03-28T17:42:33Z</time></trkpt><trkpt lat="45.600350780985146" lon="10.016714405290333"><ele>255.0</ele><time>2026-03-28T17:42:36Z</time></trkpt><trkpt lat="45.60035177168626" lon="10.01661520693286"><ele>258.0</ele><time>2026-03-28T17:42:43Z</time></trkpt></trkseg></trk></gpx>